<?xml version="1.0" encoding="UTF-8" standalone="no" ?>
<gpx xmlns="http://www.topografix.com/GPX/1/1" xmlns:xsi="http://www.w3.org/2001/XMLSchema-instance" xsi:schemaLocation="http://www.topografix.com/GPX/1/1 http://www.topografix.com/GPX/1/1/gpx.xsd" version="1.1" creator="VisuGPX - https://www.visugpx.com">
  <metadata>
    <name> Super Saxel Ludran Les Voirons</name>
    <desc><![CDATA[
]]></desc>
  </metadata>
  <trk>
    <name><![CDATA[200208125816 on AllTrails]]></name>
    <trkseg>
      <trkpt lat="46.19708" lon="6.25218">
        <ele>451</ele>
        <time>2020-02-08T11:01:21Z</time>
      </trkpt>
      <trkpt lat="46.19721" lon="6.25217">
        <ele>451</ele>
        <time>2020-02-08T11:01:25Z</time>
      </trkpt>
      <trkpt lat="46.19738" lon="6.25217">
        <ele>452</ele>
        <time>2020-02-08T11:01:29Z</time>
      </trkpt>
      <trkpt lat="46.19762" lon="6.25225">
        <ele>453</ele>
        <time>2020-02-08T11:01:33Z</time>
      </trkpt>
      <trkpt lat="46.19785" lon="6.25225">
        <ele>455</ele>
        <time>2020-02-08T11:01:37Z</time>
      </trkpt>
      <trkpt lat="46.19815" lon="6.25223">
        <ele>458</ele>
        <time>2020-02-08T11:01:41Z</time>
      </trkpt>
      <trkpt lat="46.19846" lon="6.25216">
        <ele>456</ele>
        <time>2020-02-08T11:01:45Z</time>
      </trkpt>
      <trkpt lat="46.19877" lon="6.25209">
        <ele>455</ele>
        <time>2020-02-08T11:01:49Z</time>
      </trkpt>
      <trkpt lat="46.19908" lon="6.25196">
        <ele>454</ele>
        <time>2020-02-08T11:01:53Z</time>
      </trkpt>
      <trkpt lat="46.19938" lon="6.25182">
        <ele>454</ele>
        <time>2020-02-08T11:01:57Z</time>
      </trkpt>
      <trkpt lat="46.19967" lon="6.25164">
        <ele>451</ele>
        <time>2020-02-08T11:02:01Z</time>
      </trkpt>
      <trkpt lat="46.19996" lon="6.25158">
        <ele>450</ele>
        <time>2020-02-08T11:02:05Z</time>
      </trkpt>
      <trkpt lat="46.20021" lon="6.25159">
        <ele>449</ele>
        <time>2020-02-08T11:02:09Z</time>
      </trkpt>
      <trkpt lat="46.20025" lon="6.25177">
        <ele>450</ele>
        <time>2020-02-08T11:02:13Z</time>
      </trkpt>
      <trkpt lat="46.20024" lon="6.25201">
        <ele>452</ele>
        <time>2020-02-08T11:02:17Z</time>
      </trkpt>
      <trkpt lat="46.20022" lon="6.25227">
        <ele>454</ele>
        <time>2020-02-08T11:02:21Z</time>
      </trkpt>
      <trkpt lat="46.20021" lon="6.25253">
        <ele>455</ele>
        <time>2020-02-08T11:02:25Z</time>
      </trkpt>
      <trkpt lat="46.20019" lon="6.25279">
        <ele>456</ele>
        <time>2020-02-08T11:02:29Z</time>
      </trkpt>
      <trkpt lat="46.20017" lon="6.25304">
        <ele>457</ele>
        <time>2020-02-08T11:02:33Z</time>
      </trkpt>
      <trkpt lat="46.20015" lon="6.2533">
        <ele>457</ele>
        <time>2020-02-08T11:02:37Z</time>
      </trkpt>
      <trkpt lat="46.2001" lon="6.25354">
        <ele>458</ele>
        <time>2020-02-08T11:02:41Z</time>
      </trkpt>
      <trkpt lat="46.20007" lon="6.25378">
        <ele>460</ele>
        <time>2020-02-08T11:02:45Z</time>
      </trkpt>
      <trkpt lat="46.20005" lon="6.25403">
        <ele>461</ele>
        <time>2020-02-08T11:02:49Z</time>
      </trkpt>
      <trkpt lat="46.20002" lon="6.25429">
        <ele>463</ele>
        <time>2020-02-08T11:02:53Z</time>
      </trkpt>
      <trkpt lat="46.19999" lon="6.25455">
        <ele>465</ele>
        <time>2020-02-08T11:02:57Z</time>
      </trkpt>
      <trkpt lat="46.19998" lon="6.2548">
        <ele>466</ele>
        <time>2020-02-08T11:03:01Z</time>
      </trkpt>
      <trkpt lat="46.19994" lon="6.25507">
        <ele>466</ele>
        <time>2020-02-08T11:03:05Z</time>
      </trkpt>
      <trkpt lat="46.19992" lon="6.25535">
        <ele>465</ele>
        <time>2020-02-08T11:03:09Z</time>
      </trkpt>
      <trkpt lat="46.19988" lon="6.25563">
        <ele>465</ele>
        <time>2020-02-08T11:03:13Z</time>
      </trkpt>
      <trkpt lat="46.19987" lon="6.25591">
        <ele>466</ele>
        <time>2020-02-08T11:03:17Z</time>
      </trkpt>
      <trkpt lat="46.19984" lon="6.25617">
        <ele>465</ele>
        <time>2020-02-08T11:03:21Z</time>
      </trkpt>
      <trkpt lat="46.19981" lon="6.25646">
        <ele>465</ele>
        <time>2020-02-08T11:03:25Z</time>
      </trkpt>
      <trkpt lat="46.19978" lon="6.25672">
        <ele>466</ele>
        <time>2020-02-08T11:03:29Z</time>
      </trkpt>
      <trkpt lat="46.19976" lon="6.257">
        <ele>467</ele>
        <time>2020-02-08T11:03:33Z</time>
      </trkpt>
      <trkpt lat="46.19973" lon="6.25725">
        <ele>470</ele>
        <time>2020-02-08T11:03:37Z</time>
      </trkpt>
      <trkpt lat="46.1997" lon="6.25749">
        <ele>471</ele>
        <time>2020-02-08T11:03:41Z</time>
      </trkpt>
      <trkpt lat="46.19968" lon="6.25776">
        <ele>471</ele>
        <time>2020-02-08T11:03:45Z</time>
      </trkpt>
      <trkpt lat="46.19966" lon="6.25802">
        <ele>471</ele>
        <time>2020-02-08T11:03:49Z</time>
      </trkpt>
      <trkpt lat="46.19965" lon="6.25827">
        <ele>473</ele>
        <time>2020-02-08T11:03:53Z</time>
      </trkpt>
      <trkpt lat="46.19965" lon="6.25854">
        <ele>474</ele>
        <time>2020-02-08T11:03:57Z</time>
      </trkpt>
      <trkpt lat="46.19962" lon="6.25881">
        <ele>475</ele>
        <time>2020-02-08T11:04:01Z</time>
      </trkpt>
      <trkpt lat="46.1996" lon="6.25907">
        <ele>476</ele>
        <time>2020-02-08T11:04:05Z</time>
      </trkpt>
      <trkpt lat="46.19958" lon="6.25935">
        <ele>476</ele>
        <time>2020-02-08T11:04:09Z</time>
      </trkpt>
      <trkpt lat="46.19957" lon="6.25963">
        <ele>477</ele>
        <time>2020-02-08T11:04:13Z</time>
      </trkpt>
      <trkpt lat="46.19954" lon="6.25991">
        <ele>478</ele>
        <time>2020-02-08T11:04:17Z</time>
      </trkpt>
      <trkpt lat="46.19953" lon="6.2602">
        <ele>478</ele>
        <time>2020-02-08T11:04:21Z</time>
      </trkpt>
      <trkpt lat="46.19957" lon="6.26047">
        <ele>480</ele>
        <time>2020-02-08T11:04:25Z</time>
      </trkpt>
      <trkpt lat="46.19965" lon="6.26073">
        <ele>481</ele>
        <time>2020-02-08T11:04:29Z</time>
      </trkpt>
      <trkpt lat="46.19971" lon="6.26101">
        <ele>481</ele>
        <time>2020-02-08T11:04:33Z</time>
      </trkpt>
      <trkpt lat="46.19971" lon="6.26131">
        <ele>481</ele>
        <time>2020-02-08T11:04:37Z</time>
      </trkpt>
      <trkpt lat="46.19968" lon="6.2616">
        <ele>479</ele>
        <time>2020-02-08T11:04:41Z</time>
      </trkpt>
      <trkpt lat="46.19964" lon="6.2619">
        <ele>479</ele>
        <time>2020-02-08T11:04:45Z</time>
      </trkpt>
      <trkpt lat="46.1996" lon="6.2622">
        <ele>480</ele>
        <time>2020-02-08T11:04:49Z</time>
      </trkpt>
      <trkpt lat="46.19954" lon="6.2625">
        <ele>483</ele>
        <time>2020-02-08T11:04:53Z</time>
      </trkpt>
      <trkpt lat="46.1995" lon="6.26282">
        <ele>484</ele>
        <time>2020-02-08T11:04:57Z</time>
      </trkpt>
      <trkpt lat="46.19946" lon="6.26313">
        <ele>484</ele>
        <time>2020-02-08T11:05:01Z</time>
      </trkpt>
      <trkpt lat="46.19943" lon="6.26344">
        <ele>484</ele>
        <time>2020-02-08T11:05:05Z</time>
      </trkpt>
      <trkpt lat="46.19939" lon="6.26374">
        <ele>484</ele>
        <time>2020-02-08T11:05:09Z</time>
      </trkpt>
      <trkpt lat="46.19936" lon="6.26393">
        <ele>484</ele>
        <time>2020-02-08T11:05:13Z</time>
      </trkpt>
      <trkpt lat="46.19936" lon="6.26401">
        <ele>484</ele>
        <time>2020-02-08T11:05:21Z</time>
      </trkpt>
      <trkpt lat="46.19938" lon="6.26412">
        <ele>484</ele>
        <time>2020-02-08T11:05:25Z</time>
      </trkpt>
      <trkpt lat="46.19949" lon="6.26415">
        <ele>484</ele>
        <time>2020-02-08T11:05:29Z</time>
      </trkpt>
      <trkpt lat="46.19963" lon="6.26419">
        <ele>484</ele>
        <time>2020-02-08T11:05:33Z</time>
      </trkpt>
      <trkpt lat="46.19981" lon="6.26422">
        <ele>485</ele>
        <time>2020-02-08T11:05:37Z</time>
      </trkpt>
      <trkpt lat="46.20004" lon="6.26427">
        <ele>485</ele>
        <time>2020-02-08T11:05:41Z</time>
      </trkpt>
      <trkpt lat="46.20026" lon="6.26437">
        <ele>486</ele>
        <time>2020-02-08T11:05:45Z</time>
      </trkpt>
      <trkpt lat="46.20041" lon="6.26449">
        <ele>487</ele>
        <time>2020-02-08T11:05:49Z</time>
      </trkpt>
      <trkpt lat="46.20055" lon="6.26449">
        <ele>487</ele>
        <time>2020-02-08T11:05:53Z</time>
      </trkpt>
      <trkpt lat="46.20077" lon="6.26439">
        <ele>487</ele>
        <time>2020-02-08T11:05:57Z</time>
      </trkpt>
      <trkpt lat="46.201" lon="6.26445">
        <ele>486</ele>
        <time>2020-02-08T11:06:01Z</time>
      </trkpt>
      <trkpt lat="46.20124" lon="6.26442">
        <ele>485</ele>
        <time>2020-02-08T11:06:05Z</time>
      </trkpt>
      <trkpt lat="46.20149" lon="6.26429">
        <ele>485</ele>
        <time>2020-02-08T11:06:09Z</time>
      </trkpt>
      <trkpt lat="46.20177" lon="6.26445">
        <ele>486</ele>
        <time>2020-02-08T11:06:13Z</time>
      </trkpt>
      <trkpt lat="46.20201" lon="6.2647">
        <ele>487</ele>
        <time>2020-02-08T11:06:17Z</time>
      </trkpt>
      <trkpt lat="46.20228" lon="6.26484">
        <ele>488</ele>
        <time>2020-02-08T11:06:21Z</time>
      </trkpt>
      <trkpt lat="46.20254" lon="6.26489">
        <ele>487</ele>
        <time>2020-02-08T11:06:25Z</time>
      </trkpt>
      <trkpt lat="46.20285" lon="6.26492">
        <ele>487</ele>
        <time>2020-02-08T11:06:29Z</time>
      </trkpt>
      <trkpt lat="46.20316" lon="6.26499">
        <ele>487</ele>
        <time>2020-02-08T11:06:33Z</time>
      </trkpt>
      <trkpt lat="46.20346" lon="6.26503">
        <ele>487</ele>
        <time>2020-02-08T11:06:37Z</time>
      </trkpt>
      <trkpt lat="46.20378" lon="6.26515">
        <ele>485</ele>
        <time>2020-02-08T11:06:41Z</time>
      </trkpt>
      <trkpt lat="46.20388" lon="6.26555">
        <ele>486</ele>
        <time>2020-02-08T11:06:45Z</time>
      </trkpt>
      <trkpt lat="46.20388" lon="6.26596">
        <ele>488</ele>
        <time>2020-02-08T11:06:49Z</time>
      </trkpt>
      <trkpt lat="46.20386" lon="6.26633">
        <ele>488</ele>
        <time>2020-02-08T11:06:53Z</time>
      </trkpt>
      <trkpt lat="46.20383" lon="6.26671">
        <ele>488</ele>
        <time>2020-02-08T11:06:57Z</time>
      </trkpt>
      <trkpt lat="46.20386" lon="6.26709">
        <ele>489</ele>
        <time>2020-02-08T11:07:01Z</time>
      </trkpt>
      <trkpt lat="46.204" lon="6.26741">
        <ele>489</ele>
        <time>2020-02-08T11:07:05Z</time>
      </trkpt>
      <trkpt lat="46.20414" lon="6.26772">
        <ele>489</ele>
        <time>2020-02-08T11:07:09Z</time>
      </trkpt>
      <trkpt lat="46.20422" lon="6.26807">
        <ele>491</ele>
        <time>2020-02-08T11:07:13Z</time>
      </trkpt>
      <trkpt lat="46.20421" lon="6.26844">
        <ele>493</ele>
        <time>2020-02-08T11:07:17Z</time>
      </trkpt>
      <trkpt lat="46.20418" lon="6.2688">
        <ele>493</ele>
        <time>2020-02-08T11:07:21Z</time>
      </trkpt>
      <trkpt lat="46.20416" lon="6.26915">
        <ele>493</ele>
        <time>2020-02-08T11:07:25Z</time>
      </trkpt>
      <trkpt lat="46.20415" lon="6.26949">
        <ele>496</ele>
        <time>2020-02-08T11:07:29Z</time>
      </trkpt>
      <trkpt lat="46.20412" lon="6.26983">
        <ele>496</ele>
        <time>2020-02-08T11:07:33Z</time>
      </trkpt>
      <trkpt lat="46.20409" lon="6.27017">
        <ele>497</ele>
        <time>2020-02-08T11:07:37Z</time>
      </trkpt>
      <trkpt lat="46.20407" lon="6.27052">
        <ele>497</ele>
        <time>2020-02-08T11:07:41Z</time>
      </trkpt>
      <trkpt lat="46.20405" lon="6.27086">
        <ele>498</ele>
        <time>2020-02-08T11:07:45Z</time>
      </trkpt>
      <trkpt lat="46.20403" lon="6.2712">
        <ele>500</ele>
        <time>2020-02-08T11:07:49Z</time>
      </trkpt>
      <trkpt lat="46.204" lon="6.27155">
        <ele>502</ele>
        <time>2020-02-08T11:07:53Z</time>
      </trkpt>
      <trkpt lat="46.20388" lon="6.27184">
        <ele>502</ele>
        <time>2020-02-08T11:07:57Z</time>
      </trkpt>
      <trkpt lat="46.20368" lon="6.27206">
        <ele>501</ele>
        <time>2020-02-08T11:08:01Z</time>
      </trkpt>
      <trkpt lat="46.20348" lon="6.27226">
        <ele>500</ele>
        <time>2020-02-08T11:08:05Z</time>
      </trkpt>
      <trkpt lat="46.20328" lon="6.27246">
        <ele>500</ele>
        <time>2020-02-08T11:08:09Z</time>
      </trkpt>
      <trkpt lat="46.20314" lon="6.27267">
        <ele>500</ele>
        <time>2020-02-08T11:08:13Z</time>
      </trkpt>
      <trkpt lat="46.20321" lon="6.27293">
        <ele>500</ele>
        <time>2020-02-08T11:08:17Z</time>
      </trkpt>
      <trkpt lat="46.20331" lon="6.27321">
        <ele>500</ele>
        <time>2020-02-08T11:08:21Z</time>
      </trkpt>
      <trkpt lat="46.20341" lon="6.2735">
        <ele>500</ele>
        <time>2020-02-08T11:08:25Z</time>
      </trkpt>
      <trkpt lat="46.20352" lon="6.27379">
        <ele>501</ele>
        <time>2020-02-08T11:08:29Z</time>
      </trkpt>
      <trkpt lat="46.20363" lon="6.27408">
        <ele>502</ele>
        <time>2020-02-08T11:08:33Z</time>
      </trkpt>
      <trkpt lat="46.20374" lon="6.27438">
        <ele>502</ele>
        <time>2020-02-08T11:08:37Z</time>
      </trkpt>
      <trkpt lat="46.20385" lon="6.27468">
        <ele>503</ele>
        <time>2020-02-08T11:08:41Z</time>
      </trkpt>
      <trkpt lat="46.20396" lon="6.27498">
        <ele>505</ele>
        <time>2020-02-08T11:08:45Z</time>
      </trkpt>
      <trkpt lat="46.20407" lon="6.27528">
        <ele>506</ele>
        <time>2020-02-08T11:08:49Z</time>
      </trkpt>
      <trkpt lat="46.20417" lon="6.27557">
        <ele>507</ele>
        <time>2020-02-08T11:08:53Z</time>
      </trkpt>
      <trkpt lat="46.20423" lon="6.27577">
        <ele>507</ele>
        <time>2020-02-08T11:08:57Z</time>
      </trkpt>
      <trkpt lat="46.2043" lon="6.27587">
        <ele>506</ele>
        <time>2020-02-08T11:09:01Z</time>
      </trkpt>
      <trkpt lat="46.20447" lon="6.27577">
        <ele>507</ele>
        <time>2020-02-08T11:09:05Z</time>
      </trkpt>
      <trkpt lat="46.20467" lon="6.27562">
        <ele>507</ele>
        <time>2020-02-08T11:09:09Z</time>
      </trkpt>
      <trkpt lat="46.20488" lon="6.27546">
        <ele>507</ele>
        <time>2020-02-08T11:09:13Z</time>
      </trkpt>
      <trkpt lat="46.20512" lon="6.27529">
        <ele>506</ele>
        <time>2020-02-08T11:09:17Z</time>
      </trkpt>
      <trkpt lat="46.20537" lon="6.27529">
        <ele>507</ele>
        <time>2020-02-08T11:09:21Z</time>
      </trkpt>
      <trkpt lat="46.20554" lon="6.27559">
        <ele>506</ele>
        <time>2020-02-08T11:09:25Z</time>
      </trkpt>
      <trkpt lat="46.20567" lon="6.27594">
        <ele>507</ele>
        <time>2020-02-08T11:09:29Z</time>
      </trkpt>
      <trkpt lat="46.2058" lon="6.27627">
        <ele>508</ele>
        <time>2020-02-08T11:09:33Z</time>
      </trkpt>
      <trkpt lat="46.20592" lon="6.2766">
        <ele>508</ele>
        <time>2020-02-08T11:09:37Z</time>
      </trkpt>
      <trkpt lat="46.20605" lon="6.27692">
        <ele>508</ele>
        <time>2020-02-08T11:09:41Z</time>
      </trkpt>
      <trkpt lat="46.20616" lon="6.27723">
        <ele>509</ele>
        <time>2020-02-08T11:09:45Z</time>
      </trkpt>
      <trkpt lat="46.20627" lon="6.27754">
        <ele>509</ele>
        <time>2020-02-08T11:09:49Z</time>
      </trkpt>
      <trkpt lat="46.20638" lon="6.27785">
        <ele>509</ele>
        <time>2020-02-08T11:09:53Z</time>
      </trkpt>
      <trkpt lat="46.20648" lon="6.27815">
        <ele>509</ele>
        <time>2020-02-08T11:09:57Z</time>
      </trkpt>
      <trkpt lat="46.20658" lon="6.27846">
        <ele>509</ele>
        <time>2020-02-08T11:10:01Z</time>
      </trkpt>
      <trkpt lat="46.20669" lon="6.27877">
        <ele>511</ele>
        <time>2020-02-08T11:10:05Z</time>
      </trkpt>
      <trkpt lat="46.2068" lon="6.27908">
        <ele>512</ele>
        <time>2020-02-08T11:10:09Z</time>
      </trkpt>
      <trkpt lat="46.2069" lon="6.27935">
        <ele>513</ele>
        <time>2020-02-08T11:10:13Z</time>
      </trkpt>
      <trkpt lat="46.20685" lon="6.27958">
        <ele>513</ele>
        <time>2020-02-08T11:10:17Z</time>
      </trkpt>
      <trkpt lat="46.20667" lon="6.27973">
        <ele>514</ele>
        <time>2020-02-08T11:10:21Z</time>
      </trkpt>
      <trkpt lat="46.20647" lon="6.2799">
        <ele>513</ele>
        <time>2020-02-08T11:10:25Z</time>
      </trkpt>
      <trkpt lat="46.20626" lon="6.28007">
        <ele>513</ele>
        <time>2020-02-08T11:10:29Z</time>
      </trkpt>
      <trkpt lat="46.20604" lon="6.28022">
        <ele>513</ele>
        <time>2020-02-08T11:10:33Z</time>
      </trkpt>
      <trkpt lat="46.2058" lon="6.28039">
        <ele>513</ele>
        <time>2020-02-08T11:10:37Z</time>
      </trkpt>
      <trkpt lat="46.20556" lon="6.28057">
        <ele>513</ele>
        <time>2020-02-08T11:10:41Z</time>
      </trkpt>
      <trkpt lat="46.20532" lon="6.28076">
        <ele>513</ele>
        <time>2020-02-08T11:10:45Z</time>
      </trkpt>
      <trkpt lat="46.2051" lon="6.28094">
        <ele>513</ele>
        <time>2020-02-08T11:10:49Z</time>
      </trkpt>
      <trkpt lat="46.20488" lon="6.28099">
        <ele>514</ele>
        <time>2020-02-08T11:10:53Z</time>
      </trkpt>
      <trkpt lat="46.20475" lon="6.28117">
        <ele>514</ele>
        <time>2020-02-08T11:10:57Z</time>
      </trkpt>
      <trkpt lat="46.20487" lon="6.28144">
        <ele>513</ele>
        <time>2020-02-08T11:11:01Z</time>
      </trkpt>
      <trkpt lat="46.205" lon="6.28174">
        <ele>514</ele>
        <time>2020-02-08T11:11:05Z</time>
      </trkpt>
      <trkpt lat="46.20511" lon="6.28204">
        <ele>515</ele>
        <time>2020-02-08T11:11:09Z</time>
      </trkpt>
      <trkpt lat="46.20523" lon="6.28235">
        <ele>516</ele>
        <time>2020-02-08T11:11:13Z</time>
      </trkpt>
      <trkpt lat="46.20535" lon="6.28265">
        <ele>518</ele>
        <time>2020-02-08T11:11:17Z</time>
      </trkpt>
      <trkpt lat="46.20546" lon="6.28296">
        <ele>518</ele>
        <time>2020-02-08T11:11:21Z</time>
      </trkpt>
      <trkpt lat="46.20557" lon="6.28326">
        <ele>518</ele>
        <time>2020-02-08T11:11:25Z</time>
      </trkpt>
      <trkpt lat="46.20568" lon="6.28357">
        <ele>519</ele>
        <time>2020-02-08T11:11:29Z</time>
      </trkpt>
      <trkpt lat="46.20579" lon="6.28387">
        <ele>521</ele>
        <time>2020-02-08T11:11:33Z</time>
      </trkpt>
      <trkpt lat="46.2059" lon="6.28417">
        <ele>523</ele>
        <time>2020-02-08T11:11:37Z</time>
      </trkpt>
      <trkpt lat="46.20601" lon="6.28447">
        <ele>523</ele>
        <time>2020-02-08T11:11:41Z</time>
      </trkpt>
      <trkpt lat="46.20612" lon="6.28477">
        <ele>524</ele>
        <time>2020-02-08T11:11:45Z</time>
      </trkpt>
      <trkpt lat="46.20624" lon="6.28507">
        <ele>523</ele>
        <time>2020-02-08T11:11:49Z</time>
      </trkpt>
      <trkpt lat="46.20635" lon="6.28538">
        <ele>523</ele>
        <time>2020-02-08T11:11:53Z</time>
      </trkpt>
      <trkpt lat="46.20647" lon="6.28567">
        <ele>524</ele>
        <time>2020-02-08T11:11:57Z</time>
      </trkpt>
      <trkpt lat="46.20655" lon="6.28595">
        <ele>526</ele>
        <time>2020-02-08T11:12:01Z</time>
      </trkpt>
      <trkpt lat="46.20659" lon="6.28625">
        <ele>527</ele>
        <time>2020-02-08T11:12:05Z</time>
      </trkpt>
      <trkpt lat="46.20678" lon="6.28629">
        <ele>528</ele>
        <time>2020-02-08T11:12:09Z</time>
      </trkpt>
      <trkpt lat="46.2069" lon="6.28598">
        <ele>527</ele>
        <time>2020-02-08T11:12:13Z</time>
      </trkpt>
      <trkpt lat="46.20711" lon="6.2857">
        <ele>525</ele>
        <time>2020-02-08T11:12:17Z</time>
      </trkpt>
      <trkpt lat="46.20735" lon="6.28541">
        <ele>523</ele>
        <time>2020-02-08T11:12:21Z</time>
      </trkpt>
      <trkpt lat="46.20763" lon="6.28522">
        <ele>523</ele>
        <time>2020-02-08T11:12:25Z</time>
      </trkpt>
      <trkpt lat="46.20795" lon="6.28508">
        <ele>523</ele>
        <time>2020-02-08T11:12:29Z</time>
      </trkpt>
      <trkpt lat="46.20823" lon="6.28484">
        <ele>522</ele>
        <time>2020-02-08T11:12:33Z</time>
      </trkpt>
      <trkpt lat="46.2085" lon="6.28458">
        <ele>521</ele>
        <time>2020-02-08T11:12:37Z</time>
      </trkpt>
      <trkpt lat="46.20877" lon="6.28433">
        <ele>520</ele>
        <time>2020-02-08T11:12:41Z</time>
      </trkpt>
      <trkpt lat="46.20908" lon="6.28407">
        <ele>519</ele>
        <time>2020-02-08T11:12:45Z</time>
      </trkpt>
      <trkpt lat="46.20936" lon="6.28378">
        <ele>518</ele>
        <time>2020-02-08T11:12:49Z</time>
      </trkpt>
      <trkpt lat="46.20965" lon="6.28351">
        <ele>518</ele>
        <time>2020-02-08T11:12:53Z</time>
      </trkpt>
      <trkpt lat="46.20995" lon="6.28323">
        <ele>517</ele>
        <time>2020-02-08T11:12:57Z</time>
      </trkpt>
      <trkpt lat="46.21025" lon="6.28295">
        <ele>515</ele>
        <time>2020-02-08T11:13:01Z</time>
      </trkpt>
      <trkpt lat="46.21056" lon="6.2827">
        <ele>512</ele>
        <time>2020-02-08T11:13:05Z</time>
      </trkpt>
      <trkpt lat="46.21092" lon="6.28275">
        <ele>508</ele>
        <time>2020-02-08T11:13:09Z</time>
      </trkpt>
      <trkpt lat="46.21134" lon="6.28324">
        <ele>507</ele>
        <time>2020-02-08T11:13:17Z</time>
      </trkpt>
      <trkpt lat="46.21162" lon="6.2836">
        <ele>506</ele>
        <time>2020-02-08T11:13:21Z</time>
      </trkpt>
      <trkpt lat="46.21184" lon="6.28391">
        <ele>507</ele>
        <time>2020-02-08T11:13:25Z</time>
      </trkpt>
      <trkpt lat="46.21222" lon="6.28418">
        <ele>506</ele>
        <time>2020-02-08T11:13:29Z</time>
      </trkpt>
      <trkpt lat="46.2126" lon="6.28442">
        <ele>501</ele>
        <time>2020-02-08T11:13:33Z</time>
      </trkpt>
      <trkpt lat="46.2129" lon="6.28451">
        <ele>492</ele>
        <time>2020-02-08T11:13:37Z</time>
      </trkpt>
      <trkpt lat="46.21324" lon="6.28427">
        <ele>478</ele>
        <time>2020-02-08T11:13:41Z</time>
      </trkpt>
      <trkpt lat="46.21316" lon="6.28384">
        <ele>474</ele>
        <time>2020-02-08T11:13:45Z</time>
      </trkpt>
      <trkpt lat="46.21299" lon="6.28341">
        <ele>473</ele>
        <time>2020-02-08T11:13:49Z</time>
      </trkpt>
      <trkpt lat="46.21295" lon="6.28317">
        <ele>472</ele>
        <time>2020-02-08T11:13:53Z</time>
      </trkpt>
      <trkpt lat="46.21303" lon="6.28298">
        <ele>469</ele>
        <time>2020-02-08T11:13:57Z</time>
      </trkpt>
      <trkpt lat="46.21291" lon="6.28271">
        <ele>468</ele>
        <time>2020-02-08T11:14:01Z</time>
      </trkpt>
      <trkpt lat="46.21279" lon="6.28238">
        <ele>468</ele>
        <time>2020-02-08T11:14:05Z</time>
      </trkpt>
      <trkpt lat="46.21292" lon="6.28203">
        <ele>467</ele>
        <time>2020-02-08T11:14:09Z</time>
      </trkpt>
      <trkpt lat="46.21305" lon="6.28168">
        <ele>467</ele>
        <time>2020-02-08T11:14:13Z</time>
      </trkpt>
      <trkpt lat="46.21325" lon="6.28148">
        <ele>468</ele>
        <time>2020-02-08T11:14:17Z</time>
      </trkpt>
      <trkpt lat="46.21346" lon="6.2816">
        <ele>470</ele>
        <time>2020-02-08T11:14:21Z</time>
      </trkpt>
      <trkpt lat="46.2136" lon="6.28176">
        <ele>471</ele>
        <time>2020-02-08T11:14:25Z</time>
      </trkpt>
      <trkpt lat="46.21382" lon="6.28199">
        <ele>472</ele>
        <time>2020-02-08T11:14:29Z</time>
      </trkpt>
      <trkpt lat="46.21398" lon="6.28212">
        <ele>472</ele>
        <time>2020-02-08T11:14:33Z</time>
      </trkpt>
      <trkpt lat="46.21421" lon="6.28214">
        <ele>474</ele>
        <time>2020-02-08T11:14:37Z</time>
      </trkpt>
      <trkpt lat="46.2144" lon="6.2821">
        <ele>476</ele>
        <time>2020-02-08T11:14:41Z</time>
      </trkpt>
      <trkpt lat="46.21457" lon="6.28209">
        <ele>476</ele>
        <time>2020-02-08T11:14:45Z</time>
      </trkpt>
      <trkpt lat="46.21474" lon="6.28206">
        <ele>476</ele>
        <time>2020-02-08T11:14:49Z</time>
      </trkpt>
      <trkpt lat="46.21488" lon="6.28202">
        <ele>477</ele>
        <time>2020-02-08T11:14:53Z</time>
      </trkpt>
      <trkpt lat="46.21503" lon="6.28196">
        <ele>477</ele>
        <time>2020-02-08T11:14:57Z</time>
      </trkpt>
      <trkpt lat="46.21515" lon="6.28184">
        <ele>479</ele>
        <time>2020-02-08T11:15:01Z</time>
      </trkpt>
      <trkpt lat="46.21522" lon="6.28167">
        <ele>481</ele>
        <time>2020-02-08T11:15:05Z</time>
      </trkpt>
      <trkpt lat="46.21521" lon="6.28149">
        <ele>483</ele>
        <time>2020-02-08T11:15:09Z</time>
      </trkpt>
      <trkpt lat="46.21514" lon="6.28134">
        <ele>484</ele>
        <time>2020-02-08T11:15:13Z</time>
      </trkpt>
      <trkpt lat="46.21504" lon="6.2812">
        <ele>485</ele>
        <time>2020-02-08T11:15:17Z</time>
      </trkpt>
      <trkpt lat="46.21494" lon="6.28107">
        <ele>486</ele>
        <time>2020-02-08T11:15:21Z</time>
      </trkpt>
      <trkpt lat="46.21491" lon="6.28087">
        <ele>486</ele>
        <time>2020-02-08T11:15:25Z</time>
      </trkpt>
      <trkpt lat="46.21503" lon="6.28083">
        <ele>485</ele>
        <time>2020-02-08T11:15:29Z</time>
      </trkpt>
      <trkpt lat="46.21518" lon="6.28081">
        <ele>485</ele>
        <time>2020-02-08T11:15:33Z</time>
      </trkpt>
      <trkpt lat="46.21536" lon="6.28075">
        <ele>484</ele>
        <time>2020-02-08T11:15:37Z</time>
      </trkpt>
      <trkpt lat="46.21553" lon="6.28061">
        <ele>484</ele>
        <time>2020-02-08T11:15:41Z</time>
      </trkpt>
      <trkpt lat="46.21568" lon="6.28061">
        <ele>485</ele>
        <time>2020-02-08T11:15:45Z</time>
      </trkpt>
      <trkpt lat="46.21581" lon="6.28078">
        <ele>485</ele>
        <time>2020-02-08T11:15:49Z</time>
      </trkpt>
      <trkpt lat="46.21595" lon="6.28095">
        <ele>486</ele>
        <time>2020-02-08T11:15:53Z</time>
      </trkpt>
      <trkpt lat="46.21611" lon="6.28111">
        <ele>487</ele>
        <time>2020-02-08T11:15:57Z</time>
      </trkpt>
      <trkpt lat="46.21626" lon="6.28125">
        <ele>488</ele>
        <time>2020-02-08T11:16:01Z</time>
      </trkpt>
      <trkpt lat="46.2164" lon="6.28141">
        <ele>489</ele>
        <time>2020-02-08T11:16:05Z</time>
      </trkpt>
      <trkpt lat="46.21651" lon="6.28161">
        <ele>489</ele>
        <time>2020-02-08T11:16:09Z</time>
      </trkpt>
      <trkpt lat="46.21662" lon="6.28186">
        <ele>488</ele>
        <time>2020-02-08T11:16:13Z</time>
      </trkpt>
      <trkpt lat="46.21673" lon="6.28213">
        <ele>488</ele>
        <time>2020-02-08T11:16:17Z</time>
      </trkpt>
      <trkpt lat="46.21685" lon="6.2824">
        <ele>488</ele>
        <time>2020-02-08T11:16:21Z</time>
      </trkpt>
      <trkpt lat="46.21697" lon="6.28265">
        <ele>490</ele>
        <time>2020-02-08T11:16:25Z</time>
      </trkpt>
      <trkpt lat="46.21711" lon="6.28284">
        <ele>491</ele>
        <time>2020-02-08T11:16:29Z</time>
      </trkpt>
      <trkpt lat="46.21725" lon="6.28298">
        <ele>493</ele>
        <time>2020-02-08T11:16:33Z</time>
      </trkpt>
      <trkpt lat="46.21739" lon="6.28313">
        <ele>492</ele>
        <time>2020-02-08T11:16:37Z</time>
      </trkpt>
      <trkpt lat="46.21752" lon="6.2833">
        <ele>493</ele>
        <time>2020-02-08T11:16:41Z</time>
      </trkpt>
      <trkpt lat="46.21766" lon="6.2835">
        <ele>494</ele>
        <time>2020-02-08T11:16:45Z</time>
      </trkpt>
      <trkpt lat="46.21777" lon="6.28374">
        <ele>494</ele>
        <time>2020-02-08T11:16:49Z</time>
      </trkpt>
      <trkpt lat="46.21787" lon="6.28405">
        <ele>494</ele>
        <time>2020-02-08T11:16:53Z</time>
      </trkpt>
      <trkpt lat="46.21796" lon="6.28443">
        <ele>494</ele>
        <time>2020-02-08T11:16:57Z</time>
      </trkpt>
      <trkpt lat="46.21809" lon="6.28486">
        <ele>492</ele>
        <time>2020-02-08T11:17:01Z</time>
      </trkpt>
      <trkpt lat="46.21819" lon="6.28531">
        <ele>493</ele>
        <time>2020-02-08T11:17:05Z</time>
      </trkpt>
      <trkpt lat="46.21828" lon="6.28573">
        <ele>493</ele>
        <time>2020-02-08T11:17:09Z</time>
      </trkpt>
      <trkpt lat="46.21837" lon="6.28613">
        <ele>494</ele>
        <time>2020-02-08T11:17:13Z</time>
      </trkpt>
      <trkpt lat="46.21845" lon="6.28651">
        <ele>494</ele>
        <time>2020-02-08T11:17:17Z</time>
      </trkpt>
      <trkpt lat="46.21852" lon="6.28686">
        <ele>494</ele>
        <time>2020-02-08T11:17:21Z</time>
      </trkpt>
      <trkpt lat="46.2186" lon="6.28718">
        <ele>495</ele>
        <time>2020-02-08T11:17:25Z</time>
      </trkpt>
      <trkpt lat="46.21869" lon="6.28751">
        <ele>494</ele>
        <time>2020-02-08T11:17:29Z</time>
      </trkpt>
      <trkpt lat="46.21879" lon="6.28784">
        <ele>493</ele>
        <time>2020-02-08T11:17:33Z</time>
      </trkpt>
      <trkpt lat="46.21892" lon="6.28817">
        <ele>492</ele>
        <time>2020-02-08T11:17:37Z</time>
      </trkpt>
      <trkpt lat="46.21906" lon="6.28851">
        <ele>493</ele>
        <time>2020-02-08T11:17:41Z</time>
      </trkpt>
      <trkpt lat="46.2192" lon="6.28885">
        <ele>494</ele>
        <time>2020-02-08T11:17:45Z</time>
      </trkpt>
      <trkpt lat="46.21933" lon="6.28917">
        <ele>495</ele>
        <time>2020-02-08T11:17:49Z</time>
      </trkpt>
      <trkpt lat="46.21946" lon="6.28949">
        <ele>495</ele>
        <time>2020-02-08T11:17:53Z</time>
      </trkpt>
      <trkpt lat="46.21958" lon="6.28978">
        <ele>495</ele>
        <time>2020-02-08T11:17:57Z</time>
      </trkpt>
      <trkpt lat="46.21969" lon="6.29005">
        <ele>496</ele>
        <time>2020-02-08T11:18:01Z</time>
      </trkpt>
      <trkpt lat="46.21978" lon="6.29028">
        <ele>499</ele>
        <time>2020-02-08T11:18:05Z</time>
      </trkpt>
      <trkpt lat="46.21985" lon="6.29048">
        <ele>501</ele>
        <time>2020-02-08T11:18:09Z</time>
      </trkpt>
      <trkpt lat="46.21988" lon="6.29072">
        <ele>502</ele>
        <time>2020-02-08T11:18:13Z</time>
      </trkpt>
      <trkpt lat="46.21988" lon="6.29099">
        <ele>503</ele>
        <time>2020-02-08T11:18:17Z</time>
      </trkpt>
      <trkpt lat="46.21984" lon="6.29128">
        <ele>503</ele>
        <time>2020-02-08T11:18:21Z</time>
      </trkpt>
      <trkpt lat="46.2198" lon="6.29156">
        <ele>504</ele>
        <time>2020-02-08T11:18:25Z</time>
      </trkpt>
      <trkpt lat="46.21976" lon="6.29183">
        <ele>504</ele>
        <time>2020-02-08T11:18:29Z</time>
      </trkpt>
      <trkpt lat="46.21966" lon="6.29208">
        <ele>505</ele>
        <time>2020-02-08T11:18:33Z</time>
      </trkpt>
      <trkpt lat="46.21964" lon="6.29234">
        <ele>506</ele>
        <time>2020-02-08T11:18:37Z</time>
      </trkpt>
      <trkpt lat="46.21975" lon="6.29258">
        <ele>505</ele>
        <time>2020-02-08T11:18:41Z</time>
      </trkpt>
      <trkpt lat="46.21989" lon="6.29281">
        <ele>505</ele>
        <time>2020-02-08T11:18:45Z</time>
      </trkpt>
      <trkpt lat="46.22003" lon="6.29303">
        <ele>506</ele>
        <time>2020-02-08T11:18:49Z</time>
      </trkpt>
      <trkpt lat="46.22019" lon="6.29326">
        <ele>506</ele>
        <time>2020-02-08T11:18:53Z</time>
      </trkpt>
      <trkpt lat="46.22037" lon="6.29344">
        <ele>506</ele>
        <time>2020-02-08T11:18:57Z</time>
      </trkpt>
      <trkpt lat="46.22055" lon="6.2936">
        <ele>506</ele>
        <time>2020-02-08T11:19:01Z</time>
      </trkpt>
      <trkpt lat="46.22073" lon="6.29377">
        <ele>505</ele>
        <time>2020-02-08T11:19:05Z</time>
      </trkpt>
      <trkpt lat="46.22095" lon="6.29398">
        <ele>504</ele>
        <time>2020-02-08T11:19:09Z</time>
      </trkpt>
      <trkpt lat="46.22122" lon="6.29417">
        <ele>504</ele>
        <time>2020-02-08T11:19:13Z</time>
      </trkpt>
      <trkpt lat="46.22144" lon="6.29427">
        <ele>504</ele>
        <time>2020-02-08T11:19:17Z</time>
      </trkpt>
      <trkpt lat="46.2216" lon="6.29434">
        <ele>504</ele>
        <time>2020-02-08T11:19:21Z</time>
      </trkpt>
      <trkpt lat="46.22177" lon="6.29446">
        <ele>503</ele>
        <time>2020-02-08T11:19:25Z</time>
      </trkpt>
      <trkpt lat="46.22194" lon="6.29461">
        <ele>503</ele>
        <time>2020-02-08T11:19:29Z</time>
      </trkpt>
      <trkpt lat="46.22209" lon="6.2947">
        <ele>504</ele>
        <time>2020-02-08T11:19:33Z</time>
      </trkpt>
      <trkpt lat="46.22227" lon="6.29473">
        <ele>505</ele>
        <time>2020-02-08T11:19:37Z</time>
      </trkpt>
      <trkpt lat="46.22246" lon="6.29475">
        <ele>506</ele>
        <time>2020-02-08T11:19:41Z</time>
      </trkpt>
      <trkpt lat="46.22266" lon="6.29478">
        <ele>506</ele>
        <time>2020-02-08T11:19:45Z</time>
      </trkpt>
      <trkpt lat="46.22287" lon="6.29483">
        <ele>506</ele>
        <time>2020-02-08T11:19:49Z</time>
      </trkpt>
      <trkpt lat="46.22307" lon="6.29492">
        <ele>506</ele>
        <time>2020-02-08T11:19:53Z</time>
      </trkpt>
      <trkpt lat="46.22326" lon="6.29503">
        <ele>507</ele>
        <time>2020-02-08T11:19:57Z</time>
      </trkpt>
      <trkpt lat="46.22342" lon="6.29517">
        <ele>507</ele>
        <time>2020-02-08T11:20:01Z</time>
      </trkpt>
      <trkpt lat="46.22361" lon="6.29532">
        <ele>506</ele>
        <time>2020-02-08T11:20:05Z</time>
      </trkpt>
      <trkpt lat="46.22379" lon="6.29548">
        <ele>506</ele>
        <time>2020-02-08T11:20:09Z</time>
      </trkpt>
      <trkpt lat="46.22399" lon="6.29564">
        <ele>505</ele>
        <time>2020-02-08T11:20:13Z</time>
      </trkpt>
      <trkpt lat="46.22416" lon="6.29581">
        <ele>505</ele>
        <time>2020-02-08T11:20:17Z</time>
      </trkpt>
      <trkpt lat="46.22433" lon="6.296">
        <ele>506</ele>
        <time>2020-02-08T11:20:21Z</time>
      </trkpt>
      <trkpt lat="46.22446" lon="6.29617">
        <ele>507</ele>
        <time>2020-02-08T11:20:25Z</time>
      </trkpt>
      <trkpt lat="46.22459" lon="6.29638">
        <ele>507</ele>
        <time>2020-02-08T11:20:29Z</time>
      </trkpt>
      <trkpt lat="46.22471" lon="6.29662">
        <ele>507</ele>
        <time>2020-02-08T11:20:33Z</time>
      </trkpt>
      <trkpt lat="46.22485" lon="6.29687">
        <ele>507</ele>
        <time>2020-02-08T11:20:37Z</time>
      </trkpt>
      <trkpt lat="46.22499" lon="6.29712">
        <ele>507</ele>
        <time>2020-02-08T11:20:41Z</time>
      </trkpt>
      <trkpt lat="46.22513" lon="6.29738">
        <ele>508</ele>
        <time>2020-02-08T11:20:45Z</time>
      </trkpt>
      <trkpt lat="46.22526" lon="6.29766">
        <ele>509</ele>
        <time>2020-02-08T11:20:49Z</time>
      </trkpt>
      <trkpt lat="46.22538" lon="6.29794">
        <ele>510</ele>
        <time>2020-02-08T11:20:53Z</time>
      </trkpt>
      <trkpt lat="46.2255" lon="6.29823">
        <ele>509</ele>
        <time>2020-02-08T11:20:57Z</time>
      </trkpt>
      <trkpt lat="46.22563" lon="6.29853">
        <ele>510</ele>
        <time>2020-02-08T11:21:01Z</time>
      </trkpt>
      <trkpt lat="46.22576" lon="6.29885">
        <ele>513</ele>
        <time>2020-02-08T11:21:05Z</time>
      </trkpt>
      <trkpt lat="46.22589" lon="6.29916">
        <ele>514</ele>
        <time>2020-02-08T11:21:09Z</time>
      </trkpt>
      <trkpt lat="46.22602" lon="6.29949">
        <ele>514</ele>
        <time>2020-02-08T11:21:13Z</time>
      </trkpt>
      <trkpt lat="46.22615" lon="6.29979">
        <ele>516</ele>
        <time>2020-02-08T11:21:17Z</time>
      </trkpt>
      <trkpt lat="46.22627" lon="6.3001">
        <ele>517</ele>
        <time>2020-02-08T11:21:21Z</time>
      </trkpt>
      <trkpt lat="46.22637" lon="6.30039">
        <ele>518</ele>
        <time>2020-02-08T11:21:25Z</time>
      </trkpt>
      <trkpt lat="46.22648" lon="6.30069">
        <ele>516</ele>
        <time>2020-02-08T11:21:29Z</time>
      </trkpt>
      <trkpt lat="46.22659" lon="6.30098">
        <ele>515</ele>
        <time>2020-02-08T11:21:33Z</time>
      </trkpt>
      <trkpt lat="46.22673" lon="6.30121">
        <ele>514</ele>
        <time>2020-02-08T11:21:37Z</time>
      </trkpt>
      <trkpt lat="46.2269" lon="6.30137">
        <ele>514</ele>
        <time>2020-02-08T11:21:41Z</time>
      </trkpt>
      <trkpt lat="46.22714" lon="6.30147">
        <ele>515</ele>
        <time>2020-02-08T11:21:45Z</time>
      </trkpt>
      <trkpt lat="46.22738" lon="6.30152">
        <ele>515</ele>
        <time>2020-02-08T11:21:49Z</time>
      </trkpt>
      <trkpt lat="46.22761" lon="6.30154">
        <ele>515</ele>
        <time>2020-02-08T11:21:53Z</time>
      </trkpt>
      <trkpt lat="46.22787" lon="6.30156">
        <ele>512</ele>
        <time>2020-02-08T11:21:57Z</time>
      </trkpt>
      <trkpt lat="46.22812" lon="6.30157">
        <ele>511</ele>
        <time>2020-02-08T11:22:01Z</time>
      </trkpt>
      <trkpt lat="46.22835" lon="6.30154">
        <ele>513</ele>
        <time>2020-02-08T11:22:05Z</time>
      </trkpt>
      <trkpt lat="46.2286" lon="6.30154">
        <ele>512</ele>
        <time>2020-02-08T11:22:09Z</time>
      </trkpt>
      <trkpt lat="46.22884" lon="6.30157">
        <ele>511</ele>
        <time>2020-02-08T11:22:13Z</time>
      </trkpt>
      <trkpt lat="46.2291" lon="6.30162">
        <ele>511</ele>
        <time>2020-02-08T11:22:17Z</time>
      </trkpt>
      <trkpt lat="46.22936" lon="6.30172">
        <ele>512</ele>
        <time>2020-02-08T11:22:21Z</time>
      </trkpt>
      <trkpt lat="46.22962" lon="6.30189">
        <ele>513</ele>
        <time>2020-02-08T11:22:25Z</time>
      </trkpt>
      <trkpt lat="46.22982" lon="6.30208">
        <ele>513</ele>
        <time>2020-02-08T11:22:29Z</time>
      </trkpt>
      <trkpt lat="46.23003" lon="6.30231">
        <ele>513</ele>
        <time>2020-02-08T11:22:33Z</time>
      </trkpt>
      <trkpt lat="46.23028" lon="6.30255">
        <ele>512</ele>
        <time>2020-02-08T11:22:37Z</time>
      </trkpt>
      <trkpt lat="46.23055" lon="6.30278">
        <ele>507</ele>
        <time>2020-02-08T11:22:41Z</time>
      </trkpt>
      <trkpt lat="46.23082" lon="6.30298">
        <ele>508</ele>
        <time>2020-02-08T11:22:45Z</time>
      </trkpt>
      <trkpt lat="46.23113" lon="6.30314">
        <ele>510</ele>
        <time>2020-02-08T11:22:49Z</time>
      </trkpt>
      <trkpt lat="46.23142" lon="6.3033">
        <ele>511</ele>
        <time>2020-02-08T11:22:53Z</time>
      </trkpt>
      <trkpt lat="46.23169" lon="6.30346">
        <ele>513</ele>
        <time>2020-02-08T11:22:57Z</time>
      </trkpt>
      <trkpt lat="46.23192" lon="6.30362">
        <ele>514</ele>
        <time>2020-02-08T11:23:01Z</time>
      </trkpt>
      <trkpt lat="46.23212" lon="6.30377">
        <ele>515</ele>
        <time>2020-02-08T11:23:05Z</time>
      </trkpt>
      <trkpt lat="46.23231" lon="6.30393">
        <ele>515</ele>
        <time>2020-02-08T11:23:09Z</time>
      </trkpt>
      <trkpt lat="46.2325" lon="6.30413">
        <ele>515</ele>
        <time>2020-02-08T11:23:13Z</time>
      </trkpt>
      <trkpt lat="46.23265" lon="6.30436">
        <ele>516</ele>
        <time>2020-02-08T11:23:17Z</time>
      </trkpt>
      <trkpt lat="46.23282" lon="6.30458">
        <ele>517</ele>
        <time>2020-02-08T11:23:21Z</time>
      </trkpt>
      <trkpt lat="46.23297" lon="6.30481">
        <ele>519</ele>
        <time>2020-02-08T11:23:25Z</time>
      </trkpt>
      <trkpt lat="46.23302" lon="6.30509">
        <ele>519</ele>
        <time>2020-02-08T11:23:29Z</time>
      </trkpt>
      <trkpt lat="46.23301" lon="6.30537">
        <ele>519</ele>
        <time>2020-02-08T11:23:33Z</time>
      </trkpt>
      <trkpt lat="46.23315" lon="6.30559">
        <ele>519</ele>
        <time>2020-02-08T11:23:37Z</time>
      </trkpt>
      <trkpt lat="46.23333" lon="6.30577">
        <ele>518</ele>
        <time>2020-02-08T11:23:41Z</time>
      </trkpt>
      <trkpt lat="46.23351" lon="6.30596">
        <ele>516</ele>
        <time>2020-02-08T11:23:45Z</time>
      </trkpt>
      <trkpt lat="46.2337" lon="6.30613">
        <ele>517</ele>
        <time>2020-02-08T11:23:49Z</time>
      </trkpt>
      <trkpt lat="46.23392" lon="6.30626">
        <ele>519</ele>
        <time>2020-02-08T11:23:53Z</time>
      </trkpt>
      <trkpt lat="46.23416" lon="6.30637">
        <ele>519</ele>
        <time>2020-02-08T11:23:57Z</time>
      </trkpt>
      <trkpt lat="46.23442" lon="6.30651">
        <ele>519</ele>
        <time>2020-02-08T11:24:01Z</time>
      </trkpt>
      <trkpt lat="46.23468" lon="6.30674">
        <ele>519</ele>
        <time>2020-02-08T11:24:05Z</time>
      </trkpt>
      <trkpt lat="46.23494" lon="6.30703">
        <ele>518</ele>
        <time>2020-02-08T11:24:09Z</time>
      </trkpt>
      <trkpt lat="46.23523" lon="6.30724">
        <ele>518</ele>
        <time>2020-02-08T11:24:13Z</time>
      </trkpt>
      <trkpt lat="46.23554" lon="6.30738">
        <ele>519</ele>
        <time>2020-02-08T11:24:17Z</time>
      </trkpt>
      <trkpt lat="46.23585" lon="6.30749">
        <ele>520</ele>
        <time>2020-02-08T11:24:21Z</time>
      </trkpt>
      <trkpt lat="46.23614" lon="6.30763">
        <ele>520</ele>
        <time>2020-02-08T11:24:25Z</time>
      </trkpt>
      <trkpt lat="46.23643" lon="6.30774">
        <ele>519</ele>
        <time>2020-02-08T11:24:29Z</time>
      </trkpt>
      <trkpt lat="46.23673" lon="6.30781">
        <ele>519</ele>
        <time>2020-02-08T11:24:33Z</time>
      </trkpt>
      <trkpt lat="46.237" lon="6.30799">
        <ele>519</ele>
        <time>2020-02-08T11:24:37Z</time>
      </trkpt>
      <trkpt lat="46.23726" lon="6.30815">
        <ele>519</ele>
        <time>2020-02-08T11:24:41Z</time>
      </trkpt>
      <trkpt lat="46.23754" lon="6.30822">
        <ele>520</ele>
        <time>2020-02-08T11:24:45Z</time>
      </trkpt>
      <trkpt lat="46.23782" lon="6.3083">
        <ele>520</ele>
        <time>2020-02-08T11:24:49Z</time>
      </trkpt>
      <trkpt lat="46.23808" lon="6.30849">
        <ele>519</ele>
        <time>2020-02-08T11:24:53Z</time>
      </trkpt>
      <trkpt lat="46.23835" lon="6.30869">
        <ele>518</ele>
        <time>2020-02-08T11:24:57Z</time>
      </trkpt>
      <trkpt lat="46.23862" lon="6.30891">
        <ele>518</ele>
        <time>2020-02-08T11:25:01Z</time>
      </trkpt>
      <trkpt lat="46.23887" lon="6.3091">
        <ele>518</ele>
        <time>2020-02-08T11:25:05Z</time>
      </trkpt>
      <trkpt lat="46.23906" lon="6.30919">
        <ele>519</ele>
        <time>2020-02-08T11:25:09Z</time>
      </trkpt>
      <trkpt lat="46.23918" lon="6.30906">
        <ele>520</ele>
        <time>2020-02-08T11:25:13Z</time>
      </trkpt>
      <trkpt lat="46.23925" lon="6.30877">
        <ele>519</ele>
        <time>2020-02-08T11:25:17Z</time>
      </trkpt>
      <trkpt lat="46.23933" lon="6.30844">
        <ele>518</ele>
        <time>2020-02-08T11:25:21Z</time>
      </trkpt>
      <trkpt lat="46.23942" lon="6.30807">
        <ele>517</ele>
        <time>2020-02-08T11:25:25Z</time>
      </trkpt>
      <trkpt lat="46.23952" lon="6.30768">
        <ele>518</ele>
        <time>2020-02-08T11:25:29Z</time>
      </trkpt>
      <trkpt lat="46.23963" lon="6.3073">
        <ele>517</ele>
        <time>2020-02-08T11:25:33Z</time>
      </trkpt>
      <trkpt lat="46.23988" lon="6.30721">
        <ele>516</ele>
        <time>2020-02-08T11:25:37Z</time>
      </trkpt>
      <trkpt lat="46.24013" lon="6.3074">
        <ele>516</ele>
        <time>2020-02-08T11:25:41Z</time>
      </trkpt>
      <trkpt lat="46.24038" lon="6.30759">
        <ele>516</ele>
        <time>2020-02-08T11:25:45Z</time>
      </trkpt>
      <trkpt lat="46.24064" lon="6.30779">
        <ele>517</ele>
        <time>2020-02-08T11:25:49Z</time>
      </trkpt>
      <trkpt lat="46.24088" lon="6.30801">
        <ele>519</ele>
        <time>2020-02-08T11:25:53Z</time>
      </trkpt>
      <trkpt lat="46.24112" lon="6.30821">
        <ele>517</ele>
        <time>2020-02-08T11:25:57Z</time>
      </trkpt>
      <trkpt lat="46.24137" lon="6.30841">
        <ele>517</ele>
        <time>2020-02-08T11:26:01Z</time>
      </trkpt>
      <trkpt lat="46.24161" lon="6.30861">
        <ele>518</ele>
        <time>2020-02-08T11:26:05Z</time>
      </trkpt>
      <trkpt lat="46.24187" lon="6.3088">
        <ele>518</ele>
        <time>2020-02-08T11:26:09Z</time>
      </trkpt>
      <trkpt lat="46.24212" lon="6.30899">
        <ele>517</ele>
        <time>2020-02-08T11:26:13Z</time>
      </trkpt>
      <trkpt lat="46.24238" lon="6.3092">
        <ele>517</ele>
        <time>2020-02-08T11:26:17Z</time>
      </trkpt>
      <trkpt lat="46.24263" lon="6.30945">
        <ele>517</ele>
        <time>2020-02-08T11:26:21Z</time>
      </trkpt>
      <trkpt lat="46.24291" lon="6.30964">
        <ele>517</ele>
        <time>2020-02-08T11:26:25Z</time>
      </trkpt>
      <trkpt lat="46.24319" lon="6.30981">
        <ele>515</ele>
        <time>2020-02-08T11:26:29Z</time>
      </trkpt>
      <trkpt lat="46.24349" lon="6.31">
        <ele>513</ele>
        <time>2020-02-08T11:26:33Z</time>
      </trkpt>
      <trkpt lat="46.24377" lon="6.31028">
        <ele>511</ele>
        <time>2020-02-08T11:26:37Z</time>
      </trkpt>
      <trkpt lat="46.24398" lon="6.31063">
        <ele>512</ele>
        <time>2020-02-08T11:26:41Z</time>
      </trkpt>
      <trkpt lat="46.24419" lon="6.31095">
        <ele>515</ele>
        <time>2020-02-08T11:26:45Z</time>
      </trkpt>
      <trkpt lat="46.24438" lon="6.31124">
        <ele>517</ele>
        <time>2020-02-08T11:26:49Z</time>
      </trkpt>
      <trkpt lat="46.24453" lon="6.31154">
        <ele>517</ele>
        <time>2020-02-08T11:26:53Z</time>
      </trkpt>
      <trkpt lat="46.24471" lon="6.31181">
        <ele>517</ele>
        <time>2020-02-08T11:26:57Z</time>
      </trkpt>
      <trkpt lat="46.24488" lon="6.31209">
        <ele>516</ele>
        <time>2020-02-08T11:27:01Z</time>
      </trkpt>
      <trkpt lat="46.24505" lon="6.31234">
        <ele>516</ele>
        <time>2020-02-08T11:27:05Z</time>
      </trkpt>
      <trkpt lat="46.24523" lon="6.31253">
        <ele>516</ele>
        <time>2020-02-08T11:27:09Z</time>
      </trkpt>
      <trkpt lat="46.24544" lon="6.31268">
        <ele>517</ele>
        <time>2020-02-08T11:27:13Z</time>
      </trkpt>
      <trkpt lat="46.24566" lon="6.31283">
        <ele>518</ele>
        <time>2020-02-08T11:27:17Z</time>
      </trkpt>
      <trkpt lat="46.24587" lon="6.31302">
        <ele>518</ele>
        <time>2020-02-08T11:27:21Z</time>
      </trkpt>
      <trkpt lat="46.24607" lon="6.31328">
        <ele>518</ele>
        <time>2020-02-08T11:27:25Z</time>
      </trkpt>
      <trkpt lat="46.24627" lon="6.31359">
        <ele>516</ele>
        <time>2020-02-08T11:27:29Z</time>
      </trkpt>
      <trkpt lat="46.24646" lon="6.31391">
        <ele>516</ele>
        <time>2020-02-08T11:27:33Z</time>
      </trkpt>
      <trkpt lat="46.24666" lon="6.31423">
        <ele>516</ele>
        <time>2020-02-08T11:27:37Z</time>
      </trkpt>
      <trkpt lat="46.24686" lon="6.31454">
        <ele>518</ele>
        <time>2020-02-08T11:27:41Z</time>
      </trkpt>
      <trkpt lat="46.24705" lon="6.31484">
        <ele>519</ele>
        <time>2020-02-08T11:27:45Z</time>
      </trkpt>
      <trkpt lat="46.24724" lon="6.31514">
        <ele>519</ele>
        <time>2020-02-08T11:27:49Z</time>
      </trkpt>
      <trkpt lat="46.24742" lon="6.31544">
        <ele>519</ele>
        <time>2020-02-08T11:27:53Z</time>
      </trkpt>
      <trkpt lat="46.24757" lon="6.31576">
        <ele>520</ele>
        <time>2020-02-08T11:27:57Z</time>
      </trkpt>
      <trkpt lat="46.24768" lon="6.31605">
        <ele>521</ele>
        <time>2020-02-08T11:28:01Z</time>
      </trkpt>
      <trkpt lat="46.24777" lon="6.31632">
        <ele>522</ele>
        <time>2020-02-08T11:28:05Z</time>
      </trkpt>
      <trkpt lat="46.24785" lon="6.31657">
        <ele>524</ele>
        <time>2020-02-08T11:28:09Z</time>
      </trkpt>
      <trkpt lat="46.24795" lon="6.31682">
        <ele>525</ele>
        <time>2020-02-08T11:28:13Z</time>
      </trkpt>
      <trkpt lat="46.24804" lon="6.31707">
        <ele>526</ele>
        <time>2020-02-08T11:28:17Z</time>
      </trkpt>
      <trkpt lat="46.24812" lon="6.31733">
        <ele>526</ele>
        <time>2020-02-08T11:28:21Z</time>
      </trkpt>
      <trkpt lat="46.24821" lon="6.31758">
        <ele>526</ele>
        <time>2020-02-08T11:28:25Z</time>
      </trkpt>
      <trkpt lat="46.24831" lon="6.31783">
        <ele>527</ele>
        <time>2020-02-08T11:28:29Z</time>
      </trkpt>
      <trkpt lat="46.24839" lon="6.31808">
        <ele>528</ele>
        <time>2020-02-08T11:28:33Z</time>
      </trkpt>
      <trkpt lat="46.24849" lon="6.31834">
        <ele>528</ele>
        <time>2020-02-08T11:28:37Z</time>
      </trkpt>
      <trkpt lat="46.24858" lon="6.31861">
        <ele>528</ele>
        <time>2020-02-08T11:28:41Z</time>
      </trkpt>
      <trkpt lat="46.24866" lon="6.31888">
        <ele>528</ele>
        <time>2020-02-08T11:28:45Z</time>
      </trkpt>
      <trkpt lat="46.24874" lon="6.31916">
        <ele>529</ele>
        <time>2020-02-08T11:28:49Z</time>
      </trkpt>
      <trkpt lat="46.24882" lon="6.31945">
        <ele>528</ele>
        <time>2020-02-08T11:28:53Z</time>
      </trkpt>
      <trkpt lat="46.2489" lon="6.31976">
        <ele>530</ele>
        <time>2020-02-08T11:28:57Z</time>
      </trkpt>
      <trkpt lat="46.24899" lon="6.32009">
        <ele>530</ele>
        <time>2020-02-08T11:29:01Z</time>
      </trkpt>
      <trkpt lat="46.24908" lon="6.32045">
        <ele>530</ele>
        <time>2020-02-08T11:29:05Z</time>
      </trkpt>
      <trkpt lat="46.24916" lon="6.32083">
        <ele>530</ele>
        <time>2020-02-08T11:29:09Z</time>
      </trkpt>
      <trkpt lat="46.24918" lon="6.32122">
        <ele>530</ele>
        <time>2020-02-08T11:29:13Z</time>
      </trkpt>
      <trkpt lat="46.2492" lon="6.32162">
        <ele>528</ele>
        <time>2020-02-08T11:29:17Z</time>
      </trkpt>
      <trkpt lat="46.2492" lon="6.32202">
        <ele>529</ele>
        <time>2020-02-08T11:29:21Z</time>
      </trkpt>
      <trkpt lat="46.24921" lon="6.32241">
        <ele>530</ele>
        <time>2020-02-08T11:29:25Z</time>
      </trkpt>
      <trkpt lat="46.24927" lon="6.32275">
        <ele>531</ele>
        <time>2020-02-08T11:29:29Z</time>
      </trkpt>
      <trkpt lat="46.24936" lon="6.32304">
        <ele>532</ele>
        <time>2020-02-08T11:29:33Z</time>
      </trkpt>
      <trkpt lat="46.24946" lon="6.32331">
        <ele>533</ele>
        <time>2020-02-08T11:29:37Z</time>
      </trkpt>
      <trkpt lat="46.24956" lon="6.32359">
        <ele>534</ele>
        <time>2020-02-08T11:29:41Z</time>
      </trkpt>
      <trkpt lat="46.24965" lon="6.32387">
        <ele>536</ele>
        <time>2020-02-08T11:29:45Z</time>
      </trkpt>
      <trkpt lat="46.24975" lon="6.32417">
        <ele>535</ele>
        <time>2020-02-08T11:29:49Z</time>
      </trkpt>
      <trkpt lat="46.24986" lon="6.32454">
        <ele>534</ele>
        <time>2020-02-08T11:29:53Z</time>
      </trkpt>
      <trkpt lat="46.24991" lon="6.32504">
        <ele>531</ele>
        <time>2020-02-08T11:29:57Z</time>
      </trkpt>
      <trkpt lat="46.2498" lon="6.32559">
        <ele>526</ele>
        <time>2020-02-08T11:30:01Z</time>
      </trkpt>
      <trkpt lat="46.24972" lon="6.32617">
        <ele>525</ele>
        <time>2020-02-08T11:30:05Z</time>
      </trkpt>
      <trkpt lat="46.24978" lon="6.32664">
        <ele>526</ele>
        <time>2020-02-08T11:30:09Z</time>
      </trkpt>
      <trkpt lat="46.24994" lon="6.32701">
        <ele>527</ele>
        <time>2020-02-08T11:30:13Z</time>
      </trkpt>
      <trkpt lat="46.25018" lon="6.32725">
        <ele>528</ele>
        <time>2020-02-08T11:30:17Z</time>
      </trkpt>
      <trkpt lat="46.25042" lon="6.32744">
        <ele>530</ele>
        <time>2020-02-08T11:30:21Z</time>
      </trkpt>
      <trkpt lat="46.25069" lon="6.32761">
        <ele>530</ele>
        <time>2020-02-08T11:30:25Z</time>
      </trkpt>
      <trkpt lat="46.25097" lon="6.32775">
        <ele>529</ele>
        <time>2020-02-08T11:30:29Z</time>
      </trkpt>
      <trkpt lat="46.25124" lon="6.32782">
        <ele>528</ele>
        <time>2020-02-08T11:30:33Z</time>
      </trkpt>
      <trkpt lat="46.2514" lon="6.32785">
        <ele>529</ele>
        <time>2020-02-08T11:30:37Z</time>
      </trkpt>
      <trkpt lat="46.25152" lon="6.32784">
        <ele>529</ele>
        <time>2020-02-08T11:30:41Z</time>
      </trkpt>
      <trkpt lat="46.25163" lon="6.32777">
        <ele>530</ele>
        <time>2020-02-08T11:30:45Z</time>
      </trkpt>
      <trkpt lat="46.25178" lon="6.32774">
        <ele>530</ele>
        <time>2020-02-08T11:30:49Z</time>
      </trkpt>
      <trkpt lat="46.25191" lon="6.32769">
        <ele>531</ele>
        <time>2020-02-08T11:30:53Z</time>
      </trkpt>
      <trkpt lat="46.25202" lon="6.32764">
        <ele>532</ele>
        <time>2020-02-08T11:30:57Z</time>
      </trkpt>
      <trkpt lat="46.2521" lon="6.32759">
        <ele>532</ele>
        <time>2020-02-08T11:31:01Z</time>
      </trkpt>
      <trkpt lat="46.25222" lon="6.32749">
        <ele>533</ele>
        <time>2020-02-08T11:31:05Z</time>
      </trkpt>
      <trkpt lat="46.25235" lon="6.32736">
        <ele>533</ele>
        <time>2020-02-08T11:31:09Z</time>
      </trkpt>
      <trkpt lat="46.2525" lon="6.32723">
        <ele>531</ele>
        <time>2020-02-08T11:31:13Z</time>
      </trkpt>
      <trkpt lat="46.25266" lon="6.3271">
        <ele>531</ele>
        <time>2020-02-08T11:31:17Z</time>
      </trkpt>
      <trkpt lat="46.25282" lon="6.32695">
        <ele>531</ele>
        <time>2020-02-08T11:31:21Z</time>
      </trkpt>
      <trkpt lat="46.25297" lon="6.32683">
        <ele>532</ele>
        <time>2020-02-08T11:31:25Z</time>
      </trkpt>
      <trkpt lat="46.2531" lon="6.32672">
        <ele>533</ele>
        <time>2020-02-08T11:31:29Z</time>
      </trkpt>
      <trkpt lat="46.25326" lon="6.3266">
        <ele>533</ele>
        <time>2020-02-08T11:31:33Z</time>
      </trkpt>
      <trkpt lat="46.25343" lon="6.3265">
        <ele>533</ele>
        <time>2020-02-08T11:31:37Z</time>
      </trkpt>
      <trkpt lat="46.25359" lon="6.32638">
        <ele>534</ele>
        <time>2020-02-08T11:31:41Z</time>
      </trkpt>
      <trkpt lat="46.25374" lon="6.32623">
        <ele>534</ele>
        <time>2020-02-08T11:31:45Z</time>
      </trkpt>
      <trkpt lat="46.25388" lon="6.32605">
        <ele>535</ele>
        <time>2020-02-08T11:31:49Z</time>
      </trkpt>
      <trkpt lat="46.25399" lon="6.32582">
        <ele>535</ele>
        <time>2020-02-08T11:31:53Z</time>
      </trkpt>
      <trkpt lat="46.25408" lon="6.32557">
        <ele>536</ele>
        <time>2020-02-08T11:31:57Z</time>
      </trkpt>
      <trkpt lat="46.25417" lon="6.32532">
        <ele>535</ele>
        <time>2020-02-08T11:32:01Z</time>
      </trkpt>
      <trkpt lat="46.25427" lon="6.32508">
        <ele>536</ele>
        <time>2020-02-08T11:32:05Z</time>
      </trkpt>
      <trkpt lat="46.25443" lon="6.32494">
        <ele>536</ele>
        <time>2020-02-08T11:32:09Z</time>
      </trkpt>
      <trkpt lat="46.25463" lon="6.32487">
        <ele>537</ele>
        <time>2020-02-08T11:32:13Z</time>
      </trkpt>
      <trkpt lat="46.25483" lon="6.32481">
        <ele>538</ele>
        <time>2020-02-08T11:32:17Z</time>
      </trkpt>
      <trkpt lat="46.25503" lon="6.32474">
        <ele>538</ele>
        <time>2020-02-08T11:32:21Z</time>
      </trkpt>
      <trkpt lat="46.25523" lon="6.32462">
        <ele>538</ele>
        <time>2020-02-08T11:32:25Z</time>
      </trkpt>
      <trkpt lat="46.25544" lon="6.32455">
        <ele>538</ele>
        <time>2020-02-08T11:32:29Z</time>
      </trkpt>
      <trkpt lat="46.25566" lon="6.32451">
        <ele>539</ele>
        <time>2020-02-08T11:32:33Z</time>
      </trkpt>
      <trkpt lat="46.25589" lon="6.32451">
        <ele>540</ele>
        <time>2020-02-08T11:32:37Z</time>
      </trkpt>
      <trkpt lat="46.25611" lon="6.3245">
        <ele>540</ele>
        <time>2020-02-08T11:32:41Z</time>
      </trkpt>
      <trkpt lat="46.25633" lon="6.32452">
        <ele>541</ele>
        <time>2020-02-08T11:32:45Z</time>
      </trkpt>
      <trkpt lat="46.25655" lon="6.32461">
        <ele>541</ele>
        <time>2020-02-08T11:32:49Z</time>
      </trkpt>
      <trkpt lat="46.25675" lon="6.32476">
        <ele>541</ele>
        <time>2020-02-08T11:32:53Z</time>
      </trkpt>
      <trkpt lat="46.25693" lon="6.32495">
        <ele>541</ele>
        <time>2020-02-08T11:32:57Z</time>
      </trkpt>
      <trkpt lat="46.2571" lon="6.32513">
        <ele>542</ele>
        <time>2020-02-08T11:33:01Z</time>
      </trkpt>
      <trkpt lat="46.25725" lon="6.32533">
        <ele>544</ele>
        <time>2020-02-08T11:33:05Z</time>
      </trkpt>
      <trkpt lat="46.25739" lon="6.32553">
        <ele>544</ele>
        <time>2020-02-08T11:33:09Z</time>
      </trkpt>
      <trkpt lat="46.25749" lon="6.32574">
        <ele>544</ele>
        <time>2020-02-08T11:33:13Z</time>
      </trkpt>
      <trkpt lat="46.25753" lon="6.32591">
        <ele>545</ele>
        <time>2020-02-08T11:33:17Z</time>
      </trkpt>
      <trkpt lat="46.25766" lon="6.32606">
        <ele>546</ele>
        <time>2020-02-08T11:33:21Z</time>
      </trkpt>
      <trkpt lat="46.2578" lon="6.32621">
        <ele>547</ele>
        <time>2020-02-08T11:33:25Z</time>
      </trkpt>
      <trkpt lat="46.25796" lon="6.32636">
        <ele>549</ele>
        <time>2020-02-08T11:33:29Z</time>
      </trkpt>
      <trkpt lat="46.25811" lon="6.32652">
        <ele>550</ele>
        <time>2020-02-08T11:33:33Z</time>
      </trkpt>
      <trkpt lat="46.25826" lon="6.32665">
        <ele>550</ele>
        <time>2020-02-08T11:33:37Z</time>
      </trkpt>
      <trkpt lat="46.25842" lon="6.32677">
        <ele>551</ele>
        <time>2020-02-08T11:33:41Z</time>
      </trkpt>
      <trkpt lat="46.25858" lon="6.3269">
        <ele>551</ele>
        <time>2020-02-08T11:33:45Z</time>
      </trkpt>
      <trkpt lat="46.25877" lon="6.32703">
        <ele>550</ele>
        <time>2020-02-08T11:33:49Z</time>
      </trkpt>
      <trkpt lat="46.25895" lon="6.32717">
        <ele>550</ele>
        <time>2020-02-08T11:33:53Z</time>
      </trkpt>
      <trkpt lat="46.25913" lon="6.3273">
        <ele>551</ele>
        <time>2020-02-08T11:33:57Z</time>
      </trkpt>
      <trkpt lat="46.2593" lon="6.32743">
        <ele>551</ele>
        <time>2020-02-08T11:34:01Z</time>
      </trkpt>
      <trkpt lat="46.25945" lon="6.32765">
        <ele>552</ele>
        <time>2020-02-08T11:34:05Z</time>
      </trkpt>
      <trkpt lat="46.25951" lon="6.32793">
        <ele>552</ele>
        <time>2020-02-08T11:34:09Z</time>
      </trkpt>
      <trkpt lat="46.25958" lon="6.3282">
        <ele>553</ele>
        <time>2020-02-08T11:34:13Z</time>
      </trkpt>
      <trkpt lat="46.2597" lon="6.32844">
        <ele>553</ele>
        <time>2020-02-08T11:34:17Z</time>
      </trkpt>
      <trkpt lat="46.25983" lon="6.32864">
        <ele>554</ele>
        <time>2020-02-08T11:34:21Z</time>
      </trkpt>
      <trkpt lat="46.25998" lon="6.32882">
        <ele>556</ele>
        <time>2020-02-08T11:34:25Z</time>
      </trkpt>
      <trkpt lat="46.26012" lon="6.32901">
        <ele>557</ele>
        <time>2020-02-08T11:34:29Z</time>
      </trkpt>
      <trkpt lat="46.26027" lon="6.32916">
        <ele>557</ele>
        <time>2020-02-08T11:34:33Z</time>
      </trkpt>
      <trkpt lat="46.26042" lon="6.3293">
        <ele>558</ele>
        <time>2020-02-08T11:34:37Z</time>
      </trkpt>
      <trkpt lat="46.26058" lon="6.32944">
        <ele>559</ele>
        <time>2020-02-08T11:34:41Z</time>
      </trkpt>
      <trkpt lat="46.26073" lon="6.32956">
        <ele>559</ele>
        <time>2020-02-08T11:34:45Z</time>
      </trkpt>
      <trkpt lat="46.26089" lon="6.32968">
        <ele>560</ele>
        <time>2020-02-08T11:34:49Z</time>
      </trkpt>
      <trkpt lat="46.26105" lon="6.32977">
        <ele>559</ele>
        <time>2020-02-08T11:34:53Z</time>
      </trkpt>
      <trkpt lat="46.26122" lon="6.32986">
        <ele>559</ele>
        <time>2020-02-08T11:34:57Z</time>
      </trkpt>
      <trkpt lat="46.26139" lon="6.32994">
        <ele>559</ele>
        <time>2020-02-08T11:35:01Z</time>
      </trkpt>
      <trkpt lat="46.26156" lon="6.33002">
        <ele>560</ele>
        <time>2020-02-08T11:35:05Z</time>
      </trkpt>
      <trkpt lat="46.26174" lon="6.33011">
        <ele>561</ele>
        <time>2020-02-08T11:35:09Z</time>
      </trkpt>
      <trkpt lat="46.26191" lon="6.33019">
        <ele>561</ele>
        <time>2020-02-08T11:35:13Z</time>
      </trkpt>
      <trkpt lat="46.26209" lon="6.33028">
        <ele>563</ele>
        <time>2020-02-08T11:35:17Z</time>
      </trkpt>
      <trkpt lat="46.26225" lon="6.33036">
        <ele>565</ele>
        <time>2020-02-08T11:35:21Z</time>
      </trkpt>
      <trkpt lat="46.26242" lon="6.33045">
        <ele>566</ele>
        <time>2020-02-08T11:35:25Z</time>
      </trkpt>
      <trkpt lat="46.26258" lon="6.33055">
        <ele>567</ele>
        <time>2020-02-08T11:35:29Z</time>
      </trkpt>
      <trkpt lat="46.26274" lon="6.33068">
        <ele>567</ele>
        <time>2020-02-08T11:35:33Z</time>
      </trkpt>
      <trkpt lat="46.26289" lon="6.33084">
        <ele>567</ele>
        <time>2020-02-08T11:35:37Z</time>
      </trkpt>
      <trkpt lat="46.26305" lon="6.33102">
        <ele>568</ele>
        <time>2020-02-08T11:35:41Z</time>
      </trkpt>
      <trkpt lat="46.2632" lon="6.33121">
        <ele>567</ele>
        <time>2020-02-08T11:35:45Z</time>
      </trkpt>
      <trkpt lat="46.26335" lon="6.33141">
        <ele>568</ele>
        <time>2020-02-08T11:35:49Z</time>
      </trkpt>
      <trkpt lat="46.26351" lon="6.33161">
        <ele>567</ele>
        <time>2020-02-08T11:35:53Z</time>
      </trkpt>
      <trkpt lat="46.26367" lon="6.33182">
        <ele>566</ele>
        <time>2020-02-08T11:35:57Z</time>
      </trkpt>
      <trkpt lat="46.26384" lon="6.33203">
        <ele>565</ele>
        <time>2020-02-08T11:36:01Z</time>
      </trkpt>
      <trkpt lat="46.264" lon="6.33226">
        <ele>567</ele>
        <time>2020-02-08T11:36:05Z</time>
      </trkpt>
      <trkpt lat="46.26415" lon="6.3325">
        <ele>568</ele>
        <time>2020-02-08T11:36:09Z</time>
      </trkpt>
      <trkpt lat="46.2643" lon="6.33276">
        <ele>568</ele>
        <time>2020-02-08T11:36:13Z</time>
      </trkpt>
      <trkpt lat="46.26442" lon="6.33305">
        <ele>569</ele>
        <time>2020-02-08T11:36:17Z</time>
      </trkpt>
      <trkpt lat="46.26452" lon="6.33337">
        <ele>569</ele>
        <time>2020-02-08T11:36:21Z</time>
      </trkpt>
      <trkpt lat="46.26464" lon="6.33367">
        <ele>571</ele>
        <time>2020-02-08T11:36:25Z</time>
      </trkpt>
      <trkpt lat="46.26466" lon="6.33401">
        <ele>570</ele>
        <time>2020-02-08T11:36:29Z</time>
      </trkpt>
      <trkpt lat="46.26459" lon="6.33436">
        <ele>569</ele>
        <time>2020-02-08T11:36:33Z</time>
      </trkpt>
      <trkpt lat="46.26453" lon="6.33471">
        <ele>571</ele>
        <time>2020-02-08T11:36:37Z</time>
      </trkpt>
      <trkpt lat="46.26447" lon="6.33507">
        <ele>571</ele>
        <time>2020-02-08T11:36:41Z</time>
      </trkpt>
      <trkpt lat="46.26441" lon="6.33543">
        <ele>572</ele>
        <time>2020-02-08T11:36:45Z</time>
      </trkpt>
      <trkpt lat="46.26435" lon="6.3358">
        <ele>571</ele>
        <time>2020-02-08T11:36:49Z</time>
      </trkpt>
      <trkpt lat="46.26429" lon="6.33618">
        <ele>569</ele>
        <time>2020-02-08T11:36:53Z</time>
      </trkpt>
      <trkpt lat="46.26423" lon="6.33655">
        <ele>569</ele>
        <time>2020-02-08T11:36:57Z</time>
      </trkpt>
      <trkpt lat="46.26417" lon="6.33692">
        <ele>570</ele>
        <time>2020-02-08T11:37:01Z</time>
      </trkpt>
      <trkpt lat="46.26411" lon="6.3373">
        <ele>571</ele>
        <time>2020-02-08T11:37:05Z</time>
      </trkpt>
      <trkpt lat="46.26404" lon="6.33768">
        <ele>573</ele>
        <time>2020-02-08T11:37:09Z</time>
      </trkpt>
      <trkpt lat="46.26399" lon="6.33805">
        <ele>574</ele>
        <time>2020-02-08T11:37:13Z</time>
      </trkpt>
      <trkpt lat="46.26393" lon="6.33838">
        <ele>573</ele>
        <time>2020-02-08T11:37:17Z</time>
      </trkpt>
      <trkpt lat="46.26388" lon="6.33869">
        <ele>571</ele>
        <time>2020-02-08T11:37:21Z</time>
      </trkpt>
      <trkpt lat="46.26383" lon="6.33901">
        <ele>571</ele>
        <time>2020-02-08T11:37:25Z</time>
      </trkpt>
      <trkpt lat="46.26381" lon="6.33938">
        <ele>572</ele>
        <time>2020-02-08T11:37:29Z</time>
      </trkpt>
      <trkpt lat="46.26389" lon="6.33972">
        <ele>574</ele>
        <time>2020-02-08T11:37:33Z</time>
      </trkpt>
      <trkpt lat="46.26405" lon="6.33999">
        <ele>574</ele>
        <time>2020-02-08T11:37:37Z</time>
      </trkpt>
      <trkpt lat="46.26423" lon="6.34025">
        <ele>575</ele>
        <time>2020-02-08T11:37:41Z</time>
      </trkpt>
      <trkpt lat="46.26439" lon="6.34049">
        <ele>575</ele>
        <time>2020-02-08T11:37:45Z</time>
      </trkpt>
      <trkpt lat="46.26456" lon="6.34074">
        <ele>576</ele>
        <time>2020-02-08T11:37:49Z</time>
      </trkpt>
      <trkpt lat="46.26471" lon="6.341">
        <ele>576</ele>
        <time>2020-02-08T11:37:53Z</time>
      </trkpt>
      <trkpt lat="46.26484" lon="6.34132">
        <ele>576</ele>
        <time>2020-02-08T11:37:57Z</time>
      </trkpt>
      <trkpt lat="46.26501" lon="6.34163">
        <ele>576</ele>
        <time>2020-02-08T11:38:01Z</time>
      </trkpt>
      <trkpt lat="46.26519" lon="6.34196">
        <ele>575</ele>
        <time>2020-02-08T11:38:05Z</time>
      </trkpt>
      <trkpt lat="46.26529" lon="6.34236">
        <ele>575</ele>
        <time>2020-02-08T11:38:09Z</time>
      </trkpt>
      <trkpt lat="46.26539" lon="6.34276">
        <ele>574</ele>
        <time>2020-02-08T11:38:13Z</time>
      </trkpt>
      <trkpt lat="46.26556" lon="6.3431">
        <ele>574</ele>
        <time>2020-02-08T11:38:17Z</time>
      </trkpt>
      <trkpt lat="46.26578" lon="6.34338">
        <ele>574</ele>
        <time>2020-02-08T11:38:21Z</time>
      </trkpt>
      <trkpt lat="46.266" lon="6.34365">
        <ele>574</ele>
        <time>2020-02-08T11:38:25Z</time>
      </trkpt>
      <trkpt lat="46.26622" lon="6.34397">
        <ele>573</ele>
        <time>2020-02-08T11:38:29Z</time>
      </trkpt>
      <trkpt lat="46.26642" lon="6.34438">
        <ele>572</ele>
        <time>2020-02-08T11:38:33Z</time>
      </trkpt>
      <trkpt lat="46.26659" lon="6.34483">
        <ele>569</ele>
        <time>2020-02-08T11:38:37Z</time>
      </trkpt>
      <trkpt lat="46.26682" lon="6.34515">
        <ele>567</ele>
        <time>2020-02-08T11:38:41Z</time>
      </trkpt>
      <trkpt lat="46.26713" lon="6.34517">
        <ele>566</ele>
        <time>2020-02-08T11:38:45Z</time>
      </trkpt>
      <trkpt lat="46.26748" lon="6.34537">
        <ele>564</ele>
        <time>2020-02-08T11:38:49Z</time>
      </trkpt>
      <trkpt lat="46.26778" lon="6.34568">
        <ele>560</ele>
        <time>2020-02-08T11:38:53Z</time>
      </trkpt>
      <trkpt lat="46.26785" lon="6.34615">
        <ele>555</ele>
        <time>2020-02-08T11:38:57Z</time>
      </trkpt>
      <trkpt lat="46.26764" lon="6.34654">
        <ele>554</ele>
        <time>2020-02-08T11:39:01Z</time>
      </trkpt>
      <trkpt lat="46.26741" lon="6.34688">
        <ele>553</ele>
        <time>2020-02-08T11:39:05Z</time>
      </trkpt>
      <trkpt lat="46.26714" lon="6.34716">
        <ele>553</ele>
        <time>2020-02-08T11:39:09Z</time>
      </trkpt>
      <trkpt lat="46.26681" lon="6.34715">
        <ele>552</ele>
        <time>2020-02-08T11:39:13Z</time>
      </trkpt>
      <trkpt lat="46.26648" lon="6.34701">
        <ele>548</ele>
        <time>2020-02-08T11:39:17Z</time>
      </trkpt>
      <trkpt lat="46.26613" lon="6.3469">
        <ele>545</ele>
        <time>2020-02-08T11:39:21Z</time>
      </trkpt>
      <trkpt lat="46.26584" lon="6.34715">
        <ele>543</ele>
        <time>2020-02-08T11:39:25Z</time>
      </trkpt>
      <trkpt lat="46.26565" lon="6.34761">
        <ele>542</ele>
        <time>2020-02-08T11:39:29Z</time>
      </trkpt>
      <trkpt lat="46.26558" lon="6.34813">
        <ele>543</ele>
        <time>2020-02-08T11:39:33Z</time>
      </trkpt>
      <trkpt lat="46.26556" lon="6.34866">
        <ele>542</ele>
        <time>2020-02-08T11:39:37Z</time>
      </trkpt>
      <trkpt lat="46.26544" lon="6.34913">
        <ele>541</ele>
        <time>2020-02-08T11:39:41Z</time>
      </trkpt>
      <trkpt lat="46.26532" lon="6.34953">
        <ele>542</ele>
        <time>2020-02-08T11:39:45Z</time>
      </trkpt>
      <trkpt lat="46.26521" lon="6.3499">
        <ele>544</ele>
        <time>2020-02-08T11:39:49Z</time>
      </trkpt>
      <trkpt lat="46.26511" lon="6.35026">
        <ele>546</ele>
        <time>2020-02-08T11:39:53Z</time>
      </trkpt>
      <trkpt lat="46.26501" lon="6.35058">
        <ele>549</ele>
        <time>2020-02-08T11:39:57Z</time>
      </trkpt>
      <trkpt lat="46.26493" lon="6.35085">
        <ele>549</ele>
        <time>2020-02-08T11:40:01Z</time>
      </trkpt>
      <trkpt lat="46.26485" lon="6.35113">
        <ele>549</ele>
        <time>2020-02-08T11:40:05Z</time>
      </trkpt>
      <trkpt lat="46.26475" lon="6.35139">
        <ele>550</ele>
        <time>2020-02-08T11:40:09Z</time>
      </trkpt>
      <trkpt lat="46.26463" lon="6.3516">
        <ele>554</ele>
        <time>2020-02-08T11:40:13Z</time>
      </trkpt>
      <trkpt lat="46.2645" lon="6.35176">
        <ele>555</ele>
        <time>2020-02-08T11:40:17Z</time>
      </trkpt>
      <trkpt lat="46.26437" lon="6.35187">
        <ele>556</ele>
        <time>2020-02-08T11:40:21Z</time>
      </trkpt>
      <trkpt lat="46.26423" lon="6.35199">
        <ele>556</ele>
        <time>2020-02-08T11:40:25Z</time>
      </trkpt>
      <trkpt lat="46.2641" lon="6.3521">
        <ele>557</ele>
        <time>2020-02-08T11:40:29Z</time>
      </trkpt>
      <trkpt lat="46.26397" lon="6.35221">
        <ele>558</ele>
        <time>2020-02-08T11:40:33Z</time>
      </trkpt>
      <trkpt lat="46.26384" lon="6.35231">
        <ele>560</ele>
        <time>2020-02-08T11:40:37Z</time>
      </trkpt>
      <trkpt lat="46.26371" lon="6.35243">
        <ele>562</ele>
        <time>2020-02-08T11:40:41Z</time>
      </trkpt>
      <trkpt lat="46.26359" lon="6.35255">
        <ele>563</ele>
        <time>2020-02-08T11:40:45Z</time>
      </trkpt>
      <trkpt lat="46.26347" lon="6.35269">
        <ele>563</ele>
        <time>2020-02-08T11:40:49Z</time>
      </trkpt>
      <trkpt lat="46.26336" lon="6.35285">
        <ele>563</ele>
        <time>2020-02-08T11:40:53Z</time>
      </trkpt>
      <trkpt lat="46.26324" lon="6.35299">
        <ele>562</ele>
        <time>2020-02-08T11:40:57Z</time>
      </trkpt>
      <trkpt lat="46.26314" lon="6.35313">
        <ele>563</ele>
        <time>2020-02-08T11:41:01Z</time>
      </trkpt>
      <trkpt lat="46.26304" lon="6.35327">
        <ele>563</ele>
        <time>2020-02-08T11:41:05Z</time>
      </trkpt>
      <trkpt lat="46.26294" lon="6.35341">
        <ele>563</ele>
        <time>2020-02-08T11:41:09Z</time>
      </trkpt>
      <trkpt lat="46.26283" lon="6.35355">
        <ele>564</ele>
        <time>2020-02-08T11:41:13Z</time>
      </trkpt>
      <trkpt lat="46.26273" lon="6.35369">
        <ele>566</ele>
        <time>2020-02-08T11:41:17Z</time>
      </trkpt>
      <trkpt lat="46.26265" lon="6.35386">
        <ele>568</ele>
        <time>2020-02-08T11:41:21Z</time>
      </trkpt>
      <trkpt lat="46.26258" lon="6.35405">
        <ele>570</ele>
        <time>2020-02-08T11:41:25Z</time>
      </trkpt>
      <trkpt lat="46.26253" lon="6.35424">
        <ele>572</ele>
        <time>2020-02-08T11:41:29Z</time>
      </trkpt>
      <trkpt lat="46.26247" lon="6.35443">
        <ele>573</ele>
        <time>2020-02-08T11:41:33Z</time>
      </trkpt>
      <trkpt lat="46.26242" lon="6.35463">
        <ele>573</ele>
        <time>2020-02-08T11:41:37Z</time>
      </trkpt>
      <trkpt lat="46.26236" lon="6.35484">
        <ele>573</ele>
        <time>2020-02-08T11:41:41Z</time>
      </trkpt>
      <trkpt lat="46.2623" lon="6.35505">
        <ele>573</ele>
        <time>2020-02-08T11:41:45Z</time>
      </trkpt>
      <trkpt lat="46.26224" lon="6.35527">
        <ele>572</ele>
        <time>2020-02-08T11:41:49Z</time>
      </trkpt>
      <trkpt lat="46.26217" lon="6.35549">
        <ele>573</ele>
        <time>2020-02-08T11:41:53Z</time>
      </trkpt>
      <trkpt lat="46.26211" lon="6.35571">
        <ele>574</ele>
        <time>2020-02-08T11:41:57Z</time>
      </trkpt>
      <trkpt lat="46.26205" lon="6.35593">
        <ele>574</ele>
        <time>2020-02-08T11:42:01Z</time>
      </trkpt>
      <trkpt lat="46.262" lon="6.35615">
        <ele>575</ele>
        <time>2020-02-08T11:42:05Z</time>
      </trkpt>
      <trkpt lat="46.26195" lon="6.35636">
        <ele>575</ele>
        <time>2020-02-08T11:42:09Z</time>
      </trkpt>
      <trkpt lat="46.26189" lon="6.35652">
        <ele>576</ele>
        <time>2020-02-08T11:42:13Z</time>
      </trkpt>
      <trkpt lat="46.26183" lon="6.35659">
        <ele>576</ele>
        <time>2020-02-08T11:42:17Z</time>
      </trkpt>
      <trkpt lat="46.26181" lon="6.35662">
        <ele>577</ele>
        <time>2020-02-08T11:42:29Z</time>
      </trkpt>
      <trkpt lat="46.26178" lon="6.35675">
        <ele>577</ele>
        <time>2020-02-08T11:42:33Z</time>
      </trkpt>
      <trkpt lat="46.26176" lon="6.35697">
        <ele>577</ele>
        <time>2020-02-08T11:42:37Z</time>
      </trkpt>
      <trkpt lat="46.26166" lon="6.35714">
        <ele>577</ele>
        <time>2020-02-08T11:42:41Z</time>
      </trkpt>
      <trkpt lat="46.26152" lon="6.35726">
        <ele>577</ele>
        <time>2020-02-08T11:42:45Z</time>
      </trkpt>
      <trkpt lat="46.26141" lon="6.35737">
        <ele>578</ele>
        <time>2020-02-08T11:42:49Z</time>
      </trkpt>
      <trkpt lat="46.26135" lon="6.35742">
        <ele>578</ele>
        <time>2020-02-08T11:42:53Z</time>
      </trkpt>
      <trkpt lat="46.26134" lon="6.35743">
        <ele>578</ele>
        <time>2020-02-08T11:42:57Z</time>
      </trkpt>
      <trkpt lat="46.26131" lon="6.35743">
        <ele>578</ele>
        <time>2020-02-08T11:43:01Z</time>
      </trkpt>
      <trkpt lat="46.26128" lon="6.35743">
        <ele>578</ele>
        <time>2020-02-08T11:45:17Z</time>
      </trkpt>
      <trkpt lat="46.26129" lon="6.35747">
        <ele>578</ele>
        <time>2020-02-08T11:45:33Z</time>
      </trkpt>
      <trkpt lat="46.26125" lon="6.35752">
        <ele>578</ele>
        <time>2020-02-08T11:45:37Z</time>
      </trkpt>
      <trkpt lat="46.26116" lon="6.3576">
        <ele>578</ele>
        <time>2020-02-08T11:45:41Z</time>
      </trkpt>
      <trkpt lat="46.26105" lon="6.35768">
        <ele>579</ele>
        <time>2020-02-08T11:45:45Z</time>
      </trkpt>
      <trkpt lat="46.26094" lon="6.35778">
        <ele>580</ele>
        <time>2020-02-08T11:45:49Z</time>
      </trkpt>
      <trkpt lat="46.26083" lon="6.35791">
        <ele>581</ele>
        <time>2020-02-08T11:45:53Z</time>
      </trkpt>
      <trkpt lat="46.26072" lon="6.35807">
        <ele>582</ele>
        <time>2020-02-08T11:45:57Z</time>
      </trkpt>
      <trkpt lat="46.26061" lon="6.35822">
        <ele>584</ele>
        <time>2020-02-08T11:46:01Z</time>
      </trkpt>
      <trkpt lat="46.26049" lon="6.3583">
        <ele>585</ele>
        <time>2020-02-08T11:46:05Z</time>
      </trkpt>
      <trkpt lat="46.26037" lon="6.35838">
        <ele>585</ele>
        <time>2020-02-08T11:46:09Z</time>
      </trkpt>
      <trkpt lat="46.26025" lon="6.35845">
        <ele>586</ele>
        <time>2020-02-08T11:46:13Z</time>
      </trkpt>
      <trkpt lat="46.26013" lon="6.35855">
        <ele>587</ele>
        <time>2020-02-08T11:46:17Z</time>
      </trkpt>
      <trkpt lat="46.26001" lon="6.35863">
        <ele>587</ele>
        <time>2020-02-08T11:46:21Z</time>
      </trkpt>
      <trkpt lat="46.2599" lon="6.35872">
        <ele>589</ele>
        <time>2020-02-08T11:46:25Z</time>
      </trkpt>
      <trkpt lat="46.25979" lon="6.35881">
        <ele>590</ele>
        <time>2020-02-08T11:46:29Z</time>
      </trkpt>
      <trkpt lat="46.25968" lon="6.35889">
        <ele>592</ele>
        <time>2020-02-08T11:46:33Z</time>
      </trkpt>
      <trkpt lat="46.25956" lon="6.35889">
        <ele>593</ele>
        <time>2020-02-08T11:46:37Z</time>
      </trkpt>
      <trkpt lat="46.25943" lon="6.35883">
        <ele>594</ele>
        <time>2020-02-08T11:46:41Z</time>
      </trkpt>
      <trkpt lat="46.25931" lon="6.35877">
        <ele>594</ele>
        <time>2020-02-08T11:46:45Z</time>
      </trkpt>
      <trkpt lat="46.25919" lon="6.35871">
        <ele>595</ele>
        <time>2020-02-08T11:46:49Z</time>
      </trkpt>
      <trkpt lat="46.25907" lon="6.35864">
        <ele>596</ele>
        <time>2020-02-08T11:46:53Z</time>
      </trkpt>
      <trkpt lat="46.25897" lon="6.35857">
        <ele>597</ele>
        <time>2020-02-08T11:46:57Z</time>
      </trkpt>
      <trkpt lat="46.25886" lon="6.35847">
        <ele>598</ele>
        <time>2020-02-08T11:47:01Z</time>
      </trkpt>
      <trkpt lat="46.25875" lon="6.3584">
        <ele>599</ele>
        <time>2020-02-08T11:47:05Z</time>
      </trkpt>
      <trkpt lat="46.25865" lon="6.35829">
        <ele>600</ele>
        <time>2020-02-08T11:47:09Z</time>
      </trkpt>
      <trkpt lat="46.25853" lon="6.35822">
        <ele>601</ele>
        <time>2020-02-08T11:47:13Z</time>
      </trkpt>
      <trkpt lat="46.25844" lon="6.35813">
        <ele>602</ele>
        <time>2020-02-08T11:47:17Z</time>
      </trkpt>
      <trkpt lat="46.25834" lon="6.35803">
        <ele>602</ele>
        <time>2020-02-08T11:47:21Z</time>
      </trkpt>
      <trkpt lat="46.25824" lon="6.35795">
        <ele>603</ele>
        <time>2020-02-08T11:47:25Z</time>
      </trkpt>
      <trkpt lat="46.25817" lon="6.35787">
        <ele>603</ele>
        <time>2020-02-08T11:47:29Z</time>
      </trkpt>
      <trkpt lat="46.2581" lon="6.35776">
        <ele>603</ele>
        <time>2020-02-08T11:47:33Z</time>
      </trkpt>
      <trkpt lat="46.25801" lon="6.35761">
        <ele>604</ele>
        <time>2020-02-08T11:47:37Z</time>
      </trkpt>
      <trkpt lat="46.25795" lon="6.35742">
        <ele>605</ele>
        <time>2020-02-08T11:47:41Z</time>
      </trkpt>
      <trkpt lat="46.25788" lon="6.35723">
        <ele>607</ele>
        <time>2020-02-08T11:47:45Z</time>
      </trkpt>
      <trkpt lat="46.25778" lon="6.35704">
        <ele>608</ele>
        <time>2020-02-08T11:47:49Z</time>
      </trkpt>
      <trkpt lat="46.25774" lon="6.35688">
        <ele>608</ele>
        <time>2020-02-08T11:47:53Z</time>
      </trkpt>
      <trkpt lat="46.25771" lon="6.35675">
        <ele>608</ele>
        <time>2020-02-08T11:47:57Z</time>
      </trkpt>
      <trkpt lat="46.25764" lon="6.35672">
        <ele>608</ele>
        <time>2020-02-08T11:48:01Z</time>
      </trkpt>
      <trkpt lat="46.25759" lon="6.35686">
        <ele>609</ele>
        <time>2020-02-08T11:48:05Z</time>
      </trkpt>
      <trkpt lat="46.25757" lon="6.35705">
        <ele>610</ele>
        <time>2020-02-08T11:48:09Z</time>
      </trkpt>
      <trkpt lat="46.25755" lon="6.35724">
        <ele>611</ele>
        <time>2020-02-08T11:48:13Z</time>
      </trkpt>
      <trkpt lat="46.25754" lon="6.35743">
        <ele>612</ele>
        <time>2020-02-08T11:48:17Z</time>
      </trkpt>
      <trkpt lat="46.25753" lon="6.35763">
        <ele>612</ele>
        <time>2020-02-08T11:48:21Z</time>
      </trkpt>
      <trkpt lat="46.25753" lon="6.35784">
        <ele>611</ele>
        <time>2020-02-08T11:48:25Z</time>
      </trkpt>
      <trkpt lat="46.25751" lon="6.35805">
        <ele>612</ele>
        <time>2020-02-08T11:48:29Z</time>
      </trkpt>
      <trkpt lat="46.2575" lon="6.35826">
        <ele>613</ele>
        <time>2020-02-08T11:48:33Z</time>
      </trkpt>
      <trkpt lat="46.2575" lon="6.35847">
        <ele>615</ele>
        <time>2020-02-08T11:48:37Z</time>
      </trkpt>
      <trkpt lat="46.25753" lon="6.35868">
        <ele>617</ele>
        <time>2020-02-08T11:48:41Z</time>
      </trkpt>
      <trkpt lat="46.25759" lon="6.3589">
        <ele>618</ele>
        <time>2020-02-08T11:48:45Z</time>
      </trkpt>
      <trkpt lat="46.25767" lon="6.35912">
        <ele>617</ele>
        <time>2020-02-08T11:48:49Z</time>
      </trkpt>
      <trkpt lat="46.25776" lon="6.35933">
        <ele>616</ele>
        <time>2020-02-08T11:48:53Z</time>
      </trkpt>
      <trkpt lat="46.25784" lon="6.35955">
        <ele>615</ele>
        <time>2020-02-08T11:48:57Z</time>
      </trkpt>
      <trkpt lat="46.25787" lon="6.35978">
        <ele>615</ele>
        <time>2020-02-08T11:49:01Z</time>
      </trkpt>
      <trkpt lat="46.25791" lon="6.35999">
        <ele>616</ele>
        <time>2020-02-08T11:49:05Z</time>
      </trkpt>
      <trkpt lat="46.25794" lon="6.36019">
        <ele>617</ele>
        <time>2020-02-08T11:49:09Z</time>
      </trkpt>
      <trkpt lat="46.25798" lon="6.36039">
        <ele>619</ele>
        <time>2020-02-08T11:49:13Z</time>
      </trkpt>
      <trkpt lat="46.25802" lon="6.3606">
        <ele>622</ele>
        <time>2020-02-08T11:49:17Z</time>
      </trkpt>
      <trkpt lat="46.25805" lon="6.3608">
        <ele>624</ele>
        <time>2020-02-08T11:49:21Z</time>
      </trkpt>
      <trkpt lat="46.25809" lon="6.36101">
        <ele>624</ele>
        <time>2020-02-08T11:49:25Z</time>
      </trkpt>
      <trkpt lat="46.25812" lon="6.36121">
        <ele>624</ele>
        <time>2020-02-08T11:49:29Z</time>
      </trkpt>
      <trkpt lat="46.25816" lon="6.36141">
        <ele>624</ele>
        <time>2020-02-08T11:49:33Z</time>
      </trkpt>
      <trkpt lat="46.2582" lon="6.36161">
        <ele>625</ele>
        <time>2020-02-08T11:49:37Z</time>
      </trkpt>
      <trkpt lat="46.25824" lon="6.36182">
        <ele>625</ele>
        <time>2020-02-08T11:49:41Z</time>
      </trkpt>
      <trkpt lat="46.25821" lon="6.36202">
        <ele>626</ele>
        <time>2020-02-08T11:49:45Z</time>
      </trkpt>
      <trkpt lat="46.25818" lon="6.3622">
        <ele>626</ele>
        <time>2020-02-08T11:49:49Z</time>
      </trkpt>
      <trkpt lat="46.25819" lon="6.3624">
        <ele>626</ele>
        <time>2020-02-08T11:49:53Z</time>
      </trkpt>
      <trkpt lat="46.25822" lon="6.3626">
        <ele>625</ele>
        <time>2020-02-08T11:49:57Z</time>
      </trkpt>
      <trkpt lat="46.25825" lon="6.36281">
        <ele>625</ele>
        <time>2020-02-08T11:50:01Z</time>
      </trkpt>
      <trkpt lat="46.25827" lon="6.36302">
        <ele>625</ele>
        <time>2020-02-08T11:50:05Z</time>
      </trkpt>
      <trkpt lat="46.25828" lon="6.36323">
        <ele>626</ele>
        <time>2020-02-08T11:50:09Z</time>
      </trkpt>
      <trkpt lat="46.25829" lon="6.36343">
        <ele>627</ele>
        <time>2020-02-08T11:50:13Z</time>
      </trkpt>
      <trkpt lat="46.25829" lon="6.36364">
        <ele>627</ele>
        <time>2020-02-08T11:50:17Z</time>
      </trkpt>
      <trkpt lat="46.2583" lon="6.36384">
        <ele>630</ele>
        <time>2020-02-08T11:50:21Z</time>
      </trkpt>
      <trkpt lat="46.2583" lon="6.36405">
        <ele>632</ele>
        <time>2020-02-08T11:50:25Z</time>
      </trkpt>
      <trkpt lat="46.2583" lon="6.36426">
        <ele>634</ele>
        <time>2020-02-08T11:50:29Z</time>
      </trkpt>
      <trkpt lat="46.2583" lon="6.36446">
        <ele>635</ele>
        <time>2020-02-08T11:50:33Z</time>
      </trkpt>
      <trkpt lat="46.25828" lon="6.36467">
        <ele>636</ele>
        <time>2020-02-08T11:50:37Z</time>
      </trkpt>
      <trkpt lat="46.25824" lon="6.36488">
        <ele>637</ele>
        <time>2020-02-08T11:50:41Z</time>
      </trkpt>
      <trkpt lat="46.2582" lon="6.36507">
        <ele>637</ele>
        <time>2020-02-08T11:50:45Z</time>
      </trkpt>
      <trkpt lat="46.25815" lon="6.36526">
        <ele>638</ele>
        <time>2020-02-08T11:50:49Z</time>
      </trkpt>
      <trkpt lat="46.25809" lon="6.36544">
        <ele>638</ele>
        <time>2020-02-08T11:50:53Z</time>
      </trkpt>
      <trkpt lat="46.25801" lon="6.36561">
        <ele>639</ele>
        <time>2020-02-08T11:50:57Z</time>
      </trkpt>
      <trkpt lat="46.25792" lon="6.36576">
        <ele>639</ele>
        <time>2020-02-08T11:51:01Z</time>
      </trkpt>
      <trkpt lat="46.25784" lon="6.36593">
        <ele>641</ele>
        <time>2020-02-08T11:51:05Z</time>
      </trkpt>
      <trkpt lat="46.25784" lon="6.36615">
        <ele>642</ele>
        <time>2020-02-08T11:51:09Z</time>
      </trkpt>
      <trkpt lat="46.25785" lon="6.36639">
        <ele>640</ele>
        <time>2020-02-08T11:51:13Z</time>
      </trkpt>
      <trkpt lat="46.2578" lon="6.36661">
        <ele>640</ele>
        <time>2020-02-08T11:51:17Z</time>
      </trkpt>
      <trkpt lat="46.25774" lon="6.36681">
        <ele>639</ele>
        <time>2020-02-08T11:51:21Z</time>
      </trkpt>
      <trkpt lat="46.25767" lon="6.36699">
        <ele>639</ele>
        <time>2020-02-08T11:51:25Z</time>
      </trkpt>
      <trkpt lat="46.25761" lon="6.36719">
        <ele>639</ele>
        <time>2020-02-08T11:51:29Z</time>
      </trkpt>
      <trkpt lat="46.25753" lon="6.36738">
        <ele>640</ele>
        <time>2020-02-08T11:51:33Z</time>
      </trkpt>
      <trkpt lat="46.25741" lon="6.36751">
        <ele>641</ele>
        <time>2020-02-08T11:51:37Z</time>
      </trkpt>
      <trkpt lat="46.25726" lon="6.36751">
        <ele>644</ele>
        <time>2020-02-08T11:51:41Z</time>
      </trkpt>
      <trkpt lat="46.25716" lon="6.36737">
        <ele>646</ele>
        <time>2020-02-08T11:51:45Z</time>
      </trkpt>
      <trkpt lat="46.25714" lon="6.36716">
        <ele>647</ele>
        <time>2020-02-08T11:51:49Z</time>
      </trkpt>
      <trkpt lat="46.2572" lon="6.36697">
        <ele>647</ele>
        <time>2020-02-08T11:51:53Z</time>
      </trkpt>
      <trkpt lat="46.25727" lon="6.36679">
        <ele>647</ele>
        <time>2020-02-08T11:51:57Z</time>
      </trkpt>
      <trkpt lat="46.25729" lon="6.36659">
        <ele>648</ele>
        <time>2020-02-08T11:52:01Z</time>
      </trkpt>
      <trkpt lat="46.25725" lon="6.36639">
        <ele>650</ele>
        <time>2020-02-08T11:52:05Z</time>
      </trkpt>
      <trkpt lat="46.25718" lon="6.36621">
        <ele>652</ele>
        <time>2020-02-08T11:52:09Z</time>
      </trkpt>
      <trkpt lat="46.25709" lon="6.36603">
        <ele>654</ele>
        <time>2020-02-08T11:52:13Z</time>
      </trkpt>
      <trkpt lat="46.25702" lon="6.36586">
        <ele>655</ele>
        <time>2020-02-08T11:52:17Z</time>
      </trkpt>
      <trkpt lat="46.25693" lon="6.36569">
        <ele>656</ele>
        <time>2020-02-08T11:52:21Z</time>
      </trkpt>
      <trkpt lat="46.25685" lon="6.36551">
        <ele>656</ele>
        <time>2020-02-08T11:52:25Z</time>
      </trkpt>
      <trkpt lat="46.25678" lon="6.36534">
        <ele>656</ele>
        <time>2020-02-08T11:52:29Z</time>
      </trkpt>
      <trkpt lat="46.25671" lon="6.36515">
        <ele>656</ele>
        <time>2020-02-08T11:52:33Z</time>
      </trkpt>
      <trkpt lat="46.25666" lon="6.36496">
        <ele>655</ele>
        <time>2020-02-08T11:52:37Z</time>
      </trkpt>
      <trkpt lat="46.25662" lon="6.36476">
        <ele>656</ele>
        <time>2020-02-08T11:52:41Z</time>
      </trkpt>
      <trkpt lat="46.25658" lon="6.36456">
        <ele>656</ele>
        <time>2020-02-08T11:52:45Z</time>
      </trkpt>
      <trkpt lat="46.25654" lon="6.36437">
        <ele>657</ele>
        <time>2020-02-08T11:52:49Z</time>
      </trkpt>
      <trkpt lat="46.2565" lon="6.36416">
        <ele>659</ele>
        <time>2020-02-08T11:52:53Z</time>
      </trkpt>
      <trkpt lat="46.25646" lon="6.36396">
        <ele>661</ele>
        <time>2020-02-08T11:52:57Z</time>
      </trkpt>
      <trkpt lat="46.25643" lon="6.36376">
        <ele>662</ele>
        <time>2020-02-08T11:53:01Z</time>
      </trkpt>
      <trkpt lat="46.25639" lon="6.36356">
        <ele>663</ele>
        <time>2020-02-08T11:53:05Z</time>
      </trkpt>
      <trkpt lat="46.25635" lon="6.36337">
        <ele>664</ele>
        <time>2020-02-08T11:53:09Z</time>
      </trkpt>
      <trkpt lat="46.25628" lon="6.36322">
        <ele>664</ele>
        <time>2020-02-08T11:53:13Z</time>
      </trkpt>
      <trkpt lat="46.2562" lon="6.36316">
        <ele>664</ele>
        <time>2020-02-08T11:53:17Z</time>
      </trkpt>
      <trkpt lat="46.25611" lon="6.36316">
        <ele>665</ele>
        <time>2020-02-08T11:53:21Z</time>
      </trkpt>
      <trkpt lat="46.25602" lon="6.36318">
        <ele>666</ele>
        <time>2020-02-08T11:53:25Z</time>
      </trkpt>
      <trkpt lat="46.25595" lon="6.36325">
        <ele>667</ele>
        <time>2020-02-08T11:53:29Z</time>
      </trkpt>
      <trkpt lat="46.25591" lon="6.3634">
        <ele>668</ele>
        <time>2020-02-08T11:53:33Z</time>
      </trkpt>
      <trkpt lat="46.25586" lon="6.36356">
        <ele>669</ele>
        <time>2020-02-08T11:53:37Z</time>
      </trkpt>
      <trkpt lat="46.25581" lon="6.36374">
        <ele>670</ele>
        <time>2020-02-08T11:53:41Z</time>
      </trkpt>
      <trkpt lat="46.25576" lon="6.36392">
        <ele>670</ele>
        <time>2020-02-08T11:53:45Z</time>
      </trkpt>
      <trkpt lat="46.25569" lon="6.36411">
        <ele>672</ele>
        <time>2020-02-08T11:53:49Z</time>
      </trkpt>
      <trkpt lat="46.25563" lon="6.3643">
        <ele>673</ele>
        <time>2020-02-08T11:53:53Z</time>
      </trkpt>
      <trkpt lat="46.25557" lon="6.36448">
        <ele>674</ele>
        <time>2020-02-08T11:53:57Z</time>
      </trkpt>
      <trkpt lat="46.2555" lon="6.36468">
        <ele>675</ele>
        <time>2020-02-08T11:54:01Z</time>
      </trkpt>
      <trkpt lat="46.25544" lon="6.36488">
        <ele>676</ele>
        <time>2020-02-08T11:54:05Z</time>
      </trkpt>
      <trkpt lat="46.25538" lon="6.36508">
        <ele>676</ele>
        <time>2020-02-08T11:54:09Z</time>
      </trkpt>
      <trkpt lat="46.25531" lon="6.36527">
        <ele>676</ele>
        <time>2020-02-08T11:54:13Z</time>
      </trkpt>
      <trkpt lat="46.25525" lon="6.36547">
        <ele>675</ele>
        <time>2020-02-08T11:54:17Z</time>
      </trkpt>
      <trkpt lat="46.25519" lon="6.36566">
        <ele>675</ele>
        <time>2020-02-08T11:54:21Z</time>
      </trkpt>
      <trkpt lat="46.25513" lon="6.36586">
        <ele>675</ele>
        <time>2020-02-08T11:54:25Z</time>
      </trkpt>
      <trkpt lat="46.25507" lon="6.36605">
        <ele>677</ele>
        <time>2020-02-08T11:54:29Z</time>
      </trkpt>
      <trkpt lat="46.25501" lon="6.36624">
        <ele>678</ele>
        <time>2020-02-08T11:54:33Z</time>
      </trkpt>
      <trkpt lat="46.25495" lon="6.36643">
        <ele>680</ele>
        <time>2020-02-08T11:54:37Z</time>
      </trkpt>
      <trkpt lat="46.25489" lon="6.36662">
        <ele>682</ele>
        <time>2020-02-08T11:54:41Z</time>
      </trkpt>
      <trkpt lat="46.25483" lon="6.36681">
        <ele>684</ele>
        <time>2020-02-08T11:54:45Z</time>
      </trkpt>
      <trkpt lat="46.25476" lon="6.36699">
        <ele>687</ele>
        <time>2020-02-08T11:54:49Z</time>
      </trkpt>
      <trkpt lat="46.2547" lon="6.36717">
        <ele>689</ele>
        <time>2020-02-08T11:54:53Z</time>
      </trkpt>
      <trkpt lat="46.25465" lon="6.36735">
        <ele>690</ele>
        <time>2020-02-08T11:54:57Z</time>
      </trkpt>
      <trkpt lat="46.25459" lon="6.36751">
        <ele>691</ele>
        <time>2020-02-08T11:55:01Z</time>
      </trkpt>
      <trkpt lat="46.25455" lon="6.36769">
        <ele>690</ele>
        <time>2020-02-08T11:55:05Z</time>
      </trkpt>
      <trkpt lat="46.2545" lon="6.36787">
        <ele>690</ele>
        <time>2020-02-08T11:55:09Z</time>
      </trkpt>
      <trkpt lat="46.25445" lon="6.36807">
        <ele>689</ele>
        <time>2020-02-08T11:55:13Z</time>
      </trkpt>
      <trkpt lat="46.25442" lon="6.36829">
        <ele>688</ele>
        <time>2020-02-08T11:55:17Z</time>
      </trkpt>
      <trkpt lat="46.25439" lon="6.36848">
        <ele>687</ele>
        <time>2020-02-08T11:55:21Z</time>
      </trkpt>
      <trkpt lat="46.25436" lon="6.36869">
        <ele>687</ele>
        <time>2020-02-08T11:55:25Z</time>
      </trkpt>
      <trkpt lat="46.25433" lon="6.3689">
        <ele>688</ele>
        <time>2020-02-08T11:55:29Z</time>
      </trkpt>
      <trkpt lat="46.25429" lon="6.3691">
        <ele>689</ele>
        <time>2020-02-08T11:55:33Z</time>
      </trkpt>
      <trkpt lat="46.25427" lon="6.3693">
        <ele>689</ele>
        <time>2020-02-08T11:55:37Z</time>
      </trkpt>
      <trkpt lat="46.25423" lon="6.3695">
        <ele>690</ele>
        <time>2020-02-08T11:55:41Z</time>
      </trkpt>
      <trkpt lat="46.2542" lon="6.3697">
        <ele>690</ele>
        <time>2020-02-08T11:55:45Z</time>
      </trkpt>
      <trkpt lat="46.25417" lon="6.3699">
        <ele>691</ele>
        <time>2020-02-08T11:55:49Z</time>
      </trkpt>
      <trkpt lat="46.25414" lon="6.3701">
        <ele>692</ele>
        <time>2020-02-08T11:55:53Z</time>
      </trkpt>
      <trkpt lat="46.25411" lon="6.3703">
        <ele>693</ele>
        <time>2020-02-08T11:55:57Z</time>
      </trkpt>
      <trkpt lat="46.25409" lon="6.37049">
        <ele>695</ele>
        <time>2020-02-08T11:56:01Z</time>
      </trkpt>
      <trkpt lat="46.25407" lon="6.37069">
        <ele>695</ele>
        <time>2020-02-08T11:56:05Z</time>
      </trkpt>
      <trkpt lat="46.25405" lon="6.37088">
        <ele>696</ele>
        <time>2020-02-08T11:56:09Z</time>
      </trkpt>
      <trkpt lat="46.254" lon="6.37108">
        <ele>695</ele>
        <time>2020-02-08T11:56:13Z</time>
      </trkpt>
      <trkpt lat="46.25393" lon="6.37125">
        <ele>696</ele>
        <time>2020-02-08T11:56:17Z</time>
      </trkpt>
      <trkpt lat="46.25382" lon="6.37142">
        <ele>697</ele>
        <time>2020-02-08T11:56:21Z</time>
      </trkpt>
      <trkpt lat="46.25369" lon="6.37159">
        <ele>697</ele>
        <time>2020-02-08T11:56:25Z</time>
      </trkpt>
      <trkpt lat="46.25356" lon="6.37177">
        <ele>697</ele>
        <time>2020-02-08T11:56:29Z</time>
      </trkpt>
      <trkpt lat="46.25343" lon="6.37194">
        <ele>698</ele>
        <time>2020-02-08T11:56:33Z</time>
      </trkpt>
      <trkpt lat="46.2533" lon="6.37211">
        <ele>699</ele>
        <time>2020-02-08T11:56:37Z</time>
      </trkpt>
      <trkpt lat="46.25318" lon="6.37227">
        <ele>700</ele>
        <time>2020-02-08T11:56:41Z</time>
      </trkpt>
      <trkpt lat="46.25307" lon="6.37242">
        <ele>701</ele>
        <time>2020-02-08T11:56:45Z</time>
      </trkpt>
      <trkpt lat="46.25296" lon="6.37256">
        <ele>703</ele>
        <time>2020-02-08T11:56:49Z</time>
      </trkpt>
      <trkpt lat="46.25286" lon="6.37271">
        <ele>704</ele>
        <time>2020-02-08T11:56:53Z</time>
      </trkpt>
      <trkpt lat="46.25275" lon="6.37285">
        <ele>705</ele>
        <time>2020-02-08T11:56:57Z</time>
      </trkpt>
      <trkpt lat="46.25264" lon="6.373">
        <ele>705</ele>
        <time>2020-02-08T11:57:01Z</time>
      </trkpt>
      <trkpt lat="46.25253" lon="6.37315">
        <ele>706</ele>
        <time>2020-02-08T11:57:05Z</time>
      </trkpt>
      <trkpt lat="46.25241" lon="6.37332">
        <ele>706</ele>
        <time>2020-02-08T11:57:09Z</time>
      </trkpt>
      <trkpt lat="46.25228" lon="6.37349">
        <ele>706</ele>
        <time>2020-02-08T11:57:13Z</time>
      </trkpt>
      <trkpt lat="46.25215" lon="6.37367">
        <ele>706</ele>
        <time>2020-02-08T11:57:17Z</time>
      </trkpt>
      <trkpt lat="46.25202" lon="6.37387">
        <ele>705</ele>
        <time>2020-02-08T11:57:21Z</time>
      </trkpt>
      <trkpt lat="46.2519" lon="6.37407">
        <ele>706</ele>
        <time>2020-02-08T11:57:25Z</time>
      </trkpt>
      <trkpt lat="46.2518" lon="6.37427">
        <ele>707</ele>
        <time>2020-02-08T11:57:29Z</time>
      </trkpt>
      <trkpt lat="46.25171" lon="6.37447">
        <ele>707</ele>
        <time>2020-02-08T11:57:33Z</time>
      </trkpt>
      <trkpt lat="46.25161" lon="6.3746">
        <ele>708</ele>
        <time>2020-02-08T11:57:37Z</time>
      </trkpt>
      <trkpt lat="46.25151" lon="6.37464">
        <ele>709</ele>
        <time>2020-02-08T11:57:41Z</time>
      </trkpt>
      <trkpt lat="46.25143" lon="6.37461">
        <ele>710</ele>
        <time>2020-02-08T11:57:45Z</time>
      </trkpt>
      <trkpt lat="46.25142" lon="6.37446">
        <ele>711</ele>
        <time>2020-02-08T11:57:49Z</time>
      </trkpt>
      <trkpt lat="46.25146" lon="6.3743">
        <ele>712</ele>
        <time>2020-02-08T11:57:53Z</time>
      </trkpt>
      <trkpt lat="46.2515" lon="6.37413">
        <ele>713</ele>
        <time>2020-02-08T11:57:57Z</time>
      </trkpt>
      <trkpt lat="46.25154" lon="6.37395">
        <ele>714</ele>
        <time>2020-02-08T11:58:01Z</time>
      </trkpt>
      <trkpt lat="46.25158" lon="6.37377">
        <ele>715</ele>
        <time>2020-02-08T11:58:05Z</time>
      </trkpt>
      <trkpt lat="46.25162" lon="6.3736">
        <ele>715</ele>
        <time>2020-02-08T11:58:09Z</time>
      </trkpt>
      <trkpt lat="46.25166" lon="6.37342">
        <ele>717</ele>
        <time>2020-02-08T11:58:13Z</time>
      </trkpt>
      <trkpt lat="46.2517" lon="6.37324">
        <ele>717</ele>
        <time>2020-02-08T11:58:17Z</time>
      </trkpt>
      <trkpt lat="46.25175" lon="6.37306">
        <ele>718</ele>
        <time>2020-02-08T11:58:21Z</time>
      </trkpt>
      <trkpt lat="46.25179" lon="6.37288">
        <ele>717</ele>
        <time>2020-02-08T11:58:25Z</time>
      </trkpt>
      <trkpt lat="46.25183" lon="6.3727">
        <ele>717</ele>
        <time>2020-02-08T11:58:29Z</time>
      </trkpt>
      <trkpt lat="46.25188" lon="6.37252">
        <ele>718</ele>
        <time>2020-02-08T11:58:33Z</time>
      </trkpt>
      <trkpt lat="46.25192" lon="6.37234">
        <ele>720</ele>
        <time>2020-02-08T11:58:37Z</time>
      </trkpt>
      <trkpt lat="46.25196" lon="6.37217">
        <ele>721</ele>
        <time>2020-02-08T11:58:41Z</time>
      </trkpt>
      <trkpt lat="46.25201" lon="6.37199">
        <ele>722</ele>
        <time>2020-02-08T11:58:45Z</time>
      </trkpt>
      <trkpt lat="46.25206" lon="6.37182">
        <ele>722</ele>
        <time>2020-02-08T11:58:49Z</time>
      </trkpt>
      <trkpt lat="46.2521" lon="6.37164">
        <ele>722</ele>
        <time>2020-02-08T11:58:53Z</time>
      </trkpt>
      <trkpt lat="46.25215" lon="6.37145">
        <ele>722</ele>
        <time>2020-02-08T11:58:57Z</time>
      </trkpt>
      <trkpt lat="46.25219" lon="6.37128">
        <ele>723</ele>
        <time>2020-02-08T11:59:01Z</time>
      </trkpt>
      <trkpt lat="46.25223" lon="6.37109">
        <ele>724</ele>
        <time>2020-02-08T11:59:05Z</time>
      </trkpt>
      <trkpt lat="46.25227" lon="6.37091">
        <ele>724</ele>
        <time>2020-02-08T11:59:09Z</time>
      </trkpt>
      <trkpt lat="46.25229" lon="6.37071">
        <ele>725</ele>
        <time>2020-02-08T11:59:13Z</time>
      </trkpt>
      <trkpt lat="46.25232" lon="6.37053">
        <ele>725</ele>
        <time>2020-02-08T11:59:17Z</time>
      </trkpt>
      <trkpt lat="46.25233" lon="6.37034">
        <ele>726</ele>
        <time>2020-02-08T11:59:21Z</time>
      </trkpt>
      <trkpt lat="46.25233" lon="6.37014">
        <ele>728</ele>
        <time>2020-02-08T11:59:25Z</time>
      </trkpt>
      <trkpt lat="46.25233" lon="6.36996">
        <ele>729</ele>
        <time>2020-02-08T11:59:29Z</time>
      </trkpt>
      <trkpt lat="46.25232" lon="6.36977">
        <ele>731</ele>
        <time>2020-02-08T11:59:33Z</time>
      </trkpt>
      <trkpt lat="46.25231" lon="6.36958">
        <ele>731</ele>
        <time>2020-02-08T11:59:37Z</time>
      </trkpt>
      <trkpt lat="46.2523" lon="6.36939">
        <ele>732</ele>
        <time>2020-02-08T11:59:41Z</time>
      </trkpt>
      <trkpt lat="46.25229" lon="6.36919">
        <ele>733</ele>
        <time>2020-02-08T11:59:45Z</time>
      </trkpt>
      <trkpt lat="46.25229" lon="6.369">
        <ele>735</ele>
        <time>2020-02-08T11:59:49Z</time>
      </trkpt>
      <trkpt lat="46.25228" lon="6.36881">
        <ele>737</ele>
        <time>2020-02-08T11:59:53Z</time>
      </trkpt>
      <trkpt lat="46.25227" lon="6.36862">
        <ele>738</ele>
        <time>2020-02-08T11:59:57Z</time>
      </trkpt>
      <trkpt lat="46.25227" lon="6.36843">
        <ele>737</ele>
        <time>2020-02-08T12:00:01Z</time>
      </trkpt>
      <trkpt lat="46.25226" lon="6.36824">
        <ele>735</ele>
        <time>2020-02-08T12:00:05Z</time>
      </trkpt>
      <trkpt lat="46.25225" lon="6.36805">
        <ele>735</ele>
        <time>2020-02-08T12:00:09Z</time>
      </trkpt>
      <trkpt lat="46.25224" lon="6.36787">
        <ele>736</ele>
        <time>2020-02-08T12:00:13Z</time>
      </trkpt>
      <trkpt lat="46.25223" lon="6.36768">
        <ele>736</ele>
        <time>2020-02-08T12:00:17Z</time>
      </trkpt>
      <trkpt lat="46.25223" lon="6.36748">
        <ele>736</ele>
        <time>2020-02-08T12:00:21Z</time>
      </trkpt>
      <trkpt lat="46.25222" lon="6.3673">
        <ele>738</ele>
        <time>2020-02-08T12:00:25Z</time>
      </trkpt>
      <trkpt lat="46.2522" lon="6.36713">
        <ele>738</ele>
        <time>2020-02-08T12:00:29Z</time>
      </trkpt>
      <trkpt lat="46.25213" lon="6.36698">
        <ele>738</ele>
        <time>2020-02-08T12:00:33Z</time>
      </trkpt>
      <trkpt lat="46.25203" lon="6.36688">
        <ele>739</ele>
        <time>2020-02-08T12:00:37Z</time>
      </trkpt>
      <trkpt lat="46.2519" lon="6.36683">
        <ele>742</ele>
        <time>2020-02-08T12:00:41Z</time>
      </trkpt>
      <trkpt lat="46.25179" lon="6.36686">
        <ele>746</ele>
        <time>2020-02-08T12:00:45Z</time>
      </trkpt>
      <trkpt lat="46.25169" lon="6.36694">
        <ele>750</ele>
        <time>2020-02-08T12:00:49Z</time>
      </trkpt>
      <trkpt lat="46.25162" lon="6.36707">
        <ele>753</ele>
        <time>2020-02-08T12:00:53Z</time>
      </trkpt>
      <trkpt lat="46.25158" lon="6.36725">
        <ele>755</ele>
        <time>2020-02-08T12:00:57Z</time>
      </trkpt>
      <trkpt lat="46.25158" lon="6.36745">
        <ele>755</ele>
        <time>2020-02-08T12:01:01Z</time>
      </trkpt>
      <trkpt lat="46.25159" lon="6.36764">
        <ele>754</ele>
        <time>2020-02-08T12:01:05Z</time>
      </trkpt>
      <trkpt lat="46.2516" lon="6.36782">
        <ele>753</ele>
        <time>2020-02-08T12:01:09Z</time>
      </trkpt>
      <trkpt lat="46.2516" lon="6.36801">
        <ele>753</ele>
        <time>2020-02-08T12:01:13Z</time>
      </trkpt>
      <trkpt lat="46.25158" lon="6.3682">
        <ele>752</ele>
        <time>2020-02-08T12:01:17Z</time>
      </trkpt>
      <trkpt lat="46.25154" lon="6.36837">
        <ele>751</ele>
        <time>2020-02-08T12:01:21Z</time>
      </trkpt>
      <trkpt lat="46.25148" lon="6.36853">
        <ele>751</ele>
        <time>2020-02-08T12:01:25Z</time>
      </trkpt>
      <trkpt lat="46.2514" lon="6.36867">
        <ele>752</ele>
        <time>2020-02-08T12:01:29Z</time>
      </trkpt>
      <trkpt lat="46.25131" lon="6.36879">
        <ele>752</ele>
        <time>2020-02-08T12:01:33Z</time>
      </trkpt>
      <trkpt lat="46.2512" lon="6.36891">
        <ele>753</ele>
        <time>2020-02-08T12:01:37Z</time>
      </trkpt>
      <trkpt lat="46.2511" lon="6.36903">
        <ele>754</ele>
        <time>2020-02-08T12:01:41Z</time>
      </trkpt>
      <trkpt lat="46.251" lon="6.36915">
        <ele>755</ele>
        <time>2020-02-08T12:01:45Z</time>
      </trkpt>
      <trkpt lat="46.25091" lon="6.36927">
        <ele>756</ele>
        <time>2020-02-08T12:01:49Z</time>
      </trkpt>
      <trkpt lat="46.25081" lon="6.36939">
        <ele>756</ele>
        <time>2020-02-08T12:01:53Z</time>
      </trkpt>
      <trkpt lat="46.25071" lon="6.36951">
        <ele>757</ele>
        <time>2020-02-08T12:01:57Z</time>
      </trkpt>
      <trkpt lat="46.25061" lon="6.36962">
        <ele>758</ele>
        <time>2020-02-08T12:02:01Z</time>
      </trkpt>
      <trkpt lat="46.25052" lon="6.36973">
        <ele>760</ele>
        <time>2020-02-08T12:02:05Z</time>
      </trkpt>
      <trkpt lat="46.25042" lon="6.36986">
        <ele>762</ele>
        <time>2020-02-08T12:02:09Z</time>
      </trkpt>
      <trkpt lat="46.25034" lon="6.36999">
        <ele>764</ele>
        <time>2020-02-08T12:02:13Z</time>
      </trkpt>
      <trkpt lat="46.25027" lon="6.37012">
        <ele>765</ele>
        <time>2020-02-08T12:02:17Z</time>
      </trkpt>
      <trkpt lat="46.2502" lon="6.37028">
        <ele>765</ele>
        <time>2020-02-08T12:02:21Z</time>
      </trkpt>
      <trkpt lat="46.25015" lon="6.37044">
        <ele>765</ele>
        <time>2020-02-08T12:02:25Z</time>
      </trkpt>
      <trkpt lat="46.25009" lon="6.37061">
        <ele>764</ele>
        <time>2020-02-08T12:02:29Z</time>
      </trkpt>
      <trkpt lat="46.25004" lon="6.37079">
        <ele>764</ele>
        <time>2020-02-08T12:02:33Z</time>
      </trkpt>
      <trkpt lat="46.24999" lon="6.37097">
        <ele>765</ele>
        <time>2020-02-08T12:02:37Z</time>
      </trkpt>
      <trkpt lat="46.24993" lon="6.37114">
        <ele>766</ele>
        <time>2020-02-08T12:02:41Z</time>
      </trkpt>
      <trkpt lat="46.24988" lon="6.37132">
        <ele>767</ele>
        <time>2020-02-08T12:02:45Z</time>
      </trkpt>
      <trkpt lat="46.24982" lon="6.3715">
        <ele>767</ele>
        <time>2020-02-08T12:02:49Z</time>
      </trkpt>
      <trkpt lat="46.24977" lon="6.37167">
        <ele>768</ele>
        <time>2020-02-08T12:02:53Z</time>
      </trkpt>
      <trkpt lat="46.24971" lon="6.37184">
        <ele>768</ele>
        <time>2020-02-08T12:02:57Z</time>
      </trkpt>
      <trkpt lat="46.24963" lon="6.37199">
        <ele>768</ele>
        <time>2020-02-08T12:03:01Z</time>
      </trkpt>
      <trkpt lat="46.24954" lon="6.37212">
        <ele>770</ele>
        <time>2020-02-08T12:03:05Z</time>
      </trkpt>
      <trkpt lat="46.24945" lon="6.37222">
        <ele>772</ele>
        <time>2020-02-08T12:03:09Z</time>
      </trkpt>
      <trkpt lat="46.24934" lon="6.3723">
        <ele>774</ele>
        <time>2020-02-08T12:03:13Z</time>
      </trkpt>
      <trkpt lat="46.24922" lon="6.37234">
        <ele>775</ele>
        <time>2020-02-08T12:03:17Z</time>
      </trkpt>
      <trkpt lat="46.24909" lon="6.37234">
        <ele>777</ele>
        <time>2020-02-08T12:03:21Z</time>
      </trkpt>
      <trkpt lat="46.24896" lon="6.37229">
        <ele>779</ele>
        <time>2020-02-08T12:03:25Z</time>
      </trkpt>
      <trkpt lat="46.24884" lon="6.37223">
        <ele>781</ele>
        <time>2020-02-08T12:03:29Z</time>
      </trkpt>
      <trkpt lat="46.24872" lon="6.37217">
        <ele>784</ele>
        <time>2020-02-08T12:03:33Z</time>
      </trkpt>
      <trkpt lat="46.24859" lon="6.37214">
        <ele>787</ele>
        <time>2020-02-08T12:03:37Z</time>
      </trkpt>
      <trkpt lat="46.24846" lon="6.37216">
        <ele>787</ele>
        <time>2020-02-08T12:03:41Z</time>
      </trkpt>
      <trkpt lat="46.24836" lon="6.37222">
        <ele>786</ele>
        <time>2020-02-08T12:03:45Z</time>
      </trkpt>
      <trkpt lat="46.24829" lon="6.37239">
        <ele>785</ele>
        <time>2020-02-08T12:03:49Z</time>
      </trkpt>
      <trkpt lat="46.24826" lon="6.37261">
        <ele>783</ele>
        <time>2020-02-08T12:03:53Z</time>
      </trkpt>
      <trkpt lat="46.24829" lon="6.3728">
        <ele>781</ele>
        <time>2020-02-08T12:03:57Z</time>
      </trkpt>
      <trkpt lat="46.24833" lon="6.37298">
        <ele>779</ele>
        <time>2020-02-08T12:04:01Z</time>
      </trkpt>
      <trkpt lat="46.24838" lon="6.37316">
        <ele>779</ele>
        <time>2020-02-08T12:04:05Z</time>
      </trkpt>
      <trkpt lat="46.24838" lon="6.37335">
        <ele>780</ele>
        <time>2020-02-08T12:04:09Z</time>
      </trkpt>
      <trkpt lat="46.24836" lon="6.37353">
        <ele>781</ele>
        <time>2020-02-08T12:04:13Z</time>
      </trkpt>
      <trkpt lat="46.2483" lon="6.3737">
        <ele>783</ele>
        <time>2020-02-08T12:04:17Z</time>
      </trkpt>
      <trkpt lat="46.24823" lon="6.37382">
        <ele>787</ele>
        <time>2020-02-08T12:04:21Z</time>
      </trkpt>
      <trkpt lat="46.24815" lon="6.37396">
        <ele>791</ele>
        <time>2020-02-08T12:04:25Z</time>
      </trkpt>
      <trkpt lat="46.2481" lon="6.3741">
        <ele>793</ele>
        <time>2020-02-08T12:04:29Z</time>
      </trkpt>
      <trkpt lat="46.24806" lon="6.37434">
        <ele>795</ele>
        <time>2020-02-08T12:04:33Z</time>
      </trkpt>
      <trkpt lat="46.2481" lon="6.37455">
        <ele>796</ele>
        <time>2020-02-08T12:04:37Z</time>
      </trkpt>
      <trkpt lat="46.24816" lon="6.37472">
        <ele>797</ele>
        <time>2020-02-08T12:04:41Z</time>
      </trkpt>
      <trkpt lat="46.24826" lon="6.37486">
        <ele>798</ele>
        <time>2020-02-08T12:04:45Z</time>
      </trkpt>
      <trkpt lat="46.24839" lon="6.37498">
        <ele>797</ele>
        <time>2020-02-08T12:04:49Z</time>
      </trkpt>
      <trkpt lat="46.24853" lon="6.37512">
        <ele>794</ele>
        <time>2020-02-08T12:04:53Z</time>
      </trkpt>
      <trkpt lat="46.24863" lon="6.37528">
        <ele>791</ele>
        <time>2020-02-08T12:04:57Z</time>
      </trkpt>
      <trkpt lat="46.24875" lon="6.37545">
        <ele>785</ele>
        <time>2020-02-08T12:05:01Z</time>
      </trkpt>
      <trkpt lat="46.24884" lon="6.37563">
        <ele>779</ele>
        <time>2020-02-08T12:05:05Z</time>
      </trkpt>
      <trkpt lat="46.24881" lon="6.37583">
        <ele>779</ele>
        <time>2020-02-08T12:05:09Z</time>
      </trkpt>
      <trkpt lat="46.24861" lon="6.37607">
        <ele>787</ele>
        <time>2020-02-08T12:05:13Z</time>
      </trkpt>
      <trkpt lat="46.24849" lon="6.37628">
        <ele>794</ele>
        <time>2020-02-08T12:05:17Z</time>
      </trkpt>
      <trkpt lat="46.24842" lon="6.37647">
        <ele>798</ele>
        <time>2020-02-08T12:05:21Z</time>
      </trkpt>
      <trkpt lat="46.24836" lon="6.37664">
        <ele>801</ele>
        <time>2020-02-08T12:05:25Z</time>
      </trkpt>
      <trkpt lat="46.24828" lon="6.3768">
        <ele>803</ele>
        <time>2020-02-08T12:05:29Z</time>
      </trkpt>
      <trkpt lat="46.24818" lon="6.3769">
        <ele>806</ele>
        <time>2020-02-08T12:05:33Z</time>
      </trkpt>
      <trkpt lat="46.24808" lon="6.37699">
        <ele>809</ele>
        <time>2020-02-08T12:05:37Z</time>
      </trkpt>
      <trkpt lat="46.24799" lon="6.37707">
        <ele>810</ele>
        <time>2020-02-08T12:05:41Z</time>
      </trkpt>
      <trkpt lat="46.24789" lon="6.37719">
        <ele>812</ele>
        <time>2020-02-08T12:05:45Z</time>
      </trkpt>
      <trkpt lat="46.2478" lon="6.37729">
        <ele>814</ele>
        <time>2020-02-08T12:05:49Z</time>
      </trkpt>
      <trkpt lat="46.2477" lon="6.37743">
        <ele>815</ele>
        <time>2020-02-08T12:05:53Z</time>
      </trkpt>
      <trkpt lat="46.24762" lon="6.37755">
        <ele>816</ele>
        <time>2020-02-08T12:05:57Z</time>
      </trkpt>
      <trkpt lat="46.24756" lon="6.37765">
        <ele>817</ele>
        <time>2020-02-08T12:06:01Z</time>
      </trkpt>
      <trkpt lat="46.24753" lon="6.37778">
        <ele>817</ele>
        <time>2020-02-08T12:06:05Z</time>
      </trkpt>
      <trkpt lat="46.24753" lon="6.378">
        <ele>816</ele>
        <time>2020-02-08T12:06:09Z</time>
      </trkpt>
      <trkpt lat="46.24761" lon="6.37823">
        <ele>813</ele>
        <time>2020-02-08T12:06:13Z</time>
      </trkpt>
      <trkpt lat="46.24773" lon="6.37837">
        <ele>809</ele>
        <time>2020-02-08T12:06:17Z</time>
      </trkpt>
      <trkpt lat="46.24785" lon="6.37849">
        <ele>806</ele>
        <time>2020-02-08T12:06:21Z</time>
      </trkpt>
      <trkpt lat="46.24796" lon="6.37863">
        <ele>805</ele>
        <time>2020-02-08T12:06:25Z</time>
      </trkpt>
      <trkpt lat="46.24805" lon="6.37879">
        <ele>803</ele>
        <time>2020-02-08T12:06:29Z</time>
      </trkpt>
      <trkpt lat="46.24811" lon="6.37896">
        <ele>803</ele>
        <time>2020-02-08T12:06:33Z</time>
      </trkpt>
      <trkpt lat="46.24818" lon="6.37912">
        <ele>803</ele>
        <time>2020-02-08T12:06:37Z</time>
      </trkpt>
      <trkpt lat="46.24821" lon="6.3793">
        <ele>804</ele>
        <time>2020-02-08T12:06:41Z</time>
      </trkpt>
      <trkpt lat="46.24828" lon="6.37946">
        <ele>804</ele>
        <time>2020-02-08T12:06:45Z</time>
      </trkpt>
      <trkpt lat="46.24836" lon="6.37962">
        <ele>803</ele>
        <time>2020-02-08T12:06:49Z</time>
      </trkpt>
      <trkpt lat="46.24843" lon="6.37975">
        <ele>804</ele>
        <time>2020-02-08T12:06:53Z</time>
      </trkpt>
      <trkpt lat="46.24848" lon="6.37983">
        <ele>805</ele>
        <time>2020-02-08T12:06:57Z</time>
      </trkpt>
      <trkpt lat="46.2486" lon="6.37992">
        <ele>805</ele>
        <time>2020-02-08T12:07:01Z</time>
      </trkpt>
      <trkpt lat="46.24871" lon="6.38">
        <ele>806</ele>
        <time>2020-02-08T12:07:05Z</time>
      </trkpt>
      <trkpt lat="46.24884" lon="6.38015">
        <ele>809</ele>
        <time>2020-02-08T12:07:09Z</time>
      </trkpt>
      <trkpt lat="46.24891" lon="6.38032">
        <ele>811</ele>
        <time>2020-02-08T12:07:13Z</time>
      </trkpt>
      <trkpt lat="46.24897" lon="6.38049">
        <ele>812</ele>
        <time>2020-02-08T12:07:17Z</time>
      </trkpt>
      <trkpt lat="46.24897" lon="6.3807">
        <ele>814</ele>
        <time>2020-02-08T12:07:21Z</time>
      </trkpt>
      <trkpt lat="46.24886" lon="6.38095">
        <ele>821</ele>
        <time>2020-02-08T12:07:25Z</time>
      </trkpt>
      <trkpt lat="46.24883" lon="6.38114">
        <ele>825</ele>
        <time>2020-02-08T12:07:29Z</time>
      </trkpt>
      <trkpt lat="46.2488" lon="6.38132">
        <ele>828</ele>
        <time>2020-02-08T12:07:33Z</time>
      </trkpt>
      <trkpt lat="46.24874" lon="6.38151">
        <ele>832</ele>
        <time>2020-02-08T12:07:37Z</time>
      </trkpt>
      <trkpt lat="46.24869" lon="6.38169">
        <ele>834</ele>
        <time>2020-02-08T12:07:41Z</time>
      </trkpt>
      <trkpt lat="46.24872" lon="6.38186">
        <ele>836</ele>
        <time>2020-02-08T12:07:45Z</time>
      </trkpt>
      <trkpt lat="46.24882" lon="6.38199">
        <ele>835</ele>
        <time>2020-02-08T12:07:49Z</time>
      </trkpt>
      <trkpt lat="46.24891" lon="6.38211">
        <ele>833</ele>
        <time>2020-02-08T12:07:53Z</time>
      </trkpt>
      <trkpt lat="46.24898" lon="6.38227">
        <ele>831</ele>
        <time>2020-02-08T12:07:57Z</time>
      </trkpt>
      <trkpt lat="46.24903" lon="6.38244">
        <ele>830</ele>
        <time>2020-02-08T12:08:01Z</time>
      </trkpt>
      <trkpt lat="46.24907" lon="6.38261">
        <ele>831</ele>
        <time>2020-02-08T12:08:05Z</time>
      </trkpt>
      <trkpt lat="46.24912" lon="6.38278">
        <ele>833</ele>
        <time>2020-02-08T12:08:09Z</time>
      </trkpt>
      <trkpt lat="46.24913" lon="6.38295">
        <ele>836</ele>
        <time>2020-02-08T12:08:13Z</time>
      </trkpt>
      <trkpt lat="46.24917" lon="6.3831">
        <ele>838</ele>
        <time>2020-02-08T12:08:17Z</time>
      </trkpt>
      <trkpt lat="46.24922" lon="6.38325">
        <ele>840</ele>
        <time>2020-02-08T12:08:21Z</time>
      </trkpt>
      <trkpt lat="46.24928" lon="6.38342">
        <ele>840</ele>
        <time>2020-02-08T12:08:25Z</time>
      </trkpt>
      <trkpt lat="46.24934" lon="6.38358">
        <ele>839</ele>
        <time>2020-02-08T12:08:29Z</time>
      </trkpt>
      <trkpt lat="46.24939" lon="6.38376">
        <ele>839</ele>
        <time>2020-02-08T12:08:33Z</time>
      </trkpt>
      <trkpt lat="46.24941" lon="6.38394">
        <ele>842</ele>
        <time>2020-02-08T12:08:37Z</time>
      </trkpt>
      <trkpt lat="46.24939" lon="6.38413">
        <ele>846</ele>
        <time>2020-02-08T12:08:41Z</time>
      </trkpt>
      <trkpt lat="46.24939" lon="6.38431">
        <ele>849</ele>
        <time>2020-02-08T12:08:45Z</time>
      </trkpt>
      <trkpt lat="46.24943" lon="6.38448">
        <ele>852</ele>
        <time>2020-02-08T12:08:49Z</time>
      </trkpt>
      <trkpt lat="46.24951" lon="6.38461">
        <ele>853</ele>
        <time>2020-02-08T12:08:53Z</time>
      </trkpt>
      <trkpt lat="46.2496" lon="6.38469">
        <ele>852</ele>
        <time>2020-02-08T12:08:57Z</time>
      </trkpt>
      <trkpt lat="46.24969" lon="6.38471">
        <ele>850</ele>
        <time>2020-02-08T12:09:01Z</time>
      </trkpt>
      <trkpt lat="46.24979" lon="6.38471">
        <ele>848</ele>
        <time>2020-02-08T12:09:05Z</time>
      </trkpt>
      <trkpt lat="46.24989" lon="6.38477">
        <ele>849</ele>
        <time>2020-02-08T12:09:09Z</time>
      </trkpt>
      <trkpt lat="46.25001" lon="6.38493">
        <ele>852</ele>
        <time>2020-02-08T12:09:13Z</time>
      </trkpt>
      <trkpt lat="46.25013" lon="6.3851">
        <ele>852</ele>
        <time>2020-02-08T12:09:17Z</time>
      </trkpt>
      <trkpt lat="46.25026" lon="6.38526">
        <ele>850</ele>
        <time>2020-02-08T12:09:21Z</time>
      </trkpt>
      <trkpt lat="46.25035" lon="6.38543">
        <ele>848</ele>
        <time>2020-02-08T12:09:25Z</time>
      </trkpt>
      <trkpt lat="46.2504" lon="6.38562">
        <ele>849</ele>
        <time>2020-02-08T12:09:29Z</time>
      </trkpt>
      <trkpt lat="46.25047" lon="6.38577">
        <ele>848</ele>
        <time>2020-02-08T12:09:33Z</time>
      </trkpt>
      <trkpt lat="46.25055" lon="6.38592">
        <ele>848</ele>
        <time>2020-02-08T12:09:37Z</time>
      </trkpt>
      <trkpt lat="46.2506" lon="6.3861">
        <ele>854</ele>
        <time>2020-02-08T12:09:41Z</time>
      </trkpt>
      <trkpt lat="46.25067" lon="6.38627">
        <ele>855</ele>
        <time>2020-02-08T12:09:45Z</time>
      </trkpt>
      <trkpt lat="46.25072" lon="6.38644">
        <ele>857</ele>
        <time>2020-02-08T12:09:49Z</time>
      </trkpt>
      <trkpt lat="46.25081" lon="6.38659">
        <ele>855</ele>
        <time>2020-02-08T12:09:53Z</time>
      </trkpt>
      <trkpt lat="46.25088" lon="6.38675">
        <ele>855</ele>
        <time>2020-02-08T12:09:57Z</time>
      </trkpt>
      <trkpt lat="46.25096" lon="6.3869">
        <ele>854</ele>
        <time>2020-02-08T12:10:01Z</time>
      </trkpt>
      <trkpt lat="46.25106" lon="6.38703">
        <ele>851</ele>
        <time>2020-02-08T12:10:05Z</time>
      </trkpt>
      <trkpt lat="46.25115" lon="6.38717">
        <ele>850</ele>
        <time>2020-02-08T12:10:09Z</time>
      </trkpt>
      <trkpt lat="46.25124" lon="6.38732">
        <ele>851</ele>
        <time>2020-02-08T12:10:13Z</time>
      </trkpt>
      <trkpt lat="46.25133" lon="6.38746">
        <ele>849</ele>
        <time>2020-02-08T12:10:17Z</time>
      </trkpt>
      <trkpt lat="46.25142" lon="6.38759">
        <ele>848</ele>
        <time>2020-02-08T12:10:21Z</time>
      </trkpt>
      <trkpt lat="46.25152" lon="6.38772">
        <ele>847</ele>
        <time>2020-02-08T12:10:25Z</time>
      </trkpt>
      <trkpt lat="46.25163" lon="6.38785">
        <ele>845</ele>
        <time>2020-02-08T12:10:29Z</time>
      </trkpt>
      <trkpt lat="46.25173" lon="6.38799">
        <ele>844</ele>
        <time>2020-02-08T12:10:33Z</time>
      </trkpt>
      <trkpt lat="46.25184" lon="6.38813">
        <ele>843</ele>
        <time>2020-02-08T12:10:37Z</time>
      </trkpt>
      <trkpt lat="46.25196" lon="6.38826">
        <ele>840</ele>
        <time>2020-02-08T12:10:41Z</time>
      </trkpt>
      <trkpt lat="46.25207" lon="6.38841">
        <ele>842</ele>
        <time>2020-02-08T12:10:45Z</time>
      </trkpt>
      <trkpt lat="46.25213" lon="6.38858">
        <ele>846</ele>
        <time>2020-02-08T12:10:49Z</time>
      </trkpt>
      <trkpt lat="46.25218" lon="6.38875">
        <ele>850</ele>
        <time>2020-02-08T12:10:53Z</time>
      </trkpt>
      <trkpt lat="46.2522" lon="6.38894">
        <ele>856</ele>
        <time>2020-02-08T12:10:57Z</time>
      </trkpt>
      <trkpt lat="46.25226" lon="6.3891">
        <ele>858</ele>
        <time>2020-02-08T12:11:01Z</time>
      </trkpt>
      <trkpt lat="46.25236" lon="6.38923">
        <ele>856</ele>
        <time>2020-02-08T12:11:05Z</time>
      </trkpt>
      <trkpt lat="46.25245" lon="6.38938">
        <ele>853</ele>
        <time>2020-02-08T12:11:09Z</time>
      </trkpt>
      <trkpt lat="46.25243" lon="6.38958">
        <ele>861</ele>
        <time>2020-02-08T12:11:13Z</time>
      </trkpt>
      <trkpt lat="46.25245" lon="6.38975">
        <ele>864</ele>
        <time>2020-02-08T12:11:17Z</time>
      </trkpt>
      <trkpt lat="46.25247" lon="6.38994">
        <ele>867</ele>
        <time>2020-02-08T12:11:21Z</time>
      </trkpt>
      <trkpt lat="46.25251" lon="6.39013">
        <ele>868</ele>
        <time>2020-02-08T12:11:25Z</time>
      </trkpt>
      <trkpt lat="46.25254" lon="6.39032">
        <ele>870</ele>
        <time>2020-02-08T12:11:29Z</time>
      </trkpt>
      <trkpt lat="46.25256" lon="6.39051">
        <ele>871</ele>
        <time>2020-02-08T12:11:33Z</time>
      </trkpt>
      <trkpt lat="46.25253" lon="6.3907">
        <ele>873</ele>
        <time>2020-02-08T12:11:37Z</time>
      </trkpt>
      <trkpt lat="46.25248" lon="6.39087">
        <ele>875</ele>
        <time>2020-02-08T12:11:41Z</time>
      </trkpt>
      <trkpt lat="46.25242" lon="6.39103">
        <ele>877</ele>
        <time>2020-02-08T12:11:45Z</time>
      </trkpt>
      <trkpt lat="46.25237" lon="6.3912">
        <ele>879</ele>
        <time>2020-02-08T12:11:49Z</time>
      </trkpt>
      <trkpt lat="46.25232" lon="6.39138">
        <ele>880</ele>
        <time>2020-02-08T12:11:53Z</time>
      </trkpt>
      <trkpt lat="46.25232" lon="6.39157">
        <ele>881</ele>
        <time>2020-02-08T12:11:57Z</time>
      </trkpt>
      <trkpt lat="46.25235" lon="6.39175">
        <ele>881</ele>
        <time>2020-02-08T12:12:01Z</time>
      </trkpt>
      <trkpt lat="46.2524" lon="6.39194">
        <ele>881</ele>
        <time>2020-02-08T12:12:05Z</time>
      </trkpt>
      <trkpt lat="46.25242" lon="6.39214">
        <ele>881</ele>
        <time>2020-02-08T12:12:09Z</time>
      </trkpt>
      <trkpt lat="46.25245" lon="6.39232">
        <ele>882</ele>
        <time>2020-02-08T12:12:13Z</time>
      </trkpt>
      <trkpt lat="46.25244" lon="6.39249">
        <ele>884</ele>
        <time>2020-02-08T12:12:17Z</time>
      </trkpt>
      <trkpt lat="46.25243" lon="6.39267">
        <ele>884</ele>
        <time>2020-02-08T12:12:21Z</time>
      </trkpt>
      <trkpt lat="46.25238" lon="6.39286">
        <ele>886</ele>
        <time>2020-02-08T12:12:25Z</time>
      </trkpt>
      <trkpt lat="46.25236" lon="6.39304">
        <ele>886</ele>
        <time>2020-02-08T12:12:29Z</time>
      </trkpt>
      <trkpt lat="46.25235" lon="6.39323">
        <ele>887</ele>
        <time>2020-02-08T12:12:33Z</time>
      </trkpt>
      <trkpt lat="46.25232" lon="6.39341">
        <ele>888</ele>
        <time>2020-02-08T12:12:37Z</time>
      </trkpt>
      <trkpt lat="46.25231" lon="6.39359">
        <ele>888</ele>
        <time>2020-02-08T12:12:41Z</time>
      </trkpt>
      <trkpt lat="46.25235" lon="6.39377">
        <ele>886</ele>
        <time>2020-02-08T12:12:45Z</time>
      </trkpt>
      <trkpt lat="46.25243" lon="6.39394">
        <ele>882</ele>
        <time>2020-02-08T12:12:49Z</time>
      </trkpt>
      <trkpt lat="46.2524" lon="6.39415">
        <ele>883</ele>
        <time>2020-02-08T12:12:53Z</time>
      </trkpt>
      <trkpt lat="46.25242" lon="6.39434">
        <ele>883</ele>
        <time>2020-02-08T12:12:57Z</time>
      </trkpt>
      <trkpt lat="46.25241" lon="6.39454">
        <ele>883</ele>
        <time>2020-02-08T12:13:01Z</time>
      </trkpt>
      <trkpt lat="46.25239" lon="6.39474">
        <ele>885</ele>
        <time>2020-02-08T12:13:05Z</time>
      </trkpt>
      <trkpt lat="46.25237" lon="6.39493">
        <ele>888</ele>
        <time>2020-02-08T12:13:09Z</time>
      </trkpt>
      <trkpt lat="46.25234" lon="6.39511">
        <ele>890</ele>
        <time>2020-02-08T12:13:13Z</time>
      </trkpt>
      <trkpt lat="46.25232" lon="6.39529">
        <ele>893</ele>
        <time>2020-02-08T12:13:17Z</time>
      </trkpt>
      <trkpt lat="46.25233" lon="6.39547">
        <ele>892</ele>
        <time>2020-02-08T12:13:21Z</time>
      </trkpt>
      <trkpt lat="46.25239" lon="6.39563">
        <ele>891</ele>
        <time>2020-02-08T12:13:25Z</time>
      </trkpt>
      <trkpt lat="46.25244" lon="6.3958">
        <ele>890</ele>
        <time>2020-02-08T12:13:29Z</time>
      </trkpt>
      <trkpt lat="46.25253" lon="6.39594">
        <ele>890</ele>
        <time>2020-02-08T12:13:33Z</time>
      </trkpt>
      <trkpt lat="46.25262" lon="6.39606">
        <ele>891</ele>
        <time>2020-02-08T12:13:37Z</time>
      </trkpt>
      <trkpt lat="46.25271" lon="6.39616">
        <ele>891</ele>
        <time>2020-02-08T12:13:41Z</time>
      </trkpt>
      <trkpt lat="46.25276" lon="6.3963">
        <ele>893</ele>
        <time>2020-02-08T12:13:45Z</time>
      </trkpt>
      <trkpt lat="46.2528" lon="6.39644">
        <ele>896</ele>
        <time>2020-02-08T12:13:49Z</time>
      </trkpt>
      <trkpt lat="46.25285" lon="6.39658">
        <ele>899</ele>
        <time>2020-02-08T12:13:53Z</time>
      </trkpt>
      <trkpt lat="46.25292" lon="6.39671">
        <ele>900</ele>
        <time>2020-02-08T12:13:57Z</time>
      </trkpt>
      <trkpt lat="46.25298" lon="6.39683">
        <ele>900</ele>
        <time>2020-02-08T12:14:01Z</time>
      </trkpt>
      <trkpt lat="46.25308" lon="6.39698">
        <ele>898</ele>
        <time>2020-02-08T12:14:05Z</time>
      </trkpt>
      <trkpt lat="46.25324" lon="6.39717">
        <ele>891</ele>
        <time>2020-02-08T12:14:09Z</time>
      </trkpt>
      <trkpt lat="46.25337" lon="6.39735">
        <ele>886</ele>
        <time>2020-02-08T12:14:13Z</time>
      </trkpt>
      <trkpt lat="46.25342" lon="6.39753">
        <ele>886</ele>
        <time>2020-02-08T12:14:17Z</time>
      </trkpt>
      <trkpt lat="46.25346" lon="6.3977">
        <ele>888</ele>
        <time>2020-02-08T12:14:21Z</time>
      </trkpt>
      <trkpt lat="46.25348" lon="6.39789">
        <ele>889</ele>
        <time>2020-02-08T12:14:25Z</time>
      </trkpt>
      <trkpt lat="46.25346" lon="6.39809">
        <ele>892</ele>
        <time>2020-02-08T12:14:29Z</time>
      </trkpt>
      <trkpt lat="46.25349" lon="6.39827">
        <ele>891</ele>
        <time>2020-02-08T12:14:33Z</time>
      </trkpt>
      <trkpt lat="46.25348" lon="6.39845">
        <ele>892</ele>
        <time>2020-02-08T12:14:37Z</time>
      </trkpt>
      <trkpt lat="46.25348" lon="6.39863">
        <ele>892</ele>
        <time>2020-02-08T12:14:41Z</time>
      </trkpt>
      <trkpt lat="46.25347" lon="6.39882">
        <ele>893</ele>
        <time>2020-02-08T12:14:45Z</time>
      </trkpt>
      <trkpt lat="46.25344" lon="6.399">
        <ele>895</ele>
        <time>2020-02-08T12:14:49Z</time>
      </trkpt>
      <trkpt lat="46.25339" lon="6.39916">
        <ele>899</ele>
        <time>2020-02-08T12:14:53Z</time>
      </trkpt>
      <trkpt lat="46.25334" lon="6.39934">
        <ele>899</ele>
        <time>2020-02-08T12:14:57Z</time>
      </trkpt>
      <trkpt lat="46.25333" lon="6.39952">
        <ele>898</ele>
        <time>2020-02-08T12:15:01Z</time>
      </trkpt>
      <trkpt lat="46.25334" lon="6.3997">
        <ele>896</ele>
        <time>2020-02-08T12:15:05Z</time>
      </trkpt>
      <trkpt lat="46.25336" lon="6.39987">
        <ele>895</ele>
        <time>2020-02-08T12:15:09Z</time>
      </trkpt>
      <trkpt lat="46.25341" lon="6.40004">
        <ele>891</ele>
        <time>2020-02-08T12:15:13Z</time>
      </trkpt>
      <trkpt lat="46.25348" lon="6.40022">
        <ele>888</ele>
        <time>2020-02-08T12:15:17Z</time>
      </trkpt>
      <trkpt lat="46.25347" lon="6.40043">
        <ele>892</ele>
        <time>2020-02-08T12:15:21Z</time>
      </trkpt>
      <trkpt lat="46.25342" lon="6.40062">
        <ele>898</ele>
        <time>2020-02-08T12:15:25Z</time>
      </trkpt>
      <trkpt lat="46.25331" lon="6.40076">
        <ele>905</ele>
        <time>2020-02-08T12:15:29Z</time>
      </trkpt>
      <trkpt lat="46.25323" lon="6.40089">
        <ele>909</ele>
        <time>2020-02-08T12:15:33Z</time>
      </trkpt>
      <trkpt lat="46.25322" lon="6.40106">
        <ele>906</ele>
        <time>2020-02-08T12:15:37Z</time>
      </trkpt>
      <trkpt lat="46.25328" lon="6.40124">
        <ele>901</ele>
        <time>2020-02-08T12:15:41Z</time>
      </trkpt>
      <trkpt lat="46.25338" lon="6.40141">
        <ele>897</ele>
        <time>2020-02-08T12:15:45Z</time>
      </trkpt>
      <trkpt lat="46.25346" lon="6.40158">
        <ele>897</ele>
        <time>2020-02-08T12:15:49Z</time>
      </trkpt>
      <trkpt lat="46.25357" lon="6.40174">
        <ele>898</ele>
        <time>2020-02-08T12:15:53Z</time>
      </trkpt>
      <trkpt lat="46.25365" lon="6.4019">
        <ele>900</ele>
        <time>2020-02-08T12:15:57Z</time>
      </trkpt>
      <trkpt lat="46.25374" lon="6.40205">
        <ele>902</ele>
        <time>2020-02-08T12:16:01Z</time>
      </trkpt>
      <trkpt lat="46.25381" lon="6.40221">
        <ele>903</ele>
        <time>2020-02-08T12:16:05Z</time>
      </trkpt>
      <trkpt lat="46.25392" lon="6.40235">
        <ele>903</ele>
        <time>2020-02-08T12:16:09Z</time>
      </trkpt>
      <trkpt lat="46.25402" lon="6.40248">
        <ele>903</ele>
        <time>2020-02-08T12:16:13Z</time>
      </trkpt>
      <trkpt lat="46.25412" lon="6.40262">
        <ele>904</ele>
        <time>2020-02-08T12:16:17Z</time>
      </trkpt>
      <trkpt lat="46.25413" lon="6.40281">
        <ele>906</ele>
        <time>2020-02-08T12:16:21Z</time>
      </trkpt>
      <trkpt lat="46.25406" lon="6.40303">
        <ele>909</ele>
        <time>2020-02-08T12:16:25Z</time>
      </trkpt>
      <trkpt lat="46.254" lon="6.40324">
        <ele>912</ele>
        <time>2020-02-08T12:16:29Z</time>
      </trkpt>
      <trkpt lat="46.25398" lon="6.40343">
        <ele>914</ele>
        <time>2020-02-08T12:16:33Z</time>
      </trkpt>
      <trkpt lat="46.254" lon="6.40361">
        <ele>914</ele>
        <time>2020-02-08T12:16:37Z</time>
      </trkpt>
      <trkpt lat="46.25404" lon="6.40378">
        <ele>914</ele>
        <time>2020-02-08T12:16:41Z</time>
      </trkpt>
      <trkpt lat="46.25411" lon="6.40395">
        <ele>914</ele>
        <time>2020-02-08T12:16:45Z</time>
      </trkpt>
      <trkpt lat="46.25419" lon="6.4041">
        <ele>913</ele>
        <time>2020-02-08T12:16:49Z</time>
      </trkpt>
      <trkpt lat="46.25429" lon="6.40424">
        <ele>913</ele>
        <time>2020-02-08T12:16:53Z</time>
      </trkpt>
      <trkpt lat="46.25439" lon="6.40439">
        <ele>913</ele>
        <time>2020-02-08T12:16:57Z</time>
      </trkpt>
      <trkpt lat="46.25444" lon="6.40457">
        <ele>914</ele>
        <time>2020-02-08T12:17:01Z</time>
      </trkpt>
      <trkpt lat="46.25445" lon="6.40477">
        <ele>914</ele>
        <time>2020-02-08T12:17:05Z</time>
      </trkpt>
      <trkpt lat="46.25439" lon="6.40495">
        <ele>915</ele>
        <time>2020-02-08T12:17:09Z</time>
      </trkpt>
      <trkpt lat="46.25429" lon="6.40505">
        <ele>916</ele>
        <time>2020-02-08T12:17:13Z</time>
      </trkpt>
      <trkpt lat="46.25416" lon="6.40508">
        <ele>916</ele>
        <time>2020-02-08T12:17:17Z</time>
      </trkpt>
      <trkpt lat="46.25406" lon="6.40517">
        <ele>918</ele>
        <time>2020-02-08T12:17:21Z</time>
      </trkpt>
      <trkpt lat="46.254" lon="6.40529">
        <ele>920</ele>
        <time>2020-02-08T12:17:25Z</time>
      </trkpt>
      <trkpt lat="46.25395" lon="6.40539">
        <ele>922</ele>
        <time>2020-02-08T12:17:29Z</time>
      </trkpt>
      <trkpt lat="46.25389" lon="6.40549">
        <ele>924</ele>
        <time>2020-02-08T12:17:33Z</time>
      </trkpt>
      <trkpt lat="46.25383" lon="6.40558">
        <ele>926</ele>
        <time>2020-02-08T12:17:37Z</time>
      </trkpt>
      <trkpt lat="46.25375" lon="6.40567">
        <ele>928</ele>
        <time>2020-02-08T12:17:41Z</time>
      </trkpt>
      <trkpt lat="46.25365" lon="6.40579">
        <ele>931</ele>
        <time>2020-02-08T12:17:45Z</time>
      </trkpt>
      <trkpt lat="46.25356" lon="6.40587">
        <ele>932</ele>
        <time>2020-02-08T12:17:49Z</time>
      </trkpt>
      <trkpt lat="46.25346" lon="6.40595">
        <ele>934</ele>
        <time>2020-02-08T12:17:53Z</time>
      </trkpt>
      <trkpt lat="46.25337" lon="6.406">
        <ele>935</ele>
        <time>2020-02-08T12:17:57Z</time>
      </trkpt>
      <trkpt lat="46.25332" lon="6.40609">
        <ele>935</ele>
        <time>2020-02-08T12:18:01Z</time>
      </trkpt>
      <trkpt lat="46.25326" lon="6.40618">
        <ele>936</ele>
        <time>2020-02-08T12:18:05Z</time>
      </trkpt>
      <trkpt lat="46.25323" lon="6.4063">
        <ele>937</ele>
        <time>2020-02-08T12:18:09Z</time>
      </trkpt>
      <trkpt lat="46.25328" lon="6.40641">
        <ele>938</ele>
        <time>2020-02-08T12:18:13Z</time>
      </trkpt>
      <trkpt lat="46.25332" lon="6.40652">
        <ele>938</ele>
        <time>2020-02-08T12:18:17Z</time>
      </trkpt>
      <trkpt lat="46.25336" lon="6.40663">
        <ele>938</ele>
        <time>2020-02-08T12:18:21Z</time>
      </trkpt>
      <trkpt lat="46.25338" lon="6.40674">
        <ele>939</ele>
        <time>2020-02-08T12:18:25Z</time>
      </trkpt>
      <trkpt lat="46.2534" lon="6.40685">
        <ele>940</ele>
        <time>2020-02-08T12:18:29Z</time>
      </trkpt>
      <trkpt lat="46.25336" lon="6.40697">
        <ele>941</ele>
        <time>2020-02-08T12:18:33Z</time>
      </trkpt>
      <trkpt lat="46.25331" lon="6.40708">
        <ele>943</ele>
        <time>2020-02-08T12:18:37Z</time>
      </trkpt>
      <trkpt lat="46.25328" lon="6.40719">
        <ele>944</ele>
        <time>2020-02-08T12:18:41Z</time>
      </trkpt>
      <trkpt lat="46.25328" lon="6.40731">
        <ele>945</ele>
        <time>2020-02-08T12:18:45Z</time>
      </trkpt>
      <trkpt lat="46.25325" lon="6.40744">
        <ele>947</ele>
        <time>2020-02-08T12:18:49Z</time>
      </trkpt>
      <trkpt lat="46.25326" lon="6.40756">
        <ele>949</ele>
        <time>2020-02-08T12:18:53Z</time>
      </trkpt>
      <trkpt lat="46.25326" lon="6.40766">
        <ele>950</ele>
        <time>2020-02-08T12:18:57Z</time>
      </trkpt>
      <trkpt lat="46.25319" lon="6.40776">
        <ele>953</ele>
        <time>2020-02-08T12:19:01Z</time>
      </trkpt>
      <trkpt lat="46.25312" lon="6.40784">
        <ele>955</ele>
        <time>2020-02-08T12:19:05Z</time>
      </trkpt>
      <trkpt lat="46.25308" lon="6.40794">
        <ele>958</ele>
        <time>2020-02-08T12:19:09Z</time>
      </trkpt>
      <trkpt lat="46.25307" lon="6.40804">
        <ele>960</ele>
        <time>2020-02-08T12:19:13Z</time>
      </trkpt>
      <trkpt lat="46.25308" lon="6.40815">
        <ele>961</ele>
        <time>2020-02-08T12:19:17Z</time>
      </trkpt>
      <trkpt lat="46.25312" lon="6.40827">
        <ele>961</ele>
        <time>2020-02-08T12:19:21Z</time>
      </trkpt>
      <trkpt lat="46.25317" lon="6.40838">
        <ele>960</ele>
        <time>2020-02-08T12:19:25Z</time>
      </trkpt>
      <trkpt lat="46.25319" lon="6.40849">
        <ele>960</ele>
        <time>2020-02-08T12:19:29Z</time>
      </trkpt>
      <trkpt lat="46.25316" lon="6.40864">
        <ele>959</ele>
        <time>2020-02-08T12:19:33Z</time>
      </trkpt>
      <trkpt lat="46.2531" lon="6.40878">
        <ele>958</ele>
        <time>2020-02-08T12:19:37Z</time>
      </trkpt>
      <trkpt lat="46.253" lon="6.40887">
        <ele>960</ele>
        <time>2020-02-08T12:19:41Z</time>
      </trkpt>
      <trkpt lat="46.2529" lon="6.40895">
        <ele>963</ele>
        <time>2020-02-08T12:19:45Z</time>
      </trkpt>
      <trkpt lat="46.25278" lon="6.40902">
        <ele>967</ele>
        <time>2020-02-08T12:19:49Z</time>
      </trkpt>
      <trkpt lat="46.25268" lon="6.4091">
        <ele>969</ele>
        <time>2020-02-08T12:19:53Z</time>
      </trkpt>
      <trkpt lat="46.2527" lon="6.40927">
        <ele>968</ele>
        <time>2020-02-08T12:19:57Z</time>
      </trkpt>
      <trkpt lat="46.25281" lon="6.40941">
        <ele>965</ele>
        <time>2020-02-08T12:20:01Z</time>
      </trkpt>
      <trkpt lat="46.25294" lon="6.4095">
        <ele>961</ele>
        <time>2020-02-08T12:20:05Z</time>
      </trkpt>
      <trkpt lat="46.25308" lon="6.40955">
        <ele>956</ele>
        <time>2020-02-08T12:20:09Z</time>
      </trkpt>
      <trkpt lat="46.25324" lon="6.40963">
        <ele>953</ele>
        <time>2020-02-08T12:20:13Z</time>
      </trkpt>
      <trkpt lat="46.25338" lon="6.40973">
        <ele>950</ele>
        <time>2020-02-08T12:20:17Z</time>
      </trkpt>
      <trkpt lat="46.25342" lon="6.41">
        <ele>949</ele>
        <time>2020-02-08T12:20:21Z</time>
      </trkpt>
      <trkpt lat="46.25339" lon="6.41017">
        <ele>951</ele>
        <time>2020-02-08T12:20:25Z</time>
      </trkpt>
      <trkpt lat="46.25334" lon="6.41032">
        <ele>952</ele>
        <time>2020-02-08T12:20:29Z</time>
      </trkpt>
      <trkpt lat="46.25329" lon="6.41046">
        <ele>953</ele>
        <time>2020-02-08T12:20:33Z</time>
      </trkpt>
      <trkpt lat="46.25325" lon="6.4106">
        <ele>954</ele>
        <time>2020-02-08T12:20:37Z</time>
      </trkpt>
      <trkpt lat="46.25321" lon="6.41075">
        <ele>956</ele>
        <time>2020-02-08T12:20:41Z</time>
      </trkpt>
      <trkpt lat="46.25319" lon="6.4109">
        <ele>958</ele>
        <time>2020-02-08T12:20:45Z</time>
      </trkpt>
      <trkpt lat="46.25319" lon="6.41105">
        <ele>960</ele>
        <time>2020-02-08T12:20:49Z</time>
      </trkpt>
      <trkpt lat="46.25321" lon="6.41119">
        <ele>961</ele>
        <time>2020-02-08T12:20:53Z</time>
      </trkpt>
      <trkpt lat="46.25323" lon="6.41133">
        <ele>962</ele>
        <time>2020-02-08T12:20:57Z</time>
      </trkpt>
      <trkpt lat="46.25327" lon="6.41147">
        <ele>964</ele>
        <time>2020-02-08T12:21:01Z</time>
      </trkpt>
      <trkpt lat="46.2533" lon="6.41161">
        <ele>966</ele>
        <time>2020-02-08T12:21:05Z</time>
      </trkpt>
      <trkpt lat="46.25334" lon="6.41174">
        <ele>968</ele>
        <time>2020-02-08T12:21:09Z</time>
      </trkpt>
      <trkpt lat="46.25338" lon="6.41188">
        <ele>969</ele>
        <time>2020-02-08T12:21:13Z</time>
      </trkpt>
      <trkpt lat="46.25344" lon="6.412">
        <ele>969</ele>
        <time>2020-02-08T12:21:17Z</time>
      </trkpt>
      <trkpt lat="46.25353" lon="6.41211">
        <ele>968</ele>
        <time>2020-02-08T12:21:21Z</time>
      </trkpt>
      <trkpt lat="46.2536" lon="6.41221">
        <ele>967</ele>
        <time>2020-02-08T12:21:25Z</time>
      </trkpt>
      <trkpt lat="46.25368" lon="6.41233">
        <ele>967</ele>
        <time>2020-02-08T12:21:29Z</time>
      </trkpt>
      <trkpt lat="46.25376" lon="6.41244">
        <ele>967</ele>
        <time>2020-02-08T12:21:33Z</time>
      </trkpt>
      <trkpt lat="46.25382" lon="6.41256">
        <ele>967</ele>
        <time>2020-02-08T12:21:37Z</time>
      </trkpt>
      <trkpt lat="46.25379" lon="6.41273">
        <ele>971</ele>
        <time>2020-02-08T12:21:41Z</time>
      </trkpt>
      <trkpt lat="46.25376" lon="6.41288">
        <ele>975</ele>
        <time>2020-02-08T12:21:45Z</time>
      </trkpt>
      <trkpt lat="46.25368" lon="6.413">
        <ele>979</ele>
        <time>2020-02-08T12:21:49Z</time>
      </trkpt>
      <trkpt lat="46.25373" lon="6.41314">
        <ele>980</ele>
        <time>2020-02-08T12:21:53Z</time>
      </trkpt>
      <trkpt lat="46.25379" lon="6.41322">
        <ele>979</ele>
        <time>2020-02-08T12:21:57Z</time>
      </trkpt>
      <trkpt lat="46.25384" lon="6.41325">
        <ele>978</ele>
        <time>2020-02-08T12:22:01Z</time>
      </trkpt>
      <trkpt lat="46.25392" lon="6.41327">
        <ele>977</ele>
        <time>2020-02-08T12:22:05Z</time>
      </trkpt>
      <trkpt lat="46.25399" lon="6.4133">
        <ele>977</ele>
        <time>2020-02-08T12:22:09Z</time>
      </trkpt>
      <trkpt lat="46.25404" lon="6.4133">
        <ele>976</ele>
        <time>2020-02-08T12:22:13Z</time>
      </trkpt>
      <trkpt lat="46.25413" lon="6.41332">
        <ele>975</ele>
        <time>2020-02-08T12:22:17Z</time>
      </trkpt>
      <trkpt lat="46.25422" lon="6.41336">
        <ele>975</ele>
        <time>2020-02-08T12:22:21Z</time>
      </trkpt>
      <trkpt lat="46.25434" lon="6.41345">
        <ele>976</ele>
        <time>2020-02-08T12:22:25Z</time>
      </trkpt>
      <trkpt lat="46.25446" lon="6.41355">
        <ele>978</ele>
        <time>2020-02-08T12:22:29Z</time>
      </trkpt>
      <trkpt lat="46.25452" lon="6.41366">
        <ele>980</ele>
        <time>2020-02-08T12:22:33Z</time>
      </trkpt>
      <trkpt lat="46.2546" lon="6.41378">
        <ele>982</ele>
        <time>2020-02-08T12:22:37Z</time>
      </trkpt>
      <trkpt lat="46.25467" lon="6.41389">
        <ele>984</ele>
        <time>2020-02-08T12:22:41Z</time>
      </trkpt>
      <trkpt lat="46.25474" lon="6.41399">
        <ele>986</ele>
        <time>2020-02-08T12:22:45Z</time>
      </trkpt>
      <trkpt lat="46.25481" lon="6.41409">
        <ele>988</ele>
        <time>2020-02-08T12:22:49Z</time>
      </trkpt>
      <trkpt lat="46.25489" lon="6.41419">
        <ele>989</ele>
        <time>2020-02-08T12:22:53Z</time>
      </trkpt>
      <trkpt lat="46.25496" lon="6.4143">
        <ele>992</ele>
        <time>2020-02-08T12:22:57Z</time>
      </trkpt>
      <trkpt lat="46.25503" lon="6.41439">
        <ele>994</ele>
        <time>2020-02-08T12:23:01Z</time>
      </trkpt>
      <trkpt lat="46.25512" lon="6.41446">
        <ele>995</ele>
        <time>2020-02-08T12:23:05Z</time>
      </trkpt>
      <trkpt lat="46.25522" lon="6.41448">
        <ele>994</ele>
        <time>2020-02-08T12:23:09Z</time>
      </trkpt>
      <trkpt lat="46.25533" lon="6.41449">
        <ele>994</ele>
        <time>2020-02-08T12:23:13Z</time>
      </trkpt>
      <trkpt lat="46.25542" lon="6.4145">
        <ele>995</ele>
        <time>2020-02-08T12:23:17Z</time>
      </trkpt>
      <trkpt lat="46.25551" lon="6.41451">
        <ele>996</ele>
        <time>2020-02-08T12:23:21Z</time>
      </trkpt>
      <trkpt lat="46.25561" lon="6.41451">
        <ele>998</ele>
        <time>2020-02-08T12:23:25Z</time>
      </trkpt>
      <trkpt lat="46.25569" lon="6.41452">
        <ele>1000</ele>
        <time>2020-02-08T12:23:29Z</time>
      </trkpt>
      <trkpt lat="46.25576" lon="6.41451">
        <ele>1000</ele>
        <time>2020-02-08T12:23:33Z</time>
      </trkpt>
      <trkpt lat="46.25585" lon="6.41451">
        <ele>1002</ele>
        <time>2020-02-08T12:23:37Z</time>
      </trkpt>
      <trkpt lat="46.25595" lon="6.41451">
        <ele>1002</ele>
        <time>2020-02-08T12:23:41Z</time>
      </trkpt>
      <trkpt lat="46.25607" lon="6.41449">
        <ele>1002</ele>
        <time>2020-02-08T12:23:45Z</time>
      </trkpt>
      <trkpt lat="46.25617" lon="6.41447">
        <ele>1003</ele>
        <time>2020-02-08T12:23:49Z</time>
      </trkpt>
      <trkpt lat="46.25632" lon="6.41448">
        <ele>1005</ele>
        <time>2020-02-08T12:23:53Z</time>
      </trkpt>
      <trkpt lat="46.25645" lon="6.4145">
        <ele>1007</ele>
        <time>2020-02-08T12:23:57Z</time>
      </trkpt>
      <trkpt lat="46.25646" lon="6.41457">
        <ele>1008</ele>
        <time>2020-02-08T12:24:01Z</time>
      </trkpt>
      <trkpt lat="46.25632" lon="6.41464">
        <ele>1008</ele>
        <time>2020-02-08T12:24:05Z</time>
      </trkpt>
      <trkpt lat="46.25624" lon="6.41473">
        <ele>1010</ele>
        <time>2020-02-08T12:24:09Z</time>
      </trkpt>
      <trkpt lat="46.25615" lon="6.41478">
        <ele>1010</ele>
        <time>2020-02-08T12:24:13Z</time>
      </trkpt>
      <trkpt lat="46.25609" lon="6.41484">
        <ele>1012</ele>
        <time>2020-02-08T12:24:17Z</time>
      </trkpt>
      <trkpt lat="46.25603" lon="6.41489">
        <ele>1014</ele>
        <time>2020-02-08T12:24:21Z</time>
      </trkpt>
      <trkpt lat="46.25597" lon="6.41494">
        <ele>1016</ele>
        <time>2020-02-08T12:24:25Z</time>
      </trkpt>
      <trkpt lat="46.25591" lon="6.41498">
        <ele>1017</ele>
        <time>2020-02-08T12:24:29Z</time>
      </trkpt>
      <trkpt lat="46.25585" lon="6.41501">
        <ele>1019</ele>
        <time>2020-02-08T12:24:33Z</time>
      </trkpt>
      <trkpt lat="46.25582" lon="6.41506">
        <ele>1020</ele>
        <time>2020-02-08T12:24:37Z</time>
      </trkpt>
      <trkpt lat="46.25572" lon="6.41509">
        <ele>1021</ele>
        <time>2020-02-08T12:24:41Z</time>
      </trkpt>
      <trkpt lat="46.25564" lon="6.41515">
        <ele>1022</ele>
        <time>2020-02-08T12:24:45Z</time>
      </trkpt>
      <trkpt lat="46.25556" lon="6.4152">
        <ele>1024</ele>
        <time>2020-02-08T12:24:49Z</time>
      </trkpt>
      <trkpt lat="46.25546" lon="6.41522">
        <ele>1025</ele>
        <time>2020-02-08T12:24:53Z</time>
      </trkpt>
      <trkpt lat="46.25536" lon="6.41525">
        <ele>1027</ele>
        <time>2020-02-08T12:24:57Z</time>
      </trkpt>
      <trkpt lat="46.2553" lon="6.4153">
        <ele>1029</ele>
        <time>2020-02-08T12:25:01Z</time>
      </trkpt>
      <trkpt lat="46.25523" lon="6.41535">
        <ele>1031</ele>
        <time>2020-02-08T12:25:05Z</time>
      </trkpt>
      <trkpt lat="46.25513" lon="6.41539">
        <ele>1033</ele>
        <time>2020-02-08T12:25:09Z</time>
      </trkpt>
      <trkpt lat="46.25503" lon="6.41542">
        <ele>1034</ele>
        <time>2020-02-08T12:25:13Z</time>
      </trkpt>
      <trkpt lat="46.25497" lon="6.41548">
        <ele>1035</ele>
        <time>2020-02-08T12:25:17Z</time>
      </trkpt>
      <trkpt lat="46.25488" lon="6.41551">
        <ele>1034</ele>
        <time>2020-02-08T12:25:21Z</time>
      </trkpt>
      <trkpt lat="46.25477" lon="6.41552">
        <ele>1032</ele>
        <time>2020-02-08T12:25:25Z</time>
      </trkpt>
      <trkpt lat="46.25466" lon="6.41553">
        <ele>1031</ele>
        <time>2020-02-08T12:25:29Z</time>
      </trkpt>
      <trkpt lat="46.25452" lon="6.41553">
        <ele>1030</ele>
        <time>2020-02-08T12:25:33Z</time>
      </trkpt>
      <trkpt lat="46.2544" lon="6.41552">
        <ele>1029</ele>
        <time>2020-02-08T12:25:37Z</time>
      </trkpt>
      <trkpt lat="46.25427" lon="6.4155">
        <ele>1028</ele>
        <time>2020-02-08T12:25:41Z</time>
      </trkpt>
      <trkpt lat="46.25415" lon="6.41547">
        <ele>1027</ele>
        <time>2020-02-08T12:25:45Z</time>
      </trkpt>
      <trkpt lat="46.25403" lon="6.41542">
        <ele>1027</ele>
        <time>2020-02-08T12:25:49Z</time>
      </trkpt>
      <trkpt lat="46.25393" lon="6.41537">
        <ele>1027</ele>
        <time>2020-02-08T12:25:53Z</time>
      </trkpt>
      <trkpt lat="46.25384" lon="6.41532">
        <ele>1027</ele>
        <time>2020-02-08T12:25:57Z</time>
      </trkpt>
      <trkpt lat="46.25376" lon="6.41525">
        <ele>1027</ele>
        <time>2020-02-08T12:26:01Z</time>
      </trkpt>
      <trkpt lat="46.25369" lon="6.41518">
        <ele>1027</ele>
        <time>2020-02-08T12:26:05Z</time>
      </trkpt>
      <trkpt lat="46.2536" lon="6.41512">
        <ele>1027</ele>
        <time>2020-02-08T12:26:09Z</time>
      </trkpt>
      <trkpt lat="46.2535" lon="6.41508">
        <ele>1027</ele>
        <time>2020-02-08T12:26:13Z</time>
      </trkpt>
      <trkpt lat="46.25341" lon="6.41507">
        <ele>1027</ele>
        <time>2020-02-08T12:26:17Z</time>
      </trkpt>
      <trkpt lat="46.25331" lon="6.41506">
        <ele>1028</ele>
        <time>2020-02-08T12:26:21Z</time>
      </trkpt>
      <trkpt lat="46.25321" lon="6.41506">
        <ele>1031</ele>
        <time>2020-02-08T12:26:25Z</time>
      </trkpt>
      <trkpt lat="46.25309" lon="6.41505">
        <ele>1033</ele>
        <time>2020-02-08T12:26:29Z</time>
      </trkpt>
      <trkpt lat="46.253" lon="6.41504">
        <ele>1035</ele>
        <time>2020-02-08T12:26:33Z</time>
      </trkpt>
      <trkpt lat="46.2529" lon="6.41503">
        <ele>1037</ele>
        <time>2020-02-08T12:26:37Z</time>
      </trkpt>
      <trkpt lat="46.25281" lon="6.41499">
        <ele>1038</ele>
        <time>2020-02-08T12:26:41Z</time>
      </trkpt>
      <trkpt lat="46.25272" lon="6.41493">
        <ele>1039</ele>
        <time>2020-02-08T12:26:45Z</time>
      </trkpt>
      <trkpt lat="46.25264" lon="6.41486">
        <ele>1040</ele>
        <time>2020-02-08T12:26:49Z</time>
      </trkpt>
      <trkpt lat="46.25256" lon="6.41478">
        <ele>1041</ele>
        <time>2020-02-08T12:26:53Z</time>
      </trkpt>
      <trkpt lat="46.25249" lon="6.41471">
        <ele>1043</ele>
        <time>2020-02-08T12:26:57Z</time>
      </trkpt>
      <trkpt lat="46.25241" lon="6.41466">
        <ele>1043</ele>
        <time>2020-02-08T12:27:01Z</time>
      </trkpt>
      <trkpt lat="46.25231" lon="6.4146">
        <ele>1045</ele>
        <time>2020-02-08T12:27:05Z</time>
      </trkpt>
      <trkpt lat="46.25221" lon="6.41457">
        <ele>1046</ele>
        <time>2020-02-08T12:27:09Z</time>
      </trkpt>
      <trkpt lat="46.25213" lon="6.41459">
        <ele>1047</ele>
        <time>2020-02-08T12:27:13Z</time>
      </trkpt>
      <trkpt lat="46.25208" lon="6.41467">
        <ele>1048</ele>
        <time>2020-02-08T12:27:17Z</time>
      </trkpt>
      <trkpt lat="46.2521" lon="6.41478">
        <ele>1049</ele>
        <time>2020-02-08T12:27:21Z</time>
      </trkpt>
      <trkpt lat="46.25215" lon="6.41487">
        <ele>1050</ele>
        <time>2020-02-08T12:27:25Z</time>
      </trkpt>
      <trkpt lat="46.25222" lon="6.41494">
        <ele>1051</ele>
        <time>2020-02-08T12:27:29Z</time>
      </trkpt>
      <trkpt lat="46.25227" lon="6.41501">
        <ele>1050</ele>
        <time>2020-02-08T12:27:33Z</time>
      </trkpt>
      <trkpt lat="46.25233" lon="6.41511">
        <ele>1051</ele>
        <time>2020-02-08T12:27:37Z</time>
      </trkpt>
      <trkpt lat="46.25238" lon="6.41522">
        <ele>1052</ele>
        <time>2020-02-08T12:27:41Z</time>
      </trkpt>
      <trkpt lat="46.25244" lon="6.41532">
        <ele>1053</ele>
        <time>2020-02-08T12:27:45Z</time>
      </trkpt>
      <trkpt lat="46.25251" lon="6.41542">
        <ele>1054</ele>
        <time>2020-02-08T12:27:49Z</time>
      </trkpt>
      <trkpt lat="46.25257" lon="6.41551">
        <ele>1055</ele>
        <time>2020-02-08T12:27:53Z</time>
      </trkpt>
      <trkpt lat="46.25265" lon="6.41559">
        <ele>1056</ele>
        <time>2020-02-08T12:27:57Z</time>
      </trkpt>
      <trkpt lat="46.25271" lon="6.41568">
        <ele>1058</ele>
        <time>2020-02-08T12:28:01Z</time>
      </trkpt>
      <trkpt lat="46.25278" lon="6.41577">
        <ele>1059</ele>
        <time>2020-02-08T12:28:05Z</time>
      </trkpt>
      <trkpt lat="46.25285" lon="6.41586">
        <ele>1060</ele>
        <time>2020-02-08T12:28:09Z</time>
      </trkpt>
      <trkpt lat="46.25292" lon="6.41595">
        <ele>1060</ele>
        <time>2020-02-08T12:28:13Z</time>
      </trkpt>
      <trkpt lat="46.25299" lon="6.41606">
        <ele>1060</ele>
        <time>2020-02-08T12:28:17Z</time>
      </trkpt>
      <trkpt lat="46.25305" lon="6.41616">
        <ele>1060</ele>
        <time>2020-02-08T12:28:21Z</time>
      </trkpt>
      <trkpt lat="46.25312" lon="6.41626">
        <ele>1061</ele>
        <time>2020-02-08T12:28:25Z</time>
      </trkpt>
      <trkpt lat="46.25317" lon="6.41636">
        <ele>1062</ele>
        <time>2020-02-08T12:28:29Z</time>
      </trkpt>
      <trkpt lat="46.25323" lon="6.41646">
        <ele>1063</ele>
        <time>2020-02-08T12:28:33Z</time>
      </trkpt>
      <trkpt lat="46.2533" lon="6.41656">
        <ele>1064</ele>
        <time>2020-02-08T12:28:37Z</time>
      </trkpt>
      <trkpt lat="46.25338" lon="6.41665">
        <ele>1065</ele>
        <time>2020-02-08T12:28:41Z</time>
      </trkpt>
      <trkpt lat="46.25345" lon="6.41673">
        <ele>1066</ele>
        <time>2020-02-08T12:28:45Z</time>
      </trkpt>
      <trkpt lat="46.25353" lon="6.4168">
        <ele>1067</ele>
        <time>2020-02-08T12:28:49Z</time>
      </trkpt>
      <trkpt lat="46.25362" lon="6.41687">
        <ele>1067</ele>
        <time>2020-02-08T12:28:53Z</time>
      </trkpt>
      <trkpt lat="46.25371" lon="6.41695">
        <ele>1069</ele>
        <time>2020-02-08T12:28:57Z</time>
      </trkpt>
      <trkpt lat="46.25379" lon="6.41702">
        <ele>1071</ele>
        <time>2020-02-08T12:29:01Z</time>
      </trkpt>
      <trkpt lat="46.25388" lon="6.41709">
        <ele>1072</ele>
        <time>2020-02-08T12:29:05Z</time>
      </trkpt>
      <trkpt lat="46.25395" lon="6.41716">
        <ele>1073</ele>
        <time>2020-02-08T12:29:09Z</time>
      </trkpt>
      <trkpt lat="46.25403" lon="6.41723">
        <ele>1075</ele>
        <time>2020-02-08T12:29:13Z</time>
      </trkpt>
      <trkpt lat="46.25412" lon="6.41729">
        <ele>1076</ele>
        <time>2020-02-08T12:29:17Z</time>
      </trkpt>
      <trkpt lat="46.25421" lon="6.41734">
        <ele>1077</ele>
        <time>2020-02-08T12:29:21Z</time>
      </trkpt>
      <trkpt lat="46.2543" lon="6.41738">
        <ele>1079</ele>
        <time>2020-02-08T12:29:25Z</time>
      </trkpt>
      <trkpt lat="46.25439" lon="6.41741">
        <ele>1080</ele>
        <time>2020-02-08T12:29:29Z</time>
      </trkpt>
      <trkpt lat="46.25448" lon="6.41741">
        <ele>1081</ele>
        <time>2020-02-08T12:29:33Z</time>
      </trkpt>
      <trkpt lat="46.25457" lon="6.41742">
        <ele>1081</ele>
        <time>2020-02-08T12:29:37Z</time>
      </trkpt>
      <trkpt lat="46.25466" lon="6.41742">
        <ele>1081</ele>
        <time>2020-02-08T12:29:41Z</time>
      </trkpt>
      <trkpt lat="46.25475" lon="6.41742">
        <ele>1081</ele>
        <time>2020-02-08T12:29:45Z</time>
      </trkpt>
      <trkpt lat="46.25485" lon="6.41743">
        <ele>1081</ele>
        <time>2020-02-08T12:29:49Z</time>
      </trkpt>
      <trkpt lat="46.25495" lon="6.41744">
        <ele>1082</ele>
        <time>2020-02-08T12:29:53Z</time>
      </trkpt>
      <trkpt lat="46.25504" lon="6.41747">
        <ele>1081</ele>
        <time>2020-02-08T12:29:57Z</time>
      </trkpt>
      <trkpt lat="46.25512" lon="6.41753">
        <ele>1080</ele>
        <time>2020-02-08T12:30:01Z</time>
      </trkpt>
      <trkpt lat="46.25516" lon="6.41764">
        <ele>1081</ele>
        <time>2020-02-08T12:30:05Z</time>
      </trkpt>
      <trkpt lat="46.25515" lon="6.41774">
        <ele>1083</ele>
        <time>2020-02-08T12:30:09Z</time>
      </trkpt>
      <trkpt lat="46.25511" lon="6.41785">
        <ele>1085</ele>
        <time>2020-02-08T12:30:13Z</time>
      </trkpt>
      <trkpt lat="46.25503" lon="6.41792">
        <ele>1087</ele>
        <time>2020-02-08T12:30:17Z</time>
      </trkpt>
      <trkpt lat="46.25493" lon="6.41792">
        <ele>1089</ele>
        <time>2020-02-08T12:30:21Z</time>
      </trkpt>
      <trkpt lat="46.25482" lon="6.41792">
        <ele>1090</ele>
        <time>2020-02-08T12:30:25Z</time>
      </trkpt>
      <trkpt lat="46.25471" lon="6.41791">
        <ele>1092</ele>
        <time>2020-02-08T12:30:29Z</time>
      </trkpt>
      <trkpt lat="46.2546" lon="6.41791">
        <ele>1091</ele>
        <time>2020-02-08T12:30:33Z</time>
      </trkpt>
      <trkpt lat="46.25448" lon="6.41793">
        <ele>1090</ele>
        <time>2020-02-08T12:30:37Z</time>
      </trkpt>
      <trkpt lat="46.25436" lon="6.41798">
        <ele>1091</ele>
        <time>2020-02-08T12:30:41Z</time>
      </trkpt>
      <trkpt lat="46.25425" lon="6.41803">
        <ele>1093</ele>
        <time>2020-02-08T12:30:45Z</time>
      </trkpt>
      <trkpt lat="46.25413" lon="6.41807">
        <ele>1094</ele>
        <time>2020-02-08T12:30:49Z</time>
      </trkpt>
      <trkpt lat="46.25399" lon="6.41806">
        <ele>1094</ele>
        <time>2020-02-08T12:30:53Z</time>
      </trkpt>
      <trkpt lat="46.25381" lon="6.41801">
        <ele>1094</ele>
        <time>2020-02-08T12:30:57Z</time>
      </trkpt>
      <trkpt lat="46.25361" lon="6.41797">
        <ele>1098</ele>
        <time>2020-02-08T12:31:01Z</time>
      </trkpt>
      <trkpt lat="46.25343" lon="6.41795">
        <ele>1100</ele>
        <time>2020-02-08T12:31:05Z</time>
      </trkpt>
      <trkpt lat="46.25327" lon="6.41791">
        <ele>1100</ele>
        <time>2020-02-08T12:31:09Z</time>
      </trkpt>
      <trkpt lat="46.25311" lon="6.41784">
        <ele>1098</ele>
        <time>2020-02-08T12:31:13Z</time>
      </trkpt>
      <trkpt lat="46.25293" lon="6.41775">
        <ele>1096</ele>
        <time>2020-02-08T12:31:17Z</time>
      </trkpt>
      <trkpt lat="46.25274" lon="6.41765">
        <ele>1096</ele>
        <time>2020-02-08T12:31:21Z</time>
      </trkpt>
      <trkpt lat="46.25256" lon="6.41755">
        <ele>1097</ele>
        <time>2020-02-08T12:31:25Z</time>
      </trkpt>
      <trkpt lat="46.25237" lon="6.41745">
        <ele>1098</ele>
        <time>2020-02-08T12:31:29Z</time>
      </trkpt>
      <trkpt lat="46.2522" lon="6.41736">
        <ele>1098</ele>
        <time>2020-02-08T12:31:33Z</time>
      </trkpt>
      <trkpt lat="46.25202" lon="6.41726">
        <ele>1096</ele>
        <time>2020-02-08T12:31:37Z</time>
      </trkpt>
      <trkpt lat="46.25184" lon="6.41716">
        <ele>1095</ele>
        <time>2020-02-08T12:31:41Z</time>
      </trkpt>
      <trkpt lat="46.25165" lon="6.41707">
        <ele>1094</ele>
        <time>2020-02-08T12:31:45Z</time>
      </trkpt>
      <trkpt lat="46.25149" lon="6.41697">
        <ele>1096</ele>
        <time>2020-02-08T12:31:49Z</time>
      </trkpt>
      <trkpt lat="46.25133" lon="6.41689">
        <ele>1098</ele>
        <time>2020-02-08T12:31:53Z</time>
      </trkpt>
      <trkpt lat="46.25119" lon="6.41682">
        <ele>1100</ele>
        <time>2020-02-08T12:31:57Z</time>
      </trkpt>
      <trkpt lat="46.25103" lon="6.41673">
        <ele>1102</ele>
        <time>2020-02-08T12:32:01Z</time>
      </trkpt>
      <trkpt lat="46.25088" lon="6.41666">
        <ele>1104</ele>
        <time>2020-02-08T12:32:05Z</time>
      </trkpt>
      <trkpt lat="46.25074" lon="6.41659">
        <ele>1105</ele>
        <time>2020-02-08T12:32:09Z</time>
      </trkpt>
      <trkpt lat="46.25061" lon="6.4165">
        <ele>1106</ele>
        <time>2020-02-08T12:32:13Z</time>
      </trkpt>
      <trkpt lat="46.25049" lon="6.4164">
        <ele>1108</ele>
        <time>2020-02-08T12:32:17Z</time>
      </trkpt>
      <trkpt lat="46.25038" lon="6.41628">
        <ele>1108</ele>
        <time>2020-02-08T12:32:21Z</time>
      </trkpt>
      <trkpt lat="46.25025" lon="6.4161">
        <ele>1107</ele>
        <time>2020-02-08T12:32:25Z</time>
      </trkpt>
      <trkpt lat="46.2501" lon="6.41586">
        <ele>1105</ele>
        <time>2020-02-08T12:32:29Z</time>
      </trkpt>
      <trkpt lat="46.24991" lon="6.41564">
        <ele>1102</ele>
        <time>2020-02-08T12:32:33Z</time>
      </trkpt>
      <trkpt lat="46.24965" lon="6.41554">
        <ele>1099</ele>
        <time>2020-02-08T12:32:37Z</time>
      </trkpt>
      <trkpt lat="46.24938" lon="6.41546">
        <ele>1099</ele>
        <time>2020-02-08T12:32:41Z</time>
      </trkpt>
      <trkpt lat="46.24913" lon="6.41538">
        <ele>1100</ele>
        <time>2020-02-08T12:32:45Z</time>
      </trkpt>
      <trkpt lat="46.24899" lon="6.41534">
        <ele>1100</ele>
        <time>2020-02-08T12:32:49Z</time>
      </trkpt>
      <trkpt lat="46.24891" lon="6.41531">
        <ele>1100</ele>
        <time>2020-02-08T12:32:53Z</time>
      </trkpt>
      <trkpt lat="46.24882" lon="6.41531">
        <ele>1102</ele>
        <time>2020-02-08T12:32:57Z</time>
      </trkpt>
      <trkpt lat="46.24872" lon="6.4153">
        <ele>1104</ele>
        <time>2020-02-08T12:33:01Z</time>
      </trkpt>
      <trkpt lat="46.24868" lon="6.41528">
        <ele>1104</ele>
        <time>2020-02-08T12:33:09Z</time>
      </trkpt>
      <trkpt lat="46.24866" lon="6.41525">
        <ele>1104</ele>
        <time>2020-02-08T12:33:13Z</time>
      </trkpt>
      <trkpt lat="46.24862" lon="6.41523">
        <ele>1105</ele>
        <time>2020-02-08T12:33:17Z</time>
      </trkpt>
      <trkpt lat="46.24857" lon="6.41518">
        <ele>1106</ele>
        <time>2020-02-08T12:33:21Z</time>
      </trkpt>
      <trkpt lat="46.24854" lon="6.41514">
        <ele>1106</ele>
        <time>2020-02-08T12:33:25Z</time>
      </trkpt>
      <trkpt lat="46.24848" lon="6.41509">
        <ele>1108</ele>
        <time>2020-02-08T12:33:29Z</time>
      </trkpt>
      <trkpt lat="46.24855" lon="6.4151">
        <ele>1106</ele>
        <time>2020-02-08T12:34:53Z</time>
      </trkpt>
      <trkpt lat="46.24847" lon="6.41509">
        <ele>1108</ele>
        <time>2020-02-08T12:35:05Z</time>
      </trkpt>
      <trkpt lat="46.24841" lon="6.41505">
        <ele>1110</ele>
        <time>2020-02-08T12:35:21Z</time>
      </trkpt>
      <trkpt lat="46.24838" lon="6.41501">
        <ele>1111</ele>
        <time>2020-02-08T12:35:25Z</time>
      </trkpt>
      <trkpt lat="46.24834" lon="6.41494">
        <ele>1112</ele>
        <time>2020-02-08T12:35:29Z</time>
      </trkpt>
      <trkpt lat="46.2483" lon="6.41486">
        <ele>1112</ele>
        <time>2020-02-08T12:35:33Z</time>
      </trkpt>
      <trkpt lat="46.24827" lon="6.41479">
        <ele>1113</ele>
        <time>2020-02-08T12:35:37Z</time>
      </trkpt>
      <trkpt lat="46.24828" lon="6.41472">
        <ele>1112</ele>
        <time>2020-02-08T12:35:41Z</time>
      </trkpt>
      <trkpt lat="46.24825" lon="6.4146">
        <ele>1112</ele>
        <time>2020-02-08T12:35:45Z</time>
      </trkpt>
      <trkpt lat="46.24822" lon="6.41447">
        <ele>1112</ele>
        <time>2020-02-08T12:35:49Z</time>
      </trkpt>
      <trkpt lat="46.24821" lon="6.41434">
        <ele>1112</ele>
        <time>2020-02-08T12:35:53Z</time>
      </trkpt>
      <trkpt lat="46.2482" lon="6.41425">
        <ele>1111</ele>
        <time>2020-02-08T12:35:57Z</time>
      </trkpt>
      <trkpt lat="46.2482" lon="6.41418">
        <ele>1111</ele>
        <time>2020-02-08T12:36:01Z</time>
      </trkpt>
      <trkpt lat="46.24819" lon="6.4141">
        <ele>1110</ele>
        <time>2020-02-08T12:36:05Z</time>
      </trkpt>
      <trkpt lat="46.24816" lon="6.41404">
        <ele>1111</ele>
        <time>2020-02-08T12:36:09Z</time>
      </trkpt>
      <trkpt lat="46.24815" lon="6.41398">
        <ele>1110</ele>
        <time>2020-02-08T12:36:13Z</time>
      </trkpt>
      <trkpt lat="46.24816" lon="6.41391">
        <ele>1109</ele>
        <time>2020-02-08T12:36:17Z</time>
      </trkpt>
      <trkpt lat="46.24816" lon="6.41382">
        <ele>1109</ele>
        <time>2020-02-08T12:36:21Z</time>
      </trkpt>
      <trkpt lat="46.24815" lon="6.41372">
        <ele>1109</ele>
        <time>2020-02-08T12:36:25Z</time>
      </trkpt>
      <trkpt lat="46.24817" lon="6.41357">
        <ele>1108</ele>
        <time>2020-02-08T12:36:29Z</time>
      </trkpt>
      <trkpt lat="46.24822" lon="6.4134">
        <ele>1107</ele>
        <time>2020-02-08T12:36:33Z</time>
      </trkpt>
      <trkpt lat="46.24822" lon="6.41324">
        <ele>1107</ele>
        <time>2020-02-08T12:36:37Z</time>
      </trkpt>
      <trkpt lat="46.24827" lon="6.41312">
        <ele>1106</ele>
        <time>2020-02-08T12:36:41Z</time>
      </trkpt>
      <trkpt lat="46.2483" lon="6.41303">
        <ele>1105</ele>
        <time>2020-02-08T12:36:45Z</time>
      </trkpt>
      <trkpt lat="46.24832" lon="6.41296">
        <ele>1105</ele>
        <time>2020-02-08T12:36:49Z</time>
      </trkpt>
      <trkpt lat="46.24837" lon="6.41288">
        <ele>1104</ele>
        <time>2020-02-08T12:36:53Z</time>
      </trkpt>
      <trkpt lat="46.24842" lon="6.41281">
        <ele>1103</ele>
        <time>2020-02-08T12:36:57Z</time>
      </trkpt>
      <trkpt lat="46.24847" lon="6.41271">
        <ele>1102</ele>
        <time>2020-02-08T12:37:01Z</time>
      </trkpt>
      <trkpt lat="46.24853" lon="6.41263">
        <ele>1100</ele>
        <time>2020-02-08T12:37:05Z</time>
      </trkpt>
      <trkpt lat="46.24854" lon="6.41249">
        <ele>1100</ele>
        <time>2020-02-08T12:37:09Z</time>
      </trkpt>
      <trkpt lat="46.24856" lon="6.41234">
        <ele>1100</ele>
        <time>2020-02-08T12:37:13Z</time>
      </trkpt>
      <trkpt lat="46.24859" lon="6.41221">
        <ele>1099</ele>
        <time>2020-02-08T12:37:17Z</time>
      </trkpt>
      <trkpt lat="46.24863" lon="6.4121">
        <ele>1099</ele>
        <time>2020-02-08T12:37:21Z</time>
      </trkpt>
      <trkpt lat="46.24864" lon="6.41196">
        <ele>1100</ele>
        <time>2020-02-08T12:37:25Z</time>
      </trkpt>
      <trkpt lat="46.24864" lon="6.41182">
        <ele>1100</ele>
        <time>2020-02-08T12:37:29Z</time>
      </trkpt>
      <trkpt lat="46.24863" lon="6.41167">
        <ele>1102</ele>
        <time>2020-02-08T12:37:33Z</time>
      </trkpt>
      <trkpt lat="46.24862" lon="6.41152">
        <ele>1102</ele>
        <time>2020-02-08T12:37:37Z</time>
      </trkpt>
      <trkpt lat="46.24863" lon="6.41137">
        <ele>1102</ele>
        <time>2020-02-08T12:37:41Z</time>
      </trkpt>
      <trkpt lat="46.24863" lon="6.41121">
        <ele>1102</ele>
        <time>2020-02-08T12:37:45Z</time>
      </trkpt>
      <trkpt lat="46.24866" lon="6.41108">
        <ele>1102</ele>
        <time>2020-02-08T12:37:49Z</time>
      </trkpt>
      <trkpt lat="46.24869" lon="6.41092">
        <ele>1101</ele>
        <time>2020-02-08T12:37:53Z</time>
      </trkpt>
      <trkpt lat="46.24875" lon="6.41077">
        <ele>1099</ele>
        <time>2020-02-08T12:37:57Z</time>
      </trkpt>
      <trkpt lat="46.2488" lon="6.41061">
        <ele>1098</ele>
        <time>2020-02-08T12:38:01Z</time>
      </trkpt>
      <trkpt lat="46.24887" lon="6.41047">
        <ele>1096</ele>
        <time>2020-02-08T12:38:05Z</time>
      </trkpt>
      <trkpt lat="46.24891" lon="6.4103">
        <ele>1097</ele>
        <time>2020-02-08T12:38:09Z</time>
      </trkpt>
      <trkpt lat="46.24892" lon="6.41013">
        <ele>1097</ele>
        <time>2020-02-08T12:38:13Z</time>
      </trkpt>
      <trkpt lat="46.24891" lon="6.40997">
        <ele>1099</ele>
        <time>2020-02-08T12:38:17Z</time>
      </trkpt>
      <trkpt lat="46.24889" lon="6.40982">
        <ele>1098</ele>
        <time>2020-02-08T12:38:21Z</time>
      </trkpt>
      <trkpt lat="46.24882" lon="6.40969">
        <ele>1100</ele>
        <time>2020-02-08T12:38:25Z</time>
      </trkpt>
      <trkpt lat="46.24876" lon="6.40959">
        <ele>1100</ele>
        <time>2020-02-08T12:38:29Z</time>
      </trkpt>
      <trkpt lat="46.24867" lon="6.40949">
        <ele>1102</ele>
        <time>2020-02-08T12:38:33Z</time>
      </trkpt>
      <trkpt lat="46.24859" lon="6.40939">
        <ele>1103</ele>
        <time>2020-02-08T12:38:37Z</time>
      </trkpt>
      <trkpt lat="46.24856" lon="6.40928">
        <ele>1103</ele>
        <time>2020-02-08T12:38:41Z</time>
      </trkpt>
      <trkpt lat="46.24855" lon="6.40918">
        <ele>1100</ele>
        <time>2020-02-08T12:38:45Z</time>
      </trkpt>
      <trkpt lat="46.24852" lon="6.40903">
        <ele>1101</ele>
        <time>2020-02-08T12:38:49Z</time>
      </trkpt>
      <trkpt lat="46.24847" lon="6.4089">
        <ele>1102</ele>
        <time>2020-02-08T12:38:53Z</time>
      </trkpt>
      <trkpt lat="46.2484" lon="6.40877">
        <ele>1104</ele>
        <time>2020-02-08T12:38:57Z</time>
      </trkpt>
      <trkpt lat="46.24837" lon="6.40866">
        <ele>1104</ele>
        <time>2020-02-08T12:39:01Z</time>
      </trkpt>
      <trkpt lat="46.24836" lon="6.40856">
        <ele>1103</ele>
        <time>2020-02-08T12:39:05Z</time>
      </trkpt>
      <trkpt lat="46.24838" lon="6.40846">
        <ele>1102</ele>
        <time>2020-02-08T12:39:09Z</time>
      </trkpt>
      <trkpt lat="46.2484" lon="6.40836">
        <ele>1102</ele>
        <time>2020-02-08T12:39:13Z</time>
      </trkpt>
      <trkpt lat="46.24846" lon="6.40828">
        <ele>1101</ele>
        <time>2020-02-08T12:39:17Z</time>
      </trkpt>
      <trkpt lat="46.24847" lon="6.40818">
        <ele>1100</ele>
        <time>2020-02-08T12:39:21Z</time>
      </trkpt>
      <trkpt lat="46.24843" lon="6.40807">
        <ele>1100</ele>
        <time>2020-02-08T12:39:25Z</time>
      </trkpt>
      <trkpt lat="46.24839" lon="6.40799">
        <ele>1099</ele>
        <time>2020-02-08T12:39:29Z</time>
      </trkpt>
      <trkpt lat="46.24839" lon="6.40797">
        <ele>1099</ele>
        <time>2020-02-08T12:39:33Z</time>
      </trkpt>
      <trkpt lat="46.24841" lon="6.40795">
        <ele>1099</ele>
        <time>2020-02-08T12:41:37Z</time>
      </trkpt>
      <trkpt lat="46.24837" lon="6.40795">
        <ele>1099</ele>
        <time>2020-02-08T12:41:57Z</time>
      </trkpt>
      <trkpt lat="46.2483" lon="6.40788">
        <ele>1099</ele>
        <time>2020-02-08T12:42:01Z</time>
      </trkpt>
      <trkpt lat="46.24818" lon="6.40776">
        <ele>1098</ele>
        <time>2020-02-08T12:42:05Z</time>
      </trkpt>
      <trkpt lat="46.24804" lon="6.40758">
        <ele>1097</ele>
        <time>2020-02-08T12:42:09Z</time>
      </trkpt>
      <trkpt lat="46.24786" lon="6.40736">
        <ele>1096</ele>
        <time>2020-02-08T12:42:13Z</time>
      </trkpt>
      <trkpt lat="46.24762" lon="6.40711">
        <ele>1094</ele>
        <time>2020-02-08T12:42:17Z</time>
      </trkpt>
      <trkpt lat="46.24738" lon="6.4069">
        <ele>1091</ele>
        <time>2020-02-08T12:42:21Z</time>
      </trkpt>
      <trkpt lat="46.24722" lon="6.40683">
        <ele>1091</ele>
        <time>2020-02-08T12:42:25Z</time>
      </trkpt>
      <trkpt lat="46.24716" lon="6.40679">
        <ele>1091</ele>
        <time>2020-02-08T12:42:29Z</time>
      </trkpt>
      <trkpt lat="46.24715" lon="6.40673">
        <ele>1090</ele>
        <time>2020-02-08T12:42:33Z</time>
      </trkpt>
      <trkpt lat="46.24717" lon="6.40668">
        <ele>1088</ele>
        <time>2020-02-08T12:42:37Z</time>
      </trkpt>
      <trkpt lat="46.24718" lon="6.40662">
        <ele>1087</ele>
        <time>2020-02-08T12:42:41Z</time>
      </trkpt>
      <trkpt lat="46.24721" lon="6.40658">
        <ele>1086</ele>
        <time>2020-02-08T12:42:45Z</time>
      </trkpt>
      <trkpt lat="46.24727" lon="6.40655">
        <ele>1085</ele>
        <time>2020-02-08T12:42:49Z</time>
      </trkpt>
      <trkpt lat="46.24739" lon="6.40658">
        <ele>1085</ele>
        <time>2020-02-08T12:42:53Z</time>
      </trkpt>
      <trkpt lat="46.24756" lon="6.4066">
        <ele>1085</ele>
        <time>2020-02-08T12:42:57Z</time>
      </trkpt>
      <trkpt lat="46.24771" lon="6.40658">
        <ele>1085</ele>
        <time>2020-02-08T12:43:01Z</time>
      </trkpt>
      <trkpt lat="46.24785" lon="6.40656">
        <ele>1084</ele>
        <time>2020-02-08T12:43:05Z</time>
      </trkpt>
      <trkpt lat="46.24794" lon="6.40656">
        <ele>1084</ele>
        <time>2020-02-08T12:43:09Z</time>
      </trkpt>
      <trkpt lat="46.24806" lon="6.40658">
        <ele>1083</ele>
        <time>2020-02-08T12:43:13Z</time>
      </trkpt>
      <trkpt lat="46.24819" lon="6.40662">
        <ele>1081</ele>
        <time>2020-02-08T12:43:17Z</time>
      </trkpt>
      <trkpt lat="46.24849" lon="6.40692">
        <ele>1079</ele>
        <time>2020-02-08T12:43:21Z</time>
      </trkpt>
      <trkpt lat="46.24858" lon="6.40702">
        <ele>1080</ele>
        <time>2020-02-08T12:43:25Z</time>
      </trkpt>
      <trkpt lat="46.24865" lon="6.40707">
        <ele>1079</ele>
        <time>2020-02-08T12:43:29Z</time>
      </trkpt>
      <trkpt lat="46.2487" lon="6.40712">
        <ele>1080</ele>
        <time>2020-02-08T12:43:33Z</time>
      </trkpt>
      <trkpt lat="46.24874" lon="6.40717">
        <ele>1080</ele>
        <time>2020-02-08T12:43:37Z</time>
      </trkpt>
      <trkpt lat="46.24878" lon="6.40721">
        <ele>1080</ele>
        <time>2020-02-08T12:43:41Z</time>
      </trkpt>
      <trkpt lat="46.24882" lon="6.40724">
        <ele>1079</ele>
        <time>2020-02-08T12:43:45Z</time>
      </trkpt>
      <trkpt lat="46.24891" lon="6.40722">
        <ele>1077</ele>
        <time>2020-02-08T12:43:49Z</time>
      </trkpt>
      <trkpt lat="46.24894" lon="6.40708">
        <ele>1074</ele>
        <time>2020-02-08T12:43:53Z</time>
      </trkpt>
      <trkpt lat="46.24886" lon="6.40692">
        <ele>1073</ele>
        <time>2020-02-08T12:43:57Z</time>
      </trkpt>
      <trkpt lat="46.24874" lon="6.40677">
        <ele>1073</ele>
        <time>2020-02-08T12:44:01Z</time>
      </trkpt>
      <trkpt lat="46.24859" lon="6.40662">
        <ele>1072</ele>
        <time>2020-02-08T12:44:05Z</time>
      </trkpt>
      <trkpt lat="46.24843" lon="6.40646">
        <ele>1073</ele>
        <time>2020-02-08T12:44:09Z</time>
      </trkpt>
      <trkpt lat="46.24825" lon="6.40626">
        <ele>1073</ele>
        <time>2020-02-08T12:44:13Z</time>
      </trkpt>
      <trkpt lat="46.24805" lon="6.40604">
        <ele>1073</ele>
        <time>2020-02-08T12:44:17Z</time>
      </trkpt>
      <trkpt lat="46.24783" lon="6.4058">
        <ele>1072</ele>
        <time>2020-02-08T12:44:21Z</time>
      </trkpt>
      <trkpt lat="46.24764" lon="6.4056">
        <ele>1072</ele>
        <time>2020-02-08T12:44:25Z</time>
      </trkpt>
      <trkpt lat="46.24748" lon="6.40542">
        <ele>1070</ele>
        <time>2020-02-08T12:44:29Z</time>
      </trkpt>
      <trkpt lat="46.24725" lon="6.40529">
        <ele>1066</ele>
        <time>2020-02-08T12:44:33Z</time>
      </trkpt>
      <trkpt lat="46.24699" lon="6.40515">
        <ele>1062</ele>
        <time>2020-02-08T12:44:37Z</time>
      </trkpt>
      <trkpt lat="46.2467" lon="6.40499">
        <ele>1059</ele>
        <time>2020-02-08T12:44:41Z</time>
      </trkpt>
      <trkpt lat="46.24637" lon="6.40478">
        <ele>1057</ele>
        <time>2020-02-08T12:44:45Z</time>
      </trkpt>
      <trkpt lat="46.24603" lon="6.40464">
        <ele>1054</ele>
        <time>2020-02-08T12:44:49Z</time>
      </trkpt>
      <trkpt lat="46.2457" lon="6.40455">
        <ele>1054</ele>
        <time>2020-02-08T12:44:53Z</time>
      </trkpt>
      <trkpt lat="46.24539" lon="6.40433">
        <ele>1057</ele>
        <time>2020-02-08T12:44:57Z</time>
      </trkpt>
      <trkpt lat="46.24513" lon="6.40403">
        <ele>1056</ele>
        <time>2020-02-08T12:45:01Z</time>
      </trkpt>
      <trkpt lat="46.24483" lon="6.4039">
        <ele>1056</ele>
        <time>2020-02-08T12:45:05Z</time>
      </trkpt>
      <trkpt lat="46.24451" lon="6.40389">
        <ele>1059</ele>
        <time>2020-02-08T12:45:09Z</time>
      </trkpt>
      <trkpt lat="46.2442" lon="6.40373">
        <ele>1055</ele>
        <time>2020-02-08T12:45:13Z</time>
      </trkpt>
      <trkpt lat="46.24389" lon="6.40363">
        <ele>1052</ele>
        <time>2020-02-08T12:45:17Z</time>
      </trkpt>
      <trkpt lat="46.24361" lon="6.40354">
        <ele>1051</ele>
        <time>2020-02-08T12:45:21Z</time>
      </trkpt>
      <trkpt lat="46.24334" lon="6.40328">
        <ele>1048</ele>
        <time>2020-02-08T12:45:25Z</time>
      </trkpt>
      <trkpt lat="46.24304" lon="6.40308">
        <ele>1046</ele>
        <time>2020-02-08T12:45:29Z</time>
      </trkpt>
      <trkpt lat="46.24283" lon="6.40288">
        <ele>1042</ele>
        <time>2020-02-08T12:45:33Z</time>
      </trkpt>
      <trkpt lat="46.24267" lon="6.40273">
        <ele>1039</ele>
        <time>2020-02-08T12:45:37Z</time>
      </trkpt>
      <trkpt lat="46.24255" lon="6.40262">
        <ele>1037</ele>
        <time>2020-02-08T12:45:41Z</time>
      </trkpt>
      <trkpt lat="46.24247" lon="6.40254">
        <ele>1035</ele>
        <time>2020-02-08T12:45:45Z</time>
      </trkpt>
      <trkpt lat="46.24242" lon="6.40248">
        <ele>1035</ele>
        <time>2020-02-08T12:45:49Z</time>
      </trkpt>
      <trkpt lat="46.24242" lon="6.40238">
        <ele>1033</ele>
        <time>2020-02-08T12:45:53Z</time>
      </trkpt>
      <trkpt lat="46.24241" lon="6.40227">
        <ele>1032</ele>
        <time>2020-02-08T12:45:57Z</time>
      </trkpt>
      <trkpt lat="46.24239" lon="6.40212">
        <ele>1030</ele>
        <time>2020-02-08T12:46:01Z</time>
      </trkpt>
      <trkpt lat="46.24237" lon="6.40198">
        <ele>1028</ele>
        <time>2020-02-08T12:46:05Z</time>
      </trkpt>
      <trkpt lat="46.24233" lon="6.40185">
        <ele>1025</ele>
        <time>2020-02-08T12:46:09Z</time>
      </trkpt>
      <trkpt lat="46.24226" lon="6.4017">
        <ele>1023</ele>
        <time>2020-02-08T12:46:13Z</time>
      </trkpt>
      <trkpt lat="46.24217" lon="6.40155">
        <ele>1020</ele>
        <time>2020-02-08T12:46:17Z</time>
      </trkpt>
      <trkpt lat="46.24204" lon="6.40146">
        <ele>1019</ele>
        <time>2020-02-08T12:46:21Z</time>
      </trkpt>
      <trkpt lat="46.24186" lon="6.4014">
        <ele>1018</ele>
        <time>2020-02-08T12:46:25Z</time>
      </trkpt>
      <trkpt lat="46.24167" lon="6.40134">
        <ele>1016</ele>
        <time>2020-02-08T12:46:29Z</time>
      </trkpt>
      <trkpt lat="46.24148" lon="6.40128">
        <ele>1015</ele>
        <time>2020-02-08T12:46:33Z</time>
      </trkpt>
      <trkpt lat="46.24128" lon="6.40123">
        <ele>1015</ele>
        <time>2020-02-08T12:46:37Z</time>
      </trkpt>
      <trkpt lat="46.2411" lon="6.4012">
        <ele>1016</ele>
        <time>2020-02-08T12:47:05Z</time>
      </trkpt>
      <trkpt lat="46.241" lon="6.40126">
        <ele>1017</ele>
        <time>2020-02-08T12:47:09Z</time>
      </trkpt>
      <trkpt lat="46.24083" lon="6.40137">
        <ele>1017</ele>
        <time>2020-02-08T12:47:13Z</time>
      </trkpt>
      <trkpt lat="46.24062" lon="6.40151">
        <ele>1015</ele>
        <time>2020-02-08T12:47:17Z</time>
      </trkpt>
      <trkpt lat="46.24033" lon="6.40151">
        <ele>1011</ele>
        <time>2020-02-08T12:47:21Z</time>
      </trkpt>
      <trkpt lat="46.24002" lon="6.40149">
        <ele>1007</ele>
        <time>2020-02-08T12:47:25Z</time>
      </trkpt>
      <trkpt lat="46.23968" lon="6.40143">
        <ele>1005</ele>
        <time>2020-02-08T12:47:29Z</time>
      </trkpt>
      <trkpt lat="46.2394" lon="6.40134">
        <ele>1002</ele>
        <time>2020-02-08T12:47:33Z</time>
      </trkpt>
      <trkpt lat="46.23916" lon="6.40132">
        <ele>1001</ele>
        <time>2020-02-08T12:47:37Z</time>
      </trkpt>
      <trkpt lat="46.23899" lon="6.40155">
        <ele>1003</ele>
        <time>2020-02-08T12:47:41Z</time>
      </trkpt>
      <trkpt lat="46.23895" lon="6.40191">
        <ele>1006</ele>
        <time>2020-02-08T12:47:45Z</time>
      </trkpt>
      <trkpt lat="46.23882" lon="6.40211">
        <ele>1007</ele>
        <time>2020-02-08T12:47:49Z</time>
      </trkpt>
      <trkpt lat="46.23874" lon="6.40183">
        <ele>1004</ele>
        <time>2020-02-08T12:47:53Z</time>
      </trkpt>
      <trkpt lat="46.23881" lon="6.40141">
        <ele>1000</ele>
        <time>2020-02-08T12:47:57Z</time>
      </trkpt>
      <trkpt lat="46.23891" lon="6.40103">
        <ele>993</ele>
        <time>2020-02-08T12:48:01Z</time>
      </trkpt>
      <trkpt lat="46.23911" lon="6.40078">
        <ele>991</ele>
        <time>2020-02-08T12:48:05Z</time>
      </trkpt>
      <trkpt lat="46.23935" lon="6.40078">
        <ele>993</ele>
        <time>2020-02-08T12:48:09Z</time>
      </trkpt>
      <trkpt lat="46.23939" lon="6.40052">
        <ele>991</ele>
        <time>2020-02-08T12:48:13Z</time>
      </trkpt>
      <trkpt lat="46.23913" lon="6.40045">
        <ele>989</ele>
        <time>2020-02-08T12:48:17Z</time>
      </trkpt>
      <trkpt lat="46.23887" lon="6.40029">
        <ele>985</ele>
        <time>2020-02-08T12:48:21Z</time>
      </trkpt>
      <trkpt lat="46.23861" lon="6.40007">
        <ele>979</ele>
        <time>2020-02-08T12:48:25Z</time>
      </trkpt>
      <trkpt lat="46.23836" lon="6.39979">
        <ele>974</ele>
        <time>2020-02-08T12:48:29Z</time>
      </trkpt>
      <trkpt lat="46.23828" lon="6.3994">
        <ele>973</ele>
        <time>2020-02-08T12:48:33Z</time>
      </trkpt>
      <trkpt lat="46.23847" lon="6.39916">
        <ele>973</ele>
        <time>2020-02-08T12:48:37Z</time>
      </trkpt>
      <trkpt lat="46.23876" lon="6.39926">
        <ele>972</ele>
        <time>2020-02-08T12:48:41Z</time>
      </trkpt>
      <trkpt lat="46.23906" lon="6.39946">
        <ele>973</ele>
        <time>2020-02-08T12:48:45Z</time>
      </trkpt>
      <trkpt lat="46.23931" lon="6.39962">
        <ele>975</ele>
        <time>2020-02-08T12:48:49Z</time>
      </trkpt>
      <trkpt lat="46.23962" lon="6.3996">
        <ele>974</ele>
        <time>2020-02-08T12:48:53Z</time>
      </trkpt>
      <trkpt lat="46.23996" lon="6.39932">
        <ele>966</ele>
        <time>2020-02-08T12:48:57Z</time>
      </trkpt>
      <trkpt lat="46.24029" lon="6.39903">
        <ele>959</ele>
        <time>2020-02-08T12:49:01Z</time>
      </trkpt>
      <trkpt lat="46.24062" lon="6.39873">
        <ele>954</ele>
        <time>2020-02-08T12:49:05Z</time>
      </trkpt>
      <trkpt lat="46.24094" lon="6.39837">
        <ele>945</ele>
        <time>2020-02-08T12:49:09Z</time>
      </trkpt>
      <trkpt lat="46.24132" lon="6.39808">
        <ele>941</ele>
        <time>2020-02-08T12:49:13Z</time>
      </trkpt>
      <trkpt lat="46.2417" lon="6.39792">
        <ele>940</ele>
        <time>2020-02-08T12:49:17Z</time>
      </trkpt>
      <trkpt lat="46.24212" lon="6.39791">
        <ele>940</ele>
        <time>2020-02-08T12:49:21Z</time>
      </trkpt>
      <trkpt lat="46.24256" lon="6.39788">
        <ele>942</ele>
        <time>2020-02-08T12:49:25Z</time>
      </trkpt>
      <trkpt lat="46.24293" lon="6.39758">
        <ele>936</ele>
        <time>2020-02-08T12:49:29Z</time>
      </trkpt>
      <trkpt lat="46.24326" lon="6.39749">
        <ele>938</ele>
        <time>2020-02-08T12:49:33Z</time>
      </trkpt>
      <trkpt lat="46.24356" lon="6.39755">
        <ele>942</ele>
        <time>2020-02-08T12:49:37Z</time>
      </trkpt>
      <trkpt lat="46.24383" lon="6.39759">
        <ele>946</ele>
        <time>2020-02-08T12:49:41Z</time>
      </trkpt>
      <trkpt lat="46.24408" lon="6.3976">
        <ele>947</ele>
        <time>2020-02-08T12:49:45Z</time>
      </trkpt>
      <trkpt lat="46.24434" lon="6.39763">
        <ele>948</ele>
        <time>2020-02-08T12:49:49Z</time>
      </trkpt>
      <trkpt lat="46.2446" lon="6.39766">
        <ele>948</ele>
        <time>2020-02-08T12:49:53Z</time>
      </trkpt>
      <trkpt lat="46.24487" lon="6.39774">
        <ele>947</ele>
        <time>2020-02-08T12:49:57Z</time>
      </trkpt>
      <trkpt lat="46.24516" lon="6.39783">
        <ele>945</ele>
        <time>2020-02-08T12:50:01Z</time>
      </trkpt>
      <trkpt lat="46.24546" lon="6.39768">
        <ele>941</ele>
        <time>2020-02-08T12:50:05Z</time>
      </trkpt>
      <trkpt lat="46.24565" lon="6.39743">
        <ele>939</ele>
        <time>2020-02-08T12:50:09Z</time>
      </trkpt>
      <trkpt lat="46.2457" lon="6.39725">
        <ele>939</ele>
        <time>2020-02-08T12:50:13Z</time>
      </trkpt>
      <trkpt lat="46.24569" lon="6.39719">
        <ele>939</ele>
        <time>2020-02-08T12:50:17Z</time>
      </trkpt>
      <trkpt lat="46.2456" lon="6.39712">
        <ele>938</ele>
        <time>2020-02-08T12:50:21Z</time>
      </trkpt>
      <trkpt lat="46.24539" lon="6.39706">
        <ele>936</ele>
        <time>2020-02-08T12:50:25Z</time>
      </trkpt>
      <trkpt lat="46.24515" lon="6.39699">
        <ele>936</ele>
        <time>2020-02-08T12:50:29Z</time>
      </trkpt>
      <trkpt lat="46.24487" lon="6.3969">
        <ele>934</ele>
        <time>2020-02-08T12:50:33Z</time>
      </trkpt>
      <trkpt lat="46.24456" lon="6.3968">
        <ele>932</ele>
        <time>2020-02-08T12:50:37Z</time>
      </trkpt>
      <trkpt lat="46.24422" lon="6.39677">
        <ele>934</ele>
        <time>2020-02-08T12:50:41Z</time>
      </trkpt>
      <trkpt lat="46.24387" lon="6.39672">
        <ele>935</ele>
        <time>2020-02-08T12:50:45Z</time>
      </trkpt>
      <trkpt lat="46.24356" lon="6.39666">
        <ele>931</ele>
        <time>2020-02-08T12:50:49Z</time>
      </trkpt>
      <trkpt lat="46.24325" lon="6.39659">
        <ele>927</ele>
        <time>2020-02-08T12:50:53Z</time>
      </trkpt>
      <trkpt lat="46.24289" lon="6.39663">
        <ele>922</ele>
        <time>2020-02-08T12:50:57Z</time>
      </trkpt>
      <trkpt lat="46.24258" lon="6.39691">
        <ele>919</ele>
        <time>2020-02-08T12:51:01Z</time>
      </trkpt>
      <trkpt lat="46.24221" lon="6.39697">
        <ele>919</ele>
        <time>2020-02-08T12:51:05Z</time>
      </trkpt>
      <trkpt lat="46.24186" lon="6.39673">
        <ele>914</ele>
        <time>2020-02-08T12:51:09Z</time>
      </trkpt>
      <trkpt lat="46.24148" lon="6.39656">
        <ele>914</ele>
        <time>2020-02-08T12:51:13Z</time>
      </trkpt>
      <trkpt lat="46.24109" lon="6.39643">
        <ele>913</ele>
        <time>2020-02-08T12:51:17Z</time>
      </trkpt>
      <trkpt lat="46.24068" lon="6.39631">
        <ele>909</ele>
        <time>2020-02-08T12:51:21Z</time>
      </trkpt>
      <trkpt lat="46.24028" lon="6.39619">
        <ele>906</ele>
        <time>2020-02-08T12:51:25Z</time>
      </trkpt>
      <trkpt lat="46.23989" lon="6.39606">
        <ele>912</ele>
        <time>2020-02-08T12:51:29Z</time>
      </trkpt>
      <trkpt lat="46.23959" lon="6.39577">
        <ele>910</ele>
        <time>2020-02-08T12:51:33Z</time>
      </trkpt>
      <trkpt lat="46.23944" lon="6.39525">
        <ele>902</ele>
        <time>2020-02-08T12:51:37Z</time>
      </trkpt>
      <trkpt lat="46.23918" lon="6.39486">
        <ele>899</ele>
        <time>2020-02-08T12:51:41Z</time>
      </trkpt>
      <trkpt lat="46.23883" lon="6.39458">
        <ele>897</ele>
        <time>2020-02-08T12:51:45Z</time>
      </trkpt>
      <trkpt lat="46.23847" lon="6.39435">
        <ele>896</ele>
        <time>2020-02-08T12:51:49Z</time>
      </trkpt>
      <trkpt lat="46.23806" lon="6.3944">
        <ele>893</ele>
        <time>2020-02-08T12:51:53Z</time>
      </trkpt>
      <trkpt lat="46.23764" lon="6.39453">
        <ele>890</ele>
        <time>2020-02-08T12:51:57Z</time>
      </trkpt>
      <trkpt lat="46.23722" lon="6.39466">
        <ele>888</ele>
        <time>2020-02-08T12:52:01Z</time>
      </trkpt>
      <trkpt lat="46.23679" lon="6.3948">
        <ele>885</ele>
        <time>2020-02-08T12:52:05Z</time>
      </trkpt>
      <trkpt lat="46.23635" lon="6.3948">
        <ele>885</ele>
        <time>2020-02-08T12:52:09Z</time>
      </trkpt>
      <trkpt lat="46.23592" lon="6.39463">
        <ele>882</ele>
        <time>2020-02-08T12:52:13Z</time>
      </trkpt>
      <trkpt lat="46.2355" lon="6.39457">
        <ele>878</ele>
        <time>2020-02-08T12:52:17Z</time>
      </trkpt>
      <trkpt lat="46.2352" lon="6.39498">
        <ele>880</ele>
        <time>2020-02-08T12:52:21Z</time>
      </trkpt>
      <trkpt lat="46.23486" lon="6.39528">
        <ele>878</ele>
        <time>2020-02-08T12:52:25Z</time>
      </trkpt>
      <trkpt lat="46.23442" lon="6.3953">
        <ele>870</ele>
        <time>2020-02-08T12:52:29Z</time>
      </trkpt>
      <trkpt lat="46.23397" lon="6.39527">
        <ele>865</ele>
        <time>2020-02-08T12:52:33Z</time>
      </trkpt>
      <trkpt lat="46.23353" lon="6.39513">
        <ele>866</ele>
        <time>2020-02-08T12:52:37Z</time>
      </trkpt>
      <trkpt lat="46.23315" lon="6.39476">
        <ele>864</ele>
        <time>2020-02-08T12:52:41Z</time>
      </trkpt>
      <trkpt lat="46.23277" lon="6.39442">
        <ele>857</ele>
        <time>2020-02-08T12:52:45Z</time>
      </trkpt>
      <trkpt lat="46.23234" lon="6.3943">
        <ele>856</ele>
        <time>2020-02-08T12:52:49Z</time>
      </trkpt>
      <trkpt lat="46.23192" lon="6.39435">
        <ele>855</ele>
        <time>2020-02-08T12:52:53Z</time>
      </trkpt>
      <trkpt lat="46.23154" lon="6.39467">
        <ele>855</ele>
        <time>2020-02-08T12:52:57Z</time>
      </trkpt>
      <trkpt lat="46.23117" lon="6.39503">
        <ele>860</ele>
        <time>2020-02-08T12:53:01Z</time>
      </trkpt>
      <trkpt lat="46.23078" lon="6.39527">
        <ele>860</ele>
        <time>2020-02-08T12:53:05Z</time>
      </trkpt>
      <trkpt lat="46.2304" lon="6.39506">
        <ele>854</ele>
        <time>2020-02-08T12:53:09Z</time>
      </trkpt>
      <trkpt lat="46.22999" lon="6.39503">
        <ele>858</ele>
        <time>2020-02-08T12:53:13Z</time>
      </trkpt>
      <trkpt lat="46.22959" lon="6.39491">
        <ele>859</ele>
        <time>2020-02-08T12:53:17Z</time>
      </trkpt>
      <trkpt lat="46.22922" lon="6.39477">
        <ele>853</ele>
        <time>2020-02-08T12:53:21Z</time>
      </trkpt>
      <trkpt lat="46.22881" lon="6.39461">
        <ele>846</ele>
        <time>2020-02-08T12:53:25Z</time>
      </trkpt>
      <trkpt lat="46.22837" lon="6.39453">
        <ele>844</ele>
        <time>2020-02-08T12:53:29Z</time>
      </trkpt>
      <trkpt lat="46.22792" lon="6.3945">
        <ele>840</ele>
        <time>2020-02-08T12:53:33Z</time>
      </trkpt>
      <trkpt lat="46.22749" lon="6.3945">
        <ele>837</ele>
        <time>2020-02-08T12:53:37Z</time>
      </trkpt>
      <trkpt lat="46.22706" lon="6.3945">
        <ele>831</ele>
        <time>2020-02-08T12:53:41Z</time>
      </trkpt>
      <trkpt lat="46.22663" lon="6.3945">
        <ele>826</ele>
        <time>2020-02-08T12:53:45Z</time>
      </trkpt>
      <trkpt lat="46.22621" lon="6.39458">
        <ele>824</ele>
        <time>2020-02-08T12:53:49Z</time>
      </trkpt>
      <trkpt lat="46.22586" lon="6.39491">
        <ele>833</ele>
        <time>2020-02-08T12:53:53Z</time>
      </trkpt>
      <trkpt lat="46.22546" lon="6.39486">
        <ele>828</ele>
        <time>2020-02-08T12:53:57Z</time>
      </trkpt>
      <trkpt lat="46.22505" lon="6.39492">
        <ele>821</ele>
        <time>2020-02-08T12:54:01Z</time>
      </trkpt>
      <trkpt lat="46.22464" lon="6.39509">
        <ele>818</ele>
        <time>2020-02-08T12:54:05Z</time>
      </trkpt>
      <trkpt lat="46.22423" lon="6.39524">
        <ele>815</ele>
        <time>2020-02-08T12:54:09Z</time>
      </trkpt>
      <trkpt lat="46.22383" lon="6.39537">
        <ele>812</ele>
        <time>2020-02-08T12:54:13Z</time>
      </trkpt>
      <trkpt lat="46.22341" lon="6.39548">
        <ele>809</ele>
        <time>2020-02-08T12:54:17Z</time>
      </trkpt>
      <trkpt lat="46.22298" lon="6.39545">
        <ele>808</ele>
        <time>2020-02-08T12:54:21Z</time>
      </trkpt>
      <trkpt lat="46.22253" lon="6.3954">
        <ele>810</ele>
        <time>2020-02-08T12:54:25Z</time>
      </trkpt>
      <trkpt lat="46.2221" lon="6.39535">
        <ele>804</ele>
        <time>2020-02-08T12:54:29Z</time>
      </trkpt>
      <trkpt lat="46.22165" lon="6.3953">
        <ele>800</ele>
        <time>2020-02-08T12:54:33Z</time>
      </trkpt>
      <trkpt lat="46.22122" lon="6.39537">
        <ele>797</ele>
        <time>2020-02-08T12:54:37Z</time>
      </trkpt>
      <trkpt lat="46.22082" lon="6.39556">
        <ele>801</ele>
        <time>2020-02-08T12:54:41Z</time>
      </trkpt>
      <trkpt lat="46.22042" lon="6.39546">
        <ele>802</ele>
        <time>2020-02-08T12:54:45Z</time>
      </trkpt>
      <trkpt lat="46.22002" lon="6.39554">
        <ele>803</ele>
        <time>2020-02-08T12:54:49Z</time>
      </trkpt>
      <trkpt lat="46.21963" lon="6.39578">
        <ele>798</ele>
        <time>2020-02-08T12:54:53Z</time>
      </trkpt>
      <trkpt lat="46.21925" lon="6.39603">
        <ele>795</ele>
        <time>2020-02-08T12:54:57Z</time>
      </trkpt>
      <trkpt lat="46.21884" lon="6.39628">
        <ele>792</ele>
        <time>2020-02-08T12:55:01Z</time>
      </trkpt>
      <trkpt lat="46.21845" lon="6.39652">
        <ele>789</ele>
        <time>2020-02-08T12:55:05Z</time>
      </trkpt>
      <trkpt lat="46.21807" lon="6.39679">
        <ele>790</ele>
        <time>2020-02-08T12:55:09Z</time>
      </trkpt>
      <trkpt lat="46.21774" lon="6.39714">
        <ele>787</ele>
        <time>2020-02-08T12:55:13Z</time>
      </trkpt>
      <trkpt lat="46.21738" lon="6.3975">
        <ele>786</ele>
        <time>2020-02-08T12:55:17Z</time>
      </trkpt>
      <trkpt lat="46.21702" lon="6.39781">
        <ele>779</ele>
        <time>2020-02-08T12:55:21Z</time>
      </trkpt>
      <trkpt lat="46.2166" lon="6.39793">
        <ele>770</ele>
        <time>2020-02-08T12:55:25Z</time>
      </trkpt>
      <trkpt lat="46.21616" lon="6.39797">
        <ele>766</ele>
        <time>2020-02-08T12:55:29Z</time>
      </trkpt>
      <trkpt lat="46.21575" lon="6.39803">
        <ele>764</ele>
        <time>2020-02-08T12:55:33Z</time>
      </trkpt>
      <trkpt lat="46.21533" lon="6.39803">
        <ele>761</ele>
        <time>2020-02-08T12:55:37Z</time>
      </trkpt>
      <trkpt lat="46.21491" lon="6.3979">
        <ele>758</ele>
        <time>2020-02-08T12:55:41Z</time>
      </trkpt>
      <trkpt lat="46.21448" lon="6.39774">
        <ele>756</ele>
        <time>2020-02-08T12:55:45Z</time>
      </trkpt>
      <trkpt lat="46.21406" lon="6.39758">
        <ele>757</ele>
        <time>2020-02-08T12:55:49Z</time>
      </trkpt>
      <trkpt lat="46.21363" lon="6.39756">
        <ele>757</ele>
        <time>2020-02-08T12:55:53Z</time>
      </trkpt>
      <trkpt lat="46.21327" lon="6.39784">
        <ele>754</ele>
        <time>2020-02-08T12:55:57Z</time>
      </trkpt>
      <trkpt lat="46.21296" lon="6.39828">
        <ele>752</ele>
        <time>2020-02-08T12:56:01Z</time>
      </trkpt>
      <trkpt lat="46.21265" lon="6.39874">
        <ele>747</ele>
        <time>2020-02-08T12:56:05Z</time>
      </trkpt>
      <trkpt lat="46.21235" lon="6.39917">
        <ele>744</ele>
        <time>2020-02-08T12:56:09Z</time>
      </trkpt>
      <trkpt lat="46.21206" lon="6.39959">
        <ele>742</ele>
        <time>2020-02-08T12:56:13Z</time>
      </trkpt>
      <trkpt lat="46.21178" lon="6.39999">
        <ele>744</ele>
        <time>2020-02-08T12:56:17Z</time>
      </trkpt>
      <trkpt lat="46.21151" lon="6.40037">
        <ele>744</ele>
        <time>2020-02-08T12:56:21Z</time>
      </trkpt>
      <trkpt lat="46.21126" lon="6.40073">
        <ele>743</ele>
        <time>2020-02-08T12:56:25Z</time>
      </trkpt>
      <trkpt lat="46.21103" lon="6.40108">
        <ele>739</ele>
        <time>2020-02-08T12:56:29Z</time>
      </trkpt>
      <trkpt lat="46.21081" lon="6.40142">
        <ele>738</ele>
        <time>2020-02-08T12:56:33Z</time>
      </trkpt>
      <trkpt lat="46.21059" lon="6.40173">
        <ele>739</ele>
        <time>2020-02-08T12:56:37Z</time>
      </trkpt>
      <trkpt lat="46.21039" lon="6.40201">
        <ele>740</ele>
        <time>2020-02-08T12:56:41Z</time>
      </trkpt>
      <trkpt lat="46.2102" lon="6.40228">
        <ele>741</ele>
        <time>2020-02-08T12:56:45Z</time>
      </trkpt>
      <trkpt lat="46.21001" lon="6.40255">
        <ele>742</ele>
        <time>2020-02-08T12:56:49Z</time>
      </trkpt>
      <trkpt lat="46.20981" lon="6.4026">
        <ele>742</ele>
        <time>2020-02-08T12:56:53Z</time>
      </trkpt>
      <trkpt lat="46.20964" lon="6.40238">
        <ele>741</ele>
        <time>2020-02-08T12:56:57Z</time>
      </trkpt>
      <trkpt lat="46.2094" lon="6.40221">
        <ele>741</ele>
        <time>2020-02-08T12:57:01Z</time>
      </trkpt>
      <trkpt lat="46.20915" lon="6.40205">
        <ele>742</ele>
        <time>2020-02-08T12:57:05Z</time>
      </trkpt>
      <trkpt lat="46.20889" lon="6.40189">
        <ele>742</ele>
        <time>2020-02-08T12:57:09Z</time>
      </trkpt>
      <trkpt lat="46.20864" lon="6.40174">
        <ele>741</ele>
        <time>2020-02-08T12:57:13Z</time>
      </trkpt>
      <trkpt lat="46.20838" lon="6.40161">
        <ele>739</ele>
        <time>2020-02-08T12:57:17Z</time>
      </trkpt>
      <trkpt lat="46.20813" lon="6.40173">
        <ele>739</ele>
        <time>2020-02-08T12:57:21Z</time>
      </trkpt>
      <trkpt lat="46.20797" lon="6.40205">
        <ele>739</ele>
        <time>2020-02-08T12:57:25Z</time>
      </trkpt>
      <trkpt lat="46.20782" lon="6.40235">
        <ele>739</ele>
        <time>2020-02-08T12:57:29Z</time>
      </trkpt>
      <trkpt lat="46.20769" lon="6.40257">
        <ele>740</ele>
        <time>2020-02-08T12:57:33Z</time>
      </trkpt>
      <trkpt lat="46.2077" lon="6.40281">
        <ele>739</ele>
        <time>2020-02-08T12:57:37Z</time>
      </trkpt>
      <trkpt lat="46.20782" lon="6.40306">
        <ele>740</ele>
        <time>2020-02-08T12:57:41Z</time>
      </trkpt>
      <trkpt lat="46.20795" lon="6.40332">
        <ele>740</ele>
        <time>2020-02-08T12:57:45Z</time>
      </trkpt>
      <trkpt lat="46.20806" lon="6.4036">
        <ele>741</ele>
        <time>2020-02-08T12:57:49Z</time>
      </trkpt>
      <trkpt lat="46.20815" lon="6.40389">
        <ele>741</ele>
        <time>2020-02-08T12:57:53Z</time>
      </trkpt>
      <trkpt lat="46.20826" lon="6.40419">
        <ele>741</ele>
        <time>2020-02-08T12:57:57Z</time>
      </trkpt>
      <trkpt lat="46.20837" lon="6.40449">
        <ele>741</ele>
        <time>2020-02-08T12:58:01Z</time>
      </trkpt>
      <trkpt lat="46.20849" lon="6.40478">
        <ele>741</ele>
        <time>2020-02-08T12:58:05Z</time>
      </trkpt>
      <trkpt lat="46.20858" lon="6.40507">
        <ele>741</ele>
        <time>2020-02-08T12:58:09Z</time>
      </trkpt>
      <trkpt lat="46.20849" lon="6.40537">
        <ele>740</ele>
        <time>2020-02-08T12:58:13Z</time>
      </trkpt>
      <trkpt lat="46.20838" lon="6.40571">
        <ele>738</ele>
        <time>2020-02-08T12:58:17Z</time>
      </trkpt>
      <trkpt lat="46.20817" lon="6.40599">
        <ele>738</ele>
        <time>2020-02-08T12:58:21Z</time>
      </trkpt>
      <trkpt lat="46.20796" lon="6.40629">
        <ele>737</ele>
        <time>2020-02-08T12:58:25Z</time>
      </trkpt>
      <trkpt lat="46.20775" lon="6.40663">
        <ele>736</ele>
        <time>2020-02-08T12:58:29Z</time>
      </trkpt>
      <trkpt lat="46.20752" lon="6.40695">
        <ele>736</ele>
        <time>2020-02-08T12:58:33Z</time>
      </trkpt>
      <trkpt lat="46.2073" lon="6.40727">
        <ele>736</ele>
        <time>2020-02-08T12:58:37Z</time>
      </trkpt>
      <trkpt lat="46.20711" lon="6.40755">
        <ele>735</ele>
        <time>2020-02-08T12:58:41Z</time>
      </trkpt>
      <trkpt lat="46.20693" lon="6.4078">
        <ele>735</ele>
        <time>2020-02-08T12:58:45Z</time>
      </trkpt>
      <trkpt lat="46.20674" lon="6.40787">
        <ele>736</ele>
        <time>2020-02-08T12:58:49Z</time>
      </trkpt>
      <trkpt lat="46.20654" lon="6.40767">
        <ele>736</ele>
        <time>2020-02-08T12:58:53Z</time>
      </trkpt>
      <trkpt lat="46.20631" lon="6.40747">
        <ele>736</ele>
        <time>2020-02-08T12:58:57Z</time>
      </trkpt>
      <trkpt lat="46.20607" lon="6.40729">
        <ele>736</ele>
        <time>2020-02-08T12:59:01Z</time>
      </trkpt>
      <trkpt lat="46.20584" lon="6.40713">
        <ele>738</ele>
        <time>2020-02-08T12:59:05Z</time>
      </trkpt>
      <trkpt lat="46.20563" lon="6.40701">
        <ele>739</ele>
        <time>2020-02-08T12:59:09Z</time>
      </trkpt>
      <trkpt lat="46.20543" lon="6.40691">
        <ele>739</ele>
        <time>2020-02-08T12:59:13Z</time>
      </trkpt>
      <trkpt lat="46.20527" lon="6.4068">
        <ele>739</ele>
        <time>2020-02-08T12:59:17Z</time>
      </trkpt>
      <trkpt lat="46.20513" lon="6.40668">
        <ele>740</ele>
        <time>2020-02-08T12:59:21Z</time>
      </trkpt>
      <trkpt lat="46.20498" lon="6.40659">
        <ele>741</ele>
        <time>2020-02-08T12:59:25Z</time>
      </trkpt>
      <trkpt lat="46.20482" lon="6.40654">
        <ele>741</ele>
        <time>2020-02-08T12:59:29Z</time>
      </trkpt>
      <trkpt lat="46.20464" lon="6.40651">
        <ele>742</ele>
        <time>2020-02-08T12:59:33Z</time>
      </trkpt>
      <trkpt lat="46.20447" lon="6.40645">
        <ele>742</ele>
        <time>2020-02-08T12:59:37Z</time>
      </trkpt>
      <trkpt lat="46.20429" lon="6.40634">
        <ele>740</ele>
        <time>2020-02-08T12:59:41Z</time>
      </trkpt>
      <trkpt lat="46.2041" lon="6.40618">
        <ele>739</ele>
        <time>2020-02-08T12:59:45Z</time>
      </trkpt>
      <trkpt lat="46.20389" lon="6.406">
        <ele>738</ele>
        <time>2020-02-08T12:59:49Z</time>
      </trkpt>
      <trkpt lat="46.20368" lon="6.40584">
        <ele>738</ele>
        <time>2020-02-08T12:59:53Z</time>
      </trkpt>
      <trkpt lat="46.20345" lon="6.4057">
        <ele>739</ele>
        <time>2020-02-08T12:59:57Z</time>
      </trkpt>
      <trkpt lat="46.20322" lon="6.40558">
        <ele>740</ele>
        <time>2020-02-08T13:00:01Z</time>
      </trkpt>
      <trkpt lat="46.20298" lon="6.40546">
        <ele>740</ele>
        <time>2020-02-08T13:00:05Z</time>
      </trkpt>
      <trkpt lat="46.20274" lon="6.40534">
        <ele>739</ele>
        <time>2020-02-08T13:00:09Z</time>
      </trkpt>
      <trkpt lat="46.2025" lon="6.40524">
        <ele>738</ele>
        <time>2020-02-08T13:00:13Z</time>
      </trkpt>
      <trkpt lat="46.20225" lon="6.40513">
        <ele>738</ele>
        <time>2020-02-08T13:00:17Z</time>
      </trkpt>
      <trkpt lat="46.20202" lon="6.405">
        <ele>740</ele>
        <time>2020-02-08T13:00:21Z</time>
      </trkpt>
      <trkpt lat="46.2018" lon="6.40484">
        <ele>740</ele>
        <time>2020-02-08T13:00:25Z</time>
      </trkpt>
      <trkpt lat="46.20157" lon="6.4047">
        <ele>739</ele>
        <time>2020-02-08T13:00:29Z</time>
      </trkpt>
      <trkpt lat="46.20132" lon="6.40457">
        <ele>738</ele>
        <time>2020-02-08T13:00:33Z</time>
      </trkpt>
      <trkpt lat="46.20107" lon="6.40445">
        <ele>738</ele>
        <time>2020-02-08T13:00:37Z</time>
      </trkpt>
      <trkpt lat="46.20083" lon="6.40432">
        <ele>738</ele>
        <time>2020-02-08T13:00:41Z</time>
      </trkpt>
      <trkpt lat="46.20059" lon="6.4042">
        <ele>738</ele>
        <time>2020-02-08T13:00:45Z</time>
      </trkpt>
      <trkpt lat="46.20038" lon="6.40403">
        <ele>739</ele>
        <time>2020-02-08T13:00:49Z</time>
      </trkpt>
      <trkpt lat="46.20018" lon="6.40383">
        <ele>739</ele>
        <time>2020-02-08T13:00:53Z</time>
      </trkpt>
      <trkpt lat="46.19996" lon="6.40365">
        <ele>740</ele>
        <time>2020-02-08T13:00:57Z</time>
      </trkpt>
      <trkpt lat="46.19974" lon="6.40351">
        <ele>742</ele>
        <time>2020-02-08T13:01:01Z</time>
      </trkpt>
      <trkpt lat="46.19953" lon="6.40339">
        <ele>741</ele>
        <time>2020-02-08T13:01:05Z</time>
      </trkpt>
      <trkpt lat="46.19931" lon="6.40331">
        <ele>741</ele>
        <time>2020-02-08T13:01:09Z</time>
      </trkpt>
      <trkpt lat="46.19908" lon="6.40332">
        <ele>741</ele>
        <time>2020-02-08T13:01:13Z</time>
      </trkpt>
      <trkpt lat="46.19886" lon="6.40337">
        <ele>742</ele>
        <time>2020-02-08T13:01:17Z</time>
      </trkpt>
      <trkpt lat="46.19864" lon="6.40335">
        <ele>743</ele>
        <time>2020-02-08T13:01:21Z</time>
      </trkpt>
      <trkpt lat="46.19845" lon="6.40325">
        <ele>743</ele>
        <time>2020-02-08T13:01:25Z</time>
      </trkpt>
      <trkpt lat="46.19826" lon="6.40311">
        <ele>744</ele>
        <time>2020-02-08T13:01:29Z</time>
      </trkpt>
      <trkpt lat="46.19806" lon="6.40296">
        <ele>744</ele>
        <time>2020-02-08T13:01:33Z</time>
      </trkpt>
      <trkpt lat="46.19784" lon="6.40284">
        <ele>745</ele>
        <time>2020-02-08T13:01:37Z</time>
      </trkpt>
      <trkpt lat="46.19761" lon="6.40273">
        <ele>744</ele>
        <time>2020-02-08T13:01:41Z</time>
      </trkpt>
      <trkpt lat="46.19739" lon="6.40261">
        <ele>745</ele>
        <time>2020-02-08T13:01:45Z</time>
      </trkpt>
      <trkpt lat="46.19716" lon="6.4025">
        <ele>746</ele>
        <time>2020-02-08T13:01:49Z</time>
      </trkpt>
      <trkpt lat="46.19694" lon="6.40238">
        <ele>746</ele>
        <time>2020-02-08T13:01:53Z</time>
      </trkpt>
      <trkpt lat="46.19672" lon="6.40224">
        <ele>745</ele>
        <time>2020-02-08T13:01:57Z</time>
      </trkpt>
      <trkpt lat="46.19652" lon="6.40207">
        <ele>743</ele>
        <time>2020-02-08T13:02:01Z</time>
      </trkpt>
      <trkpt lat="46.19631" lon="6.40188">
        <ele>743</ele>
        <time>2020-02-08T13:02:05Z</time>
      </trkpt>
      <trkpt lat="46.19609" lon="6.40171">
        <ele>743</ele>
        <time>2020-02-08T13:02:09Z</time>
      </trkpt>
      <trkpt lat="46.19584" lon="6.40157">
        <ele>743</ele>
        <time>2020-02-08T13:02:13Z</time>
      </trkpt>
      <trkpt lat="46.19557" lon="6.40144">
        <ele>742</ele>
        <time>2020-02-08T13:02:17Z</time>
      </trkpt>
      <trkpt lat="46.19531" lon="6.40133">
        <ele>742</ele>
        <time>2020-02-08T13:02:21Z</time>
      </trkpt>
      <trkpt lat="46.19506" lon="6.40124">
        <ele>742</ele>
        <time>2020-02-08T13:02:25Z</time>
      </trkpt>
      <trkpt lat="46.19482" lon="6.40117">
        <ele>744</ele>
        <time>2020-02-08T13:02:29Z</time>
      </trkpt>
      <trkpt lat="46.19461" lon="6.4011">
        <ele>745</ele>
        <time>2020-02-08T13:02:33Z</time>
      </trkpt>
      <trkpt lat="46.19441" lon="6.40103">
        <ele>748</ele>
        <time>2020-02-08T13:02:37Z</time>
      </trkpt>
      <trkpt lat="46.19422" lon="6.40099">
        <ele>749</ele>
        <time>2020-02-08T13:02:41Z</time>
      </trkpt>
      <trkpt lat="46.19404" lon="6.40092">
        <ele>749</ele>
        <time>2020-02-08T13:02:45Z</time>
      </trkpt>
      <trkpt lat="46.19384" lon="6.4008">
        <ele>747</ele>
        <time>2020-02-08T13:02:49Z</time>
      </trkpt>
      <trkpt lat="46.19363" lon="6.40064">
        <ele>745</ele>
        <time>2020-02-08T13:02:53Z</time>
      </trkpt>
      <trkpt lat="46.19343" lon="6.40051">
        <ele>745</ele>
        <time>2020-02-08T13:02:57Z</time>
      </trkpt>
      <trkpt lat="46.19322" lon="6.4004">
        <ele>747</ele>
        <time>2020-02-08T13:03:01Z</time>
      </trkpt>
      <trkpt lat="46.19302" lon="6.40032">
        <ele>748</ele>
        <time>2020-02-08T13:03:05Z</time>
      </trkpt>
      <trkpt lat="46.19283" lon="6.40023">
        <ele>748</ele>
        <time>2020-02-08T13:03:09Z</time>
      </trkpt>
      <trkpt lat="46.19265" lon="6.40012">
        <ele>749</ele>
        <time>2020-02-08T13:03:13Z</time>
      </trkpt>
      <trkpt lat="46.19247" lon="6.4">
        <ele>749</ele>
        <time>2020-02-08T13:03:17Z</time>
      </trkpt>
      <trkpt lat="46.19232" lon="6.3999">
        <ele>750</ele>
        <time>2020-02-08T13:03:21Z</time>
      </trkpt>
      <trkpt lat="46.19216" lon="6.39984">
        <ele>752</ele>
        <time>2020-02-08T13:03:25Z</time>
      </trkpt>
      <trkpt lat="46.19205" lon="6.39979">
        <ele>754</ele>
        <time>2020-02-08T13:03:29Z</time>
      </trkpt>
      <trkpt lat="46.19196" lon="6.39969">
        <ele>754</ele>
        <time>2020-02-08T13:03:33Z</time>
      </trkpt>
      <trkpt lat="46.19188" lon="6.39959">
        <ele>754</ele>
        <time>2020-02-08T13:03:37Z</time>
      </trkpt>
      <trkpt lat="46.19177" lon="6.39953">
        <ele>755</ele>
        <time>2020-02-08T13:03:41Z</time>
      </trkpt>
      <trkpt lat="46.19166" lon="6.39947">
        <ele>756</ele>
        <time>2020-02-08T13:03:45Z</time>
      </trkpt>
      <trkpt lat="46.19154" lon="6.39939">
        <ele>757</ele>
        <time>2020-02-08T13:03:49Z</time>
      </trkpt>
      <trkpt lat="46.19141" lon="6.39932">
        <ele>757</ele>
        <time>2020-02-08T13:03:53Z</time>
      </trkpt>
      <trkpt lat="46.19128" lon="6.39924">
        <ele>757</ele>
        <time>2020-02-08T13:03:57Z</time>
      </trkpt>
      <trkpt lat="46.19112" lon="6.39915">
        <ele>756</ele>
        <time>2020-02-08T13:04:01Z</time>
      </trkpt>
      <trkpt lat="46.19096" lon="6.39906">
        <ele>757</ele>
        <time>2020-02-08T13:04:05Z</time>
      </trkpt>
      <trkpt lat="46.19079" lon="6.399">
        <ele>757</ele>
        <time>2020-02-08T13:04:09Z</time>
      </trkpt>
      <trkpt lat="46.19063" lon="6.39895">
        <ele>757</ele>
        <time>2020-02-08T13:04:13Z</time>
      </trkpt>
      <trkpt lat="46.19047" lon="6.39893">
        <ele>758</ele>
        <time>2020-02-08T13:04:17Z</time>
      </trkpt>
      <trkpt lat="46.19032" lon="6.39892">
        <ele>759</ele>
        <time>2020-02-08T13:04:21Z</time>
      </trkpt>
      <trkpt lat="46.19017" lon="6.39894">
        <ele>760</ele>
        <time>2020-02-08T13:04:25Z</time>
      </trkpt>
      <trkpt lat="46.19008" lon="6.39896">
        <ele>760</ele>
        <time>2020-02-08T13:04:29Z</time>
      </trkpt>
      <trkpt lat="46.19006" lon="6.39896">
        <ele>760</ele>
        <time>2020-02-08T13:04:37Z</time>
      </trkpt>
      <trkpt lat="46.19006" lon="6.39893">
        <ele>759</ele>
        <time>2020-02-08T13:06:29Z</time>
      </trkpt>
      <trkpt lat="46.19006" lon="6.39895">
        <ele>760</ele>
        <time>2020-02-08T13:06:37Z</time>
      </trkpt>
      <trkpt lat="46.19012" lon="6.39898">
        <ele>760</ele>
        <time>2020-02-08T13:06:41Z</time>
      </trkpt>
      <trkpt lat="46.19018" lon="6.39894">
        <ele>759</ele>
        <time>2020-02-08T13:06:45Z</time>
      </trkpt>
      <trkpt lat="46.19011" lon="6.39894">
        <ele>760</ele>
        <time>2020-02-08T13:06:49Z</time>
      </trkpt>
      <trkpt lat="46.18998" lon="6.399">
        <ele>760</ele>
        <time>2020-02-08T13:06:53Z</time>
      </trkpt>
      <trkpt lat="46.18983" lon="6.39906">
        <ele>759</ele>
        <time>2020-02-08T13:06:57Z</time>
      </trkpt>
      <trkpt lat="46.18968" lon="6.39913">
        <ele>758</ele>
        <time>2020-02-08T13:07:01Z</time>
      </trkpt>
      <trkpt lat="46.18953" lon="6.39919">
        <ele>758</ele>
        <time>2020-02-08T13:07:05Z</time>
      </trkpt>
      <trkpt lat="46.18936" lon="6.39923">
        <ele>760</ele>
        <time>2020-02-08T13:07:09Z</time>
      </trkpt>
      <trkpt lat="46.18918" lon="6.39923">
        <ele>763</ele>
        <time>2020-02-08T13:07:13Z</time>
      </trkpt>
      <trkpt lat="46.189" lon="6.3992">
        <ele>766</ele>
        <time>2020-02-08T13:07:17Z</time>
      </trkpt>
      <trkpt lat="46.18882" lon="6.39918">
        <ele>768</ele>
        <time>2020-02-08T13:07:21Z</time>
      </trkpt>
      <trkpt lat="46.18866" lon="6.39915">
        <ele>770</ele>
        <time>2020-02-08T13:07:25Z</time>
      </trkpt>
      <trkpt lat="46.18851" lon="6.39913">
        <ele>771</ele>
        <time>2020-02-08T13:07:29Z</time>
      </trkpt>
      <trkpt lat="46.18839" lon="6.39909">
        <ele>771</ele>
        <time>2020-02-08T13:07:33Z</time>
      </trkpt>
      <trkpt lat="46.18829" lon="6.39902">
        <ele>771</ele>
        <time>2020-02-08T13:07:37Z</time>
      </trkpt>
      <trkpt lat="46.18819" lon="6.39894">
        <ele>771</ele>
        <time>2020-02-08T13:07:41Z</time>
      </trkpt>
      <trkpt lat="46.1881" lon="6.39886">
        <ele>772</ele>
        <time>2020-02-08T13:07:45Z</time>
      </trkpt>
      <trkpt lat="46.18801" lon="6.39881">
        <ele>773</ele>
        <time>2020-02-08T13:07:49Z</time>
      </trkpt>
      <trkpt lat="46.18791" lon="6.39878">
        <ele>774</ele>
        <time>2020-02-08T13:07:53Z</time>
      </trkpt>
      <trkpt lat="46.1878" lon="6.39876">
        <ele>776</ele>
        <time>2020-02-08T13:07:57Z</time>
      </trkpt>
      <trkpt lat="46.1877" lon="6.39876">
        <ele>776</ele>
        <time>2020-02-08T13:08:01Z</time>
      </trkpt>
      <trkpt lat="46.1876" lon="6.39877">
        <ele>777</ele>
        <time>2020-02-08T13:08:05Z</time>
      </trkpt>
      <trkpt lat="46.1875" lon="6.39877">
        <ele>777</ele>
        <time>2020-02-08T13:08:09Z</time>
      </trkpt>
      <trkpt lat="46.1874" lon="6.39876">
        <ele>777</ele>
        <time>2020-02-08T13:08:13Z</time>
      </trkpt>
      <trkpt lat="46.18731" lon="6.39876">
        <ele>777</ele>
        <time>2020-02-08T13:08:17Z</time>
      </trkpt>
      <trkpt lat="46.18721" lon="6.39876">
        <ele>778</ele>
        <time>2020-02-08T13:08:21Z</time>
      </trkpt>
      <trkpt lat="46.18711" lon="6.39876">
        <ele>780</ele>
        <time>2020-02-08T13:08:25Z</time>
      </trkpt>
      <trkpt lat="46.18702" lon="6.3988">
        <ele>783</ele>
        <time>2020-02-08T13:08:29Z</time>
      </trkpt>
      <trkpt lat="46.18694" lon="6.39888">
        <ele>785</ele>
        <time>2020-02-08T13:08:33Z</time>
      </trkpt>
      <trkpt lat="46.18689" lon="6.39899">
        <ele>787</ele>
        <time>2020-02-08T13:08:37Z</time>
      </trkpt>
      <trkpt lat="46.18682" lon="6.39908">
        <ele>789</ele>
        <time>2020-02-08T13:08:41Z</time>
      </trkpt>
      <trkpt lat="46.18674" lon="6.39914">
        <ele>790</ele>
        <time>2020-02-08T13:08:45Z</time>
      </trkpt>
      <trkpt lat="46.18665" lon="6.39918">
        <ele>792</ele>
        <time>2020-02-08T13:08:49Z</time>
      </trkpt>
      <trkpt lat="46.18655" lon="6.39921">
        <ele>792</ele>
        <time>2020-02-08T13:08:53Z</time>
      </trkpt>
      <trkpt lat="46.18646" lon="6.39922">
        <ele>792</ele>
        <time>2020-02-08T13:08:57Z</time>
      </trkpt>
      <trkpt lat="46.18637" lon="6.39925">
        <ele>792</ele>
        <time>2020-02-08T13:09:01Z</time>
      </trkpt>
      <trkpt lat="46.18627" lon="6.39927">
        <ele>793</ele>
        <time>2020-02-08T13:09:05Z</time>
      </trkpt>
      <trkpt lat="46.18617" lon="6.39929">
        <ele>794</ele>
        <time>2020-02-08T13:09:09Z</time>
      </trkpt>
      <trkpt lat="46.18607" lon="6.3993">
        <ele>794</ele>
        <time>2020-02-08T13:09:13Z</time>
      </trkpt>
      <trkpt lat="46.18597" lon="6.3993">
        <ele>796</ele>
        <time>2020-02-08T13:09:17Z</time>
      </trkpt>
      <trkpt lat="46.18587" lon="6.39931">
        <ele>797</ele>
        <time>2020-02-08T13:09:21Z</time>
      </trkpt>
      <trkpt lat="46.18577" lon="6.39933">
        <ele>798</ele>
        <time>2020-02-08T13:09:25Z</time>
      </trkpt>
      <trkpt lat="46.18569" lon="6.39939">
        <ele>800</ele>
        <time>2020-02-08T13:09:29Z</time>
      </trkpt>
      <trkpt lat="46.18564" lon="6.3995">
        <ele>801</ele>
        <time>2020-02-08T13:09:33Z</time>
      </trkpt>
      <trkpt lat="46.18567" lon="6.39964">
        <ele>801</ele>
        <time>2020-02-08T13:09:37Z</time>
      </trkpt>
      <trkpt lat="46.18576" lon="6.39971">
        <ele>801</ele>
        <time>2020-02-08T13:09:41Z</time>
      </trkpt>
      <trkpt lat="46.18587" lon="6.39973">
        <ele>800</ele>
        <time>2020-02-08T13:09:45Z</time>
      </trkpt>
      <trkpt lat="46.18597" lon="6.39976">
        <ele>800</ele>
        <time>2020-02-08T13:09:49Z</time>
      </trkpt>
      <trkpt lat="46.18605" lon="6.39983">
        <ele>801</ele>
        <time>2020-02-08T13:09:53Z</time>
      </trkpt>
      <trkpt lat="46.18613" lon="6.39993">
        <ele>802</ele>
        <time>2020-02-08T13:09:57Z</time>
      </trkpt>
      <trkpt lat="46.18621" lon="6.40004">
        <ele>803</ele>
        <time>2020-02-08T13:10:01Z</time>
      </trkpt>
      <trkpt lat="46.18629" lon="6.40015">
        <ele>803</ele>
        <time>2020-02-08T13:10:05Z</time>
      </trkpt>
      <trkpt lat="46.18635" lon="6.40027">
        <ele>803</ele>
        <time>2020-02-08T13:10:09Z</time>
      </trkpt>
      <trkpt lat="46.18641" lon="6.40038">
        <ele>804</ele>
        <time>2020-02-08T13:10:13Z</time>
      </trkpt>
      <trkpt lat="46.18648" lon="6.40049">
        <ele>805</ele>
        <time>2020-02-08T13:10:17Z</time>
      </trkpt>
      <trkpt lat="46.18655" lon="6.4006">
        <ele>806</ele>
        <time>2020-02-08T13:10:21Z</time>
      </trkpt>
      <trkpt lat="46.18662" lon="6.4007">
        <ele>807</ele>
        <time>2020-02-08T13:10:25Z</time>
      </trkpt>
      <trkpt lat="46.18669" lon="6.40081">
        <ele>809</ele>
        <time>2020-02-08T13:10:29Z</time>
      </trkpt>
      <trkpt lat="46.18677" lon="6.40091">
        <ele>811</ele>
        <time>2020-02-08T13:10:33Z</time>
      </trkpt>
      <trkpt lat="46.18684" lon="6.40101">
        <ele>813</ele>
        <time>2020-02-08T13:10:37Z</time>
      </trkpt>
      <trkpt lat="46.1869" lon="6.40112">
        <ele>815</ele>
        <time>2020-02-08T13:10:41Z</time>
      </trkpt>
      <trkpt lat="46.18692" lon="6.40127">
        <ele>816</ele>
        <time>2020-02-08T13:10:45Z</time>
      </trkpt>
      <trkpt lat="46.18686" lon="6.40137">
        <ele>818</ele>
        <time>2020-02-08T13:10:49Z</time>
      </trkpt>
      <trkpt lat="46.18677" lon="6.40136">
        <ele>819</ele>
        <time>2020-02-08T13:10:53Z</time>
      </trkpt>
      <trkpt lat="46.18669" lon="6.40126">
        <ele>818</ele>
        <time>2020-02-08T13:10:57Z</time>
      </trkpt>
      <trkpt lat="46.1866" lon="6.40118">
        <ele>817</ele>
        <time>2020-02-08T13:11:01Z</time>
      </trkpt>
      <trkpt lat="46.1865" lon="6.40115">
        <ele>816</ele>
        <time>2020-02-08T13:11:05Z</time>
      </trkpt>
      <trkpt lat="46.18638" lon="6.40116">
        <ele>816</ele>
        <time>2020-02-08T13:11:09Z</time>
      </trkpt>
      <trkpt lat="46.18626" lon="6.40118">
        <ele>818</ele>
        <time>2020-02-08T13:11:13Z</time>
      </trkpt>
      <trkpt lat="46.18615" lon="6.4012">
        <ele>819</ele>
        <time>2020-02-08T13:11:17Z</time>
      </trkpt>
      <trkpt lat="46.18605" lon="6.40122">
        <ele>820</ele>
        <time>2020-02-08T13:11:21Z</time>
      </trkpt>
      <trkpt lat="46.18594" lon="6.40123">
        <ele>822</ele>
        <time>2020-02-08T13:11:25Z</time>
      </trkpt>
      <trkpt lat="46.18585" lon="6.40124">
        <ele>823</ele>
        <time>2020-02-08T13:11:29Z</time>
      </trkpt>
      <trkpt lat="46.18575" lon="6.40126">
        <ele>824</ele>
        <time>2020-02-08T13:11:33Z</time>
      </trkpt>
      <trkpt lat="46.18565" lon="6.4013">
        <ele>825</ele>
        <time>2020-02-08T13:11:37Z</time>
      </trkpt>
      <trkpt lat="46.18555" lon="6.40134">
        <ele>827</ele>
        <time>2020-02-08T13:11:41Z</time>
      </trkpt>
      <trkpt lat="46.18546" lon="6.40139">
        <ele>828</ele>
        <time>2020-02-08T13:11:45Z</time>
      </trkpt>
      <trkpt lat="46.18538" lon="6.40144">
        <ele>829</ele>
        <time>2020-02-08T13:11:49Z</time>
      </trkpt>
      <trkpt lat="46.18528" lon="6.40148">
        <ele>830</ele>
        <time>2020-02-08T13:11:53Z</time>
      </trkpt>
      <trkpt lat="46.18519" lon="6.40154">
        <ele>831</ele>
        <time>2020-02-08T13:11:57Z</time>
      </trkpt>
      <trkpt lat="46.1851" lon="6.40159">
        <ele>833</ele>
        <time>2020-02-08T13:12:01Z</time>
      </trkpt>
      <trkpt lat="46.18502" lon="6.40165">
        <ele>835</ele>
        <time>2020-02-08T13:12:05Z</time>
      </trkpt>
      <trkpt lat="46.18492" lon="6.40171">
        <ele>837</ele>
        <time>2020-02-08T13:12:09Z</time>
      </trkpt>
      <trkpt lat="46.18483" lon="6.40177">
        <ele>838</ele>
        <time>2020-02-08T13:12:13Z</time>
      </trkpt>
      <trkpt lat="46.18475" lon="6.40183">
        <ele>840</ele>
        <time>2020-02-08T13:12:17Z</time>
      </trkpt>
      <trkpt lat="46.18466" lon="6.40187">
        <ele>841</ele>
        <time>2020-02-08T13:12:21Z</time>
      </trkpt>
      <trkpt lat="46.18456" lon="6.4019">
        <ele>842</ele>
        <time>2020-02-08T13:12:25Z</time>
      </trkpt>
      <trkpt lat="46.18446" lon="6.40191">
        <ele>842</ele>
        <time>2020-02-08T13:12:29Z</time>
      </trkpt>
      <trkpt lat="46.18436" lon="6.4019">
        <ele>843</ele>
        <time>2020-02-08T13:12:33Z</time>
      </trkpt>
      <trkpt lat="46.18427" lon="6.4019">
        <ele>844</ele>
        <time>2020-02-08T13:12:37Z</time>
      </trkpt>
      <trkpt lat="46.18417" lon="6.4019">
        <ele>845</ele>
        <time>2020-02-08T13:12:41Z</time>
      </trkpt>
      <trkpt lat="46.18408" lon="6.40189">
        <ele>847</ele>
        <time>2020-02-08T13:12:45Z</time>
      </trkpt>
      <trkpt lat="46.18399" lon="6.40188">
        <ele>850</ele>
        <time>2020-02-08T13:12:49Z</time>
      </trkpt>
      <trkpt lat="46.1839" lon="6.40184">
        <ele>852</ele>
        <time>2020-02-08T13:12:53Z</time>
      </trkpt>
      <trkpt lat="46.18381" lon="6.40182">
        <ele>854</ele>
        <time>2020-02-08T13:12:57Z</time>
      </trkpt>
      <trkpt lat="46.1837" lon="6.40181">
        <ele>856</ele>
        <time>2020-02-08T13:13:01Z</time>
      </trkpt>
      <trkpt lat="46.18363" lon="6.40181">
        <ele>858</ele>
        <time>2020-02-08T13:13:05Z</time>
      </trkpt>
      <trkpt lat="46.18354" lon="6.40179">
        <ele>859</ele>
        <time>2020-02-08T13:13:09Z</time>
      </trkpt>
      <trkpt lat="46.18349" lon="6.40182">
        <ele>860</ele>
        <time>2020-02-08T13:13:13Z</time>
      </trkpt>
      <trkpt lat="46.18348" lon="6.40191">
        <ele>861</ele>
        <time>2020-02-08T13:13:17Z</time>
      </trkpt>
      <trkpt lat="46.1835" lon="6.40201">
        <ele>863</ele>
        <time>2020-02-08T13:13:21Z</time>
      </trkpt>
      <trkpt lat="46.18356" lon="6.40206">
        <ele>862</ele>
        <time>2020-02-08T13:13:25Z</time>
      </trkpt>
      <trkpt lat="46.18362" lon="6.40208">
        <ele>862</ele>
        <time>2020-02-08T13:13:29Z</time>
      </trkpt>
      <trkpt lat="46.1837" lon="6.40216">
        <ele>861</ele>
        <time>2020-02-08T13:13:33Z</time>
      </trkpt>
      <trkpt lat="46.18378" lon="6.40222">
        <ele>859</ele>
        <time>2020-02-08T13:13:37Z</time>
      </trkpt>
      <trkpt lat="46.18385" lon="6.40229">
        <ele>858</ele>
        <time>2020-02-08T13:13:41Z</time>
      </trkpt>
      <trkpt lat="46.18392" lon="6.40236">
        <ele>857</ele>
        <time>2020-02-08T13:13:45Z</time>
      </trkpt>
      <trkpt lat="46.18402" lon="6.40243">
        <ele>855</ele>
        <time>2020-02-08T13:13:49Z</time>
      </trkpt>
      <trkpt lat="46.18411" lon="6.40252">
        <ele>854</ele>
        <time>2020-02-08T13:13:53Z</time>
      </trkpt>
      <trkpt lat="46.18421" lon="6.40263">
        <ele>854</ele>
        <time>2020-02-08T13:13:57Z</time>
      </trkpt>
      <trkpt lat="46.18428" lon="6.40272">
        <ele>855</ele>
        <time>2020-02-08T13:14:01Z</time>
      </trkpt>
      <trkpt lat="46.18434" lon="6.40285">
        <ele>856</ele>
        <time>2020-02-08T13:14:05Z</time>
      </trkpt>
      <trkpt lat="46.18432" lon="6.40295">
        <ele>857</ele>
        <time>2020-02-08T13:14:09Z</time>
      </trkpt>
      <trkpt lat="46.18424" lon="6.40299">
        <ele>859</ele>
        <time>2020-02-08T13:14:13Z</time>
      </trkpt>
      <trkpt lat="46.18418" lon="6.40299">
        <ele>859</ele>
        <time>2020-02-08T13:14:17Z</time>
      </trkpt>
      <trkpt lat="46.18409" lon="6.40294">
        <ele>861</ele>
        <time>2020-02-08T13:14:21Z</time>
      </trkpt>
      <trkpt lat="46.18399" lon="6.40291">
        <ele>864</ele>
        <time>2020-02-08T13:14:25Z</time>
      </trkpt>
      <trkpt lat="46.1839" lon="6.40288">
        <ele>866</ele>
        <time>2020-02-08T13:14:29Z</time>
      </trkpt>
      <trkpt lat="46.18382" lon="6.40286">
        <ele>869</ele>
        <time>2020-02-08T13:14:33Z</time>
      </trkpt>
      <trkpt lat="46.18373" lon="6.40286">
        <ele>872</ele>
        <time>2020-02-08T13:14:37Z</time>
      </trkpt>
      <trkpt lat="46.18361" lon="6.40287">
        <ele>876</ele>
        <time>2020-02-08T13:14:41Z</time>
      </trkpt>
      <trkpt lat="46.18353" lon="6.40286">
        <ele>877</ele>
        <time>2020-02-08T13:14:45Z</time>
      </trkpt>
      <trkpt lat="46.18345" lon="6.40284">
        <ele>878</ele>
        <time>2020-02-08T13:14:49Z</time>
      </trkpt>
      <trkpt lat="46.18336" lon="6.4028">
        <ele>879</ele>
        <time>2020-02-08T13:14:53Z</time>
      </trkpt>
      <trkpt lat="46.18327" lon="6.40277">
        <ele>879</ele>
        <time>2020-02-08T13:14:57Z</time>
      </trkpt>
      <trkpt lat="46.18317" lon="6.40272">
        <ele>880</ele>
        <time>2020-02-08T13:15:01Z</time>
      </trkpt>
      <trkpt lat="46.18308" lon="6.40267">
        <ele>881</ele>
        <time>2020-02-08T13:15:05Z</time>
      </trkpt>
      <trkpt lat="46.18299" lon="6.40262">
        <ele>881</ele>
        <time>2020-02-08T13:15:09Z</time>
      </trkpt>
      <trkpt lat="46.18287" lon="6.40254">
        <ele>883</ele>
        <time>2020-02-08T13:15:13Z</time>
      </trkpt>
      <trkpt lat="46.18275" lon="6.40245">
        <ele>884</ele>
        <time>2020-02-08T13:15:17Z</time>
      </trkpt>
      <trkpt lat="46.18267" lon="6.40236">
        <ele>884</ele>
        <time>2020-02-08T13:15:21Z</time>
      </trkpt>
      <trkpt lat="46.18253" lon="6.40223">
        <ele>883</ele>
        <time>2020-02-08T13:15:25Z</time>
      </trkpt>
      <trkpt lat="46.18242" lon="6.40213">
        <ele>883</ele>
        <time>2020-02-08T13:15:29Z</time>
      </trkpt>
      <trkpt lat="46.18233" lon="6.40205">
        <ele>882</ele>
        <time>2020-02-08T13:15:33Z</time>
      </trkpt>
      <trkpt lat="46.18224" lon="6.40198">
        <ele>881</ele>
        <time>2020-02-08T13:15:37Z</time>
      </trkpt>
      <trkpt lat="46.18215" lon="6.40191">
        <ele>880</ele>
        <time>2020-02-08T13:15:41Z</time>
      </trkpt>
      <trkpt lat="46.18206" lon="6.40184">
        <ele>880</ele>
        <time>2020-02-08T13:15:45Z</time>
      </trkpt>
      <trkpt lat="46.18196" lon="6.40177">
        <ele>879</ele>
        <time>2020-02-08T13:15:49Z</time>
      </trkpt>
      <trkpt lat="46.18187" lon="6.40171">
        <ele>879</ele>
        <time>2020-02-08T13:15:53Z</time>
      </trkpt>
      <trkpt lat="46.18179" lon="6.40165">
        <ele>878</ele>
        <time>2020-02-08T13:15:57Z</time>
      </trkpt>
      <trkpt lat="46.1817" lon="6.40159">
        <ele>878</ele>
        <time>2020-02-08T13:16:01Z</time>
      </trkpt>
      <trkpt lat="46.18159" lon="6.40152">
        <ele>879</ele>
        <time>2020-02-08T13:16:05Z</time>
      </trkpt>
      <trkpt lat="46.18149" lon="6.40146">
        <ele>880</ele>
        <time>2020-02-08T13:16:09Z</time>
      </trkpt>
      <trkpt lat="46.18139" lon="6.40141">
        <ele>882</ele>
        <time>2020-02-08T13:16:13Z</time>
      </trkpt>
      <trkpt lat="46.18129" lon="6.40136">
        <ele>883</ele>
        <time>2020-02-08T13:16:17Z</time>
      </trkpt>
      <trkpt lat="46.1812" lon="6.40131">
        <ele>884</ele>
        <time>2020-02-08T13:16:21Z</time>
      </trkpt>
      <trkpt lat="46.1811" lon="6.40126">
        <ele>885</ele>
        <time>2020-02-08T13:16:25Z</time>
      </trkpt>
      <trkpt lat="46.181" lon="6.4012">
        <ele>886</ele>
        <time>2020-02-08T13:16:29Z</time>
      </trkpt>
      <trkpt lat="46.1809" lon="6.40115">
        <ele>887</ele>
        <time>2020-02-08T13:16:33Z</time>
      </trkpt>
      <trkpt lat="46.1808" lon="6.4011">
        <ele>889</ele>
        <time>2020-02-08T13:16:37Z</time>
      </trkpt>
      <trkpt lat="46.1807" lon="6.40105">
        <ele>894</ele>
        <time>2020-02-08T13:16:41Z</time>
      </trkpt>
      <trkpt lat="46.18061" lon="6.401">
        <ele>898</ele>
        <time>2020-02-08T13:16:45Z</time>
      </trkpt>
      <trkpt lat="46.18051" lon="6.40096">
        <ele>900</ele>
        <time>2020-02-08T13:16:49Z</time>
      </trkpt>
      <trkpt lat="46.18042" lon="6.4009">
        <ele>901</ele>
        <time>2020-02-08T13:16:53Z</time>
      </trkpt>
      <trkpt lat="46.18033" lon="6.40084">
        <ele>901</ele>
        <time>2020-02-08T13:16:57Z</time>
      </trkpt>
      <trkpt lat="46.18025" lon="6.40076">
        <ele>901</ele>
        <time>2020-02-08T13:17:01Z</time>
      </trkpt>
      <trkpt lat="46.18019" lon="6.40067">
        <ele>899</ele>
        <time>2020-02-08T13:17:05Z</time>
      </trkpt>
      <trkpt lat="46.18013" lon="6.40055">
        <ele>896</ele>
        <time>2020-02-08T13:17:09Z</time>
      </trkpt>
      <trkpt lat="46.18007" lon="6.40044">
        <ele>895</ele>
        <time>2020-02-08T13:17:13Z</time>
      </trkpt>
      <trkpt lat="46.18" lon="6.40033">
        <ele>894</ele>
        <time>2020-02-08T13:17:17Z</time>
      </trkpt>
      <trkpt lat="46.17993" lon="6.40022">
        <ele>894</ele>
        <time>2020-02-08T13:17:21Z</time>
      </trkpt>
      <trkpt lat="46.17987" lon="6.40011">
        <ele>895</ele>
        <time>2020-02-08T13:17:25Z</time>
      </trkpt>
      <trkpt lat="46.1798" lon="6.40001">
        <ele>896</ele>
        <time>2020-02-08T13:17:29Z</time>
      </trkpt>
      <trkpt lat="46.17974" lon="6.3999">
        <ele>898</ele>
        <time>2020-02-08T13:17:33Z</time>
      </trkpt>
      <trkpt lat="46.17968" lon="6.39978">
        <ele>900</ele>
        <time>2020-02-08T13:17:37Z</time>
      </trkpt>
      <trkpt lat="46.17961" lon="6.39967">
        <ele>901</ele>
        <time>2020-02-08T13:17:41Z</time>
      </trkpt>
      <trkpt lat="46.17955" lon="6.39955">
        <ele>902</ele>
        <time>2020-02-08T13:17:45Z</time>
      </trkpt>
      <trkpt lat="46.17948" lon="6.39944">
        <ele>903</ele>
        <time>2020-02-08T13:17:49Z</time>
      </trkpt>
      <trkpt lat="46.17941" lon="6.39933">
        <ele>904</ele>
        <time>2020-02-08T13:17:53Z</time>
      </trkpt>
      <trkpt lat="46.17934" lon="6.39921">
        <ele>906</ele>
        <time>2020-02-08T13:17:57Z</time>
      </trkpt>
      <trkpt lat="46.17927" lon="6.3991">
        <ele>909</ele>
        <time>2020-02-08T13:18:01Z</time>
      </trkpt>
      <trkpt lat="46.1792" lon="6.39898">
        <ele>912</ele>
        <time>2020-02-08T13:18:05Z</time>
      </trkpt>
      <trkpt lat="46.17912" lon="6.39887">
        <ele>914</ele>
        <time>2020-02-08T13:18:09Z</time>
      </trkpt>
      <trkpt lat="46.17905" lon="6.39875">
        <ele>914</ele>
        <time>2020-02-08T13:18:13Z</time>
      </trkpt>
      <trkpt lat="46.17898" lon="6.39864">
        <ele>914</ele>
        <time>2020-02-08T13:18:17Z</time>
      </trkpt>
      <trkpt lat="46.1789" lon="6.39853">
        <ele>914</ele>
        <time>2020-02-08T13:18:21Z</time>
      </trkpt>
      <trkpt lat="46.17883" lon="6.39842">
        <ele>912</ele>
        <time>2020-02-08T13:18:25Z</time>
      </trkpt>
      <trkpt lat="46.17876" lon="6.3983">
        <ele>911</ele>
        <time>2020-02-08T13:18:29Z</time>
      </trkpt>
      <trkpt lat="46.1787" lon="6.39818">
        <ele>911</ele>
        <time>2020-02-08T13:18:33Z</time>
      </trkpt>
      <trkpt lat="46.17863" lon="6.39807">
        <ele>910</ele>
        <time>2020-02-08T13:18:37Z</time>
      </trkpt>
      <trkpt lat="46.17856" lon="6.39796">
        <ele>911</ele>
        <time>2020-02-08T13:18:41Z</time>
      </trkpt>
      <trkpt lat="46.17848" lon="6.39786">
        <ele>911</ele>
        <time>2020-02-08T13:18:45Z</time>
      </trkpt>
      <trkpt lat="46.17839" lon="6.39781">
        <ele>911</ele>
        <time>2020-02-08T13:18:49Z</time>
      </trkpt>
      <trkpt lat="46.17829" lon="6.39779">
        <ele>912</ele>
        <time>2020-02-08T13:18:53Z</time>
      </trkpt>
      <trkpt lat="46.1782" lon="6.39782">
        <ele>914</ele>
        <time>2020-02-08T13:18:57Z</time>
      </trkpt>
      <trkpt lat="46.17812" lon="6.39789">
        <ele>915</ele>
        <time>2020-02-08T13:19:01Z</time>
      </trkpt>
      <trkpt lat="46.17805" lon="6.39798">
        <ele>916</ele>
        <time>2020-02-08T13:19:05Z</time>
      </trkpt>
      <trkpt lat="46.17799" lon="6.39808">
        <ele>918</ele>
        <time>2020-02-08T13:19:09Z</time>
      </trkpt>
      <trkpt lat="46.17794" lon="6.39818">
        <ele>919</ele>
        <time>2020-02-08T13:19:13Z</time>
      </trkpt>
      <trkpt lat="46.17789" lon="6.3983">
        <ele>921</ele>
        <time>2020-02-08T13:19:17Z</time>
      </trkpt>
      <trkpt lat="46.17783" lon="6.39841">
        <ele>922</ele>
        <time>2020-02-08T13:19:21Z</time>
      </trkpt>
      <trkpt lat="46.17778" lon="6.39852">
        <ele>924</ele>
        <time>2020-02-08T13:19:25Z</time>
      </trkpt>
      <trkpt lat="46.17773" lon="6.39863">
        <ele>925</ele>
        <time>2020-02-08T13:19:29Z</time>
      </trkpt>
      <trkpt lat="46.17771" lon="6.39877">
        <ele>924</ele>
        <time>2020-02-08T13:19:33Z</time>
      </trkpt>
      <trkpt lat="46.17771" lon="6.3989">
        <ele>924</ele>
        <time>2020-02-08T13:19:37Z</time>
      </trkpt>
      <trkpt lat="46.17772" lon="6.39905">
        <ele>923</ele>
        <time>2020-02-08T13:19:41Z</time>
      </trkpt>
      <trkpt lat="46.17776" lon="6.3992">
        <ele>922</ele>
        <time>2020-02-08T13:19:45Z</time>
      </trkpt>
      <trkpt lat="46.17779" lon="6.39933">
        <ele>921</ele>
        <time>2020-02-08T13:19:49Z</time>
      </trkpt>
      <trkpt lat="46.17781" lon="6.39948">
        <ele>921</ele>
        <time>2020-02-08T13:19:53Z</time>
      </trkpt>
      <trkpt lat="46.17779" lon="6.39962">
        <ele>923</ele>
        <time>2020-02-08T13:19:57Z</time>
      </trkpt>
      <trkpt lat="46.1777" lon="6.39968">
        <ele>925</ele>
        <time>2020-02-08T13:20:01Z</time>
      </trkpt>
      <trkpt lat="46.1776" lon="6.39964">
        <ele>927</ele>
        <time>2020-02-08T13:20:05Z</time>
      </trkpt>
      <trkpt lat="46.17754" lon="6.39952">
        <ele>926</ele>
        <time>2020-02-08T13:20:09Z</time>
      </trkpt>
      <trkpt lat="46.17749" lon="6.39939">
        <ele>926</ele>
        <time>2020-02-08T13:20:13Z</time>
      </trkpt>
      <trkpt lat="46.17742" lon="6.39927">
        <ele>927</ele>
        <time>2020-02-08T13:20:17Z</time>
      </trkpt>
      <trkpt lat="46.17734" lon="6.39916">
        <ele>928</ele>
        <time>2020-02-08T13:20:21Z</time>
      </trkpt>
      <trkpt lat="46.17724" lon="6.39908">
        <ele>930</ele>
        <time>2020-02-08T13:20:25Z</time>
      </trkpt>
      <trkpt lat="46.17715" lon="6.399">
        <ele>931</ele>
        <time>2020-02-08T13:20:29Z</time>
      </trkpt>
      <trkpt lat="46.17706" lon="6.39891">
        <ele>932</ele>
        <time>2020-02-08T13:20:33Z</time>
      </trkpt>
      <trkpt lat="46.17698" lon="6.39882">
        <ele>933</ele>
        <time>2020-02-08T13:20:37Z</time>
      </trkpt>
      <trkpt lat="46.1769" lon="6.39875">
        <ele>935</ele>
        <time>2020-02-08T13:20:41Z</time>
      </trkpt>
      <trkpt lat="46.17679" lon="6.39869">
        <ele>938</ele>
        <time>2020-02-08T13:20:45Z</time>
      </trkpt>
      <trkpt lat="46.17669" lon="6.39872">
        <ele>941</ele>
        <time>2020-02-08T13:20:49Z</time>
      </trkpt>
      <trkpt lat="46.17659" lon="6.39877">
        <ele>943</ele>
        <time>2020-02-08T13:20:53Z</time>
      </trkpt>
      <trkpt lat="46.17649" lon="6.39883">
        <ele>944</ele>
        <time>2020-02-08T13:20:57Z</time>
      </trkpt>
      <trkpt lat="46.1764" lon="6.39889">
        <ele>945</ele>
        <time>2020-02-08T13:21:01Z</time>
      </trkpt>
      <trkpt lat="46.17629" lon="6.39894">
        <ele>946</ele>
        <time>2020-02-08T13:21:05Z</time>
      </trkpt>
      <trkpt lat="46.17618" lon="6.39899">
        <ele>947</ele>
        <time>2020-02-08T13:21:09Z</time>
      </trkpt>
      <trkpt lat="46.17607" lon="6.39901">
        <ele>948</ele>
        <time>2020-02-08T13:21:13Z</time>
      </trkpt>
      <trkpt lat="46.17596" lon="6.39904">
        <ele>948</ele>
        <time>2020-02-08T13:21:17Z</time>
      </trkpt>
      <trkpt lat="46.17589" lon="6.39909">
        <ele>948</ele>
        <time>2020-02-08T13:21:21Z</time>
      </trkpt>
      <trkpt lat="46.17588" lon="6.39909">
        <ele>948</ele>
        <time>2020-02-08T13:21:29Z</time>
      </trkpt>
      <trkpt lat="46.17589" lon="6.3991">
        <ele>948</ele>
        <time>2020-02-08T13:21:33Z</time>
      </trkpt>
      <trkpt lat="46.17591" lon="6.39914">
        <ele>948</ele>
        <time>2020-02-08T13:21:37Z</time>
      </trkpt>
      <trkpt lat="46.17588" lon="6.39916">
        <ele>948</ele>
        <time>2020-02-08T13:25:25Z</time>
      </trkpt>
      <trkpt lat="46.17585" lon="6.39905">
        <ele>949</ele>
        <time>2020-02-08T13:25:29Z</time>
      </trkpt>
      <trkpt lat="46.17572" lon="6.39899">
        <ele>949</ele>
        <time>2020-02-08T13:25:33Z</time>
      </trkpt>
      <trkpt lat="46.17558" lon="6.39897">
        <ele>948</ele>
        <time>2020-02-08T13:25:37Z</time>
      </trkpt>
      <trkpt lat="46.17543" lon="6.39893">
        <ele>946</ele>
        <time>2020-02-08T13:25:41Z</time>
      </trkpt>
      <trkpt lat="46.17528" lon="6.39888">
        <ele>945</ele>
        <time>2020-02-08T13:25:45Z</time>
      </trkpt>
      <trkpt lat="46.17509" lon="6.39883">
        <ele>943</ele>
        <time>2020-02-08T13:25:49Z</time>
      </trkpt>
      <trkpt lat="46.17487" lon="6.39877">
        <ele>942</ele>
        <time>2020-02-08T13:25:53Z</time>
      </trkpt>
      <trkpt lat="46.17467" lon="6.39874">
        <ele>941</ele>
        <time>2020-02-08T13:25:57Z</time>
      </trkpt>
      <trkpt lat="46.17446" lon="6.39872">
        <ele>943</ele>
        <time>2020-02-08T13:26:01Z</time>
      </trkpt>
      <trkpt lat="46.17426" lon="6.39867">
        <ele>944</ele>
        <time>2020-02-08T13:26:05Z</time>
      </trkpt>
      <trkpt lat="46.17421" lon="6.39878">
        <ele>941</ele>
        <time>2020-02-08T13:26:09Z</time>
      </trkpt>
      <trkpt lat="46.17434" lon="6.39893">
        <ele>938</ele>
        <time>2020-02-08T13:26:13Z</time>
      </trkpt>
      <trkpt lat="46.17441" lon="6.39923">
        <ele>933</ele>
        <time>2020-02-08T13:26:17Z</time>
      </trkpt>
      <trkpt lat="46.17433" lon="6.39962">
        <ele>928</ele>
        <time>2020-02-08T13:26:21Z</time>
      </trkpt>
      <trkpt lat="46.17421" lon="6.39987">
        <ele>925</ele>
        <time>2020-02-08T13:26:25Z</time>
      </trkpt>
      <trkpt lat="46.17399" lon="6.39965">
        <ele>924</ele>
        <time>2020-02-08T13:26:29Z</time>
      </trkpt>
      <trkpt lat="46.17373" lon="6.39942">
        <ele>925</ele>
        <time>2020-02-08T13:26:33Z</time>
      </trkpt>
      <trkpt lat="46.17345" lon="6.39921">
        <ele>929</ele>
        <time>2020-02-08T13:26:37Z</time>
      </trkpt>
      <trkpt lat="46.17311" lon="6.39919">
        <ele>928</ele>
        <time>2020-02-08T13:26:41Z</time>
      </trkpt>
      <trkpt lat="46.17275" lon="6.39918">
        <ele>923</ele>
        <time>2020-02-08T13:26:45Z</time>
      </trkpt>
      <trkpt lat="46.17241" lon="6.39906">
        <ele>920</ele>
        <time>2020-02-08T13:26:49Z</time>
      </trkpt>
      <trkpt lat="46.17213" lon="6.39875">
        <ele>916</ele>
        <time>2020-02-08T13:26:53Z</time>
      </trkpt>
      <trkpt lat="46.17186" lon="6.39835">
        <ele>908</ele>
        <time>2020-02-08T13:26:57Z</time>
      </trkpt>
      <trkpt lat="46.17155" lon="6.39798">
        <ele>899</ele>
        <time>2020-02-08T13:27:01Z</time>
      </trkpt>
      <trkpt lat="46.17119" lon="6.39767">
        <ele>895</ele>
        <time>2020-02-08T13:27:05Z</time>
      </trkpt>
      <trkpt lat="46.17082" lon="6.39738">
        <ele>892</ele>
        <time>2020-02-08T13:27:09Z</time>
      </trkpt>
      <trkpt lat="46.17048" lon="6.3971">
        <ele>891</ele>
        <time>2020-02-08T13:27:13Z</time>
      </trkpt>
      <trkpt lat="46.17021" lon="6.39687">
        <ele>889</ele>
        <time>2020-02-08T13:27:17Z</time>
      </trkpt>
      <trkpt lat="46.17015" lon="6.39654">
        <ele>888</ele>
        <time>2020-02-08T13:27:21Z</time>
      </trkpt>
      <trkpt lat="46.1701" lon="6.39614">
        <ele>885</ele>
        <time>2020-02-08T13:27:25Z</time>
      </trkpt>
      <trkpt lat="46.16991" lon="6.39577">
        <ele>882</ele>
        <time>2020-02-08T13:27:29Z</time>
      </trkpt>
      <trkpt lat="46.16977" lon="6.39531">
        <ele>879</ele>
        <time>2020-02-08T13:27:33Z</time>
      </trkpt>
      <trkpt lat="46.16962" lon="6.39485">
        <ele>880</ele>
        <time>2020-02-08T13:27:37Z</time>
      </trkpt>
      <trkpt lat="46.16934" lon="6.39452">
        <ele>877</ele>
        <time>2020-02-08T13:27:41Z</time>
      </trkpt>
      <trkpt lat="46.16913" lon="6.39414">
        <ele>874</ele>
        <time>2020-02-08T13:27:45Z</time>
      </trkpt>
      <trkpt lat="46.16894" lon="6.3937">
        <ele>870</ele>
        <time>2020-02-08T13:27:49Z</time>
      </trkpt>
      <trkpt lat="46.16881" lon="6.3932">
        <ele>868</ele>
        <time>2020-02-08T13:27:53Z</time>
      </trkpt>
      <trkpt lat="46.16881" lon="6.39267">
        <ele>867</ele>
        <time>2020-02-08T13:27:57Z</time>
      </trkpt>
      <trkpt lat="46.16888" lon="6.39209">
        <ele>865</ele>
        <time>2020-02-08T13:28:01Z</time>
      </trkpt>
      <trkpt lat="46.16896" lon="6.39148">
        <ele>863</ele>
        <time>2020-02-08T13:28:05Z</time>
      </trkpt>
      <trkpt lat="46.16901" lon="6.3909">
        <ele>859</ele>
        <time>2020-02-08T13:28:09Z</time>
      </trkpt>
      <trkpt lat="46.16902" lon="6.39043">
        <ele>857</ele>
        <time>2020-02-08T13:28:13Z</time>
      </trkpt>
      <trkpt lat="46.16907" lon="6.38996">
        <ele>860</ele>
        <time>2020-02-08T13:28:17Z</time>
      </trkpt>
      <trkpt lat="46.16897" lon="6.38955">
        <ele>869</ele>
        <time>2020-02-08T13:28:21Z</time>
      </trkpt>
      <trkpt lat="46.1687" lon="6.38949">
        <ele>874</ele>
        <time>2020-02-08T13:28:25Z</time>
      </trkpt>
      <trkpt lat="46.16837" lon="6.38961">
        <ele>866</ele>
        <time>2020-02-08T13:28:29Z</time>
      </trkpt>
      <trkpt lat="46.168" lon="6.38975">
        <ele>856</ele>
        <time>2020-02-08T13:28:33Z</time>
      </trkpt>
      <trkpt lat="46.16761" lon="6.38985">
        <ele>848</ele>
        <time>2020-02-08T13:28:37Z</time>
      </trkpt>
      <trkpt lat="46.1672" lon="6.38982">
        <ele>844</ele>
        <time>2020-02-08T13:28:41Z</time>
      </trkpt>
      <trkpt lat="46.1668" lon="6.3898">
        <ele>842</ele>
        <time>2020-02-08T13:28:45Z</time>
      </trkpt>
      <trkpt lat="46.1664" lon="6.38982">
        <ele>838</ele>
        <time>2020-02-08T13:28:49Z</time>
      </trkpt>
      <trkpt lat="46.166" lon="6.38989">
        <ele>839</ele>
        <time>2020-02-08T13:28:53Z</time>
      </trkpt>
      <trkpt lat="46.16561" lon="6.38996">
        <ele>836</ele>
        <time>2020-02-08T13:28:57Z</time>
      </trkpt>
      <trkpt lat="46.16522" lon="6.39004">
        <ele>828</ele>
        <time>2020-02-08T13:29:01Z</time>
      </trkpt>
      <trkpt lat="46.16483" lon="6.39009">
        <ele>829</ele>
        <time>2020-02-08T13:29:05Z</time>
      </trkpt>
      <trkpt lat="46.16444" lon="6.39011">
        <ele>829</ele>
        <time>2020-02-08T13:29:09Z</time>
      </trkpt>
      <trkpt lat="46.16404" lon="6.39008">
        <ele>824</ele>
        <time>2020-02-08T13:29:13Z</time>
      </trkpt>
      <trkpt lat="46.16363" lon="6.39004">
        <ele>820</ele>
        <time>2020-02-08T13:29:17Z</time>
      </trkpt>
      <trkpt lat="46.16322" lon="6.38995">
        <ele>820</ele>
        <time>2020-02-08T13:29:21Z</time>
      </trkpt>
      <trkpt lat="46.16281" lon="6.38973">
        <ele>821</ele>
        <time>2020-02-08T13:29:25Z</time>
      </trkpt>
      <trkpt lat="46.1624" lon="6.38961">
        <ele>816</ele>
        <time>2020-02-08T13:29:29Z</time>
      </trkpt>
      <trkpt lat="46.16206" lon="6.38956">
        <ele>812</ele>
        <time>2020-02-08T13:29:33Z</time>
      </trkpt>
      <trkpt lat="46.16171" lon="6.38938">
        <ele>812</ele>
        <time>2020-02-08T13:29:37Z</time>
      </trkpt>
      <trkpt lat="46.1613" lon="6.38931">
        <ele>807</ele>
        <time>2020-02-08T13:29:41Z</time>
      </trkpt>
      <trkpt lat="46.16087" lon="6.38924">
        <ele>802</ele>
        <time>2020-02-08T13:29:45Z</time>
      </trkpt>
      <trkpt lat="46.16046" lon="6.38906">
        <ele>794</ele>
        <time>2020-02-08T13:29:49Z</time>
      </trkpt>
      <trkpt lat="46.16006" lon="6.38879">
        <ele>792</ele>
        <time>2020-02-08T13:29:53Z</time>
      </trkpt>
      <trkpt lat="46.15968" lon="6.38844">
        <ele>790</ele>
        <time>2020-02-08T13:29:57Z</time>
      </trkpt>
      <trkpt lat="46.15935" lon="6.38814">
        <ele>787</ele>
        <time>2020-02-08T13:30:01Z</time>
      </trkpt>
      <trkpt lat="46.15903" lon="6.38801">
        <ele>784</ele>
        <time>2020-02-08T13:30:05Z</time>
      </trkpt>
      <trkpt lat="46.15869" lon="6.38812">
        <ele>777</ele>
        <time>2020-02-08T13:30:09Z</time>
      </trkpt>
      <trkpt lat="46.15848" lon="6.38839">
        <ele>771</ele>
        <time>2020-02-08T13:30:13Z</time>
      </trkpt>
      <trkpt lat="46.15857" lon="6.38881">
        <ele>766</ele>
        <time>2020-02-08T13:30:17Z</time>
      </trkpt>
      <trkpt lat="46.15878" lon="6.38924">
        <ele>765</ele>
        <time>2020-02-08T13:30:21Z</time>
      </trkpt>
      <trkpt lat="46.15901" lon="6.38969">
        <ele>760</ele>
        <time>2020-02-08T13:30:25Z</time>
      </trkpt>
      <trkpt lat="46.1593" lon="6.39015">
        <ele>759</ele>
        <time>2020-02-08T13:30:29Z</time>
      </trkpt>
      <trkpt lat="46.15963" lon="6.39054">
        <ele>757</ele>
        <time>2020-02-08T13:30:33Z</time>
      </trkpt>
      <trkpt lat="46.15986" lon="6.39085">
        <ele>756</ele>
        <time>2020-02-08T13:30:37Z</time>
      </trkpt>
      <trkpt lat="46.15974" lon="6.3911">
        <ele>753</ele>
        <time>2020-02-08T13:30:41Z</time>
      </trkpt>
      <trkpt lat="46.15946" lon="6.391">
        <ele>753</ele>
        <time>2020-02-08T13:30:45Z</time>
      </trkpt>
      <trkpt lat="46.15914" lon="6.39084">
        <ele>752</ele>
        <time>2020-02-08T13:30:49Z</time>
      </trkpt>
      <trkpt lat="46.15881" lon="6.39069">
        <ele>749</ele>
        <time>2020-02-08T13:30:53Z</time>
      </trkpt>
      <trkpt lat="46.15845" lon="6.39064">
        <ele>745</ele>
        <time>2020-02-08T13:30:57Z</time>
      </trkpt>
      <trkpt lat="46.15818" lon="6.39071">
        <ele>742</ele>
        <time>2020-02-08T13:31:01Z</time>
      </trkpt>
      <trkpt lat="46.158" lon="6.39065">
        <ele>741</ele>
        <time>2020-02-08T13:31:05Z</time>
      </trkpt>
      <trkpt lat="46.15783" lon="6.39045">
        <ele>739</ele>
        <time>2020-02-08T13:31:09Z</time>
      </trkpt>
      <trkpt lat="46.15765" lon="6.39023">
        <ele>738</ele>
        <time>2020-02-08T13:31:13Z</time>
      </trkpt>
      <trkpt lat="46.15747" lon="6.38999">
        <ele>737</ele>
        <time>2020-02-08T13:31:17Z</time>
      </trkpt>
      <trkpt lat="46.15726" lon="6.38979">
        <ele>738</ele>
        <time>2020-02-08T13:31:21Z</time>
      </trkpt>
      <trkpt lat="46.15696" lon="6.38977">
        <ele>736</ele>
        <time>2020-02-08T13:31:25Z</time>
      </trkpt>
      <trkpt lat="46.15663" lon="6.38964">
        <ele>735</ele>
        <time>2020-02-08T13:31:29Z</time>
      </trkpt>
      <trkpt lat="46.15635" lon="6.3894">
        <ele>734</ele>
        <time>2020-02-08T13:31:33Z</time>
      </trkpt>
      <trkpt lat="46.15608" lon="6.38911">
        <ele>732</ele>
        <time>2020-02-08T13:31:37Z</time>
      </trkpt>
      <trkpt lat="46.15578" lon="6.38891">
        <ele>730</ele>
        <time>2020-02-08T13:31:41Z</time>
      </trkpt>
      <trkpt lat="46.15549" lon="6.38865">
        <ele>728</ele>
        <time>2020-02-08T13:31:45Z</time>
      </trkpt>
      <trkpt lat="46.15516" lon="6.3884">
        <ele>725</ele>
        <time>2020-02-08T13:31:49Z</time>
      </trkpt>
      <trkpt lat="46.15482" lon="6.38813">
        <ele>721</ele>
        <time>2020-02-08T13:31:53Z</time>
      </trkpt>
      <trkpt lat="46.15452" lon="6.38773">
        <ele>717</ele>
        <time>2020-02-08T13:31:57Z</time>
      </trkpt>
      <trkpt lat="46.1543" lon="6.38721">
        <ele>716</ele>
        <time>2020-02-08T13:32:01Z</time>
      </trkpt>
      <trkpt lat="46.15412" lon="6.38661">
        <ele>713</ele>
        <time>2020-02-08T13:32:05Z</time>
      </trkpt>
      <trkpt lat="46.15397" lon="6.38598">
        <ele>707</ele>
        <time>2020-02-08T13:32:09Z</time>
      </trkpt>
      <trkpt lat="46.15383" lon="6.38531">
        <ele>700</ele>
        <time>2020-02-08T13:32:13Z</time>
      </trkpt>
      <trkpt lat="46.15368" lon="6.38463">
        <ele>696</ele>
        <time>2020-02-08T13:32:17Z</time>
      </trkpt>
      <trkpt lat="46.15351" lon="6.38396">
        <ele>696</ele>
        <time>2020-02-08T13:32:21Z</time>
      </trkpt>
      <trkpt lat="46.15322" lon="6.38338">
        <ele>689</ele>
        <time>2020-02-08T13:32:25Z</time>
      </trkpt>
      <trkpt lat="46.15316" lon="6.38273">
        <ele>684</ele>
        <time>2020-02-08T13:32:29Z</time>
      </trkpt>
      <trkpt lat="46.15311" lon="6.38205">
        <ele>685</ele>
        <time>2020-02-08T13:32:33Z</time>
      </trkpt>
      <trkpt lat="46.15325" lon="6.3814">
        <ele>683</ele>
        <time>2020-02-08T13:32:37Z</time>
      </trkpt>
      <trkpt lat="46.15353" lon="6.3808">
        <ele>682</ele>
        <time>2020-02-08T13:32:41Z</time>
      </trkpt>
      <trkpt lat="46.15382" lon="6.38023">
        <ele>677</ele>
        <time>2020-02-08T13:32:45Z</time>
      </trkpt>
      <trkpt lat="46.15402" lon="6.37971">
        <ele>670</ele>
        <time>2020-02-08T13:32:49Z</time>
      </trkpt>
      <trkpt lat="46.15409" lon="6.3794">
        <ele>667</ele>
        <time>2020-02-08T13:32:53Z</time>
      </trkpt>
      <trkpt lat="46.15419" lon="6.37914">
        <ele>666</ele>
        <time>2020-02-08T13:32:57Z</time>
      </trkpt>
      <trkpt lat="46.15434" lon="6.37881">
        <ele>666</ele>
        <time>2020-02-08T13:33:01Z</time>
      </trkpt>
      <trkpt lat="46.15451" lon="6.37843">
        <ele>664</ele>
        <time>2020-02-08T13:33:05Z</time>
      </trkpt>
      <trkpt lat="46.15475" lon="6.37809">
        <ele>662</ele>
        <time>2020-02-08T13:33:09Z</time>
      </trkpt>
      <trkpt lat="46.15501" lon="6.37774">
        <ele>660</ele>
        <time>2020-02-08T13:33:13Z</time>
      </trkpt>
      <trkpt lat="46.15532" lon="6.37739">
        <ele>657</ele>
        <time>2020-02-08T13:33:17Z</time>
      </trkpt>
      <trkpt lat="46.15563" lon="6.37694">
        <ele>650</ele>
        <time>2020-02-08T13:33:21Z</time>
      </trkpt>
      <trkpt lat="46.15597" lon="6.37646">
        <ele>648</ele>
        <time>2020-02-08T13:33:25Z</time>
      </trkpt>
      <trkpt lat="46.15636" lon="6.37604">
        <ele>643</ele>
        <time>2020-02-08T13:33:29Z</time>
      </trkpt>
      <trkpt lat="46.15678" lon="6.37571">
        <ele>641</ele>
        <time>2020-02-08T13:33:33Z</time>
      </trkpt>
      <trkpt lat="46.15718" lon="6.37541">
        <ele>639</ele>
        <time>2020-02-08T13:33:37Z</time>
      </trkpt>
      <trkpt lat="46.15752" lon="6.37501">
        <ele>638</ele>
        <time>2020-02-08T13:33:41Z</time>
      </trkpt>
      <trkpt lat="46.15783" lon="6.37453">
        <ele>633</ele>
        <time>2020-02-08T13:33:45Z</time>
      </trkpt>
      <trkpt lat="46.15811" lon="6.374">
        <ele>631</ele>
        <time>2020-02-08T13:33:49Z</time>
      </trkpt>
      <trkpt lat="46.15846" lon="6.37356">
        <ele>627</ele>
        <time>2020-02-08T13:33:53Z</time>
      </trkpt>
      <trkpt lat="46.15889" lon="6.37328">
        <ele>627</ele>
        <time>2020-02-08T13:33:57Z</time>
      </trkpt>
      <trkpt lat="46.15933" lon="6.37301">
        <ele>623</ele>
        <time>2020-02-08T13:34:01Z</time>
      </trkpt>
      <trkpt lat="46.15975" lon="6.37274">
        <ele>622</ele>
        <time>2020-02-08T13:34:05Z</time>
      </trkpt>
      <trkpt lat="46.16019" lon="6.37249">
        <ele>618</ele>
        <time>2020-02-08T13:34:09Z</time>
      </trkpt>
      <trkpt lat="46.16065" lon="6.37236">
        <ele>613</ele>
        <time>2020-02-08T13:34:13Z</time>
      </trkpt>
      <trkpt lat="46.1611" lon="6.37237">
        <ele>612</ele>
        <time>2020-02-08T13:34:17Z</time>
      </trkpt>
      <trkpt lat="46.16153" lon="6.37249">
        <ele>612</ele>
        <time>2020-02-08T13:34:21Z</time>
      </trkpt>
      <trkpt lat="46.16192" lon="6.37265">
        <ele>614</ele>
        <time>2020-02-08T13:34:25Z</time>
      </trkpt>
      <trkpt lat="46.16221" lon="6.37241">
        <ele>614</ele>
        <time>2020-02-08T13:34:29Z</time>
      </trkpt>
      <trkpt lat="46.16212" lon="6.37198">
        <ele>611</ele>
        <time>2020-02-08T13:34:33Z</time>
      </trkpt>
      <trkpt lat="46.16178" lon="6.37173">
        <ele>607</ele>
        <time>2020-02-08T13:34:37Z</time>
      </trkpt>
      <trkpt lat="46.16153" lon="6.37128">
        <ele>604</ele>
        <time>2020-02-08T13:34:41Z</time>
      </trkpt>
      <trkpt lat="46.16132" lon="6.37074">
        <ele>604</ele>
        <time>2020-02-08T13:34:45Z</time>
      </trkpt>
      <trkpt lat="46.16109" lon="6.37025">
        <ele>602</ele>
        <time>2020-02-08T13:34:49Z</time>
      </trkpt>
      <trkpt lat="46.16091" lon="6.36976">
        <ele>598</ele>
        <time>2020-02-08T13:34:53Z</time>
      </trkpt>
      <trkpt lat="46.16087" lon="6.3692">
        <ele>597</ele>
        <time>2020-02-08T13:34:57Z</time>
      </trkpt>
      <trkpt lat="46.1609" lon="6.36862">
        <ele>595</ele>
        <time>2020-02-08T13:35:01Z</time>
      </trkpt>
      <trkpt lat="46.16101" lon="6.36806">
        <ele>595</ele>
        <time>2020-02-08T13:35:05Z</time>
      </trkpt>
      <trkpt lat="46.16112" lon="6.36751">
        <ele>593</ele>
        <time>2020-02-08T13:35:09Z</time>
      </trkpt>
      <trkpt lat="46.16111" lon="6.36695">
        <ele>591</ele>
        <time>2020-02-08T13:35:13Z</time>
      </trkpt>
      <trkpt lat="46.161" lon="6.36642">
        <ele>589</ele>
        <time>2020-02-08T13:35:17Z</time>
      </trkpt>
      <trkpt lat="46.16088" lon="6.36589">
        <ele>588</ele>
        <time>2020-02-08T13:35:21Z</time>
      </trkpt>
      <trkpt lat="46.16076" lon="6.36535">
        <ele>588</ele>
        <time>2020-02-08T13:35:25Z</time>
      </trkpt>
      <trkpt lat="46.16066" lon="6.3648">
        <ele>585</ele>
        <time>2020-02-08T13:35:29Z</time>
      </trkpt>
      <trkpt lat="46.16063" lon="6.36419">
        <ele>579</ele>
        <time>2020-02-08T13:35:33Z</time>
      </trkpt>
      <trkpt lat="46.16066" lon="6.36355">
        <ele>574</ele>
        <time>2020-02-08T13:35:37Z</time>
      </trkpt>
      <trkpt lat="46.16071" lon="6.3629">
        <ele>574</ele>
        <time>2020-02-08T13:35:41Z</time>
      </trkpt>
      <trkpt lat="46.16069" lon="6.36222">
        <ele>572</ele>
        <time>2020-02-08T13:35:45Z</time>
      </trkpt>
      <trkpt lat="46.16048" lon="6.36159">
        <ele>568</ele>
        <time>2020-02-08T13:35:49Z</time>
      </trkpt>
      <trkpt lat="46.16022" lon="6.36099">
        <ele>564</ele>
        <time>2020-02-08T13:35:53Z</time>
      </trkpt>
      <trkpt lat="46.15996" lon="6.36038">
        <ele>561</ele>
        <time>2020-02-08T13:35:57Z</time>
      </trkpt>
      <trkpt lat="46.15971" lon="6.35978">
        <ele>558</ele>
        <time>2020-02-08T13:36:01Z</time>
      </trkpt>
      <trkpt lat="46.15948" lon="6.35919">
        <ele>558</ele>
        <time>2020-02-08T13:36:05Z</time>
      </trkpt>
      <trkpt lat="46.15928" lon="6.35866">
        <ele>559</ele>
        <time>2020-02-08T13:36:09Z</time>
      </trkpt>
      <trkpt lat="46.15915" lon="6.35838">
        <ele>557</ele>
        <time>2020-02-08T13:36:13Z</time>
      </trkpt>
      <trkpt lat="46.15909" lon="6.35819">
        <ele>556</ele>
        <time>2020-02-08T13:36:17Z</time>
      </trkpt>
      <trkpt lat="46.15907" lon="6.35794">
        <ele>556</ele>
        <time>2020-02-08T13:36:21Z</time>
      </trkpt>
      <trkpt lat="46.15907" lon="6.35763">
        <ele>557</ele>
        <time>2020-02-08T13:36:25Z</time>
      </trkpt>
      <trkpt lat="46.15907" lon="6.35728">
        <ele>558</ele>
        <time>2020-02-08T13:36:29Z</time>
      </trkpt>
      <trkpt lat="46.15913" lon="6.35689">
        <ele>559</ele>
        <time>2020-02-08T13:36:33Z</time>
      </trkpt>
      <trkpt lat="46.15925" lon="6.35651">
        <ele>558</ele>
        <time>2020-02-08T13:36:37Z</time>
      </trkpt>
      <trkpt lat="46.15942" lon="6.35618">
        <ele>559</ele>
        <time>2020-02-08T13:36:41Z</time>
      </trkpt>
      <trkpt lat="46.15965" lon="6.35592">
        <ele>559</ele>
        <time>2020-02-08T13:36:45Z</time>
      </trkpt>
      <trkpt lat="46.15989" lon="6.35569">
        <ele>557</ele>
        <time>2020-02-08T13:36:49Z</time>
      </trkpt>
      <trkpt lat="46.16015" lon="6.35544">
        <ele>553</ele>
        <time>2020-02-08T13:36:53Z</time>
      </trkpt>
      <trkpt lat="46.16042" lon="6.35519">
        <ele>551</ele>
        <time>2020-02-08T13:36:57Z</time>
      </trkpt>
      <trkpt lat="46.16068" lon="6.35494">
        <ele>550</ele>
        <time>2020-02-08T13:37:01Z</time>
      </trkpt>
      <trkpt lat="46.16089" lon="6.35465">
        <ele>549</ele>
        <time>2020-02-08T13:37:05Z</time>
      </trkpt>
      <trkpt lat="46.16109" lon="6.35432">
        <ele>547</ele>
        <time>2020-02-08T13:37:09Z</time>
      </trkpt>
      <trkpt lat="46.16128" lon="6.35397">
        <ele>546</ele>
        <time>2020-02-08T13:37:13Z</time>
      </trkpt>
      <trkpt lat="46.16143" lon="6.35368">
        <ele>546</ele>
        <time>2020-02-08T13:37:17Z</time>
      </trkpt>
      <trkpt lat="46.16154" lon="6.35347">
        <ele>547</ele>
        <time>2020-02-08T13:37:21Z</time>
      </trkpt>
      <trkpt lat="46.16167" lon="6.3533">
        <ele>548</ele>
        <time>2020-02-08T13:37:25Z</time>
      </trkpt>
      <trkpt lat="46.16184" lon="6.35316">
        <ele>548</ele>
        <time>2020-02-08T13:37:29Z</time>
      </trkpt>
      <trkpt lat="46.16209" lon="6.35307">
        <ele>546</ele>
        <time>2020-02-08T13:37:33Z</time>
      </trkpt>
      <trkpt lat="46.16238" lon="6.35308">
        <ele>544</ele>
        <time>2020-02-08T13:37:37Z</time>
      </trkpt>
      <trkpt lat="46.16266" lon="6.3531">
        <ele>543</ele>
        <time>2020-02-08T13:37:41Z</time>
      </trkpt>
      <trkpt lat="46.16281" lon="6.35311">
        <ele>543</ele>
        <time>2020-02-08T13:37:45Z</time>
      </trkpt>
      <trkpt lat="46.16297" lon="6.35319">
        <ele>543</ele>
        <time>2020-02-08T13:37:49Z</time>
      </trkpt>
      <trkpt lat="46.16309" lon="6.35346">
        <ele>542</ele>
        <time>2020-02-08T13:37:53Z</time>
      </trkpt>
      <trkpt lat="46.16316" lon="6.35382">
        <ele>542</ele>
        <time>2020-02-08T13:37:57Z</time>
      </trkpt>
      <trkpt lat="46.16324" lon="6.3542">
        <ele>544</ele>
        <time>2020-02-08T13:38:01Z</time>
      </trkpt>
      <trkpt lat="46.16331" lon="6.35457">
        <ele>545</ele>
        <time>2020-02-08T13:38:05Z</time>
      </trkpt>
      <trkpt lat="46.16339" lon="6.35494">
        <ele>545</ele>
        <time>2020-02-08T13:38:09Z</time>
      </trkpt>
      <trkpt lat="46.16346" lon="6.35528">
        <ele>545</ele>
        <time>2020-02-08T13:38:13Z</time>
      </trkpt>
      <trkpt lat="46.16352" lon="6.35555">
        <ele>545</ele>
        <time>2020-02-08T13:38:17Z</time>
      </trkpt>
      <trkpt lat="46.16361" lon="6.35579">
        <ele>546</ele>
        <time>2020-02-08T13:38:21Z</time>
      </trkpt>
      <trkpt lat="46.16373" lon="6.35595">
        <ele>549</ele>
        <time>2020-02-08T13:38:25Z</time>
      </trkpt>
      <trkpt lat="46.16386" lon="6.35604">
        <ele>551</ele>
        <time>2020-02-08T13:38:29Z</time>
      </trkpt>
      <trkpt lat="46.16394" lon="6.35603">
        <ele>552</ele>
        <time>2020-02-08T13:38:33Z</time>
      </trkpt>
      <trkpt lat="46.16395" lon="6.35602">
        <ele>553</ele>
        <time>2020-02-08T13:38:41Z</time>
      </trkpt>
      <trkpt lat="46.16395" lon="6.35605">
        <ele>553</ele>
        <time>2020-02-08T13:40:53Z</time>
      </trkpt>
      <trkpt lat="46.16393" lon="6.35602">
        <ele>552</ele>
        <time>2020-02-08T13:41:05Z</time>
      </trkpt>
      <trkpt lat="46.16394" lon="6.35601">
        <ele>552</ele>
        <time>2020-02-08T13:41:13Z</time>
      </trkpt>
      <trkpt lat="46.16394" lon="6.35593">
        <ele>552</ele>
        <time>2020-02-08T13:41:17Z</time>
      </trkpt>
      <trkpt lat="46.1639" lon="6.35587">
        <ele>552</ele>
        <time>2020-02-08T13:41:21Z</time>
      </trkpt>
      <trkpt lat="46.16386" lon="6.35586">
        <ele>551</ele>
        <time>2020-02-08T13:41:25Z</time>
      </trkpt>
      <trkpt lat="46.16392" lon="6.35592">
        <ele>552</ele>
        <time>2020-02-08T13:41:29Z</time>
      </trkpt>
      <trkpt lat="46.16392" lon="6.35601">
        <ele>552</ele>
        <time>2020-02-08T13:41:33Z</time>
      </trkpt>
      <trkpt lat="46.16388" lon="6.35611">
        <ele>551</ele>
        <time>2020-02-08T13:41:37Z</time>
      </trkpt>
      <trkpt lat="46.16394" lon="6.35626">
        <ele>552</ele>
        <time>2020-02-08T13:41:41Z</time>
      </trkpt>
      <trkpt lat="46.16401" lon="6.35638">
        <ele>553</ele>
        <time>2020-02-08T13:41:45Z</time>
      </trkpt>
      <trkpt lat="46.16407" lon="6.35647">
        <ele>554</ele>
        <time>2020-02-08T13:41:49Z</time>
      </trkpt>
      <trkpt lat="46.16413" lon="6.35658">
        <ele>556</ele>
        <time>2020-02-08T13:41:53Z</time>
      </trkpt>
      <trkpt lat="46.16419" lon="6.35667">
        <ele>558</ele>
        <time>2020-02-08T13:41:57Z</time>
      </trkpt>
      <trkpt lat="46.16425" lon="6.35677">
        <ele>561</ele>
        <time>2020-02-08T13:42:01Z</time>
      </trkpt>
      <trkpt lat="46.16428" lon="6.35687">
        <ele>562</ele>
        <time>2020-02-08T13:42:05Z</time>
      </trkpt>
      <trkpt lat="46.16431" lon="6.35698">
        <ele>564</ele>
        <time>2020-02-08T13:42:09Z</time>
      </trkpt>
      <trkpt lat="46.16434" lon="6.35709">
        <ele>565</ele>
        <time>2020-02-08T13:42:13Z</time>
      </trkpt>
      <trkpt lat="46.16437" lon="6.35719">
        <ele>566</ele>
        <time>2020-02-08T13:42:17Z</time>
      </trkpt>
      <trkpt lat="46.16441" lon="6.35729">
        <ele>567</ele>
        <time>2020-02-08T13:42:21Z</time>
      </trkpt>
      <trkpt lat="46.16445" lon="6.35737">
        <ele>568</ele>
        <time>2020-02-08T13:42:25Z</time>
      </trkpt>
      <trkpt lat="46.16449" lon="6.35746">
        <ele>570</ele>
        <time>2020-02-08T13:42:29Z</time>
      </trkpt>
      <trkpt lat="46.16453" lon="6.35755">
        <ele>571</ele>
        <time>2020-02-08T13:42:33Z</time>
      </trkpt>
      <trkpt lat="46.16458" lon="6.35761">
        <ele>573</ele>
        <time>2020-02-08T13:42:37Z</time>
      </trkpt>
      <trkpt lat="46.16465" lon="6.35765">
        <ele>574</ele>
        <time>2020-02-08T13:42:41Z</time>
      </trkpt>
      <trkpt lat="46.16472" lon="6.35769">
        <ele>576</ele>
        <time>2020-02-08T13:42:45Z</time>
      </trkpt>
      <trkpt lat="46.16478" lon="6.35774">
        <ele>578</ele>
        <time>2020-02-08T13:42:49Z</time>
      </trkpt>
      <trkpt lat="46.16485" lon="6.35779">
        <ele>579</ele>
        <time>2020-02-08T13:42:53Z</time>
      </trkpt>
      <trkpt lat="46.16492" lon="6.35782">
        <ele>581</ele>
        <time>2020-02-08T13:42:57Z</time>
      </trkpt>
      <trkpt lat="46.16498" lon="6.35784">
        <ele>582</ele>
        <time>2020-02-08T13:43:01Z</time>
      </trkpt>
      <trkpt lat="46.16504" lon="6.35791">
        <ele>582</ele>
        <time>2020-02-08T13:43:05Z</time>
      </trkpt>
      <trkpt lat="46.1651" lon="6.35796">
        <ele>584</ele>
        <time>2020-02-08T13:43:09Z</time>
      </trkpt>
      <trkpt lat="46.16514" lon="6.35805">
        <ele>584</ele>
        <time>2020-02-08T13:43:13Z</time>
      </trkpt>
      <trkpt lat="46.16514" lon="6.35819">
        <ele>583</ele>
        <time>2020-02-08T13:43:17Z</time>
      </trkpt>
      <trkpt lat="46.16511" lon="6.35837">
        <ele>582</ele>
        <time>2020-02-08T13:43:21Z</time>
      </trkpt>
      <trkpt lat="46.16509" lon="6.35856">
        <ele>583</ele>
        <time>2020-02-08T13:43:25Z</time>
      </trkpt>
      <trkpt lat="46.16507" lon="6.35877">
        <ele>584</ele>
        <time>2020-02-08T13:43:29Z</time>
      </trkpt>
      <trkpt lat="46.16505" lon="6.35898">
        <ele>587</ele>
        <time>2020-02-08T13:43:33Z</time>
      </trkpt>
      <trkpt lat="46.16502" lon="6.35919">
        <ele>589</ele>
        <time>2020-02-08T13:43:37Z</time>
      </trkpt>
      <trkpt lat="46.165" lon="6.35939">
        <ele>589</ele>
        <time>2020-02-08T13:43:41Z</time>
      </trkpt>
      <trkpt lat="46.16499" lon="6.35957">
        <ele>588</ele>
        <time>2020-02-08T13:43:45Z</time>
      </trkpt>
      <trkpt lat="46.16499" lon="6.35973">
        <ele>588</ele>
        <time>2020-02-08T13:43:49Z</time>
      </trkpt>
      <trkpt lat="46.16501" lon="6.35984">
        <ele>590</ele>
        <time>2020-02-08T13:43:53Z</time>
      </trkpt>
      <trkpt lat="46.16508" lon="6.35985">
        <ele>591</ele>
        <time>2020-02-08T13:43:57Z</time>
      </trkpt>
      <trkpt lat="46.16516" lon="6.35974">
        <ele>592</ele>
        <time>2020-02-08T13:44:01Z</time>
      </trkpt>
      <trkpt lat="46.16524" lon="6.35962">
        <ele>593</ele>
        <time>2020-02-08T13:44:05Z</time>
      </trkpt>
      <trkpt lat="46.16532" lon="6.3595">
        <ele>594</ele>
        <time>2020-02-08T13:44:09Z</time>
      </trkpt>
      <trkpt lat="46.1654" lon="6.35938">
        <ele>594</ele>
        <time>2020-02-08T13:44:13Z</time>
      </trkpt>
      <trkpt lat="46.16547" lon="6.35927">
        <ele>594</ele>
        <time>2020-02-08T13:44:17Z</time>
      </trkpt>
      <trkpt lat="46.16554" lon="6.35916">
        <ele>594</ele>
        <time>2020-02-08T13:44:21Z</time>
      </trkpt>
      <trkpt lat="46.16561" lon="6.35905">
        <ele>595</ele>
        <time>2020-02-08T13:44:25Z</time>
      </trkpt>
      <trkpt lat="46.16567" lon="6.35893">
        <ele>597</ele>
        <time>2020-02-08T13:44:29Z</time>
      </trkpt>
      <trkpt lat="46.16572" lon="6.35881">
        <ele>598</ele>
        <time>2020-02-08T13:44:33Z</time>
      </trkpt>
      <trkpt lat="46.16577" lon="6.35868">
        <ele>600</ele>
        <time>2020-02-08T13:44:37Z</time>
      </trkpt>
      <trkpt lat="46.1658" lon="6.35855">
        <ele>601</ele>
        <time>2020-02-08T13:44:41Z</time>
      </trkpt>
      <trkpt lat="46.16583" lon="6.35841">
        <ele>603</ele>
        <time>2020-02-08T13:44:45Z</time>
      </trkpt>
      <trkpt lat="46.16586" lon="6.35828">
        <ele>605</ele>
        <time>2020-02-08T13:44:49Z</time>
      </trkpt>
      <trkpt lat="46.1659" lon="6.35815">
        <ele>606</ele>
        <time>2020-02-08T13:44:53Z</time>
      </trkpt>
      <trkpt lat="46.16593" lon="6.35802">
        <ele>607</ele>
        <time>2020-02-08T13:44:57Z</time>
      </trkpt>
      <trkpt lat="46.16598" lon="6.35789">
        <ele>607</ele>
        <time>2020-02-08T13:45:01Z</time>
      </trkpt>
      <trkpt lat="46.16602" lon="6.35776">
        <ele>607</ele>
        <time>2020-02-08T13:45:05Z</time>
      </trkpt>
      <trkpt lat="46.16607" lon="6.35764">
        <ele>607</ele>
        <time>2020-02-08T13:45:09Z</time>
      </trkpt>
      <trkpt lat="46.16611" lon="6.35751">
        <ele>607</ele>
        <time>2020-02-08T13:45:13Z</time>
      </trkpt>
      <trkpt lat="46.16615" lon="6.35738">
        <ele>608</ele>
        <time>2020-02-08T13:45:17Z</time>
      </trkpt>
      <trkpt lat="46.1662" lon="6.35726">
        <ele>609</ele>
        <time>2020-02-08T13:45:21Z</time>
      </trkpt>
      <trkpt lat="46.16624" lon="6.35713">
        <ele>611</ele>
        <time>2020-02-08T13:45:25Z</time>
      </trkpt>
      <trkpt lat="46.16629" lon="6.357">
        <ele>613</ele>
        <time>2020-02-08T13:45:29Z</time>
      </trkpt>
      <trkpt lat="46.16633" lon="6.35688">
        <ele>615</ele>
        <time>2020-02-08T13:45:33Z</time>
      </trkpt>
      <trkpt lat="46.16638" lon="6.35675">
        <ele>617</ele>
        <time>2020-02-08T13:45:37Z</time>
      </trkpt>
      <trkpt lat="46.16643" lon="6.35662">
        <ele>618</ele>
        <time>2020-02-08T13:45:41Z</time>
      </trkpt>
      <trkpt lat="46.16649" lon="6.35652">
        <ele>618</ele>
        <time>2020-02-08T13:45:45Z</time>
      </trkpt>
      <trkpt lat="46.16656" lon="6.35642">
        <ele>618</ele>
        <time>2020-02-08T13:45:49Z</time>
      </trkpt>
      <trkpt lat="46.16664" lon="6.35633">
        <ele>618</ele>
        <time>2020-02-08T13:45:53Z</time>
      </trkpt>
      <trkpt lat="46.16672" lon="6.35625">
        <ele>619</ele>
        <time>2020-02-08T13:45:57Z</time>
      </trkpt>
      <trkpt lat="46.1668" lon="6.35617">
        <ele>620</ele>
        <time>2020-02-08T13:46:01Z</time>
      </trkpt>
      <trkpt lat="46.16687" lon="6.35609">
        <ele>620</ele>
        <time>2020-02-08T13:46:05Z</time>
      </trkpt>
      <trkpt lat="46.16694" lon="6.356">
        <ele>621</ele>
        <time>2020-02-08T13:46:09Z</time>
      </trkpt>
      <trkpt lat="46.167" lon="6.3559">
        <ele>621</ele>
        <time>2020-02-08T13:46:13Z</time>
      </trkpt>
      <trkpt lat="46.16706" lon="6.35579">
        <ele>622</ele>
        <time>2020-02-08T13:46:17Z</time>
      </trkpt>
      <trkpt lat="46.16711" lon="6.35567">
        <ele>623</ele>
        <time>2020-02-08T13:46:21Z</time>
      </trkpt>
      <trkpt lat="46.16716" lon="6.35556">
        <ele>624</ele>
        <time>2020-02-08T13:46:25Z</time>
      </trkpt>
      <trkpt lat="46.1672" lon="6.35544">
        <ele>625</ele>
        <time>2020-02-08T13:46:29Z</time>
      </trkpt>
      <trkpt lat="46.16725" lon="6.35532">
        <ele>627</ele>
        <time>2020-02-08T13:46:33Z</time>
      </trkpt>
      <trkpt lat="46.1673" lon="6.3552">
        <ele>629</ele>
        <time>2020-02-08T13:46:37Z</time>
      </trkpt>
      <trkpt lat="46.16735" lon="6.35508">
        <ele>631</ele>
        <time>2020-02-08T13:46:41Z</time>
      </trkpt>
      <trkpt lat="46.1674" lon="6.35496">
        <ele>632</ele>
        <time>2020-02-08T13:46:45Z</time>
      </trkpt>
      <trkpt lat="46.16744" lon="6.35485">
        <ele>633</ele>
        <time>2020-02-08T13:46:49Z</time>
      </trkpt>
      <trkpt lat="46.16749" lon="6.35473">
        <ele>633</ele>
        <time>2020-02-08T13:46:53Z</time>
      </trkpt>
      <trkpt lat="46.16754" lon="6.35461">
        <ele>634</ele>
        <time>2020-02-08T13:46:57Z</time>
      </trkpt>
      <trkpt lat="46.16759" lon="6.35449">
        <ele>635</ele>
        <time>2020-02-08T13:47:01Z</time>
      </trkpt>
      <trkpt lat="46.16763" lon="6.35437">
        <ele>636</ele>
        <time>2020-02-08T13:47:05Z</time>
      </trkpt>
      <trkpt lat="46.16766" lon="6.35424">
        <ele>637</ele>
        <time>2020-02-08T13:47:09Z</time>
      </trkpt>
      <trkpt lat="46.16769" lon="6.35412">
        <ele>638</ele>
        <time>2020-02-08T13:47:13Z</time>
      </trkpt>
      <trkpt lat="46.16772" lon="6.35399">
        <ele>638</ele>
        <time>2020-02-08T13:47:17Z</time>
      </trkpt>
      <trkpt lat="46.16774" lon="6.35385">
        <ele>639</ele>
        <time>2020-02-08T13:47:21Z</time>
      </trkpt>
      <trkpt lat="46.16776" lon="6.35372">
        <ele>639</ele>
        <time>2020-02-08T13:47:25Z</time>
      </trkpt>
      <trkpt lat="46.16778" lon="6.35359">
        <ele>640</ele>
        <time>2020-02-08T13:47:29Z</time>
      </trkpt>
      <trkpt lat="46.16782" lon="6.35347">
        <ele>640</ele>
        <time>2020-02-08T13:47:33Z</time>
      </trkpt>
      <trkpt lat="46.16786" lon="6.35335">
        <ele>641</ele>
        <time>2020-02-08T13:47:37Z</time>
      </trkpt>
      <trkpt lat="46.16791" lon="6.35324">
        <ele>643</ele>
        <time>2020-02-08T13:47:41Z</time>
      </trkpt>
      <trkpt lat="46.16797" lon="6.35314">
        <ele>644</ele>
        <time>2020-02-08T13:47:45Z</time>
      </trkpt>
      <trkpt lat="46.16804" lon="6.35306">
        <ele>646</ele>
        <time>2020-02-08T13:47:49Z</time>
      </trkpt>
      <trkpt lat="46.16811" lon="6.35297">
        <ele>647</ele>
        <time>2020-02-08T13:47:53Z</time>
      </trkpt>
      <trkpt lat="46.16819" lon="6.35288">
        <ele>649</ele>
        <time>2020-02-08T13:47:57Z</time>
      </trkpt>
      <trkpt lat="46.16826" lon="6.3528">
        <ele>650</ele>
        <time>2020-02-08T13:48:01Z</time>
      </trkpt>
      <trkpt lat="46.16832" lon="6.35271">
        <ele>652</ele>
        <time>2020-02-08T13:48:05Z</time>
      </trkpt>
      <trkpt lat="46.16838" lon="6.35261">
        <ele>653</ele>
        <time>2020-02-08T13:48:09Z</time>
      </trkpt>
      <trkpt lat="46.16844" lon="6.35251">
        <ele>654</ele>
        <time>2020-02-08T13:48:13Z</time>
      </trkpt>
      <trkpt lat="46.16848" lon="6.35239">
        <ele>656</ele>
        <time>2020-02-08T13:48:17Z</time>
      </trkpt>
      <trkpt lat="46.16852" lon="6.35227">
        <ele>657</ele>
        <time>2020-02-08T13:48:21Z</time>
      </trkpt>
      <trkpt lat="46.16856" lon="6.35215">
        <ele>659</ele>
        <time>2020-02-08T13:48:25Z</time>
      </trkpt>
      <trkpt lat="46.16859" lon="6.35203">
        <ele>661</ele>
        <time>2020-02-08T13:48:29Z</time>
      </trkpt>
      <trkpt lat="46.16863" lon="6.35191">
        <ele>662</ele>
        <time>2020-02-08T13:48:33Z</time>
      </trkpt>
      <trkpt lat="46.16866" lon="6.35179">
        <ele>662</ele>
        <time>2020-02-08T13:48:37Z</time>
      </trkpt>
      <trkpt lat="46.1687" lon="6.35167">
        <ele>662</ele>
        <time>2020-02-08T13:48:41Z</time>
      </trkpt>
      <trkpt lat="46.16873" lon="6.35155">
        <ele>662</ele>
        <time>2020-02-08T13:48:45Z</time>
      </trkpt>
      <trkpt lat="46.16878" lon="6.35143">
        <ele>662</ele>
        <time>2020-02-08T13:48:49Z</time>
      </trkpt>
      <trkpt lat="46.16882" lon="6.35132">
        <ele>662</ele>
        <time>2020-02-08T13:48:53Z</time>
      </trkpt>
      <trkpt lat="46.16887" lon="6.35121">
        <ele>663</ele>
        <time>2020-02-08T13:48:57Z</time>
      </trkpt>
      <trkpt lat="46.16893" lon="6.35111">
        <ele>664</ele>
        <time>2020-02-08T13:49:01Z</time>
      </trkpt>
      <trkpt lat="46.16899" lon="6.35101">
        <ele>665</ele>
        <time>2020-02-08T13:49:05Z</time>
      </trkpt>
      <trkpt lat="46.16905" lon="6.3509">
        <ele>665</ele>
        <time>2020-02-08T13:49:09Z</time>
      </trkpt>
      <trkpt lat="46.1691" lon="6.3508">
        <ele>666</ele>
        <time>2020-02-08T13:49:13Z</time>
      </trkpt>
      <trkpt lat="46.16914" lon="6.35067">
        <ele>666</ele>
        <time>2020-02-08T13:49:17Z</time>
      </trkpt>
      <trkpt lat="46.16918" lon="6.35056">
        <ele>667</ele>
        <time>2020-02-08T13:49:21Z</time>
      </trkpt>
      <trkpt lat="46.1692" lon="6.35043">
        <ele>667</ele>
        <time>2020-02-08T13:49:25Z</time>
      </trkpt>
      <trkpt lat="46.16921" lon="6.35029">
        <ele>667</ele>
        <time>2020-02-08T13:49:29Z</time>
      </trkpt>
      <trkpt lat="46.16921" lon="6.35016">
        <ele>668</ele>
        <time>2020-02-08T13:49:33Z</time>
      </trkpt>
      <trkpt lat="46.1692" lon="6.35002">
        <ele>669</ele>
        <time>2020-02-08T13:49:37Z</time>
      </trkpt>
      <trkpt lat="46.16921" lon="6.34988">
        <ele>670</ele>
        <time>2020-02-08T13:49:41Z</time>
      </trkpt>
      <trkpt lat="46.16921" lon="6.34975">
        <ele>671</ele>
        <time>2020-02-08T13:49:45Z</time>
      </trkpt>
      <trkpt lat="46.16922" lon="6.34961">
        <ele>671</ele>
        <time>2020-02-08T13:49:49Z</time>
      </trkpt>
      <trkpt lat="46.16924" lon="6.34948">
        <ele>671</ele>
        <time>2020-02-08T13:49:53Z</time>
      </trkpt>
      <trkpt lat="46.16927" lon="6.34936">
        <ele>672</ele>
        <time>2020-02-08T13:49:57Z</time>
      </trkpt>
      <trkpt lat="46.1693" lon="6.34924">
        <ele>674</ele>
        <time>2020-02-08T13:50:01Z</time>
      </trkpt>
      <trkpt lat="46.16934" lon="6.34911">
        <ele>676</ele>
        <time>2020-02-08T13:50:05Z</time>
      </trkpt>
      <trkpt lat="46.16939" lon="6.349">
        <ele>678</ele>
        <time>2020-02-08T13:50:09Z</time>
      </trkpt>
      <trkpt lat="46.16942" lon="6.34887">
        <ele>680</ele>
        <time>2020-02-08T13:50:13Z</time>
      </trkpt>
      <trkpt lat="46.16946" lon="6.34875">
        <ele>681</ele>
        <time>2020-02-08T13:50:17Z</time>
      </trkpt>
      <trkpt lat="46.16949" lon="6.34863">
        <ele>682</ele>
        <time>2020-02-08T13:50:21Z</time>
      </trkpt>
      <trkpt lat="46.16952" lon="6.34851">
        <ele>683</ele>
        <time>2020-02-08T13:50:25Z</time>
      </trkpt>
      <trkpt lat="46.16956" lon="6.34838">
        <ele>683</ele>
        <time>2020-02-08T13:50:29Z</time>
      </trkpt>
      <trkpt lat="46.1696" lon="6.34826">
        <ele>683</ele>
        <time>2020-02-08T13:50:33Z</time>
      </trkpt>
      <trkpt lat="46.16966" lon="6.34816">
        <ele>684</ele>
        <time>2020-02-08T13:50:37Z</time>
      </trkpt>
      <trkpt lat="46.16972" lon="6.34804">
        <ele>684</ele>
        <time>2020-02-08T13:50:41Z</time>
      </trkpt>
      <trkpt lat="46.1698" lon="6.34797">
        <ele>685</ele>
        <time>2020-02-08T13:50:45Z</time>
      </trkpt>
      <trkpt lat="46.16987" lon="6.34788">
        <ele>686</ele>
        <time>2020-02-08T13:50:49Z</time>
      </trkpt>
      <trkpt lat="46.16992" lon="6.34778">
        <ele>686</ele>
        <time>2020-02-08T13:50:53Z</time>
      </trkpt>
      <trkpt lat="46.17" lon="6.3477">
        <ele>687</ele>
        <time>2020-02-08T13:50:57Z</time>
      </trkpt>
      <trkpt lat="46.17007" lon="6.34762">
        <ele>687</ele>
        <time>2020-02-08T13:51:01Z</time>
      </trkpt>
      <trkpt lat="46.17014" lon="6.34753">
        <ele>687</ele>
        <time>2020-02-08T13:51:05Z</time>
      </trkpt>
      <trkpt lat="46.1702" lon="6.34744">
        <ele>688</ele>
        <time>2020-02-08T13:51:09Z</time>
      </trkpt>
      <trkpt lat="46.17027" lon="6.34735">
        <ele>689</ele>
        <time>2020-02-08T13:51:13Z</time>
      </trkpt>
      <trkpt lat="46.17033" lon="6.34726">
        <ele>690</ele>
        <time>2020-02-08T13:51:17Z</time>
      </trkpt>
      <trkpt lat="46.1704" lon="6.34718">
        <ele>691</ele>
        <time>2020-02-08T13:51:21Z</time>
      </trkpt>
      <trkpt lat="46.17046" lon="6.34709">
        <ele>692</ele>
        <time>2020-02-08T13:51:25Z</time>
      </trkpt>
      <trkpt lat="46.17053" lon="6.347">
        <ele>694</ele>
        <time>2020-02-08T13:51:29Z</time>
      </trkpt>
      <trkpt lat="46.1706" lon="6.34693">
        <ele>695</ele>
        <time>2020-02-08T13:51:33Z</time>
      </trkpt>
      <trkpt lat="46.17067" lon="6.34691">
        <ele>697</ele>
        <time>2020-02-08T13:51:37Z</time>
      </trkpt>
      <trkpt lat="46.17074" lon="6.34695">
        <ele>698</ele>
        <time>2020-02-08T13:51:41Z</time>
      </trkpt>
      <trkpt lat="46.17081" lon="6.347">
        <ele>699</ele>
        <time>2020-02-08T13:51:45Z</time>
      </trkpt>
      <trkpt lat="46.17088" lon="6.34707">
        <ele>700</ele>
        <time>2020-02-08T13:51:49Z</time>
      </trkpt>
      <trkpt lat="46.17093" lon="6.34716">
        <ele>701</ele>
        <time>2020-02-08T13:51:53Z</time>
      </trkpt>
      <trkpt lat="46.17095" lon="6.34726">
        <ele>702</ele>
        <time>2020-02-08T13:51:57Z</time>
      </trkpt>
      <trkpt lat="46.171" lon="6.34736">
        <ele>702</ele>
        <time>2020-02-08T13:52:01Z</time>
      </trkpt>
      <trkpt lat="46.17099" lon="6.34748">
        <ele>701</ele>
        <time>2020-02-08T13:52:05Z</time>
      </trkpt>
      <trkpt lat="46.17099" lon="6.3476">
        <ele>702</ele>
        <time>2020-02-08T13:52:09Z</time>
      </trkpt>
      <trkpt lat="46.17099" lon="6.34772">
        <ele>702</ele>
        <time>2020-02-08T13:52:13Z</time>
      </trkpt>
      <trkpt lat="46.171" lon="6.34784">
        <ele>703</ele>
        <time>2020-02-08T13:52:17Z</time>
      </trkpt>
      <trkpt lat="46.171" lon="6.34796">
        <ele>704</ele>
        <time>2020-02-08T13:52:21Z</time>
      </trkpt>
      <trkpt lat="46.17102" lon="6.34809">
        <ele>705</ele>
        <time>2020-02-08T13:52:25Z</time>
      </trkpt>
      <trkpt lat="46.17106" lon="6.34818">
        <ele>707</ele>
        <time>2020-02-08T13:52:29Z</time>
      </trkpt>
      <trkpt lat="46.17113" lon="6.34823">
        <ele>708</ele>
        <time>2020-02-08T13:52:33Z</time>
      </trkpt>
      <trkpt lat="46.1712" lon="6.34823">
        <ele>710</ele>
        <time>2020-02-08T13:52:37Z</time>
      </trkpt>
      <trkpt lat="46.17128" lon="6.3482">
        <ele>711</ele>
        <time>2020-02-08T13:52:41Z</time>
      </trkpt>
      <trkpt lat="46.17134" lon="6.34812">
        <ele>713</ele>
        <time>2020-02-08T13:52:45Z</time>
      </trkpt>
      <trkpt lat="46.17137" lon="6.34802">
        <ele>713</ele>
        <time>2020-02-08T13:52:49Z</time>
      </trkpt>
      <trkpt lat="46.1714" lon="6.34791">
        <ele>713</ele>
        <time>2020-02-08T13:52:53Z</time>
      </trkpt>
      <trkpt lat="46.17143" lon="6.34779">
        <ele>713</ele>
        <time>2020-02-08T13:52:57Z</time>
      </trkpt>
      <trkpt lat="46.17147" lon="6.34769">
        <ele>714</ele>
        <time>2020-02-08T13:53:01Z</time>
      </trkpt>
      <trkpt lat="46.17153" lon="6.3476">
        <ele>714</ele>
        <time>2020-02-08T13:53:05Z</time>
      </trkpt>
      <trkpt lat="46.17159" lon="6.34752">
        <ele>716</ele>
        <time>2020-02-08T13:53:09Z</time>
      </trkpt>
      <trkpt lat="46.17166" lon="6.34746">
        <ele>717</ele>
        <time>2020-02-08T13:53:13Z</time>
      </trkpt>
      <trkpt lat="46.17174" lon="6.3474">
        <ele>719</ele>
        <time>2020-02-08T13:53:17Z</time>
      </trkpt>
      <trkpt lat="46.17182" lon="6.34735">
        <ele>720</ele>
        <time>2020-02-08T13:53:21Z</time>
      </trkpt>
      <trkpt lat="46.1719" lon="6.3473">
        <ele>722</ele>
        <time>2020-02-08T13:53:25Z</time>
      </trkpt>
      <trkpt lat="46.17198" lon="6.34724">
        <ele>722</ele>
        <time>2020-02-08T13:53:29Z</time>
      </trkpt>
      <trkpt lat="46.17205" lon="6.34717">
        <ele>723</ele>
        <time>2020-02-08T13:53:33Z</time>
      </trkpt>
      <trkpt lat="46.17213" lon="6.34709">
        <ele>724</ele>
        <time>2020-02-08T13:53:37Z</time>
      </trkpt>
      <trkpt lat="46.17219" lon="6.34701">
        <ele>725</ele>
        <time>2020-02-08T13:53:41Z</time>
      </trkpt>
      <trkpt lat="46.17226" lon="6.34692">
        <ele>725</ele>
        <time>2020-02-08T13:53:45Z</time>
      </trkpt>
      <trkpt lat="46.17232" lon="6.34684">
        <ele>726</ele>
        <time>2020-02-08T13:53:49Z</time>
      </trkpt>
      <trkpt lat="46.17239" lon="6.34677">
        <ele>726</ele>
        <time>2020-02-08T13:53:53Z</time>
      </trkpt>
      <trkpt lat="46.17245" lon="6.34668">
        <ele>727</ele>
        <time>2020-02-08T13:53:57Z</time>
      </trkpt>
      <trkpt lat="46.17252" lon="6.34661">
        <ele>728</ele>
        <time>2020-02-08T13:54:01Z</time>
      </trkpt>
      <trkpt lat="46.17259" lon="6.34654">
        <ele>730</ele>
        <time>2020-02-08T13:54:05Z</time>
      </trkpt>
      <trkpt lat="46.17265" lon="6.34646">
        <ele>731</ele>
        <time>2020-02-08T13:54:09Z</time>
      </trkpt>
      <trkpt lat="46.17271" lon="6.34638">
        <ele>733</ele>
        <time>2020-02-08T13:54:13Z</time>
      </trkpt>
      <trkpt lat="46.17278" lon="6.34631">
        <ele>735</ele>
        <time>2020-02-08T13:54:17Z</time>
      </trkpt>
      <trkpt lat="46.17284" lon="6.34623">
        <ele>737</ele>
        <time>2020-02-08T13:54:21Z</time>
      </trkpt>
      <trkpt lat="46.17292" lon="6.34615">
        <ele>739</ele>
        <time>2020-02-08T13:54:25Z</time>
      </trkpt>
      <trkpt lat="46.17298" lon="6.34608">
        <ele>740</ele>
        <time>2020-02-08T13:54:29Z</time>
      </trkpt>
      <trkpt lat="46.17304" lon="6.34601">
        <ele>742</ele>
        <time>2020-02-08T13:54:33Z</time>
      </trkpt>
      <trkpt lat="46.1731" lon="6.34593">
        <ele>742</ele>
        <time>2020-02-08T13:54:37Z</time>
      </trkpt>
      <trkpt lat="46.17316" lon="6.34585">
        <ele>742</ele>
        <time>2020-02-08T13:54:41Z</time>
      </trkpt>
      <trkpt lat="46.17322" lon="6.34576">
        <ele>742</ele>
        <time>2020-02-08T13:54:45Z</time>
      </trkpt>
      <trkpt lat="46.17328" lon="6.34567">
        <ele>742</ele>
        <time>2020-02-08T13:54:49Z</time>
      </trkpt>
      <trkpt lat="46.17334" lon="6.34558">
        <ele>743</ele>
        <time>2020-02-08T13:54:53Z</time>
      </trkpt>
      <trkpt lat="46.17339" lon="6.34549">
        <ele>743</ele>
        <time>2020-02-08T13:54:57Z</time>
      </trkpt>
      <trkpt lat="46.17344" lon="6.3454">
        <ele>743</ele>
        <time>2020-02-08T13:55:01Z</time>
      </trkpt>
      <trkpt lat="46.17349" lon="6.34531">
        <ele>743</ele>
        <time>2020-02-08T13:55:05Z</time>
      </trkpt>
      <trkpt lat="46.17356" lon="6.34524">
        <ele>743</ele>
        <time>2020-02-08T13:55:09Z</time>
      </trkpt>
      <trkpt lat="46.17363" lon="6.34517">
        <ele>743</ele>
        <time>2020-02-08T13:55:13Z</time>
      </trkpt>
      <trkpt lat="46.17371" lon="6.34512">
        <ele>745</ele>
        <time>2020-02-08T13:55:17Z</time>
      </trkpt>
      <trkpt lat="46.17379" lon="6.34507">
        <ele>746</ele>
        <time>2020-02-08T13:55:21Z</time>
      </trkpt>
      <trkpt lat="46.17387" lon="6.34502">
        <ele>747</ele>
        <time>2020-02-08T13:55:25Z</time>
      </trkpt>
      <trkpt lat="46.17395" lon="6.34498">
        <ele>749</ele>
        <time>2020-02-08T13:55:29Z</time>
      </trkpt>
      <trkpt lat="46.17403" lon="6.34493">
        <ele>751</ele>
        <time>2020-02-08T13:55:33Z</time>
      </trkpt>
      <trkpt lat="46.1741" lon="6.34488">
        <ele>753</ele>
        <time>2020-02-08T13:55:37Z</time>
      </trkpt>
      <trkpt lat="46.17418" lon="6.34483">
        <ele>755</ele>
        <time>2020-02-08T13:55:41Z</time>
      </trkpt>
      <trkpt lat="46.17425" lon="6.34477">
        <ele>756</ele>
        <time>2020-02-08T13:55:45Z</time>
      </trkpt>
      <trkpt lat="46.17432" lon="6.3447">
        <ele>757</ele>
        <time>2020-02-08T13:55:49Z</time>
      </trkpt>
      <trkpt lat="46.17438" lon="6.34461">
        <ele>758</ele>
        <time>2020-02-08T13:55:53Z</time>
      </trkpt>
      <trkpt lat="46.17443" lon="6.34452">
        <ele>758</ele>
        <time>2020-02-08T13:55:57Z</time>
      </trkpt>
      <trkpt lat="46.17449" lon="6.34444">
        <ele>758</ele>
        <time>2020-02-08T13:56:01Z</time>
      </trkpt>
      <trkpt lat="46.17456" lon="6.34435">
        <ele>759</ele>
        <time>2020-02-08T13:56:05Z</time>
      </trkpt>
      <trkpt lat="46.17463" lon="6.34432">
        <ele>760</ele>
        <time>2020-02-08T13:56:09Z</time>
      </trkpt>
      <trkpt lat="46.1747" lon="6.34432">
        <ele>761</ele>
        <time>2020-02-08T13:56:13Z</time>
      </trkpt>
      <trkpt lat="46.17476" lon="6.34439">
        <ele>764</ele>
        <time>2020-02-08T13:56:17Z</time>
      </trkpt>
      <trkpt lat="46.1748" lon="6.34449">
        <ele>765</ele>
        <time>2020-02-08T13:56:21Z</time>
      </trkpt>
      <trkpt lat="46.17481" lon="6.34459">
        <ele>766</ele>
        <time>2020-02-08T13:56:25Z</time>
      </trkpt>
      <trkpt lat="46.17482" lon="6.3447">
        <ele>767</ele>
        <time>2020-02-08T13:56:29Z</time>
      </trkpt>
      <trkpt lat="46.17485" lon="6.34481">
        <ele>768</ele>
        <time>2020-02-08T13:56:33Z</time>
      </trkpt>
      <trkpt lat="46.17488" lon="6.34492">
        <ele>768</ele>
        <time>2020-02-08T13:56:37Z</time>
      </trkpt>
      <trkpt lat="46.17491" lon="6.34502">
        <ele>769</ele>
        <time>2020-02-08T13:56:41Z</time>
      </trkpt>
      <trkpt lat="46.17492" lon="6.34513">
        <ele>770</ele>
        <time>2020-02-08T13:56:45Z</time>
      </trkpt>
      <trkpt lat="46.17493" lon="6.34524">
        <ele>772</ele>
        <time>2020-02-08T13:56:49Z</time>
      </trkpt>
      <trkpt lat="46.17493" lon="6.34536">
        <ele>773</ele>
        <time>2020-02-08T13:56:53Z</time>
      </trkpt>
      <trkpt lat="46.17492" lon="6.34547">
        <ele>774</ele>
        <time>2020-02-08T13:56:57Z</time>
      </trkpt>
      <trkpt lat="46.17491" lon="6.34558">
        <ele>776</ele>
        <time>2020-02-08T13:57:01Z</time>
      </trkpt>
      <trkpt lat="46.17488" lon="6.34569">
        <ele>777</ele>
        <time>2020-02-08T13:57:05Z</time>
      </trkpt>
      <trkpt lat="46.17486" lon="6.3458">
        <ele>777</ele>
        <time>2020-02-08T13:57:09Z</time>
      </trkpt>
      <trkpt lat="46.17483" lon="6.34591">
        <ele>778</ele>
        <time>2020-02-08T13:57:13Z</time>
      </trkpt>
      <trkpt lat="46.17479" lon="6.34602">
        <ele>778</ele>
        <time>2020-02-08T13:57:17Z</time>
      </trkpt>
      <trkpt lat="46.17475" lon="6.34613">
        <ele>777</ele>
        <time>2020-02-08T13:57:21Z</time>
      </trkpt>
      <trkpt lat="46.17472" lon="6.34623">
        <ele>778</ele>
        <time>2020-02-08T13:57:25Z</time>
      </trkpt>
      <trkpt lat="46.1747" lon="6.34633">
        <ele>779</ele>
        <time>2020-02-08T13:57:29Z</time>
      </trkpt>
      <trkpt lat="46.17469" lon="6.34641">
        <ele>780</ele>
        <time>2020-02-08T13:57:33Z</time>
      </trkpt>
      <trkpt lat="46.17465" lon="6.3465">
        <ele>781</ele>
        <time>2020-02-08T13:57:37Z</time>
      </trkpt>
      <trkpt lat="46.17459" lon="6.34663">
        <ele>782</ele>
        <time>2020-02-08T13:57:41Z</time>
      </trkpt>
      <trkpt lat="46.17455" lon="6.34674">
        <ele>783</ele>
        <time>2020-02-08T13:57:45Z</time>
      </trkpt>
      <trkpt lat="46.17452" lon="6.34685">
        <ele>784</ele>
        <time>2020-02-08T13:57:49Z</time>
      </trkpt>
      <trkpt lat="46.17451" lon="6.34697">
        <ele>786</ele>
        <time>2020-02-08T13:57:53Z</time>
      </trkpt>
      <trkpt lat="46.17447" lon="6.34709">
        <ele>786</ele>
        <time>2020-02-08T13:57:57Z</time>
      </trkpt>
      <trkpt lat="46.17442" lon="6.3472">
        <ele>786</ele>
        <time>2020-02-08T13:58:01Z</time>
      </trkpt>
      <trkpt lat="46.17438" lon="6.34733">
        <ele>786</ele>
        <time>2020-02-08T13:58:05Z</time>
      </trkpt>
      <trkpt lat="46.17435" lon="6.34745">
        <ele>786</ele>
        <time>2020-02-08T13:58:09Z</time>
      </trkpt>
      <trkpt lat="46.17433" lon="6.34757">
        <ele>786</ele>
        <time>2020-02-08T13:58:13Z</time>
      </trkpt>
      <trkpt lat="46.17435" lon="6.34769">
        <ele>787</ele>
        <time>2020-02-08T13:58:17Z</time>
      </trkpt>
      <trkpt lat="46.17439" lon="6.3478">
        <ele>788</ele>
        <time>2020-02-08T13:58:21Z</time>
      </trkpt>
      <trkpt lat="46.17443" lon="6.3479">
        <ele>789</ele>
        <time>2020-02-08T13:58:25Z</time>
      </trkpt>
      <trkpt lat="46.17448" lon="6.34798">
        <ele>791</ele>
        <time>2020-02-08T13:58:29Z</time>
      </trkpt>
      <trkpt lat="46.17449" lon="6.34808">
        <ele>791</ele>
        <time>2020-02-08T13:58:33Z</time>
      </trkpt>
      <trkpt lat="46.1745" lon="6.34817">
        <ele>793</ele>
        <time>2020-02-08T13:58:37Z</time>
      </trkpt>
      <trkpt lat="46.17448" lon="6.34828">
        <ele>793</ele>
        <time>2020-02-08T13:58:41Z</time>
      </trkpt>
      <trkpt lat="46.17447" lon="6.34838">
        <ele>794</ele>
        <time>2020-02-08T13:58:45Z</time>
      </trkpt>
      <trkpt lat="46.17445" lon="6.34849">
        <ele>794</ele>
        <time>2020-02-08T13:58:49Z</time>
      </trkpt>
      <trkpt lat="46.17442" lon="6.34861">
        <ele>795</ele>
        <time>2020-02-08T13:58:53Z</time>
      </trkpt>
      <trkpt lat="46.17439" lon="6.34871">
        <ele>797</ele>
        <time>2020-02-08T13:58:57Z</time>
      </trkpt>
      <trkpt lat="46.17437" lon="6.34881">
        <ele>799</ele>
        <time>2020-02-08T13:59:01Z</time>
      </trkpt>
      <trkpt lat="46.17437" lon="6.34892">
        <ele>801</ele>
        <time>2020-02-08T13:59:05Z</time>
      </trkpt>
      <trkpt lat="46.17441" lon="6.349">
        <ele>803</ele>
        <time>2020-02-08T13:59:09Z</time>
      </trkpt>
      <trkpt lat="46.17449" lon="6.34899">
        <ele>804</ele>
        <time>2020-02-08T13:59:13Z</time>
      </trkpt>
      <trkpt lat="46.17457" lon="6.34896">
        <ele>806</ele>
        <time>2020-02-08T13:59:17Z</time>
      </trkpt>
      <trkpt lat="46.17465" lon="6.34892">
        <ele>807</ele>
        <time>2020-02-08T13:59:21Z</time>
      </trkpt>
      <trkpt lat="46.17473" lon="6.34887">
        <ele>809</ele>
        <time>2020-02-08T13:59:25Z</time>
      </trkpt>
      <trkpt lat="46.17481" lon="6.34882">
        <ele>810</ele>
        <time>2020-02-08T13:59:29Z</time>
      </trkpt>
      <trkpt lat="46.17487" lon="6.34877">
        <ele>812</ele>
        <time>2020-02-08T13:59:33Z</time>
      </trkpt>
      <trkpt lat="46.17494" lon="6.3487">
        <ele>813</ele>
        <time>2020-02-08T13:59:37Z</time>
      </trkpt>
      <trkpt lat="46.17501" lon="6.34864">
        <ele>815</ele>
        <time>2020-02-08T13:59:41Z</time>
      </trkpt>
      <trkpt lat="46.17508" lon="6.34856">
        <ele>816</ele>
        <time>2020-02-08T13:59:45Z</time>
      </trkpt>
      <trkpt lat="46.17514" lon="6.3485">
        <ele>817</ele>
        <time>2020-02-08T13:59:49Z</time>
      </trkpt>
      <trkpt lat="46.17519" lon="6.34843">
        <ele>817</ele>
        <time>2020-02-08T13:59:53Z</time>
      </trkpt>
      <trkpt lat="46.17528" lon="6.34833">
        <ele>819</ele>
        <time>2020-02-08T13:59:57Z</time>
      </trkpt>
      <trkpt lat="46.17536" lon="6.34824">
        <ele>820</ele>
        <time>2020-02-08T14:00:01Z</time>
      </trkpt>
      <trkpt lat="46.17543" lon="6.34814">
        <ele>820</ele>
        <time>2020-02-08T14:00:05Z</time>
      </trkpt>
      <trkpt lat="46.17549" lon="6.34806">
        <ele>821</ele>
        <time>2020-02-08T14:00:09Z</time>
      </trkpt>
      <trkpt lat="46.17554" lon="6.34796">
        <ele>821</ele>
        <time>2020-02-08T14:00:13Z</time>
      </trkpt>
      <trkpt lat="46.17559" lon="6.34787">
        <ele>822</ele>
        <time>2020-02-08T14:00:17Z</time>
      </trkpt>
      <trkpt lat="46.17565" lon="6.34778">
        <ele>823</ele>
        <time>2020-02-08T14:00:21Z</time>
      </trkpt>
      <trkpt lat="46.17571" lon="6.34769">
        <ele>825</ele>
        <time>2020-02-08T14:00:25Z</time>
      </trkpt>
      <trkpt lat="46.17576" lon="6.34759">
        <ele>827</ele>
        <time>2020-02-08T14:00:29Z</time>
      </trkpt>
      <trkpt lat="46.17581" lon="6.3475">
        <ele>828</ele>
        <time>2020-02-08T14:00:33Z</time>
      </trkpt>
      <trkpt lat="46.17586" lon="6.34741">
        <ele>829</ele>
        <time>2020-02-08T14:00:37Z</time>
      </trkpt>
      <trkpt lat="46.17591" lon="6.34732">
        <ele>831</ele>
        <time>2020-02-08T14:00:41Z</time>
      </trkpt>
      <trkpt lat="46.17596" lon="6.34723">
        <ele>832</ele>
        <time>2020-02-08T14:00:45Z</time>
      </trkpt>
      <trkpt lat="46.17602" lon="6.34714">
        <ele>833</ele>
        <time>2020-02-08T14:00:49Z</time>
      </trkpt>
      <trkpt lat="46.17606" lon="6.34705">
        <ele>833</ele>
        <time>2020-02-08T14:00:53Z</time>
      </trkpt>
      <trkpt lat="46.1761" lon="6.34696">
        <ele>833</ele>
        <time>2020-02-08T14:00:57Z</time>
      </trkpt>
      <trkpt lat="46.17615" lon="6.34687">
        <ele>834</ele>
        <time>2020-02-08T14:01:01Z</time>
      </trkpt>
      <trkpt lat="46.17618" lon="6.3468">
        <ele>834</ele>
        <time>2020-02-08T14:01:05Z</time>
      </trkpt>
      <trkpt lat="46.17621" lon="6.34673">
        <ele>835</ele>
        <time>2020-02-08T14:01:09Z</time>
      </trkpt>
      <trkpt lat="46.17626" lon="6.34667">
        <ele>835</ele>
        <time>2020-02-08T14:01:13Z</time>
      </trkpt>
      <trkpt lat="46.1763" lon="6.34662">
        <ele>836</ele>
        <time>2020-02-08T14:01:17Z</time>
      </trkpt>
      <trkpt lat="46.17636" lon="6.34659">
        <ele>837</ele>
        <time>2020-02-08T14:01:21Z</time>
      </trkpt>
      <trkpt lat="46.17643" lon="6.34656">
        <ele>838</ele>
        <time>2020-02-08T14:01:25Z</time>
      </trkpt>
      <trkpt lat="46.1765" lon="6.3465">
        <ele>838</ele>
        <time>2020-02-08T14:01:29Z</time>
      </trkpt>
      <trkpt lat="46.17656" lon="6.34646">
        <ele>839</ele>
        <time>2020-02-08T14:01:33Z</time>
      </trkpt>
      <trkpt lat="46.17664" lon="6.34639">
        <ele>839</ele>
        <time>2020-02-08T14:01:37Z</time>
      </trkpt>
      <trkpt lat="46.17672" lon="6.34635">
        <ele>840</ele>
        <time>2020-02-08T14:01:41Z</time>
      </trkpt>
      <trkpt lat="46.17681" lon="6.34634">
        <ele>840</ele>
        <time>2020-02-08T14:01:45Z</time>
      </trkpt>
      <trkpt lat="46.17688" lon="6.34642">
        <ele>842</ele>
        <time>2020-02-08T14:01:49Z</time>
      </trkpt>
      <trkpt lat="46.17689" lon="6.34651">
        <ele>843</ele>
        <time>2020-02-08T14:01:53Z</time>
      </trkpt>
      <trkpt lat="46.17689" lon="6.34658">
        <ele>844</ele>
        <time>2020-02-08T14:01:57Z</time>
      </trkpt>
      <trkpt lat="46.17688" lon="6.34669">
        <ele>845</ele>
        <time>2020-02-08T14:02:01Z</time>
      </trkpt>
      <trkpt lat="46.17692" lon="6.34674">
        <ele>847</ele>
        <time>2020-02-08T14:02:05Z</time>
      </trkpt>
      <trkpt lat="46.17701" lon="6.3467">
        <ele>847</ele>
        <time>2020-02-08T14:02:09Z</time>
      </trkpt>
      <trkpt lat="46.1771" lon="6.34662">
        <ele>846</ele>
        <time>2020-02-08T14:02:13Z</time>
      </trkpt>
      <trkpt lat="46.17718" lon="6.34652">
        <ele>845</ele>
        <time>2020-02-08T14:02:17Z</time>
      </trkpt>
      <trkpt lat="46.17726" lon="6.34643">
        <ele>844</ele>
        <time>2020-02-08T14:02:21Z</time>
      </trkpt>
      <trkpt lat="46.17734" lon="6.34634">
        <ele>844</ele>
        <time>2020-02-08T14:02:25Z</time>
      </trkpt>
      <trkpt lat="46.17744" lon="6.34628">
        <ele>845</ele>
        <time>2020-02-08T14:02:29Z</time>
      </trkpt>
      <trkpt lat="46.17754" lon="6.34622">
        <ele>846</ele>
        <time>2020-02-08T14:02:33Z</time>
      </trkpt>
      <trkpt lat="46.17765" lon="6.34614">
        <ele>848</ele>
        <time>2020-02-08T14:02:37Z</time>
      </trkpt>
      <trkpt lat="46.17773" lon="6.34607">
        <ele>849</ele>
        <time>2020-02-08T14:02:41Z</time>
      </trkpt>
      <trkpt lat="46.17781" lon="6.34597">
        <ele>851</ele>
        <time>2020-02-08T14:02:45Z</time>
      </trkpt>
      <trkpt lat="46.17786" lon="6.34584">
        <ele>851</ele>
        <time>2020-02-08T14:02:49Z</time>
      </trkpt>
      <trkpt lat="46.1779" lon="6.34571">
        <ele>851</ele>
        <time>2020-02-08T14:02:53Z</time>
      </trkpt>
      <trkpt lat="46.17794" lon="6.34557">
        <ele>852</ele>
        <time>2020-02-08T14:02:57Z</time>
      </trkpt>
      <trkpt lat="46.17799" lon="6.34542">
        <ele>852</ele>
        <time>2020-02-08T14:03:01Z</time>
      </trkpt>
      <trkpt lat="46.17804" lon="6.34529">
        <ele>852</ele>
        <time>2020-02-08T14:03:05Z</time>
      </trkpt>
      <trkpt lat="46.17809" lon="6.34518">
        <ele>852</ele>
        <time>2020-02-08T14:03:09Z</time>
      </trkpt>
      <trkpt lat="46.17817" lon="6.34506">
        <ele>852</ele>
        <time>2020-02-08T14:03:13Z</time>
      </trkpt>
      <trkpt lat="46.1783" lon="6.34489">
        <ele>852</ele>
        <time>2020-02-08T14:03:17Z</time>
      </trkpt>
      <trkpt lat="46.17851" lon="6.34474">
        <ele>853</ele>
        <time>2020-02-08T14:03:21Z</time>
      </trkpt>
      <trkpt lat="46.17873" lon="6.34458">
        <ele>853</ele>
        <time>2020-02-08T14:03:25Z</time>
      </trkpt>
      <trkpt lat="46.17891" lon="6.34433">
        <ele>852</ele>
        <time>2020-02-08T14:03:29Z</time>
      </trkpt>
      <trkpt lat="46.17913" lon="6.34422">
        <ele>856</ele>
        <time>2020-02-08T14:03:33Z</time>
      </trkpt>
      <trkpt lat="46.17931" lon="6.34423">
        <ele>859</ele>
        <time>2020-02-08T14:03:37Z</time>
      </trkpt>
      <trkpt lat="46.17941" lon="6.34423">
        <ele>860</ele>
        <time>2020-02-08T14:03:41Z</time>
      </trkpt>
      <trkpt lat="46.17949" lon="6.34421">
        <ele>862</ele>
        <time>2020-02-08T14:03:45Z</time>
      </trkpt>
      <trkpt lat="46.17958" lon="6.34417">
        <ele>863</ele>
        <time>2020-02-08T14:03:49Z</time>
      </trkpt>
      <trkpt lat="46.17968" lon="6.34411">
        <ele>865</ele>
        <time>2020-02-08T14:03:53Z</time>
      </trkpt>
      <trkpt lat="46.17979" lon="6.34406">
        <ele>867</ele>
        <time>2020-02-08T14:03:57Z</time>
      </trkpt>
      <trkpt lat="46.1799" lon="6.34404">
        <ele>868</ele>
        <time>2020-02-08T14:04:01Z</time>
      </trkpt>
      <trkpt lat="46.18" lon="6.34404">
        <ele>868</ele>
        <time>2020-02-08T14:04:05Z</time>
      </trkpt>
      <trkpt lat="46.18009" lon="6.34406">
        <ele>868</ele>
        <time>2020-02-08T14:04:09Z</time>
      </trkpt>
      <trkpt lat="46.18017" lon="6.34408">
        <ele>867</ele>
        <time>2020-02-08T14:04:13Z</time>
      </trkpt>
      <trkpt lat="46.18025" lon="6.34409">
        <ele>866</ele>
        <time>2020-02-08T14:04:17Z</time>
      </trkpt>
      <trkpt lat="46.18034" lon="6.34408">
        <ele>866</ele>
        <time>2020-02-08T14:04:21Z</time>
      </trkpt>
      <trkpt lat="46.18042" lon="6.34404">
        <ele>866</ele>
        <time>2020-02-08T14:04:25Z</time>
      </trkpt>
      <trkpt lat="46.18048" lon="6.344">
        <ele>866</ele>
        <time>2020-02-08T14:04:29Z</time>
      </trkpt>
      <trkpt lat="46.18055" lon="6.34396">
        <ele>866</ele>
        <time>2020-02-08T14:04:33Z</time>
      </trkpt>
      <trkpt lat="46.18064" lon="6.34388">
        <ele>867</ele>
        <time>2020-02-08T14:04:37Z</time>
      </trkpt>
      <trkpt lat="46.18074" lon="6.3438">
        <ele>869</ele>
        <time>2020-02-08T14:04:41Z</time>
      </trkpt>
      <trkpt lat="46.18085" lon="6.34372">
        <ele>870</ele>
        <time>2020-02-08T14:04:45Z</time>
      </trkpt>
      <trkpt lat="46.18096" lon="6.34363">
        <ele>871</ele>
        <time>2020-02-08T14:04:49Z</time>
      </trkpt>
      <trkpt lat="46.18104" lon="6.34357">
        <ele>872</ele>
        <time>2020-02-08T14:04:53Z</time>
      </trkpt>
      <trkpt lat="46.18116" lon="6.3435">
        <ele>873</ele>
        <time>2020-02-08T14:04:57Z</time>
      </trkpt>
      <trkpt lat="46.18128" lon="6.34339">
        <ele>873</ele>
        <time>2020-02-08T14:05:01Z</time>
      </trkpt>
      <trkpt lat="46.18139" lon="6.34328">
        <ele>872</ele>
        <time>2020-02-08T14:05:05Z</time>
      </trkpt>
      <trkpt lat="46.18148" lon="6.34316">
        <ele>871</ele>
        <time>2020-02-08T14:05:09Z</time>
      </trkpt>
      <trkpt lat="46.18151" lon="6.34304">
        <ele>870</ele>
        <time>2020-02-08T14:05:13Z</time>
      </trkpt>
      <trkpt lat="46.18157" lon="6.3429">
        <ele>871</ele>
        <time>2020-02-08T14:05:17Z</time>
      </trkpt>
      <trkpt lat="46.1816" lon="6.34276">
        <ele>871</ele>
        <time>2020-02-08T14:05:21Z</time>
      </trkpt>
      <trkpt lat="46.18163" lon="6.34264">
        <ele>872</ele>
        <time>2020-02-08T14:05:25Z</time>
      </trkpt>
      <trkpt lat="46.18168" lon="6.34249">
        <ele>874</ele>
        <time>2020-02-08T14:05:29Z</time>
      </trkpt>
      <trkpt lat="46.18172" lon="6.34234">
        <ele>875</ele>
        <time>2020-02-08T14:05:33Z</time>
      </trkpt>
      <trkpt lat="46.18176" lon="6.34221">
        <ele>875</ele>
        <time>2020-02-08T14:05:37Z</time>
      </trkpt>
      <trkpt lat="46.1818" lon="6.34208">
        <ele>875</ele>
        <time>2020-02-08T14:05:41Z</time>
      </trkpt>
      <trkpt lat="46.18186" lon="6.34196">
        <ele>876</ele>
        <time>2020-02-08T14:05:45Z</time>
      </trkpt>
      <trkpt lat="46.18193" lon="6.34182">
        <ele>877</ele>
        <time>2020-02-08T14:05:49Z</time>
      </trkpt>
      <trkpt lat="46.182" lon="6.34169">
        <ele>879</ele>
        <time>2020-02-08T14:05:53Z</time>
      </trkpt>
      <trkpt lat="46.18209" lon="6.34156">
        <ele>879</ele>
        <time>2020-02-08T14:05:57Z</time>
      </trkpt>
      <trkpt lat="46.18217" lon="6.34144">
        <ele>880</ele>
        <time>2020-02-08T14:06:01Z</time>
      </trkpt>
      <trkpt lat="46.18227" lon="6.34132">
        <ele>881</ele>
        <time>2020-02-08T14:06:05Z</time>
      </trkpt>
      <trkpt lat="46.18235" lon="6.34119">
        <ele>880</ele>
        <time>2020-02-08T14:06:09Z</time>
      </trkpt>
      <trkpt lat="46.18242" lon="6.34108">
        <ele>880</ele>
        <time>2020-02-08T14:06:13Z</time>
      </trkpt>
      <trkpt lat="46.18249" lon="6.34098">
        <ele>880</ele>
        <time>2020-02-08T14:06:17Z</time>
      </trkpt>
      <trkpt lat="46.18255" lon="6.34087">
        <ele>881</ele>
        <time>2020-02-08T14:06:21Z</time>
      </trkpt>
      <trkpt lat="46.1826" lon="6.34076">
        <ele>882</ele>
        <time>2020-02-08T14:06:25Z</time>
      </trkpt>
      <trkpt lat="46.18265" lon="6.34064">
        <ele>883</ele>
        <time>2020-02-08T14:06:29Z</time>
      </trkpt>
      <trkpt lat="46.18269" lon="6.34051">
        <ele>884</ele>
        <time>2020-02-08T14:06:33Z</time>
      </trkpt>
      <trkpt lat="46.18271" lon="6.3404">
        <ele>885</ele>
        <time>2020-02-08T14:06:37Z</time>
      </trkpt>
      <trkpt lat="46.18274" lon="6.34027">
        <ele>886</ele>
        <time>2020-02-08T14:06:41Z</time>
      </trkpt>
      <trkpt lat="46.18278" lon="6.34013">
        <ele>887</ele>
        <time>2020-02-08T14:06:45Z</time>
      </trkpt>
      <trkpt lat="46.18281" lon="6.34">
        <ele>888</ele>
        <time>2020-02-08T14:06:49Z</time>
      </trkpt>
      <trkpt lat="46.18284" lon="6.33985">
        <ele>888</ele>
        <time>2020-02-08T14:06:53Z</time>
      </trkpt>
      <trkpt lat="46.18286" lon="6.33968">
        <ele>889</ele>
        <time>2020-02-08T14:06:57Z</time>
      </trkpt>
      <trkpt lat="46.18286" lon="6.33951">
        <ele>889</ele>
        <time>2020-02-08T14:07:01Z</time>
      </trkpt>
      <trkpt lat="46.18285" lon="6.33939">
        <ele>889</ele>
        <time>2020-02-08T14:07:05Z</time>
      </trkpt>
      <trkpt lat="46.18281" lon="6.33932">
        <ele>888</ele>
        <time>2020-02-08T14:07:09Z</time>
      </trkpt>
      <trkpt lat="46.1828" lon="6.3393">
        <ele>888</ele>
        <time>2020-02-08T14:07:13Z</time>
      </trkpt>
      <trkpt lat="46.18281" lon="6.33929">
        <ele>888</ele>
        <time>2020-02-08T14:10:49Z</time>
      </trkpt>
      <trkpt lat="46.18281" lon="6.33926">
        <ele>888</ele>
        <time>2020-02-08T14:11:01Z</time>
      </trkpt>
      <trkpt lat="46.18276" lon="6.33913">
        <ele>886</ele>
        <time>2020-02-08T14:11:05Z</time>
      </trkpt>
      <trkpt lat="46.18279" lon="6.33886">
        <ele>882</ele>
        <time>2020-02-08T14:11:09Z</time>
      </trkpt>
      <trkpt lat="46.18292" lon="6.33855">
        <ele>882</ele>
        <time>2020-02-08T14:11:13Z</time>
      </trkpt>
      <trkpt lat="46.18305" lon="6.33823">
        <ele>882</ele>
        <time>2020-02-08T14:11:17Z</time>
      </trkpt>
      <trkpt lat="46.18317" lon="6.33792">
        <ele>880</ele>
        <time>2020-02-08T14:11:21Z</time>
      </trkpt>
      <trkpt lat="46.18324" lon="6.33755">
        <ele>875</ele>
        <time>2020-02-08T14:11:25Z</time>
      </trkpt>
      <trkpt lat="46.18302" lon="6.33716">
        <ele>865</ele>
        <time>2020-02-08T14:11:29Z</time>
      </trkpt>
      <trkpt lat="46.18272" lon="6.33676">
        <ele>858</ele>
        <time>2020-02-08T14:11:33Z</time>
      </trkpt>
      <trkpt lat="46.18265" lon="6.33624">
        <ele>858</ele>
        <time>2020-02-08T14:11:37Z</time>
      </trkpt>
      <trkpt lat="46.18274" lon="6.33571">
        <ele>854</ele>
        <time>2020-02-08T14:11:41Z</time>
      </trkpt>
      <trkpt lat="46.18284" lon="6.33512">
        <ele>846</ele>
        <time>2020-02-08T14:11:45Z</time>
      </trkpt>
      <trkpt lat="46.18294" lon="6.3345">
        <ele>841</ele>
        <time>2020-02-08T14:11:49Z</time>
      </trkpt>
      <trkpt lat="46.18306" lon="6.33394">
        <ele>834</ele>
        <time>2020-02-08T14:11:53Z</time>
      </trkpt>
      <trkpt lat="46.18287" lon="6.3335">
        <ele>826</ele>
        <time>2020-02-08T14:11:57Z</time>
      </trkpt>
      <trkpt lat="46.18236" lon="6.33328">
        <ele>816</ele>
        <time>2020-02-08T14:12:01Z</time>
      </trkpt>
      <trkpt lat="46.18178" lon="6.33301">
        <ele>809</ele>
        <time>2020-02-08T14:12:05Z</time>
      </trkpt>
      <trkpt lat="46.18133" lon="6.3328">
        <ele>803</ele>
        <time>2020-02-08T14:12:09Z</time>
      </trkpt>
      <trkpt lat="46.181" lon="6.33277">
        <ele>797</ele>
        <time>2020-02-08T14:12:13Z</time>
      </trkpt>
      <trkpt lat="46.18068" lon="6.33302">
        <ele>793</ele>
        <time>2020-02-08T14:12:17Z</time>
      </trkpt>
      <trkpt lat="46.18034" lon="6.33338">
        <ele>787</ele>
        <time>2020-02-08T14:12:21Z</time>
      </trkpt>
      <trkpt lat="46.18003" lon="6.33369">
        <ele>779</ele>
        <time>2020-02-08T14:12:25Z</time>
      </trkpt>
      <trkpt lat="46.17985" lon="6.33387">
        <ele>776</ele>
        <time>2020-02-08T14:12:29Z</time>
      </trkpt>
      <trkpt lat="46.17979" lon="6.33377">
        <ele>774</ele>
        <time>2020-02-08T14:12:33Z</time>
      </trkpt>
      <trkpt lat="46.17985" lon="6.33346">
        <ele>773</ele>
        <time>2020-02-08T14:12:37Z</time>
      </trkpt>
      <trkpt lat="46.17993" lon="6.33307">
        <ele>773</ele>
        <time>2020-02-08T14:12:41Z</time>
      </trkpt>
      <trkpt lat="46.18004" lon="6.33264">
        <ele>773</ele>
        <time>2020-02-08T14:12:45Z</time>
      </trkpt>
      <trkpt lat="46.18017" lon="6.33218">
        <ele>773</ele>
        <time>2020-02-08T14:12:49Z</time>
      </trkpt>
      <trkpt lat="46.18032" lon="6.33169">
        <ele>771</ele>
        <time>2020-02-08T14:12:53Z</time>
      </trkpt>
      <trkpt lat="46.1805" lon="6.3312">
        <ele>765</ele>
        <time>2020-02-08T14:12:57Z</time>
      </trkpt>
      <trkpt lat="46.18068" lon="6.33072">
        <ele>762</ele>
        <time>2020-02-08T14:13:01Z</time>
      </trkpt>
      <trkpt lat="46.18087" lon="6.33022">
        <ele>763</ele>
        <time>2020-02-08T14:13:05Z</time>
      </trkpt>
      <trkpt lat="46.18105" lon="6.32979">
        <ele>762</ele>
        <time>2020-02-08T14:13:09Z</time>
      </trkpt>
      <trkpt lat="46.18123" lon="6.32945">
        <ele>757</ele>
        <time>2020-02-08T14:13:13Z</time>
      </trkpt>
      <trkpt lat="46.1815" lon="6.32923">
        <ele>754</ele>
        <time>2020-02-08T14:13:17Z</time>
      </trkpt>
      <trkpt lat="46.18178" lon="6.32903">
        <ele>753</ele>
        <time>2020-02-08T14:13:21Z</time>
      </trkpt>
      <trkpt lat="46.18205" lon="6.32882">
        <ele>752</ele>
        <time>2020-02-08T14:13:25Z</time>
      </trkpt>
      <trkpt lat="46.1823" lon="6.32861">
        <ele>752</ele>
        <time>2020-02-08T14:13:29Z</time>
      </trkpt>
      <trkpt lat="46.18258" lon="6.32842">
        <ele>752</ele>
        <time>2020-02-08T14:13:33Z</time>
      </trkpt>
      <trkpt lat="46.18288" lon="6.32826">
        <ele>752</ele>
        <time>2020-02-08T14:13:37Z</time>
      </trkpt>
      <trkpt lat="46.18318" lon="6.32812">
        <ele>754</ele>
        <time>2020-02-08T14:13:41Z</time>
      </trkpt>
      <trkpt lat="46.18346" lon="6.32798">
        <ele>755</ele>
        <time>2020-02-08T14:13:45Z</time>
      </trkpt>
      <trkpt lat="46.18374" lon="6.32777">
        <ele>752</ele>
        <time>2020-02-08T14:13:49Z</time>
      </trkpt>
      <trkpt lat="46.18406" lon="6.32744">
        <ele>748</ele>
        <time>2020-02-08T14:13:53Z</time>
      </trkpt>
      <trkpt lat="46.18433" lon="6.32716">
        <ele>747</ele>
        <time>2020-02-08T14:13:57Z</time>
      </trkpt>
      <trkpt lat="46.18457" lon="6.32694">
        <ele>745</ele>
        <time>2020-02-08T14:14:01Z</time>
      </trkpt>
      <trkpt lat="46.18487" lon="6.32679">
        <ele>746</ele>
        <time>2020-02-08T14:14:05Z</time>
      </trkpt>
      <trkpt lat="46.18512" lon="6.32662">
        <ele>747</ele>
        <time>2020-02-08T14:14:09Z</time>
      </trkpt>
      <trkpt lat="46.18535" lon="6.32635">
        <ele>745</ele>
        <time>2020-02-08T14:14:13Z</time>
      </trkpt>
      <trkpt lat="46.18567" lon="6.32606">
        <ele>741</ele>
        <time>2020-02-08T14:14:17Z</time>
      </trkpt>
      <trkpt lat="46.18602" lon="6.32587">
        <ele>741</ele>
        <time>2020-02-08T14:14:21Z</time>
      </trkpt>
      <trkpt lat="46.18635" lon="6.3257">
        <ele>740</ele>
        <time>2020-02-08T14:14:25Z</time>
      </trkpt>
      <trkpt lat="46.18666" lon="6.32555">
        <ele>739</ele>
        <time>2020-02-08T14:14:29Z</time>
      </trkpt>
      <trkpt lat="46.18697" lon="6.32541">
        <ele>741</ele>
        <time>2020-02-08T14:14:33Z</time>
      </trkpt>
      <trkpt lat="46.18723" lon="6.32529">
        <ele>743</ele>
        <time>2020-02-08T14:14:37Z</time>
      </trkpt>
      <trkpt lat="46.18747" lon="6.32507">
        <ele>743</ele>
        <time>2020-02-08T14:14:41Z</time>
      </trkpt>
      <trkpt lat="46.18765" lon="6.32474">
        <ele>742</ele>
        <time>2020-02-08T14:14:45Z</time>
      </trkpt>
      <trkpt lat="46.18777" lon="6.32432">
        <ele>741</ele>
        <time>2020-02-08T14:14:49Z</time>
      </trkpt>
      <trkpt lat="46.18792" lon="6.32388">
        <ele>738</ele>
        <time>2020-02-08T14:14:53Z</time>
      </trkpt>
      <trkpt lat="46.18813" lon="6.32349">
        <ele>736</ele>
        <time>2020-02-08T14:14:57Z</time>
      </trkpt>
      <trkpt lat="46.18836" lon="6.3232">
        <ele>737</ele>
        <time>2020-02-08T14:15:01Z</time>
      </trkpt>
      <trkpt lat="46.18855" lon="6.323">
        <ele>738</ele>
        <time>2020-02-08T14:15:05Z</time>
      </trkpt>
      <trkpt lat="46.18872" lon="6.32282">
        <ele>739</ele>
        <time>2020-02-08T14:15:09Z</time>
      </trkpt>
      <trkpt lat="46.18889" lon="6.32264">
        <ele>740</ele>
        <time>2020-02-08T14:15:13Z</time>
      </trkpt>
      <trkpt lat="46.18907" lon="6.32245">
        <ele>739</ele>
        <time>2020-02-08T14:15:17Z</time>
      </trkpt>
      <trkpt lat="46.18924" lon="6.32225">
        <ele>740</ele>
        <time>2020-02-08T14:15:21Z</time>
      </trkpt>
      <trkpt lat="46.18941" lon="6.32205">
        <ele>741</ele>
        <time>2020-02-08T14:15:25Z</time>
      </trkpt>
      <trkpt lat="46.18958" lon="6.32192">
        <ele>743</ele>
        <time>2020-02-08T14:15:29Z</time>
      </trkpt>
      <trkpt lat="46.18971" lon="6.3219">
        <ele>746</ele>
        <time>2020-02-08T14:15:33Z</time>
      </trkpt>
      <trkpt lat="46.18983" lon="6.32189">
        <ele>747</ele>
        <time>2020-02-08T14:15:37Z</time>
      </trkpt>
      <trkpt lat="46.19" lon="6.32181">
        <ele>748</ele>
        <time>2020-02-08T14:15:41Z</time>
      </trkpt>
      <trkpt lat="46.1902" lon="6.32166">
        <ele>747</ele>
        <time>2020-02-08T14:15:45Z</time>
      </trkpt>
      <trkpt lat="46.19042" lon="6.32144">
        <ele>746</ele>
        <time>2020-02-08T14:15:49Z</time>
      </trkpt>
      <trkpt lat="46.19065" lon="6.3212">
        <ele>745</ele>
        <time>2020-02-08T14:15:53Z</time>
      </trkpt>
      <trkpt lat="46.19083" lon="6.32085">
        <ele>743</ele>
        <time>2020-02-08T14:15:57Z</time>
      </trkpt>
      <trkpt lat="46.19105" lon="6.32049">
        <ele>740</ele>
        <time>2020-02-08T14:16:01Z</time>
      </trkpt>
      <trkpt lat="46.19131" lon="6.32015">
        <ele>739</ele>
        <time>2020-02-08T14:16:05Z</time>
      </trkpt>
      <trkpt lat="46.19157" lon="6.31981">
        <ele>737</ele>
        <time>2020-02-08T14:16:09Z</time>
      </trkpt>
      <trkpt lat="46.19175" lon="6.31938">
        <ele>734</ele>
        <time>2020-02-08T14:16:13Z</time>
      </trkpt>
      <trkpt lat="46.19191" lon="6.31902">
        <ele>732</ele>
        <time>2020-02-08T14:16:17Z</time>
      </trkpt>
      <trkpt lat="46.19208" lon="6.31877">
        <ele>732</ele>
        <time>2020-02-08T14:16:21Z</time>
      </trkpt>
      <trkpt lat="46.19223" lon="6.31854">
        <ele>731</ele>
        <time>2020-02-08T14:16:25Z</time>
      </trkpt>
      <trkpt lat="46.1924" lon="6.31837">
        <ele>730</ele>
        <time>2020-02-08T14:16:29Z</time>
      </trkpt>
      <trkpt lat="46.1926" lon="6.31822">
        <ele>730</ele>
        <time>2020-02-08T14:16:33Z</time>
      </trkpt>
      <trkpt lat="46.19276" lon="6.31817">
        <ele>731</ele>
        <time>2020-02-08T14:16:37Z</time>
      </trkpt>
      <trkpt lat="46.19291" lon="6.31814">
        <ele>733</ele>
        <time>2020-02-08T14:16:41Z</time>
      </trkpt>
      <trkpt lat="46.19304" lon="6.3181">
        <ele>734</ele>
        <time>2020-02-08T14:16:45Z</time>
      </trkpt>
      <trkpt lat="46.19319" lon="6.31805">
        <ele>735</ele>
        <time>2020-02-08T14:16:49Z</time>
      </trkpt>
      <trkpt lat="46.19333" lon="6.31799">
        <ele>736</ele>
        <time>2020-02-08T14:16:53Z</time>
      </trkpt>
      <trkpt lat="46.19348" lon="6.31793">
        <ele>737</ele>
        <time>2020-02-08T14:16:57Z</time>
      </trkpt>
      <trkpt lat="46.19361" lon="6.31786">
        <ele>738</ele>
        <time>2020-02-08T14:17:01Z</time>
      </trkpt>
      <trkpt lat="46.19373" lon="6.31782">
        <ele>739</ele>
        <time>2020-02-08T14:17:05Z</time>
      </trkpt>
      <trkpt lat="46.19384" lon="6.31777">
        <ele>740</ele>
        <time>2020-02-08T14:17:09Z</time>
      </trkpt>
      <trkpt lat="46.19396" lon="6.31774">
        <ele>741</ele>
        <time>2020-02-08T14:17:13Z</time>
      </trkpt>
      <trkpt lat="46.19407" lon="6.31769">
        <ele>743</ele>
        <time>2020-02-08T14:17:17Z</time>
      </trkpt>
      <trkpt lat="46.19417" lon="6.31763">
        <ele>744</ele>
        <time>2020-02-08T14:17:21Z</time>
      </trkpt>
      <trkpt lat="46.19426" lon="6.31757">
        <ele>746</ele>
        <time>2020-02-08T14:17:25Z</time>
      </trkpt>
      <trkpt lat="46.19435" lon="6.3175">
        <ele>747</ele>
        <time>2020-02-08T14:17:29Z</time>
      </trkpt>
      <trkpt lat="46.19444" lon="6.31743">
        <ele>748</ele>
        <time>2020-02-08T14:17:33Z</time>
      </trkpt>
      <trkpt lat="46.19453" lon="6.31737">
        <ele>748</ele>
        <time>2020-02-08T14:17:37Z</time>
      </trkpt>
      <trkpt lat="46.19462" lon="6.31729">
        <ele>748</ele>
        <time>2020-02-08T14:17:41Z</time>
      </trkpt>
      <trkpt lat="46.1947" lon="6.31722">
        <ele>747</ele>
        <time>2020-02-08T14:17:45Z</time>
      </trkpt>
      <trkpt lat="46.19479" lon="6.31714">
        <ele>747</ele>
        <time>2020-02-08T14:17:49Z</time>
      </trkpt>
      <trkpt lat="46.19488" lon="6.31707">
        <ele>748</ele>
        <time>2020-02-08T14:17:53Z</time>
      </trkpt>
      <trkpt lat="46.19496" lon="6.317">
        <ele>748</ele>
        <time>2020-02-08T14:17:57Z</time>
      </trkpt>
      <trkpt lat="46.19505" lon="6.31693">
        <ele>749</ele>
        <time>2020-02-08T14:18:01Z</time>
      </trkpt>
      <trkpt lat="46.19514" lon="6.31686">
        <ele>750</ele>
        <time>2020-02-08T14:18:05Z</time>
      </trkpt>
      <trkpt lat="46.19523" lon="6.3168">
        <ele>751</ele>
        <time>2020-02-08T14:18:09Z</time>
      </trkpt>
      <trkpt lat="46.19532" lon="6.31676">
        <ele>752</ele>
        <time>2020-02-08T14:18:13Z</time>
      </trkpt>
      <trkpt lat="46.19541" lon="6.31672">
        <ele>752</ele>
        <time>2020-02-08T14:18:17Z</time>
      </trkpt>
      <trkpt lat="46.1955" lon="6.31668">
        <ele>753</ele>
        <time>2020-02-08T14:18:21Z</time>
      </trkpt>
      <trkpt lat="46.19559" lon="6.31665">
        <ele>754</ele>
        <time>2020-02-08T14:18:25Z</time>
      </trkpt>
      <trkpt lat="46.19568" lon="6.31662">
        <ele>754</ele>
        <time>2020-02-08T14:18:29Z</time>
      </trkpt>
      <trkpt lat="46.19577" lon="6.31661">
        <ele>755</ele>
        <time>2020-02-08T14:18:33Z</time>
      </trkpt>
      <trkpt lat="46.19586" lon="6.31663">
        <ele>756</ele>
        <time>2020-02-08T14:18:37Z</time>
      </trkpt>
      <trkpt lat="46.19594" lon="6.3167">
        <ele>758</ele>
        <time>2020-02-08T14:18:41Z</time>
      </trkpt>
      <trkpt lat="46.19601" lon="6.31678">
        <ele>760</ele>
        <time>2020-02-08T14:18:45Z</time>
      </trkpt>
      <trkpt lat="46.19603" lon="6.31692">
        <ele>762</ele>
        <time>2020-02-08T14:18:49Z</time>
      </trkpt>
      <trkpt lat="46.19605" lon="6.31704">
        <ele>764</ele>
        <time>2020-02-08T14:18:53Z</time>
      </trkpt>
      <trkpt lat="46.19603" lon="6.31717">
        <ele>766</ele>
        <time>2020-02-08T14:18:57Z</time>
      </trkpt>
      <trkpt lat="46.196" lon="6.31728">
        <ele>767</ele>
        <time>2020-02-08T14:19:01Z</time>
      </trkpt>
      <trkpt lat="46.19597" lon="6.3174">
        <ele>767</ele>
        <time>2020-02-08T14:19:05Z</time>
      </trkpt>
      <trkpt lat="46.19593" lon="6.31752">
        <ele>768</ele>
        <time>2020-02-08T14:19:09Z</time>
      </trkpt>
      <trkpt lat="46.19589" lon="6.31764">
        <ele>769</ele>
        <time>2020-02-08T14:19:13Z</time>
      </trkpt>
      <trkpt lat="46.19585" lon="6.31776">
        <ele>769</ele>
        <time>2020-02-08T14:19:17Z</time>
      </trkpt>
      <trkpt lat="46.19579" lon="6.31791">
        <ele>771</ele>
        <time>2020-02-08T14:19:21Z</time>
      </trkpt>
      <trkpt lat="46.19574" lon="6.31803">
        <ele>771</ele>
        <time>2020-02-08T14:19:25Z</time>
      </trkpt>
      <trkpt lat="46.1957" lon="6.31816">
        <ele>772</ele>
        <time>2020-02-08T14:19:29Z</time>
      </trkpt>
      <trkpt lat="46.19566" lon="6.31829">
        <ele>773</ele>
        <time>2020-02-08T14:19:33Z</time>
      </trkpt>
      <trkpt lat="46.19562" lon="6.3184">
        <ele>773</ele>
        <time>2020-02-08T14:19:37Z</time>
      </trkpt>
      <trkpt lat="46.19558" lon="6.31852">
        <ele>773</ele>
        <time>2020-02-08T14:19:41Z</time>
      </trkpt>
      <trkpt lat="46.19555" lon="6.31865">
        <ele>774</ele>
        <time>2020-02-08T14:19:45Z</time>
      </trkpt>
      <trkpt lat="46.1955" lon="6.31876">
        <ele>774</ele>
        <time>2020-02-08T14:19:49Z</time>
      </trkpt>
      <trkpt lat="46.19546" lon="6.31888">
        <ele>774</ele>
        <time>2020-02-08T14:19:53Z</time>
      </trkpt>
      <trkpt lat="46.19541" lon="6.31899">
        <ele>775</ele>
        <time>2020-02-08T14:19:57Z</time>
      </trkpt>
      <trkpt lat="46.19535" lon="6.31909">
        <ele>776</ele>
        <time>2020-02-08T14:20:01Z</time>
      </trkpt>
      <trkpt lat="46.19528" lon="6.31918">
        <ele>776</ele>
        <time>2020-02-08T14:20:05Z</time>
      </trkpt>
      <trkpt lat="46.1952" lon="6.31927">
        <ele>776</ele>
        <time>2020-02-08T14:20:09Z</time>
      </trkpt>
      <trkpt lat="46.19513" lon="6.31934">
        <ele>776</ele>
        <time>2020-02-08T14:20:13Z</time>
      </trkpt>
      <trkpt lat="46.19506" lon="6.3194">
        <ele>776</ele>
        <time>2020-02-08T14:20:17Z</time>
      </trkpt>
      <trkpt lat="46.19498" lon="6.31948">
        <ele>777</ele>
        <time>2020-02-08T14:20:21Z</time>
      </trkpt>
      <trkpt lat="46.19493" lon="6.31958">
        <ele>779</ele>
        <time>2020-02-08T14:20:25Z</time>
      </trkpt>
      <trkpt lat="46.19492" lon="6.31971">
        <ele>781</ele>
        <time>2020-02-08T14:20:29Z</time>
      </trkpt>
      <trkpt lat="46.19495" lon="6.31983">
        <ele>784</ele>
        <time>2020-02-08T14:20:33Z</time>
      </trkpt>
      <trkpt lat="46.19502" lon="6.31989">
        <ele>786</ele>
        <time>2020-02-08T14:20:37Z</time>
      </trkpt>
      <trkpt lat="46.19509" lon="6.3199">
        <ele>787</ele>
        <time>2020-02-08T14:20:41Z</time>
      </trkpt>
      <trkpt lat="46.19518" lon="6.31986">
        <ele>786</ele>
        <time>2020-02-08T14:20:45Z</time>
      </trkpt>
      <trkpt lat="46.19526" lon="6.31981">
        <ele>785</ele>
        <time>2020-02-08T14:20:49Z</time>
      </trkpt>
      <trkpt lat="46.19534" lon="6.31976">
        <ele>785</ele>
        <time>2020-02-08T14:20:53Z</time>
      </trkpt>
      <trkpt lat="46.19543" lon="6.31972">
        <ele>786</ele>
        <time>2020-02-08T14:20:57Z</time>
      </trkpt>
      <trkpt lat="46.19551" lon="6.31968">
        <ele>787</ele>
        <time>2020-02-08T14:21:01Z</time>
      </trkpt>
      <trkpt lat="46.1956" lon="6.31964">
        <ele>788</ele>
        <time>2020-02-08T14:21:05Z</time>
      </trkpt>
      <trkpt lat="46.19568" lon="6.3196">
        <ele>789</ele>
        <time>2020-02-08T14:21:09Z</time>
      </trkpt>
      <trkpt lat="46.19577" lon="6.31956">
        <ele>790</ele>
        <time>2020-02-08T14:21:13Z</time>
      </trkpt>
      <trkpt lat="46.19585" lon="6.31953">
        <ele>791</ele>
        <time>2020-02-08T14:21:17Z</time>
      </trkpt>
      <trkpt lat="46.19594" lon="6.3195">
        <ele>792</ele>
        <time>2020-02-08T14:21:21Z</time>
      </trkpt>
      <trkpt lat="46.19603" lon="6.31949">
        <ele>793</ele>
        <time>2020-02-08T14:21:25Z</time>
      </trkpt>
      <trkpt lat="46.19612" lon="6.31946">
        <ele>794</ele>
        <time>2020-02-08T14:21:29Z</time>
      </trkpt>
      <trkpt lat="46.1962" lon="6.31945">
        <ele>795</ele>
        <time>2020-02-08T14:21:33Z</time>
      </trkpt>
      <trkpt lat="46.19629" lon="6.31945">
        <ele>795</ele>
        <time>2020-02-08T14:21:37Z</time>
      </trkpt>
      <trkpt lat="46.19638" lon="6.31945">
        <ele>797</ele>
        <time>2020-02-08T14:21:41Z</time>
      </trkpt>
      <trkpt lat="46.19647" lon="6.31946">
        <ele>797</ele>
        <time>2020-02-08T14:21:45Z</time>
      </trkpt>
      <trkpt lat="46.19656" lon="6.31947">
        <ele>798</ele>
        <time>2020-02-08T14:21:49Z</time>
      </trkpt>
      <trkpt lat="46.19665" lon="6.31948">
        <ele>799</ele>
        <time>2020-02-08T14:21:53Z</time>
      </trkpt>
      <trkpt lat="46.19672" lon="6.31951">
        <ele>801</ele>
        <time>2020-02-08T14:21:57Z</time>
      </trkpt>
      <trkpt lat="46.1968" lon="6.31955">
        <ele>802</ele>
        <time>2020-02-08T14:22:01Z</time>
      </trkpt>
      <trkpt lat="46.19688" lon="6.31958">
        <ele>804</ele>
        <time>2020-02-08T14:22:05Z</time>
      </trkpt>
      <trkpt lat="46.19696" lon="6.31961">
        <ele>805</ele>
        <time>2020-02-08T14:22:09Z</time>
      </trkpt>
      <trkpt lat="46.19703" lon="6.31964">
        <ele>806</ele>
        <time>2020-02-08T14:22:13Z</time>
      </trkpt>
      <trkpt lat="46.19712" lon="6.31965">
        <ele>807</ele>
        <time>2020-02-08T14:22:17Z</time>
      </trkpt>
      <trkpt lat="46.19721" lon="6.31965">
        <ele>807</ele>
        <time>2020-02-08T14:22:21Z</time>
      </trkpt>
      <trkpt lat="46.1973" lon="6.31965">
        <ele>808</ele>
        <time>2020-02-08T14:22:25Z</time>
      </trkpt>
      <trkpt lat="46.1974" lon="6.31964">
        <ele>808</ele>
        <time>2020-02-08T14:22:29Z</time>
      </trkpt>
      <trkpt lat="46.19748" lon="6.31964">
        <ele>809</ele>
        <time>2020-02-08T14:22:33Z</time>
      </trkpt>
      <trkpt lat="46.19756" lon="6.31963">
        <ele>809</ele>
        <time>2020-02-08T14:22:37Z</time>
      </trkpt>
      <trkpt lat="46.19765" lon="6.31963">
        <ele>810</ele>
        <time>2020-02-08T14:22:41Z</time>
      </trkpt>
      <trkpt lat="46.19773" lon="6.31963">
        <ele>811</ele>
        <time>2020-02-08T14:22:45Z</time>
      </trkpt>
      <trkpt lat="46.19783" lon="6.31963">
        <ele>813</ele>
        <time>2020-02-08T14:22:49Z</time>
      </trkpt>
      <trkpt lat="46.19792" lon="6.31962">
        <ele>814</ele>
        <time>2020-02-08T14:22:53Z</time>
      </trkpt>
      <trkpt lat="46.19801" lon="6.31961">
        <ele>815</ele>
        <time>2020-02-08T14:22:57Z</time>
      </trkpt>
      <trkpt lat="46.1981" lon="6.3196">
        <ele>816</ele>
        <time>2020-02-08T14:23:01Z</time>
      </trkpt>
      <trkpt lat="46.19819" lon="6.31959">
        <ele>817</ele>
        <time>2020-02-08T14:23:05Z</time>
      </trkpt>
      <trkpt lat="46.19827" lon="6.31957">
        <ele>818</ele>
        <time>2020-02-08T14:23:09Z</time>
      </trkpt>
      <trkpt lat="46.19836" lon="6.31954">
        <ele>819</ele>
        <time>2020-02-08T14:23:13Z</time>
      </trkpt>
      <trkpt lat="46.19845" lon="6.31952">
        <ele>819</ele>
        <time>2020-02-08T14:23:17Z</time>
      </trkpt>
      <trkpt lat="46.19853" lon="6.31949">
        <ele>820</ele>
        <time>2020-02-08T14:23:21Z</time>
      </trkpt>
      <trkpt lat="46.19861" lon="6.31946">
        <ele>821</ele>
        <time>2020-02-08T14:23:25Z</time>
      </trkpt>
      <trkpt lat="46.1987" lon="6.31943">
        <ele>822</ele>
        <time>2020-02-08T14:23:29Z</time>
      </trkpt>
      <trkpt lat="46.19878" lon="6.3194">
        <ele>823</ele>
        <time>2020-02-08T14:23:33Z</time>
      </trkpt>
      <trkpt lat="46.19886" lon="6.31936">
        <ele>825</ele>
        <time>2020-02-08T14:23:37Z</time>
      </trkpt>
      <trkpt lat="46.19895" lon="6.31933">
        <ele>826</ele>
        <time>2020-02-08T14:23:41Z</time>
      </trkpt>
      <trkpt lat="46.19903" lon="6.31928">
        <ele>826</ele>
        <time>2020-02-08T14:23:45Z</time>
      </trkpt>
      <trkpt lat="46.19911" lon="6.31924">
        <ele>827</ele>
        <time>2020-02-08T14:23:49Z</time>
      </trkpt>
      <trkpt lat="46.19919" lon="6.3192">
        <ele>827</ele>
        <time>2020-02-08T14:23:53Z</time>
      </trkpt>
      <trkpt lat="46.19927" lon="6.31916">
        <ele>828</ele>
        <time>2020-02-08T14:23:57Z</time>
      </trkpt>
      <trkpt lat="46.19934" lon="6.31911">
        <ele>829</ele>
        <time>2020-02-08T14:24:01Z</time>
      </trkpt>
      <trkpt lat="46.19942" lon="6.31906">
        <ele>829</ele>
        <time>2020-02-08T14:24:05Z</time>
      </trkpt>
      <trkpt lat="46.1995" lon="6.31901">
        <ele>830</ele>
        <time>2020-02-08T14:24:09Z</time>
      </trkpt>
      <trkpt lat="46.19958" lon="6.31895">
        <ele>831</ele>
        <time>2020-02-08T14:24:13Z</time>
      </trkpt>
      <trkpt lat="46.19966" lon="6.31891">
        <ele>832</ele>
        <time>2020-02-08T14:24:17Z</time>
      </trkpt>
      <trkpt lat="46.19975" lon="6.31888">
        <ele>833</ele>
        <time>2020-02-08T14:24:21Z</time>
      </trkpt>
      <trkpt lat="46.19985" lon="6.31889">
        <ele>834</ele>
        <time>2020-02-08T14:24:25Z</time>
      </trkpt>
      <trkpt lat="46.19994" lon="6.31894">
        <ele>835</ele>
        <time>2020-02-08T14:24:29Z</time>
      </trkpt>
      <trkpt lat="46.20001" lon="6.31902">
        <ele>837</ele>
        <time>2020-02-08T14:24:33Z</time>
      </trkpt>
      <trkpt lat="46.20006" lon="6.31915">
        <ele>838</ele>
        <time>2020-02-08T14:24:37Z</time>
      </trkpt>
      <trkpt lat="46.20011" lon="6.31929">
        <ele>838</ele>
        <time>2020-02-08T14:24:41Z</time>
      </trkpt>
      <trkpt lat="46.20017" lon="6.31942">
        <ele>838</ele>
        <time>2020-02-08T14:24:45Z</time>
      </trkpt>
      <trkpt lat="46.20022" lon="6.31958">
        <ele>838</ele>
        <time>2020-02-08T14:24:49Z</time>
      </trkpt>
      <trkpt lat="46.20028" lon="6.31971">
        <ele>838</ele>
        <time>2020-02-08T14:24:53Z</time>
      </trkpt>
      <trkpt lat="46.20035" lon="6.31985">
        <ele>838</ele>
        <time>2020-02-08T14:24:57Z</time>
      </trkpt>
      <trkpt lat="46.20043" lon="6.32003">
        <ele>839</ele>
        <time>2020-02-08T14:25:01Z</time>
      </trkpt>
      <trkpt lat="46.20054" lon="6.32021">
        <ele>840</ele>
        <time>2020-02-08T14:25:05Z</time>
      </trkpt>
      <trkpt lat="46.20068" lon="6.32034">
        <ele>841</ele>
        <time>2020-02-08T14:25:09Z</time>
      </trkpt>
      <trkpt lat="46.20083" lon="6.32046">
        <ele>841</ele>
        <time>2020-02-08T14:25:13Z</time>
      </trkpt>
      <trkpt lat="46.20098" lon="6.32058">
        <ele>842</ele>
        <time>2020-02-08T14:25:17Z</time>
      </trkpt>
      <trkpt lat="46.20111" lon="6.3207">
        <ele>844</ele>
        <time>2020-02-08T14:25:21Z</time>
      </trkpt>
      <trkpt lat="46.20122" lon="6.32081">
        <ele>845</ele>
        <time>2020-02-08T14:25:25Z</time>
      </trkpt>
      <trkpt lat="46.20133" lon="6.32089">
        <ele>846</ele>
        <time>2020-02-08T14:25:29Z</time>
      </trkpt>
      <trkpt lat="46.20145" lon="6.32095">
        <ele>847</ele>
        <time>2020-02-08T14:25:33Z</time>
      </trkpt>
      <trkpt lat="46.20156" lon="6.321">
        <ele>848</ele>
        <time>2020-02-08T14:25:37Z</time>
      </trkpt>
      <trkpt lat="46.20167" lon="6.32106">
        <ele>850</ele>
        <time>2020-02-08T14:25:41Z</time>
      </trkpt>
      <trkpt lat="46.20178" lon="6.32111">
        <ele>852</ele>
        <time>2020-02-08T14:25:45Z</time>
      </trkpt>
      <trkpt lat="46.20187" lon="6.32115">
        <ele>855</ele>
        <time>2020-02-08T14:25:49Z</time>
      </trkpt>
      <trkpt lat="46.20197" lon="6.32114">
        <ele>854</ele>
        <time>2020-02-08T14:25:53Z</time>
      </trkpt>
      <trkpt lat="46.20205" lon="6.32095">
        <ele>847</ele>
        <time>2020-02-08T14:25:57Z</time>
      </trkpt>
      <trkpt lat="46.20223" lon="6.32079">
        <ele>843</ele>
        <time>2020-02-08T14:26:01Z</time>
      </trkpt>
      <trkpt lat="46.2025" lon="6.32069">
        <ele>841</ele>
        <time>2020-02-08T14:26:05Z</time>
      </trkpt>
      <trkpt lat="46.20281" lon="6.32056">
        <ele>840</ele>
        <time>2020-02-08T14:26:09Z</time>
      </trkpt>
      <trkpt lat="46.20311" lon="6.32044">
        <ele>841</ele>
        <time>2020-02-08T14:26:13Z</time>
      </trkpt>
      <trkpt lat="46.20335" lon="6.32023">
        <ele>841</ele>
        <time>2020-02-08T14:26:17Z</time>
      </trkpt>
      <trkpt lat="46.20334" lon="6.31989">
        <ele>838</ele>
        <time>2020-02-08T14:26:21Z</time>
      </trkpt>
      <trkpt lat="46.2033" lon="6.31954">
        <ele>835</ele>
        <time>2020-02-08T14:26:25Z</time>
      </trkpt>
      <trkpt lat="46.20323" lon="6.31925">
        <ele>834</ele>
        <time>2020-02-08T14:26:29Z</time>
      </trkpt>
      <trkpt lat="46.20312" lon="6.31901">
        <ele>834</ele>
        <time>2020-02-08T14:26:33Z</time>
      </trkpt>
      <trkpt lat="46.20299" lon="6.31878">
        <ele>835</ele>
        <time>2020-02-08T14:26:37Z</time>
      </trkpt>
      <trkpt lat="46.20288" lon="6.31854">
        <ele>836</ele>
        <time>2020-02-08T14:26:41Z</time>
      </trkpt>
      <trkpt lat="46.2028" lon="6.3183">
        <ele>838</ele>
        <time>2020-02-08T14:26:45Z</time>
      </trkpt>
      <trkpt lat="46.20272" lon="6.31807">
        <ele>838</ele>
        <time>2020-02-08T14:26:49Z</time>
      </trkpt>
      <trkpt lat="46.20262" lon="6.31783">
        <ele>837</ele>
        <time>2020-02-08T14:26:53Z</time>
      </trkpt>
      <trkpt lat="46.20252" lon="6.31757">
        <ele>837</ele>
        <time>2020-02-08T14:26:57Z</time>
      </trkpt>
      <trkpt lat="46.20241" lon="6.31721">
        <ele>835</ele>
        <time>2020-02-08T14:27:01Z</time>
      </trkpt>
      <trkpt lat="46.2023" lon="6.31676">
        <ele>831</ele>
        <time>2020-02-08T14:27:05Z</time>
      </trkpt>
      <trkpt lat="46.20219" lon="6.31635">
        <ele>827</ele>
        <time>2020-02-08T14:27:09Z</time>
      </trkpt>
      <trkpt lat="46.20191" lon="6.31612">
        <ele>822</ele>
        <time>2020-02-08T14:27:13Z</time>
      </trkpt>
      <trkpt lat="46.20163" lon="6.3158">
        <ele>815</ele>
        <time>2020-02-08T14:27:17Z</time>
      </trkpt>
      <trkpt lat="46.20147" lon="6.31542">
        <ele>811</ele>
        <time>2020-02-08T14:27:21Z</time>
      </trkpt>
      <trkpt lat="46.20152" lon="6.31486">
        <ele>807</ele>
        <time>2020-02-08T14:27:25Z</time>
      </trkpt>
      <trkpt lat="46.20161" lon="6.31418">
        <ele>800</ele>
        <time>2020-02-08T14:27:29Z</time>
      </trkpt>
      <trkpt lat="46.20169" lon="6.31355">
        <ele>794</ele>
        <time>2020-02-08T14:27:33Z</time>
      </trkpt>
      <trkpt lat="46.20161" lon="6.31287">
        <ele>785</ele>
        <time>2020-02-08T14:27:37Z</time>
      </trkpt>
      <trkpt lat="46.20149" lon="6.31223">
        <ele>779</ele>
        <time>2020-02-08T14:27:41Z</time>
      </trkpt>
      <trkpt lat="46.20148" lon="6.3117">
        <ele>778</ele>
        <time>2020-02-08T14:27:45Z</time>
      </trkpt>
      <trkpt lat="46.20146" lon="6.31126">
        <ele>777</ele>
        <time>2020-02-08T14:27:49Z</time>
      </trkpt>
      <trkpt lat="46.2015" lon="6.31084">
        <ele>774</ele>
        <time>2020-02-08T14:27:53Z</time>
      </trkpt>
      <trkpt lat="46.20161" lon="6.31038">
        <ele>768</ele>
        <time>2020-02-08T14:27:57Z</time>
      </trkpt>
      <trkpt lat="46.20185" lon="6.30998">
        <ele>760</ele>
        <time>2020-02-08T14:28:01Z</time>
      </trkpt>
      <trkpt lat="46.20218" lon="6.30957">
        <ele>755</ele>
        <time>2020-02-08T14:28:05Z</time>
      </trkpt>
      <trkpt lat="46.20248" lon="6.30904">
        <ele>751</ele>
        <time>2020-02-08T14:28:09Z</time>
      </trkpt>
      <trkpt lat="46.20276" lon="6.30854">
        <ele>745</ele>
        <time>2020-02-08T14:28:13Z</time>
      </trkpt>
      <trkpt lat="46.20303" lon="6.3081">
        <ele>740</ele>
        <time>2020-02-08T14:28:17Z</time>
      </trkpt>
      <trkpt lat="46.20303" lon="6.30764">
        <ele>737</ele>
        <time>2020-02-08T14:28:21Z</time>
      </trkpt>
      <trkpt lat="46.20269" lon="6.30733">
        <ele>733</ele>
        <time>2020-02-08T14:28:25Z</time>
      </trkpt>
      <trkpt lat="46.20231" lon="6.30704">
        <ele>727</ele>
        <time>2020-02-08T14:28:29Z</time>
      </trkpt>
      <trkpt lat="46.20191" lon="6.30672">
        <ele>721</ele>
        <time>2020-02-08T14:28:33Z</time>
      </trkpt>
      <trkpt lat="46.2016" lon="6.30646">
        <ele>718</ele>
        <time>2020-02-08T14:28:37Z</time>
      </trkpt>
      <trkpt lat="46.20145" lon="6.30605">
        <ele>714</ele>
        <time>2020-02-08T14:28:41Z</time>
      </trkpt>
      <trkpt lat="46.20118" lon="6.30573">
        <ele>709</ele>
        <time>2020-02-08T14:28:45Z</time>
      </trkpt>
      <trkpt lat="46.20081" lon="6.30544">
        <ele>705</ele>
        <time>2020-02-08T14:28:49Z</time>
      </trkpt>
      <trkpt lat="46.20042" lon="6.30512">
        <ele>701</ele>
        <time>2020-02-08T14:28:53Z</time>
      </trkpt>
      <trkpt lat="46.20008" lon="6.30486">
        <ele>698</ele>
        <time>2020-02-08T14:28:57Z</time>
      </trkpt>
      <trkpt lat="46.19973" lon="6.3046">
        <ele>695</ele>
        <time>2020-02-08T14:29:01Z</time>
      </trkpt>
      <trkpt lat="46.19935" lon="6.30431">
        <ele>690</ele>
        <time>2020-02-08T14:29:05Z</time>
      </trkpt>
      <trkpt lat="46.19897" lon="6.30408">
        <ele>687</ele>
        <time>2020-02-08T14:29:09Z</time>
      </trkpt>
      <trkpt lat="46.19853" lon="6.30405">
        <ele>682</ele>
        <time>2020-02-08T14:29:13Z</time>
      </trkpt>
      <trkpt lat="46.19812" lon="6.30429">
        <ele>681</ele>
        <time>2020-02-08T14:29:17Z</time>
      </trkpt>
      <trkpt lat="46.1977" lon="6.30451">
        <ele>679</ele>
        <time>2020-02-08T14:29:21Z</time>
      </trkpt>
      <trkpt lat="46.19725" lon="6.30464">
        <ele>676</ele>
        <time>2020-02-08T14:29:25Z</time>
      </trkpt>
      <trkpt lat="46.19691" lon="6.30468">
        <ele>671</ele>
        <time>2020-02-08T14:29:29Z</time>
      </trkpt>
      <trkpt lat="46.1967" lon="6.30444">
        <ele>666</ele>
        <time>2020-02-08T14:29:33Z</time>
      </trkpt>
      <trkpt lat="46.19678" lon="6.30404">
        <ele>662</ele>
        <time>2020-02-08T14:29:37Z</time>
      </trkpt>
      <trkpt lat="46.1971" lon="6.30375">
        <ele>662</ele>
        <time>2020-02-08T14:29:41Z</time>
      </trkpt>
      <trkpt lat="46.19734" lon="6.30323">
        <ele>657</ele>
        <time>2020-02-08T14:29:45Z</time>
      </trkpt>
      <trkpt lat="46.19756" lon="6.30265">
        <ele>652</ele>
        <time>2020-02-08T14:29:49Z</time>
      </trkpt>
      <trkpt lat="46.1978" lon="6.30202">
        <ele>647</ele>
        <time>2020-02-08T14:29:53Z</time>
      </trkpt>
      <trkpt lat="46.19806" lon="6.30146">
        <ele>637</ele>
        <time>2020-02-08T14:29:57Z</time>
      </trkpt>
      <trkpt lat="46.19841" lon="6.30097">
        <ele>635</ele>
        <time>2020-02-08T14:30:01Z</time>
      </trkpt>
      <trkpt lat="46.19878" lon="6.30049">
        <ele>630</ele>
        <time>2020-02-08T14:30:05Z</time>
      </trkpt>
      <trkpt lat="46.19907" lon="6.30013">
        <ele>626</ele>
        <time>2020-02-08T14:30:09Z</time>
      </trkpt>
      <trkpt lat="46.19899" lon="6.29974">
        <ele>621</ele>
        <time>2020-02-08T14:30:13Z</time>
      </trkpt>
      <trkpt lat="46.19864" lon="6.29948">
        <ele>616</ele>
        <time>2020-02-08T14:30:17Z</time>
      </trkpt>
      <trkpt lat="46.19821" lon="6.29921">
        <ele>609</ele>
        <time>2020-02-08T14:30:21Z</time>
      </trkpt>
      <trkpt lat="46.19779" lon="6.29901">
        <ele>607</ele>
        <time>2020-02-08T14:30:25Z</time>
      </trkpt>
      <trkpt lat="46.19746" lon="6.29885">
        <ele>602</ele>
        <time>2020-02-08T14:30:29Z</time>
      </trkpt>
      <trkpt lat="46.19725" lon="6.29856">
        <ele>598</ele>
        <time>2020-02-08T14:30:33Z</time>
      </trkpt>
      <trkpt lat="46.1971" lon="6.29822">
        <ele>597</ele>
        <time>2020-02-08T14:30:37Z</time>
      </trkpt>
      <trkpt lat="46.19697" lon="6.29788">
        <ele>596</ele>
        <time>2020-02-08T14:30:41Z</time>
      </trkpt>
      <trkpt lat="46.19685" lon="6.29759">
        <ele>594</ele>
        <time>2020-02-08T14:30:45Z</time>
      </trkpt>
      <trkpt lat="46.19686" lon="6.29733">
        <ele>593</ele>
        <time>2020-02-08T14:30:49Z</time>
      </trkpt>
      <trkpt lat="46.197" lon="6.29723">
        <ele>593</ele>
        <time>2020-02-08T14:30:53Z</time>
      </trkpt>
      <trkpt lat="46.19714" lon="6.29718">
        <ele>594</ele>
        <time>2020-02-08T14:30:57Z</time>
      </trkpt>
      <trkpt lat="46.19724" lon="6.2971">
        <ele>595</ele>
        <time>2020-02-08T14:31:01Z</time>
      </trkpt>
      <trkpt lat="46.19735" lon="6.29706">
        <ele>596</ele>
        <time>2020-02-08T14:31:05Z</time>
      </trkpt>
      <trkpt lat="46.19748" lon="6.29703">
        <ele>596</ele>
        <time>2020-02-08T14:31:09Z</time>
      </trkpt>
      <trkpt lat="46.1976" lon="6.297">
        <ele>596</ele>
        <time>2020-02-08T14:31:13Z</time>
      </trkpt>
      <trkpt lat="46.19776" lon="6.29703">
        <ele>595</ele>
        <time>2020-02-08T14:31:17Z</time>
      </trkpt>
      <trkpt lat="46.19793" lon="6.29702">
        <ele>595</ele>
        <time>2020-02-08T14:31:21Z</time>
      </trkpt>
      <trkpt lat="46.19811" lon="6.29701">
        <ele>594</ele>
        <time>2020-02-08T14:31:25Z</time>
      </trkpt>
      <trkpt lat="46.19834" lon="6.29698">
        <ele>594</ele>
        <time>2020-02-08T14:31:29Z</time>
      </trkpt>
      <trkpt lat="46.19862" lon="6.29695">
        <ele>594</ele>
        <time>2020-02-08T14:31:33Z</time>
      </trkpt>
      <trkpt lat="46.19892" lon="6.29692">
        <ele>592</ele>
        <time>2020-02-08T14:31:37Z</time>
      </trkpt>
      <trkpt lat="46.19924" lon="6.29692">
        <ele>589</ele>
        <time>2020-02-08T14:31:41Z</time>
      </trkpt>
      <trkpt lat="46.19957" lon="6.29685">
        <ele>587</ele>
        <time>2020-02-08T14:31:45Z</time>
      </trkpt>
      <trkpt lat="46.19992" lon="6.2968">
        <ele>585</ele>
        <time>2020-02-08T14:31:49Z</time>
      </trkpt>
      <trkpt lat="46.20029" lon="6.29685">
        <ele>585</ele>
        <time>2020-02-08T14:31:53Z</time>
      </trkpt>
      <trkpt lat="46.20065" lon="6.29692">
        <ele>586</ele>
        <time>2020-02-08T14:31:57Z</time>
      </trkpt>
      <trkpt lat="46.20103" lon="6.29698">
        <ele>585</ele>
        <time>2020-02-08T14:32:01Z</time>
      </trkpt>
      <trkpt lat="46.20142" lon="6.29704">
        <ele>585</ele>
        <time>2020-02-08T14:32:05Z</time>
      </trkpt>
      <trkpt lat="46.20183" lon="6.29719">
        <ele>582</ele>
        <time>2020-02-08T14:32:09Z</time>
      </trkpt>
      <trkpt lat="46.20222" lon="6.29724">
        <ele>579</ele>
        <time>2020-02-08T14:32:13Z</time>
      </trkpt>
      <trkpt lat="46.20269" lon="6.29714">
        <ele>574</ele>
        <time>2020-02-08T14:32:17Z</time>
      </trkpt>
      <trkpt lat="46.20318" lon="6.29709">
        <ele>565</ele>
        <time>2020-02-08T14:32:21Z</time>
      </trkpt>
      <trkpt lat="46.20372" lon="6.29718">
        <ele>557</ele>
        <time>2020-02-08T14:32:25Z</time>
      </trkpt>
      <trkpt lat="46.20428" lon="6.29724">
        <ele>552</ele>
        <time>2020-02-08T14:32:29Z</time>
      </trkpt>
      <trkpt lat="46.20481" lon="6.2972">
        <ele>550</ele>
        <time>2020-02-08T14:32:33Z</time>
      </trkpt>
      <trkpt lat="46.20536" lon="6.29712">
        <ele>547</ele>
        <time>2020-02-08T14:32:37Z</time>
      </trkpt>
      <trkpt lat="46.20593" lon="6.29715">
        <ele>538</ele>
        <time>2020-02-08T14:32:41Z</time>
      </trkpt>
      <trkpt lat="46.2065" lon="6.29719">
        <ele>535</ele>
        <time>2020-02-08T14:32:45Z</time>
      </trkpt>
      <trkpt lat="46.20703" lon="6.29723">
        <ele>536</ele>
        <time>2020-02-08T14:32:49Z</time>
      </trkpt>
      <trkpt lat="46.20752" lon="6.29726">
        <ele>535</ele>
        <time>2020-02-08T14:32:53Z</time>
      </trkpt>
      <trkpt lat="46.20796" lon="6.2973">
        <ele>535</ele>
        <time>2020-02-08T14:32:57Z</time>
      </trkpt>
      <trkpt lat="46.20833" lon="6.29737">
        <ele>536</ele>
        <time>2020-02-08T14:33:01Z</time>
      </trkpt>
      <trkpt lat="46.20869" lon="6.29749">
        <ele>537</ele>
        <time>2020-02-08T14:33:05Z</time>
      </trkpt>
      <trkpt lat="46.20903" lon="6.29763">
        <ele>535</ele>
        <time>2020-02-08T14:33:09Z</time>
      </trkpt>
      <trkpt lat="46.20931" lon="6.29789">
        <ele>538</ele>
        <time>2020-02-08T14:33:13Z</time>
      </trkpt>
      <trkpt lat="46.20959" lon="6.29817">
        <ele>542</ele>
        <time>2020-02-08T14:33:17Z</time>
      </trkpt>
      <trkpt lat="46.2099" lon="6.29841">
        <ele>545</ele>
        <time>2020-02-08T14:33:21Z</time>
      </trkpt>
      <trkpt lat="46.21019" lon="6.29871">
        <ele>545</ele>
        <time>2020-02-08T14:33:25Z</time>
      </trkpt>
      <trkpt lat="46.21043" lon="6.29902">
        <ele>543</ele>
        <time>2020-02-08T14:33:29Z</time>
      </trkpt>
      <trkpt lat="46.21066" lon="6.29934">
        <ele>542</ele>
        <time>2020-02-08T14:33:33Z</time>
      </trkpt>
      <trkpt lat="46.21089" lon="6.29966">
        <ele>542</ele>
        <time>2020-02-08T14:33:37Z</time>
      </trkpt>
      <trkpt lat="46.21114" lon="6.2999">
        <ele>538</ele>
        <time>2020-02-08T14:33:41Z</time>
      </trkpt>
      <trkpt lat="46.21138" lon="6.30013">
        <ele>536</ele>
        <time>2020-02-08T14:33:45Z</time>
      </trkpt>
      <trkpt lat="46.21164" lon="6.30031">
        <ele>533</ele>
        <time>2020-02-08T14:33:49Z</time>
      </trkpt>
      <trkpt lat="46.21191" lon="6.30034">
        <ele>533</ele>
        <time>2020-02-08T14:33:53Z</time>
      </trkpt>
      <trkpt lat="46.21202" lon="6.30008">
        <ele>532</ele>
        <time>2020-02-08T14:33:57Z</time>
      </trkpt>
      <trkpt lat="46.21206" lon="6.2998">
        <ele>533</ele>
        <time>2020-02-08T14:34:01Z</time>
      </trkpt>
      <trkpt lat="46.21215" lon="6.2996">
        <ele>534</ele>
        <time>2020-02-08T14:34:05Z</time>
      </trkpt>
      <trkpt lat="46.21225" lon="6.29944">
        <ele>535</ele>
        <time>2020-02-08T14:34:09Z</time>
      </trkpt>
      <trkpt lat="46.21237" lon="6.2993">
        <ele>535</ele>
        <time>2020-02-08T14:34:13Z</time>
      </trkpt>
      <trkpt lat="46.2125" lon="6.29919">
        <ele>535</ele>
        <time>2020-02-08T14:34:17Z</time>
      </trkpt>
      <trkpt lat="46.21262" lon="6.29906">
        <ele>534</ele>
        <time>2020-02-08T14:34:21Z</time>
      </trkpt>
      <trkpt lat="46.21275" lon="6.29893">
        <ele>534</ele>
        <time>2020-02-08T14:34:25Z</time>
      </trkpt>
      <trkpt lat="46.21289" lon="6.29879">
        <ele>534</ele>
        <time>2020-02-08T14:34:29Z</time>
      </trkpt>
      <trkpt lat="46.21307" lon="6.29862">
        <ele>535</ele>
        <time>2020-02-08T14:34:33Z</time>
      </trkpt>
      <trkpt lat="46.21329" lon="6.29843">
        <ele>536</ele>
        <time>2020-02-08T14:34:37Z</time>
      </trkpt>
      <trkpt lat="46.21349" lon="6.2982">
        <ele>537</ele>
        <time>2020-02-08T14:34:41Z</time>
      </trkpt>
      <trkpt lat="46.21329" lon="6.29797">
        <ele>537</ele>
        <time>2020-02-08T14:34:45Z</time>
      </trkpt>
      <trkpt lat="46.21305" lon="6.29777">
        <ele>537</ele>
        <time>2020-02-08T14:34:49Z</time>
      </trkpt>
      <trkpt lat="46.2128" lon="6.29754">
        <ele>536</ele>
        <time>2020-02-08T14:34:53Z</time>
      </trkpt>
      <trkpt lat="46.21256" lon="6.29732">
        <ele>537</ele>
        <time>2020-02-08T14:34:57Z</time>
      </trkpt>
      <trkpt lat="46.21232" lon="6.29709">
        <ele>538</ele>
        <time>2020-02-08T14:35:01Z</time>
      </trkpt>
      <trkpt lat="46.2121" lon="6.29687">
        <ele>539</ele>
        <time>2020-02-08T14:35:05Z</time>
      </trkpt>
      <trkpt lat="46.21189" lon="6.29665">
        <ele>537</ele>
        <time>2020-02-08T14:35:09Z</time>
      </trkpt>
      <trkpt lat="46.2117" lon="6.29641">
        <ele>537</ele>
        <time>2020-02-08T14:35:13Z</time>
      </trkpt>
      <trkpt lat="46.2115" lon="6.29619">
        <ele>539</ele>
        <time>2020-02-08T14:35:17Z</time>
      </trkpt>
      <trkpt lat="46.21129" lon="6.29598">
        <ele>540</ele>
        <time>2020-02-08T14:35:21Z</time>
      </trkpt>
      <trkpt lat="46.21107" lon="6.29576">
        <ele>538</ele>
        <time>2020-02-08T14:35:25Z</time>
      </trkpt>
      <trkpt lat="46.21084" lon="6.29556">
        <ele>537</ele>
        <time>2020-02-08T14:35:29Z</time>
      </trkpt>
      <trkpt lat="46.21059" lon="6.29537">
        <ele>535</ele>
        <time>2020-02-08T14:35:33Z</time>
      </trkpt>
      <trkpt lat="46.21032" lon="6.29519">
        <ele>535</ele>
        <time>2020-02-08T14:35:37Z</time>
      </trkpt>
      <trkpt lat="46.21004" lon="6.29503">
        <ele>535</ele>
        <time>2020-02-08T14:35:41Z</time>
      </trkpt>
      <trkpt lat="46.20977" lon="6.29486">
        <ele>536</ele>
        <time>2020-02-08T14:35:45Z</time>
      </trkpt>
      <trkpt lat="46.2095" lon="6.2947">
        <ele>536</ele>
        <time>2020-02-08T14:35:49Z</time>
      </trkpt>
      <trkpt lat="46.20922" lon="6.29453">
        <ele>535</ele>
        <time>2020-02-08T14:35:53Z</time>
      </trkpt>
      <trkpt lat="46.20895" lon="6.29437">
        <ele>535</ele>
        <time>2020-02-08T14:35:57Z</time>
      </trkpt>
      <trkpt lat="46.2087" lon="6.29421">
        <ele>535</ele>
        <time>2020-02-08T14:36:01Z</time>
      </trkpt>
      <trkpt lat="46.20845" lon="6.29404">
        <ele>535</ele>
        <time>2020-02-08T14:36:05Z</time>
      </trkpt>
      <trkpt lat="46.20821" lon="6.29386">
        <ele>535</ele>
        <time>2020-02-08T14:36:09Z</time>
      </trkpt>
      <trkpt lat="46.20797" lon="6.29365">
        <ele>535</ele>
        <time>2020-02-08T14:36:13Z</time>
      </trkpt>
      <trkpt lat="46.20774" lon="6.29342">
        <ele>536</ele>
        <time>2020-02-08T14:36:17Z</time>
      </trkpt>
      <trkpt lat="46.20751" lon="6.29317">
        <ele>537</ele>
        <time>2020-02-08T14:36:21Z</time>
      </trkpt>
      <trkpt lat="46.20731" lon="6.29285">
        <ele>535</ele>
        <time>2020-02-08T14:36:25Z</time>
      </trkpt>
      <trkpt lat="46.20718" lon="6.29246">
        <ele>534</ele>
        <time>2020-02-08T14:36:29Z</time>
      </trkpt>
      <trkpt lat="46.20714" lon="6.29203">
        <ele>535</ele>
        <time>2020-02-08T14:36:33Z</time>
      </trkpt>
      <trkpt lat="46.20718" lon="6.29158">
        <ele>534</ele>
        <time>2020-02-08T14:36:37Z</time>
      </trkpt>
      <trkpt lat="46.20731" lon="6.29116">
        <ele>535</ele>
        <time>2020-02-08T14:36:41Z</time>
      </trkpt>
      <trkpt lat="46.20745" lon="6.29073">
        <ele>539</ele>
        <time>2020-02-08T14:36:45Z</time>
      </trkpt>
      <trkpt lat="46.20754" lon="6.29031">
        <ele>542</ele>
        <time>2020-02-08T14:36:49Z</time>
      </trkpt>
      <trkpt lat="46.20755" lon="6.2899">
        <ele>542</ele>
        <time>2020-02-08T14:36:53Z</time>
      </trkpt>
      <trkpt lat="46.20748" lon="6.28948">
        <ele>540</ele>
        <time>2020-02-08T14:36:57Z</time>
      </trkpt>
      <trkpt lat="46.20732" lon="6.28911">
        <ele>537</ele>
        <time>2020-02-08T14:37:01Z</time>
      </trkpt>
      <trkpt lat="46.20711" lon="6.28876">
        <ele>535</ele>
        <time>2020-02-08T14:37:05Z</time>
      </trkpt>
      <trkpt lat="46.20689" lon="6.28843">
        <ele>536</ele>
        <time>2020-02-08T14:37:09Z</time>
      </trkpt>
      <trkpt lat="46.20666" lon="6.28809">
        <ele>536</ele>
        <time>2020-02-08T14:37:13Z</time>
      </trkpt>
      <trkpt lat="46.20644" lon="6.28774">
        <ele>532</ele>
        <time>2020-02-08T14:37:17Z</time>
      </trkpt>
      <trkpt lat="46.20619" lon="6.28738">
        <ele>530</ele>
        <time>2020-02-08T14:37:21Z</time>
      </trkpt>
      <trkpt lat="46.20602" lon="6.28696">
        <ele>528</ele>
        <time>2020-02-08T14:37:25Z</time>
      </trkpt>
      <trkpt lat="46.20623" lon="6.28662">
        <ele>526</ele>
        <time>2020-02-08T14:37:29Z</time>
      </trkpt>
      <trkpt lat="46.20652" lon="6.28639">
        <ele>528</ele>
        <time>2020-02-08T14:37:33Z</time>
      </trkpt>
      <trkpt lat="46.20677" lon="6.28627">
        <ele>528</ele>
        <time>2020-02-08T14:37:37Z</time>
      </trkpt>
      <trkpt lat="46.20672" lon="6.28596">
        <ele>526</ele>
        <time>2020-02-08T14:37:41Z</time>
      </trkpt>
      <trkpt lat="46.20652" lon="6.28567">
        <ele>524</ele>
        <time>2020-02-08T14:37:45Z</time>
      </trkpt>
      <trkpt lat="46.20636" lon="6.2853">
        <ele>523</ele>
        <time>2020-02-08T14:37:49Z</time>
      </trkpt>
      <trkpt lat="46.20621" lon="6.28488">
        <ele>523</ele>
        <time>2020-02-08T14:37:53Z</time>
      </trkpt>
      <trkpt lat="46.20605" lon="6.28445">
        <ele>523</ele>
        <time>2020-02-08T14:37:57Z</time>
      </trkpt>
      <trkpt lat="46.20589" lon="6.28401">
        <ele>522</ele>
        <time>2020-02-08T14:38:01Z</time>
      </trkpt>
      <trkpt lat="46.20577" lon="6.28357">
        <ele>519</ele>
        <time>2020-02-08T14:38:05Z</time>
      </trkpt>
      <trkpt lat="46.20598" lon="6.2833">
        <ele>519</ele>
        <time>2020-02-08T14:38:09Z</time>
      </trkpt>
      <trkpt lat="46.20626" lon="6.28309">
        <ele>518</ele>
        <time>2020-02-08T14:38:13Z</time>
      </trkpt>
      <trkpt lat="46.20655" lon="6.28288">
        <ele>518</ele>
        <time>2020-02-08T14:38:17Z</time>
      </trkpt>
      <trkpt lat="46.20684" lon="6.28266">
        <ele>519</ele>
        <time>2020-02-08T14:38:21Z</time>
      </trkpt>
      <trkpt lat="46.20712" lon="6.28244">
        <ele>518</ele>
        <time>2020-02-08T14:38:25Z</time>
      </trkpt>
      <trkpt lat="46.2074" lon="6.28222">
        <ele>517</ele>
        <time>2020-02-08T14:38:29Z</time>
      </trkpt>
      <trkpt lat="46.20766" lon="6.28202">
        <ele>517</ele>
        <time>2020-02-08T14:38:33Z</time>
      </trkpt>
      <trkpt lat="46.20778" lon="6.28173">
        <ele>516</ele>
        <time>2020-02-08T14:38:37Z</time>
      </trkpt>
      <trkpt lat="46.20768" lon="6.28139">
        <ele>514</ele>
        <time>2020-02-08T14:38:41Z</time>
      </trkpt>
      <trkpt lat="46.20756" lon="6.28103">
        <ele>513</ele>
        <time>2020-02-08T14:38:45Z</time>
      </trkpt>
      <trkpt lat="46.20742" lon="6.28066">
        <ele>513</ele>
        <time>2020-02-08T14:38:49Z</time>
      </trkpt>
      <trkpt lat="46.20728" lon="6.28027">
        <ele>513</ele>
        <time>2020-02-08T14:38:53Z</time>
      </trkpt>
      <trkpt lat="46.20714" lon="6.27989">
        <ele>513</ele>
        <time>2020-02-08T14:38:57Z</time>
      </trkpt>
      <trkpt lat="46.20704" lon="6.27963">
        <ele>513</ele>
        <time>2020-02-08T14:39:01Z</time>
      </trkpt>
      <trkpt lat="46.20696" lon="6.27945">
        <ele>513</ele>
        <time>2020-02-08T14:39:05Z</time>
      </trkpt>
      <trkpt lat="46.20686" lon="6.27917">
        <ele>513</ele>
        <time>2020-02-08T14:39:09Z</time>
      </trkpt>
      <trkpt lat="46.20675" lon="6.27884">
        <ele>511</ele>
        <time>2020-02-08T14:39:13Z</time>
      </trkpt>
      <trkpt lat="46.20662" lon="6.27848">
        <ele>509</ele>
        <time>2020-02-08T14:39:17Z</time>
      </trkpt>
      <trkpt lat="46.20648" lon="6.2781">
        <ele>509</ele>
        <time>2020-02-08T14:39:21Z</time>
      </trkpt>
      <trkpt lat="46.20634" lon="6.27772">
        <ele>509</ele>
        <time>2020-02-08T14:39:25Z</time>
      </trkpt>
      <trkpt lat="46.2062" lon="6.2773">
        <ele>509</ele>
        <time>2020-02-08T14:39:29Z</time>
      </trkpt>
      <trkpt lat="46.20605" lon="6.27688">
        <ele>508</ele>
        <time>2020-02-08T14:39:33Z</time>
      </trkpt>
      <trkpt lat="46.2059" lon="6.27647">
        <ele>508</ele>
        <time>2020-02-08T14:39:37Z</time>
      </trkpt>
      <trkpt lat="46.20575" lon="6.27605">
        <ele>508</ele>
        <time>2020-02-08T14:39:41Z</time>
      </trkpt>
      <trkpt lat="46.2056" lon="6.27565">
        <ele>507</ele>
        <time>2020-02-08T14:39:45Z</time>
      </trkpt>
      <trkpt lat="46.20542" lon="6.27528">
        <ele>507</ele>
        <time>2020-02-08T14:39:49Z</time>
      </trkpt>
      <trkpt lat="46.20513" lon="6.27523">
        <ele>506</ele>
        <time>2020-02-08T14:39:53Z</time>
      </trkpt>
      <trkpt lat="46.20486" lon="6.27542">
        <ele>507</ele>
        <time>2020-02-08T14:39:57Z</time>
      </trkpt>
      <trkpt lat="46.2046" lon="6.27562">
        <ele>507</ele>
        <time>2020-02-08T14:40:01Z</time>
      </trkpt>
      <trkpt lat="46.20436" lon="6.27575">
        <ele>507</ele>
        <time>2020-02-08T14:40:05Z</time>
      </trkpt>
      <trkpt lat="46.20422" lon="6.27553">
        <ele>507</ele>
        <time>2020-02-08T14:40:09Z</time>
      </trkpt>
      <trkpt lat="46.20409" lon="6.27518">
        <ele>506</ele>
        <time>2020-02-08T14:40:13Z</time>
      </trkpt>
      <trkpt lat="46.20392" lon="6.2748">
        <ele>504</ele>
        <time>2020-02-08T14:40:17Z</time>
      </trkpt>
      <trkpt lat="46.20377" lon="6.27441">
        <ele>502</ele>
        <time>2020-02-08T14:40:21Z</time>
      </trkpt>
      <trkpt lat="46.20363" lon="6.27401">
        <ele>502</ele>
        <time>2020-02-08T14:40:25Z</time>
      </trkpt>
      <trkpt lat="46.20348" lon="6.27359">
        <ele>500</ele>
        <time>2020-02-08T14:40:29Z</time>
      </trkpt>
      <trkpt lat="46.20333" lon="6.27319">
        <ele>500</ele>
        <time>2020-02-08T14:40:33Z</time>
      </trkpt>
      <trkpt lat="46.2032" lon="6.27281">
        <ele>500</ele>
        <time>2020-02-08T14:40:37Z</time>
      </trkpt>
      <trkpt lat="46.20325" lon="6.27255">
        <ele>500</ele>
        <time>2020-02-08T14:40:41Z</time>
      </trkpt>
      <trkpt lat="46.20347" lon="6.27234">
        <ele>500</ele>
        <time>2020-02-08T14:40:45Z</time>
      </trkpt>
      <trkpt lat="46.20373" lon="6.2721">
        <ele>501</ele>
        <time>2020-02-08T14:40:49Z</time>
      </trkpt>
      <trkpt lat="46.20396" lon="6.2718">
        <ele>503</ele>
        <time>2020-02-08T14:40:53Z</time>
      </trkpt>
      <trkpt lat="46.20407" lon="6.27137">
        <ele>501</ele>
        <time>2020-02-08T14:40:57Z</time>
      </trkpt>
      <trkpt lat="46.20411" lon="6.27089">
        <ele>498</ele>
        <time>2020-02-08T14:41:01Z</time>
      </trkpt>
      <trkpt lat="46.20413" lon="6.27041">
        <ele>497</ele>
        <time>2020-02-08T14:41:05Z</time>
      </trkpt>
      <trkpt lat="46.20416" lon="6.26993">
        <ele>496</ele>
        <time>2020-02-08T14:41:09Z</time>
      </trkpt>
      <trkpt lat="46.20419" lon="6.26944">
        <ele>496</ele>
        <time>2020-02-08T14:41:13Z</time>
      </trkpt>
      <trkpt lat="46.20422" lon="6.26894">
        <ele>493</ele>
        <time>2020-02-08T14:41:17Z</time>
      </trkpt>
      <trkpt lat="46.20425" lon="6.26844">
        <ele>493</ele>
        <time>2020-02-08T14:41:21Z</time>
      </trkpt>
      <trkpt lat="46.20426" lon="6.26795">
        <ele>490</ele>
        <time>2020-02-08T14:41:25Z</time>
      </trkpt>
      <trkpt lat="46.20409" lon="6.26754">
        <ele>489</ele>
        <time>2020-02-08T14:41:29Z</time>
      </trkpt>
      <trkpt lat="46.20392" lon="6.26714">
        <ele>489</ele>
        <time>2020-02-08T14:41:33Z</time>
      </trkpt>
      <trkpt lat="46.20389" lon="6.26666">
        <ele>488</ele>
        <time>2020-02-08T14:41:37Z</time>
      </trkpt>
      <trkpt lat="46.20392" lon="6.26617">
        <ele>487</ele>
        <time>2020-02-08T14:41:41Z</time>
      </trkpt>
      <trkpt lat="46.20394" lon="6.26568">
        <ele>486</ele>
        <time>2020-02-08T14:41:45Z</time>
      </trkpt>
      <trkpt lat="46.20403" lon="6.26524">
        <ele>484</ele>
        <time>2020-02-08T14:41:49Z</time>
      </trkpt>
      <trkpt lat="46.20398" lon="6.26492">
        <ele>484</ele>
        <time>2020-02-08T14:41:53Z</time>
      </trkpt>
      <trkpt lat="46.20373" lon="6.26499">
        <ele>485</ele>
        <time>2020-02-08T14:41:57Z</time>
      </trkpt>
      <trkpt lat="46.20345" lon="6.26497">
        <ele>487</ele>
        <time>2020-02-08T14:42:01Z</time>
      </trkpt>
      <trkpt lat="46.20317" lon="6.26493">
        <ele>487</ele>
        <time>2020-02-08T14:42:05Z</time>
      </trkpt>
      <trkpt lat="46.20288" lon="6.2649">
        <ele>487</ele>
        <time>2020-02-08T14:42:09Z</time>
      </trkpt>
      <trkpt lat="46.20259" lon="6.26487">
        <ele>487</ele>
        <time>2020-02-08T14:42:13Z</time>
      </trkpt>
      <trkpt lat="46.2023" lon="6.26485">
        <ele>488</ele>
        <time>2020-02-08T14:42:17Z</time>
      </trkpt>
      <trkpt lat="46.20203" lon="6.2647">
        <ele>487</ele>
        <time>2020-02-08T14:42:21Z</time>
      </trkpt>
      <trkpt lat="46.20179" lon="6.26444">
        <ele>486</ele>
        <time>2020-02-08T14:42:25Z</time>
      </trkpt>
      <trkpt lat="46.20155" lon="6.26427">
        <ele>485</ele>
        <time>2020-02-08T14:42:29Z</time>
      </trkpt>
      <trkpt lat="46.20131" lon="6.26421">
        <ele>485</ele>
        <time>2020-02-08T14:42:33Z</time>
      </trkpt>
      <trkpt lat="46.20112" lon="6.26406">
        <ele>484</ele>
        <time>2020-02-08T14:42:37Z</time>
      </trkpt>
      <trkpt lat="46.20089" lon="6.26418">
        <ele>485</ele>
        <time>2020-02-08T14:42:41Z</time>
      </trkpt>
      <trkpt lat="46.20065" lon="6.2643">
        <ele>487</ele>
        <time>2020-02-08T14:42:45Z</time>
      </trkpt>
      <trkpt lat="46.20038" lon="6.26432">
        <ele>486</ele>
        <time>2020-02-08T14:42:49Z</time>
      </trkpt>
      <trkpt lat="46.2001" lon="6.26424">
        <ele>485</ele>
        <time>2020-02-08T14:42:53Z</time>
      </trkpt>
      <trkpt lat="46.19981" lon="6.26416">
        <ele>484</ele>
        <time>2020-02-08T14:42:57Z</time>
      </trkpt>
      <trkpt lat="46.19952" lon="6.26407">
        <ele>484</ele>
        <time>2020-02-08T14:43:01Z</time>
      </trkpt>
      <trkpt lat="46.19922" lon="6.26399">
        <ele>484</ele>
        <time>2020-02-08T14:43:05Z</time>
      </trkpt>
      <trkpt lat="46.1989" lon="6.2639">
        <ele>484</ele>
        <time>2020-02-08T14:43:09Z</time>
      </trkpt>
      <trkpt lat="46.19859" lon="6.26381">
        <ele>483</ele>
        <time>2020-02-08T14:43:13Z</time>
      </trkpt>
      <trkpt lat="46.19827" lon="6.26372">
        <ele>483</ele>
        <time>2020-02-08T14:43:17Z</time>
      </trkpt>
      <trkpt lat="46.19794" lon="6.26362">
        <ele>483</ele>
        <time>2020-02-08T14:43:21Z</time>
      </trkpt>
      <trkpt lat="46.19762" lon="6.26353">
        <ele>482</ele>
        <time>2020-02-08T14:43:25Z</time>
      </trkpt>
      <trkpt lat="46.1973" lon="6.26341">
        <ele>480</ele>
        <time>2020-02-08T14:43:29Z</time>
      </trkpt>
      <trkpt lat="46.19707" lon="6.26313">
        <ele>479</ele>
        <time>2020-02-08T14:43:33Z</time>
      </trkpt>
      <trkpt lat="46.19692" lon="6.26277">
        <ele>479</ele>
        <time>2020-02-08T14:43:37Z</time>
      </trkpt>
      <trkpt lat="46.19682" lon="6.2625">
        <ele>478</ele>
        <time>2020-02-08T14:43:41Z</time>
      </trkpt>
      <trkpt lat="46.19681" lon="6.26235">
        <ele>478</ele>
        <time>2020-02-08T14:43:45Z</time>
      </trkpt>
      <trkpt lat="46.19674" lon="6.26209">
        <ele>477</ele>
        <time>2020-02-08T14:43:49Z</time>
      </trkpt>
      <trkpt lat="46.19668" lon="6.26175">
        <ele>477</ele>
        <time>2020-02-08T14:43:53Z</time>
      </trkpt>
      <trkpt lat="46.19664" lon="6.26143">
        <ele>477</ele>
        <time>2020-02-08T14:43:57Z</time>
      </trkpt>
      <trkpt lat="46.19658" lon="6.26105">
        <ele>476</ele>
        <time>2020-02-08T14:44:01Z</time>
      </trkpt>
      <trkpt lat="46.19652" lon="6.2606">
        <ele>476</ele>
        <time>2020-02-08T14:44:05Z</time>
      </trkpt>
      <trkpt lat="46.19645" lon="6.26015">
        <ele>476</ele>
        <time>2020-02-08T14:44:09Z</time>
      </trkpt>
      <trkpt lat="46.19637" lon="6.25966">
        <ele>474</ele>
        <time>2020-02-08T14:44:13Z</time>
      </trkpt>
      <trkpt lat="46.19629" lon="6.25914">
        <ele>473</ele>
        <time>2020-02-08T14:44:17Z</time>
      </trkpt>
      <trkpt lat="46.19621" lon="6.25862">
        <ele>472</ele>
        <time>2020-02-08T14:44:21Z</time>
      </trkpt>
      <trkpt lat="46.19613" lon="6.25809">
        <ele>471</ele>
        <time>2020-02-08T14:44:25Z</time>
      </trkpt>
      <trkpt lat="46.1961" lon="6.25757">
        <ele>469</ele>
        <time>2020-02-08T14:44:29Z</time>
      </trkpt>
      <trkpt lat="46.19613" lon="6.25716">
        <ele>468</ele>
        <time>2020-02-08T14:44:33Z</time>
      </trkpt>
      <trkpt lat="46.19617" lon="6.25695">
        <ele>467</ele>
        <time>2020-02-08T14:44:37Z</time>
      </trkpt>
      <trkpt lat="46.19623" lon="6.25672">
        <ele>466</ele>
        <time>2020-02-08T14:44:41Z</time>
      </trkpt>
      <trkpt lat="46.19631" lon="6.25634">
        <ele>464</ele>
        <time>2020-02-08T14:44:45Z</time>
      </trkpt>
      <trkpt lat="46.19641" lon="6.25587">
        <ele>463</ele>
        <time>2020-02-08T14:44:49Z</time>
      </trkpt>
      <trkpt lat="46.19652" lon="6.25536">
        <ele>462</ele>
        <time>2020-02-08T14:44:53Z</time>
      </trkpt>
      <trkpt lat="46.19661" lon="6.25485">
        <ele>460</ele>
        <time>2020-02-08T14:44:57Z</time>
      </trkpt>
      <trkpt lat="46.19669" lon="6.25445">
        <ele>459</ele>
        <time>2020-02-08T14:45:01Z</time>
      </trkpt>
      <trkpt lat="46.19657" lon="6.25427">
        <ele>458</ele>
        <time>2020-02-08T14:45:05Z</time>
      </trkpt>
      <trkpt lat="46.19638" lon="6.25427">
        <ele>458</ele>
        <time>2020-02-08T14:45:09Z</time>
      </trkpt>
      <trkpt lat="46.19627" lon="6.25424">
        <ele>458</ele>
        <time>2020-02-08T14:45:13Z</time>
      </trkpt>
      <trkpt lat="46.19615" lon="6.2544">
        <ele>458</ele>
        <time>2020-02-08T14:45:17Z</time>
      </trkpt>
      <trkpt lat="46.19599" lon="6.25457">
        <ele>459</ele>
        <time>2020-02-08T14:45:21Z</time>
      </trkpt>
      <trkpt lat="46.19584" lon="6.25468">
        <ele>460</ele>
        <time>2020-02-08T14:45:25Z</time>
      </trkpt>
      <trkpt lat="46.19573" lon="6.25469">
        <ele>460</ele>
        <time>2020-02-08T14:45:29Z</time>
      </trkpt>
      <trkpt lat="46.19548" lon="6.2547">
        <ele>461</ele>
        <time>2020-02-08T14:45:33Z</time>
      </trkpt>
      <trkpt lat="46.19523" lon="6.2547">
        <ele>461</ele>
        <time>2020-02-08T14:45:37Z</time>
      </trkpt>
      <trkpt lat="46.19507" lon="6.2547">
        <ele>461</ele>
        <time>2020-02-08T14:45:41Z</time>
      </trkpt>
      <trkpt lat="46.19496" lon="6.25465">
        <ele>461</ele>
        <time>2020-02-08T14:45:45Z</time>
      </trkpt>
      <trkpt lat="46.19481" lon="6.25464">
        <ele>461</ele>
        <time>2020-02-08T14:45:49Z</time>
      </trkpt>
      <trkpt lat="46.1946" lon="6.25461">
        <ele>461</ele>
        <time>2020-02-08T14:45:53Z</time>
      </trkpt>
      <trkpt lat="46.1944" lon="6.25456">
        <ele>461</ele>
        <time>2020-02-08T14:45:57Z</time>
      </trkpt>
      <trkpt lat="46.19432" lon="6.25442">
        <ele>460</ele>
        <time>2020-02-08T14:46:01Z</time>
      </trkpt>
      <trkpt lat="46.19431" lon="6.25409">
        <ele>458</ele>
        <time>2020-02-08T14:46:05Z</time>
      </trkpt>
      <trkpt lat="46.19428" lon="6.25367">
        <ele>457</ele>
        <time>2020-02-08T14:46:09Z</time>
      </trkpt>
      <trkpt lat="46.19425" lon="6.25322">
        <ele>458</ele>
        <time>2020-02-08T14:46:13Z</time>
      </trkpt>
      <trkpt lat="46.19434" lon="6.25274">
        <ele>454</ele>
        <time>2020-02-08T14:46:17Z</time>
      </trkpt>
      <trkpt lat="46.1944" lon="6.25225">
        <ele>452</ele>
        <time>2020-02-08T14:46:21Z</time>
      </trkpt>
      <trkpt lat="46.19443" lon="6.25176">
        <ele>452</ele>
        <time>2020-02-08T14:46:25Z</time>
      </trkpt>
      <trkpt lat="46.19445" lon="6.25143">
        <ele>451</ele>
        <time>2020-02-08T14:46:29Z</time>
      </trkpt>
      <trkpt lat="46.19445" lon="6.25117">
        <ele>450</ele>
        <time>2020-02-08T14:46:33Z</time>
      </trkpt>
      <trkpt lat="46.19422" lon="6.25103">
        <ele>450</ele>
        <time>2020-02-08T14:46:37Z</time>
      </trkpt>
      <trkpt lat="46.19398" lon="6.25089">
        <ele>450</ele>
        <time>2020-02-08T14:46:41Z</time>
      </trkpt>
      <trkpt lat="46.19375" lon="6.25098">
        <ele>452</ele>
        <time>2020-02-08T14:46:45Z</time>
      </trkpt>
      <trkpt lat="46.19352" lon="6.25102">
        <ele>454</ele>
        <time>2020-02-08T14:46:49Z</time>
      </trkpt>
      <trkpt lat="46.19329" lon="6.25104">
        <ele>454</ele>
        <time>2020-02-08T14:46:53Z</time>
      </trkpt>
      <trkpt lat="46.19305" lon="6.25106">
        <ele>455</ele>
        <time>2020-02-08T14:46:57Z</time>
      </trkpt>
      <trkpt lat="46.19283" lon="6.25108">
        <ele>455</ele>
        <time>2020-02-08T14:47:01Z</time>
      </trkpt>
      <trkpt lat="46.19273" lon="6.25107">
        <ele>456</ele>
        <time>2020-02-08T14:47:09Z</time>
      </trkpt>
      <trkpt lat="46.19273" lon="6.25102">
        <ele>456</ele>
        <time>2020-02-08T14:47:13Z</time>
      </trkpt>
      <trkpt lat="46.19274" lon="6.25099">
        <ele>456</ele>
        <time>2020-02-08T14:47:17Z</time>
      </trkpt>
      <trkpt lat="46.19276" lon="6.25096">
        <ele>456</ele>
        <time>2020-02-08T14:47:25Z</time>
      </trkpt>
      <trkpt lat="46.19276" lon="6.2509">
        <ele>456</ele>
        <time>2020-02-08T14:47:29Z</time>
      </trkpt>
      <trkpt lat="46.19276" lon="6.25078">
        <ele>456</ele>
        <time>2020-02-08T14:47:33Z</time>
      </trkpt>
      <trkpt lat="46.19277" lon="6.25062">
        <ele>456</ele>
        <time>2020-02-08T14:47:37Z</time>
      </trkpt>
      <trkpt lat="46.19278" lon="6.25042">
        <ele>456</ele>
        <time>2020-02-08T14:47:41Z</time>
      </trkpt>
      <trkpt lat="46.1928" lon="6.25022">
        <ele>456</ele>
        <time>2020-02-08T14:47:45Z</time>
      </trkpt>
      <trkpt lat="46.19287" lon="6.25016">
        <ele>455</ele>
        <time>2020-02-08T14:47:53Z</time>
      </trkpt>
      <trkpt lat="46.19272" lon="6.25009">
        <ele>455</ele>
        <time>2020-02-08T14:49:17Z</time>
      </trkpt>
      <trkpt lat="46.19269" lon="6.2501">
        <ele>455</ele>
        <time>2020-02-08T14:49:33Z</time>
      </trkpt>
      <trkpt lat="46.19268" lon="6.25009">
        <ele>455</ele>
        <time>2020-02-08T14:49:37Z</time>
      </trkpt>
      <trkpt lat="46.19266" lon="6.25005">
        <ele>454</ele>
        <time>2020-02-08T14:49:45Z</time>
      </trkpt>
      <trkpt lat="46.19264" lon="6.25004">
        <ele>454</ele>
        <time>2020-02-08T14:49:49Z</time>
      </trkpt>
      <trkpt lat="46.19264" lon="6.24997">
        <ele>454</ele>
        <time>2020-02-08T14:49:53Z</time>
      </trkpt>
    </trkseg>
  </trk>
</gpx>